<?xml version="1.0" encoding="UTF-8" standalone="no" ?>
<gpx xmlns="http://www.topografix.com/GPX/1/1" xmlns:xsi="http://www.w3.org/2001/XMLSchema-instance" xsi:schemaLocation="http://www.topografix.com/GPX/1/1 http://www.topografix.com/GPX/1/1/gpx.xsd" version="1.1" creator="VisuGPX - https://www.visugpx.com">
  <metadata>
    <name>GTV Haut Plateaux et Balcon 5m</name>
  </metadata>
  <trk>
    <name><![CDATA[Saint Nizier - Correncons]]></name>
    <trkseg>
      <trkpt lat="45.17049" lon="5.62747">
        <ele>1169.5429688</ele>
      </trkpt>
      <trkpt lat="45.17049" lon="5.62747">
        <ele>1169.5429688</ele>
      </trkpt>
      <trkpt lat="45.17022" lon="5.62722">
        <ele>1170.6835938</ele>
      </trkpt>
      <trkpt lat="45.16982" lon="5.62696">
        <ele>1173.21875</ele>
      </trkpt>
      <trkpt lat="45.16982" lon="5.62696">
        <ele>1173.2226563</ele>
      </trkpt>
      <trkpt lat="45.16942" lon="5.62671">
        <ele>1177.6445313</ele>
      </trkpt>
      <trkpt lat="45.16923" lon="5.62641">
        <ele>1179.7734375</ele>
      </trkpt>
      <trkpt lat="45.16923" lon="5.62608">
        <ele>1177.3203125</ele>
      </trkpt>
      <trkpt lat="45.16925" lon="5.62572">
        <ele>1174.6289063</ele>
      </trkpt>
      <trkpt lat="45.16925" lon="5.62571">
        <ele>1174.5820313</ele>
      </trkpt>
      <trkpt lat="45.16929" lon="5.62531">
        <ele>1170.984375</ele>
      </trkpt>
      <trkpt lat="45.16927" lon="5.62496">
        <ele>1169.8671875</ele>
      </trkpt>
      <trkpt lat="45.16915" lon="5.62471">
        <ele>1169.5351563</ele>
      </trkpt>
      <trkpt lat="45.16902" lon="5.62453">
        <ele>1168.3632813</ele>
      </trkpt>
      <trkpt lat="45.16878" lon="5.62443">
        <ele>1166.828125</ele>
      </trkpt>
      <trkpt lat="45.16853" lon="5.62439">
        <ele>1164.9453125</ele>
      </trkpt>
      <trkpt lat="45.16832" lon="5.62443">
        <ele>1163.5429688</ele>
      </trkpt>
      <trkpt lat="45.16831" lon="5.62443">
        <ele>1163.4570313</ele>
      </trkpt>
      <trkpt lat="45.16804" lon="5.6245">
        <ele>1162.71875</ele>
      </trkpt>
      <trkpt lat="45.16768" lon="5.62458">
        <ele>1163.7851563</ele>
      </trkpt>
      <trkpt lat="45.16747" lon="5.62448">
        <ele>1163.984375</ele>
      </trkpt>
      <trkpt lat="45.16722" lon="5.6243">
        <ele>1163.2929688</ele>
      </trkpt>
      <trkpt lat="45.16721" lon="5.62429">
        <ele>1163.2265625</ele>
      </trkpt>
      <trkpt lat="45.16703" lon="5.62418">
        <ele>1163.3828125</ele>
      </trkpt>
      <trkpt lat="45.16658" lon="5.62396">
        <ele>1161.078125</ele>
      </trkpt>
      <trkpt lat="45.16657" lon="5.62396">
        <ele>1160.9804688</ele>
      </trkpt>
      <trkpt lat="45.16646" lon="5.62391">
        <ele>1159.1601563</ele>
      </trkpt>
      <trkpt lat="45.16621" lon="5.62398">
        <ele>1155.15625</ele>
      </trkpt>
      <trkpt lat="45.16599" lon="5.62424">
        <ele>1151.4726563</ele>
      </trkpt>
      <trkpt lat="45.16581" lon="5.62479">
        <ele>1150.015625</ele>
      </trkpt>
      <trkpt lat="45.16569" lon="5.62527">
        <ele>1152.296875</ele>
      </trkpt>
      <trkpt lat="45.16563" lon="5.62552">
        <ele>1157.56</ele>
        <time>2011-07-08T09:15:25Z</time>
      </trkpt>
      <trkpt lat="45.16562" lon="5.62561">
        <ele>1157.56</ele>
        <time>2011-07-08T09:15:24Z</time>
      </trkpt>
      <trkpt lat="45.16562" lon="5.62569">
        <ele>1158.53</ele>
        <time>2011-07-08T09:15:23Z</time>
      </trkpt>
      <trkpt lat="45.16547" lon="5.626">
        <ele>1161.89</ele>
        <time>2011-07-08T09:15:16Z</time>
      </trkpt>
      <trkpt lat="45.16544" lon="5.62605">
        <ele>1161.89</ele>
        <time>2011-07-08T09:15:15Z</time>
      </trkpt>
      <trkpt lat="45.16539" lon="5.62609">
        <ele>1162.37</ele>
        <time>2011-07-08T09:15:14Z</time>
      </trkpt>
      <trkpt lat="45.16534" lon="5.62614">
        <ele>1162.37</ele>
        <time>2011-07-08T09:15:13Z</time>
      </trkpt>
      <trkpt lat="45.16528" lon="5.62619">
        <ele>1162.37</ele>
        <time>2011-07-08T09:15:12Z</time>
      </trkpt>
      <trkpt lat="45.16524" lon="5.62623">
        <ele>1162.37</ele>
        <time>2011-07-08T09:15:11Z</time>
      </trkpt>
      <trkpt lat="45.16506" lon="5.62647">
        <ele>1160.45</ele>
        <time>2011-07-08T09:15:02Z</time>
      </trkpt>
      <trkpt lat="45.16478" lon="5.62665">
        <ele>1160.45</ele>
        <time>2011-07-08T09:14:52Z</time>
      </trkpt>
      <trkpt lat="45.1645" lon="5.6266">
        <ele>1161.89</ele>
        <time>2011-07-08T09:14:41Z</time>
      </trkpt>
      <trkpt lat="45.16426" lon="5.62654">
        <ele>1163.33</ele>
        <time>2011-07-08T09:14:30Z</time>
      </trkpt>
      <trkpt lat="45.16398" lon="5.62629">
        <ele>1164.29</ele>
        <time>2011-07-08T09:14:18Z</time>
      </trkpt>
      <trkpt lat="45.16378" lon="5.62602">
        <ele>1162.85</ele>
        <time>2011-07-08T09:14:03Z</time>
      </trkpt>
      <trkpt lat="45.16349" lon="5.62571">
        <ele>1161.89</ele>
        <time>2011-07-08T09:13:44Z</time>
      </trkpt>
      <trkpt lat="45.16315" lon="5.62554">
        <ele>1159.01</ele>
        <time>2011-07-08T09:13:25Z</time>
      </trkpt>
      <trkpt lat="45.16308" lon="5.62548">
        <ele>1158.53</ele>
        <time>2011-07-08T09:13:19Z</time>
      </trkpt>
      <trkpt lat="45.16307" lon="5.62544">
        <ele>1157.56</ele>
        <time>2011-07-08T09:13:17Z</time>
      </trkpt>
      <trkpt lat="45.1632" lon="5.62515">
        <ele>1150.84</ele>
        <time>2011-07-08T09:12:59Z</time>
      </trkpt>
      <trkpt lat="45.16323" lon="5.62507">
        <ele>1149.39</ele>
        <time>2011-07-08T09:12:54Z</time>
      </trkpt>
      <trkpt lat="45.16328" lon="5.62488">
        <ele>1146.03</ele>
        <time>2011-07-08T09:12:44Z</time>
      </trkpt>
      <trkpt lat="45.16308" lon="5.62473">
        <ele>1143.14</ele>
        <time>2011-07-08T09:12:33Z</time>
      </trkpt>
      <trkpt lat="45.16283" lon="5.62444">
        <ele>1137.38</ele>
        <time>2011-07-08T09:12:23Z</time>
      </trkpt>
      <trkpt lat="45.1628" lon="5.62439">
        <ele>1137.86</ele>
        <time>2011-07-08T09:12:22Z</time>
      </trkpt>
      <trkpt lat="45.16275" lon="5.62435">
        <ele>1137.86</ele>
        <time>2011-07-08T09:12:21Z</time>
      </trkpt>
      <trkpt lat="45.16254" lon="5.62417">
        <ele>1139.3</ele>
        <time>2011-07-08T09:12:16Z</time>
      </trkpt>
      <trkpt lat="45.16235" lon="5.62394">
        <ele>1144.11</ele>
        <time>2011-07-08T09:12:10Z</time>
      </trkpt>
      <trkpt lat="45.16216" lon="5.62347">
        <ele>1146.51</ele>
        <time>2011-07-08T09:11:59Z</time>
      </trkpt>
      <trkpt lat="45.16214" lon="5.62342">
        <ele>1146.51</ele>
        <time>2011-07-08T09:11:58Z</time>
      </trkpt>
      <trkpt lat="45.1621" lon="5.62329">
        <ele>1146.51</ele>
        <time>2011-07-08T09:11:56Z</time>
      </trkpt>
      <trkpt lat="45.16209" lon="5.62322">
        <ele>1146.51</ele>
        <time>2011-07-08T09:11:55Z</time>
      </trkpt>
      <trkpt lat="45.16208" lon="5.62316">
        <ele>1146.51</ele>
        <time>2011-07-08T09:11:54Z</time>
      </trkpt>
      <trkpt lat="45.16207" lon="5.62309">
        <ele>1146.51</ele>
        <time>2011-07-08T09:11:53Z</time>
      </trkpt>
      <trkpt lat="45.16206" lon="5.62302">
        <ele>1146.99</ele>
        <time>2011-07-08T09:11:52Z</time>
      </trkpt>
      <trkpt lat="45.16205" lon="5.62275">
        <ele>1149.87</ele>
        <time>2011-07-08T09:11:48Z</time>
      </trkpt>
      <trkpt lat="45.16204" lon="5.62268">
        <ele>1151.32</ele>
        <time>2011-07-08T09:11:47Z</time>
      </trkpt>
      <trkpt lat="45.16204" lon="5.62262">
        <ele>1152.28</ele>
        <time>2011-07-08T09:11:46Z</time>
      </trkpt>
      <trkpt lat="45.16204" lon="5.62228">
        <ele>1156.12</ele>
        <time>2011-07-08T09:11:38Z</time>
      </trkpt>
      <trkpt lat="45.16201" lon="5.6222">
        <ele>1157.08</ele>
        <time>2011-07-08T09:11:35Z</time>
      </trkpt>
      <trkpt lat="45.16173" lon="5.62191">
        <ele>1149.87</ele>
        <time>2011-07-08T09:11:23Z</time>
      </trkpt>
      <trkpt lat="45.16146" lon="5.62161">
        <ele>1146.99</ele>
        <time>2011-07-08T09:11:14Z</time>
      </trkpt>
      <trkpt lat="45.16144" lon="5.62157">
        <ele>1146.99</ele>
        <time>2011-07-08T09:11:13Z</time>
      </trkpt>
      <trkpt lat="45.16142" lon="5.62152">
        <ele>1146.99</ele>
        <time>2011-07-08T09:11:12Z</time>
      </trkpt>
      <trkpt lat="45.1614" lon="5.62146">
        <ele>1147.47</ele>
        <time>2011-07-08T09:11:11Z</time>
      </trkpt>
      <trkpt lat="45.16139" lon="5.6214">
        <ele>1147.47</ele>
        <time>2011-07-08T09:11:10Z</time>
      </trkpt>
      <trkpt lat="45.16139" lon="5.62134">
        <ele>1147.47</ele>
        <time>2011-07-08T09:11:09Z</time>
      </trkpt>
      <trkpt lat="45.16138" lon="5.62127">
        <ele>1147.47</ele>
        <time>2011-07-08T09:11:08Z</time>
      </trkpt>
      <trkpt lat="45.16138" lon="5.62105">
        <ele>1147.95</ele>
        <time>2011-07-08T09:11:05Z</time>
      </trkpt>
      <trkpt lat="45.16137" lon="5.62098">
        <ele>1147.95</ele>
        <time>2011-07-08T09:11:04Z</time>
      </trkpt>
      <trkpt lat="45.16136" lon="5.62092">
        <ele>1148.43</ele>
        <time>2011-07-08T09:11:03Z</time>
      </trkpt>
      <trkpt lat="45.16135" lon="5.62046">
        <ele>1149.39</ele>
        <time>2011-07-08T09:10:53Z</time>
      </trkpt>
      <trkpt lat="45.16133" lon="5.6204">
        <ele>1149.87</ele>
        <time>2011-07-08T09:10:51Z</time>
      </trkpt>
      <trkpt lat="45.16132" lon="5.62037">
        <ele>1149.87</ele>
        <time>2011-07-08T09:10:50Z</time>
      </trkpt>
      <trkpt lat="45.16132" lon="5.62033">
        <ele>1149.87</ele>
        <time>2011-07-08T09:10:49Z</time>
      </trkpt>
      <trkpt lat="45.1613" lon="5.62028">
        <ele>1149.87</ele>
        <time>2011-07-08T09:10:48Z</time>
      </trkpt>
      <trkpt lat="45.16129" lon="5.62023">
        <ele>1150.35</ele>
        <time>2011-07-08T09:10:47Z</time>
      </trkpt>
      <trkpt lat="45.16127" lon="5.62017">
        <ele>1150.84</ele>
        <time>2011-07-08T09:10:46Z</time>
      </trkpt>
      <trkpt lat="45.16124" lon="5.6201">
        <ele>1150.84</ele>
        <time>2011-07-08T09:10:45Z</time>
      </trkpt>
      <trkpt lat="45.16122" lon="5.62003">
        <ele>1151.32</ele>
        <time>2011-07-08T09:10:44Z</time>
      </trkpt>
      <trkpt lat="45.16104" lon="5.61969">
        <ele>1152.28</ele>
        <time>2011-07-08T09:10:40Z</time>
      </trkpt>
      <trkpt lat="45.161" lon="5.61959">
        <ele>1152.76</ele>
        <time>2011-07-08T09:10:39Z</time>
      </trkpt>
      <trkpt lat="45.16096" lon="5.61949">
        <ele>1153.24</ele>
        <time>2011-07-08T09:10:38Z</time>
      </trkpt>
      <trkpt lat="45.16093" lon="5.61937">
        <ele>1153.72</ele>
        <time>2011-07-08T09:10:37Z</time>
      </trkpt>
      <trkpt lat="45.16091" lon="5.61925">
        <ele>1154.68</ele>
        <time>2011-07-08T09:10:36Z</time>
      </trkpt>
      <trkpt lat="45.1609" lon="5.61902">
        <ele>1155.64</ele>
        <time>2011-07-08T09:10:34Z</time>
      </trkpt>
      <trkpt lat="45.1609" lon="5.6189">
        <ele>1156.12</ele>
        <time>2011-07-08T09:10:33Z</time>
      </trkpt>
      <trkpt lat="45.16093" lon="5.61861">
        <ele>1158.53</ele>
        <time>2011-07-08T09:10:30Z</time>
      </trkpt>
      <trkpt lat="45.16096" lon="5.61845">
        <ele>1159.97</ele>
        <time>2011-07-08T09:10:28Z</time>
      </trkpt>
      <trkpt lat="45.16098" lon="5.61838">
        <ele>1160.45</ele>
        <time>2011-07-08T09:10:27Z</time>
      </trkpt>
      <trkpt lat="45.16098" lon="5.61833">
        <ele>1161.41</ele>
        <time>2011-07-08T09:10:26Z</time>
      </trkpt>
      <trkpt lat="45.16099" lon="5.61828">
        <ele>1161.89</ele>
        <time>2011-07-08T09:10:25Z</time>
      </trkpt>
      <trkpt lat="45.16098" lon="5.61824">
        <ele>1162.37</ele>
        <time>2011-07-08T09:10:24Z</time>
      </trkpt>
      <trkpt lat="45.16097" lon="5.6182">
        <ele>1162.85</ele>
        <time>2011-07-08T09:10:23Z</time>
      </trkpt>
      <trkpt lat="45.16096" lon="5.61817">
        <ele>1163.33</ele>
        <time>2011-07-08T09:10:22Z</time>
      </trkpt>
      <trkpt lat="45.16095" lon="5.61813">
        <ele>1163.33</ele>
        <time>2011-07-08T09:10:21Z</time>
      </trkpt>
      <trkpt lat="45.16094" lon="5.6181">
        <ele>1163.81</ele>
        <time>2011-07-08T09:10:20Z</time>
      </trkpt>
      <trkpt lat="45.16092" lon="5.61808">
        <ele>1163.81</ele>
        <time>2011-07-08T09:10:19Z</time>
      </trkpt>
      <trkpt lat="45.1609" lon="5.61806">
        <ele>1164.29</ele>
        <time>2011-07-08T09:10:18Z</time>
      </trkpt>
      <trkpt lat="45.16088" lon="5.61805">
        <ele>1164.77</ele>
        <time>2011-07-08T09:10:17Z</time>
      </trkpt>
      <trkpt lat="45.16086" lon="5.61804">
        <ele>1164.77</ele>
        <time>2011-07-08T09:10:16Z</time>
      </trkpt>
      <trkpt lat="45.16083" lon="5.61804">
        <ele>1165.74</ele>
        <time>2011-07-08T09:10:14Z</time>
      </trkpt>
      <trkpt lat="45.16081" lon="5.61806">
        <ele>1165.74</ele>
        <time>2011-07-08T09:10:13Z</time>
      </trkpt>
      <trkpt lat="45.1608" lon="5.61807">
        <ele>1165.74</ele>
        <time>2011-07-08T09:10:12Z</time>
      </trkpt>
      <trkpt lat="45.16077" lon="5.61797">
        <ele>1164.77</ele>
        <time>2011-07-08T09:10:06Z</time>
      </trkpt>
      <trkpt lat="45.16077" lon="5.61795">
        <ele>1164.77</ele>
        <time>2011-07-08T09:10:05Z</time>
      </trkpt>
      <trkpt lat="45.16076" lon="5.61792">
        <ele>1164.29</ele>
        <time>2011-07-08T09:10:03Z</time>
      </trkpt>
      <trkpt lat="45.16076" lon="5.61791">
        <ele>1164.29</ele>
        <time>2011-07-08T09:10:02Z</time>
      </trkpt>
      <trkpt lat="45.16075" lon="5.61789">
        <ele>1164.29</ele>
        <time>2011-07-08T09:10:01Z</time>
      </trkpt>
      <trkpt lat="45.16073" lon="5.61788">
        <ele>1164.29</ele>
        <time>2011-07-08T09:10:00Z</time>
      </trkpt>
      <trkpt lat="45.16072" lon="5.61788">
        <ele>1163.81</ele>
        <time>2011-07-08T09:09:59Z</time>
      </trkpt>
      <trkpt lat="45.16071" lon="5.61786">
        <ele>1163.81</ele>
        <time>2011-07-08T09:09:58Z</time>
      </trkpt>
      <trkpt lat="45.16069" lon="5.61785">
        <ele>1163.81</ele>
        <time>2011-07-08T09:09:57Z</time>
      </trkpt>
      <trkpt lat="45.16068" lon="5.61784">
        <ele>1163.81</ele>
        <time>2011-07-08T09:09:56Z</time>
      </trkpt>
      <trkpt lat="45.16067" lon="5.61783">
        <ele>1163.81</ele>
        <time>2011-07-08T09:09:55Z</time>
      </trkpt>
      <trkpt lat="45.16065" lon="5.61782">
        <ele>1163.81</ele>
        <time>2011-07-08T09:09:54Z</time>
      </trkpt>
      <trkpt lat="45.16052" lon="5.61774">
        <ele>1161.89</ele>
        <time>2011-07-08T09:09:45Z</time>
      </trkpt>
      <trkpt lat="45.16051" lon="5.61773">
        <ele>1161.41</ele>
        <time>2011-07-08T09:09:44Z</time>
      </trkpt>
      <trkpt lat="45.16049" lon="5.61773">
        <ele>1161.41</ele>
        <time>2011-07-08T09:09:43Z</time>
      </trkpt>
      <trkpt lat="45.16041" lon="5.61771">
        <ele>1160.45</ele>
        <time>2011-07-08T09:09:38Z</time>
      </trkpt>
      <trkpt lat="45.16012" lon="5.61769">
        <ele>1157.56</ele>
        <time>2011-07-08T09:09:22Z</time>
      </trkpt>
      <trkpt lat="45.15991" lon="5.61772">
        <ele>1155.16</ele>
        <time>2011-07-08T09:09:08Z</time>
      </trkpt>
      <trkpt lat="45.15974" lon="5.61778">
        <ele>1153.72</ele>
        <time>2011-07-08T09:08:55Z</time>
      </trkpt>
      <trkpt lat="45.15958" lon="5.61785">
        <ele>1151.32</ele>
        <time>2011-07-08T09:08:44Z</time>
      </trkpt>
      <trkpt lat="45.15928" lon="5.61794">
        <ele>1148.91</ele>
        <time>2011-07-08T09:08:29Z</time>
      </trkpt>
      <trkpt lat="45.15901" lon="5.61797">
        <ele>1147.47</ele>
        <time>2011-07-08T09:08:15Z</time>
      </trkpt>
      <trkpt lat="45.15872" lon="5.61813">
        <ele>1145.07</ele>
        <time>2011-07-08T09:08:00Z</time>
      </trkpt>
      <trkpt lat="45.15871" lon="5.61815">
        <ele>1144.59</ele>
        <time>2011-07-08T09:07:59Z</time>
      </trkpt>
      <trkpt lat="45.15869" lon="5.61816">
        <ele>1144.59</ele>
        <time>2011-07-08T09:07:58Z</time>
      </trkpt>
      <trkpt lat="45.1586" lon="5.61828">
        <ele>1143.14</ele>
        <time>2011-07-08T09:07:52Z</time>
      </trkpt>
      <trkpt lat="45.15847" lon="5.61858">
        <ele>1137.86</ele>
        <time>2011-07-08T09:07:39Z</time>
      </trkpt>
      <trkpt lat="45.15846" lon="5.61861">
        <ele>1137.38</ele>
        <time>2011-07-08T09:07:38Z</time>
      </trkpt>
      <trkpt lat="45.15845" lon="5.61864">
        <ele>1137.38</ele>
        <time>2011-07-08T09:07:37Z</time>
      </trkpt>
      <trkpt lat="45.15831" lon="5.61891">
        <ele>1137.38</ele>
        <time>2011-07-08T09:07:26Z</time>
      </trkpt>
      <trkpt lat="45.15813" lon="5.61928">
        <ele>1140.26</ele>
        <time>2011-07-08T09:07:13Z</time>
      </trkpt>
      <trkpt lat="45.15796" lon="5.6195">
        <ele>1143.14</ele>
        <time>2011-07-08T09:07:04Z</time>
      </trkpt>
      <trkpt lat="45.15794" lon="5.61951">
        <ele>1143.14</ele>
        <time>2011-07-08T09:07:03Z</time>
      </trkpt>
      <trkpt lat="45.15792" lon="5.6195">
        <ele>1143.14</ele>
        <time>2011-07-08T09:07:02Z</time>
      </trkpt>
      <trkpt lat="45.15788" lon="5.61948">
        <ele>1143.14</ele>
        <time>2011-07-08T09:07:01Z</time>
      </trkpt>
      <trkpt lat="45.15784" lon="5.61946">
        <ele>1143.14</ele>
        <time>2011-07-08T09:07:00Z</time>
      </trkpt>
      <trkpt lat="45.15766" lon="5.61937">
        <ele>1143.63</ele>
        <time>2011-07-08T09:06:56Z</time>
      </trkpt>
      <trkpt lat="45.15746" lon="5.6193">
        <ele>1144.59</ele>
        <time>2011-07-08T09:06:51Z</time>
      </trkpt>
      <trkpt lat="45.15711" lon="5.61932">
        <ele>1143.63</ele>
        <time>2011-07-08T09:06:39Z</time>
      </trkpt>
      <trkpt lat="45.15682" lon="5.61926">
        <ele>1142.18</ele>
        <time>2011-07-08T09:06:26Z</time>
      </trkpt>
      <trkpt lat="45.15645" lon="5.61913">
        <ele>1142.18</ele>
        <time>2011-07-08T09:06:09Z</time>
      </trkpt>
      <trkpt lat="45.1562" lon="5.61904">
        <ele>1141.22</ele>
        <time>2011-07-08T09:05:55Z</time>
      </trkpt>
      <trkpt lat="45.1559" lon="5.61904">
        <ele>1136.9</ele>
        <time>2011-07-08T09:05:39Z</time>
      </trkpt>
      <trkpt lat="45.15589" lon="5.61904">
        <ele>1136.9</ele>
        <time>2011-07-08T09:05:38Z</time>
      </trkpt>
      <trkpt lat="45.15587" lon="5.61905">
        <ele>1136.9</ele>
        <time>2011-07-08T09:05:37Z</time>
      </trkpt>
      <trkpt lat="45.15569" lon="5.61906">
        <ele>1136.42</ele>
        <time>2011-07-08T09:05:26Z</time>
      </trkpt>
      <trkpt lat="45.15545" lon="5.61912">
        <ele>1135.45</ele>
        <time>2011-07-08T09:05:12Z</time>
      </trkpt>
      <trkpt lat="45.1552" lon="5.61922">
        <ele>1134.01</ele>
        <time>2011-07-08T09:04:57Z</time>
      </trkpt>
      <trkpt lat="45.15501" lon="5.61935">
        <ele>1131.61</ele>
        <time>2011-07-08T09:04:43Z</time>
      </trkpt>
      <trkpt lat="45.15472" lon="5.61944">
        <ele>1129.69</ele>
        <time>2011-07-08T09:04:26Z</time>
      </trkpt>
      <trkpt lat="45.15458" lon="5.61943">
        <ele>1128.24</ele>
        <time>2011-07-08T09:04:16Z</time>
      </trkpt>
      <trkpt lat="45.15436" lon="5.61934">
        <ele>1124.88</ele>
        <time>2011-07-08T09:04:01Z</time>
      </trkpt>
      <trkpt lat="45.15416" lon="5.61925">
        <ele>1122</ele>
        <time>2011-07-08T09:03:47Z</time>
      </trkpt>
      <trkpt lat="45.15415" lon="5.61924">
        <ele>1122</ele>
        <time>2011-07-08T09:03:46Z</time>
      </trkpt>
      <trkpt lat="45.15413" lon="5.61923">
        <ele>1122.48</ele>
        <time>2011-07-08T09:03:45Z</time>
      </trkpt>
      <trkpt lat="45.15408" lon="5.6192">
        <ele>1122</ele>
        <time>2011-07-08T09:03:41Z</time>
      </trkpt>
      <trkpt lat="45.15393" lon="5.61909">
        <ele>1120.07</ele>
        <time>2011-07-08T09:03:28Z</time>
      </trkpt>
      <trkpt lat="45.15392" lon="5.61908">
        <ele>1120.55</ele>
        <time>2011-07-08T09:03:27Z</time>
      </trkpt>
      <trkpt lat="45.15391" lon="5.61907">
        <ele>1120.07</ele>
        <time>2011-07-08T09:03:26Z</time>
      </trkpt>
      <trkpt lat="45.15382" lon="5.61893">
        <ele>1120.55</ele>
        <time>2011-07-08T09:03:17Z</time>
      </trkpt>
      <trkpt lat="45.15362" lon="5.61881">
        <ele>1118.15</ele>
        <time>2011-07-08T09:03:02Z</time>
      </trkpt>
      <trkpt lat="45.1536" lon="5.61881">
        <ele>1118.15</ele>
        <time>2011-07-08T09:03:01Z</time>
      </trkpt>
      <trkpt lat="45.15353" lon="5.61877">
        <ele>1116.71</ele>
        <time>2011-07-08T09:02:56Z</time>
      </trkpt>
      <trkpt lat="45.15336" lon="5.61869">
        <ele>1113.34</ele>
        <time>2011-07-08T09:02:42Z</time>
      </trkpt>
      <trkpt lat="45.15311" lon="5.61862">
        <ele>1112.38</ele>
        <time>2011-07-08T09:02:27Z</time>
      </trkpt>
      <trkpt lat="45.15287" lon="5.61867">
        <ele>1109.5</ele>
        <time>2011-07-08T09:02:14Z</time>
      </trkpt>
      <trkpt lat="45.15269" lon="5.6187">
        <ele>1107.58</ele>
        <time>2011-07-08T09:02:01Z</time>
      </trkpt>
      <trkpt lat="45.15247" lon="5.61874">
        <ele>1105.65</ele>
        <time>2011-07-08T09:01:48Z</time>
      </trkpt>
      <trkpt lat="45.15232" lon="5.61877">
        <ele>1103.73</ele>
        <time>2011-07-08T09:01:38Z</time>
      </trkpt>
      <trkpt lat="45.15212" lon="5.61882">
        <ele>1102.29</ele>
        <time>2011-07-08T09:01:27Z</time>
      </trkpt>
      <trkpt lat="45.15208" lon="5.61884">
        <ele>1102.29</ele>
        <time>2011-07-08T09:01:23Z</time>
      </trkpt>
      <trkpt lat="45.15188" lon="5.61891">
        <ele>1100.85</ele>
        <time>2011-07-08T09:01:10Z</time>
      </trkpt>
      <trkpt lat="45.15164" lon="5.61902">
        <ele>1097</ele>
        <time>2011-07-08T09:00:55Z</time>
      </trkpt>
      <trkpt lat="45.15141" lon="5.6191">
        <ele>1095.08</ele>
        <time>2011-07-08T09:00:42Z</time>
      </trkpt>
      <trkpt lat="45.15139" lon="5.6191">
        <ele>1095.08</ele>
        <time>2011-07-08T09:00:41Z</time>
      </trkpt>
      <trkpt lat="45.15137" lon="5.6191">
        <ele>1094.6</ele>
        <time>2011-07-08T09:00:40Z</time>
      </trkpt>
      <trkpt lat="45.15136" lon="5.61911">
        <ele>1094.12</ele>
        <time>2011-07-08T09:00:39Z</time>
      </trkpt>
      <trkpt lat="45.15135" lon="5.61912">
        <ele>1093.64</ele>
        <time>2011-07-08T09:00:38Z</time>
      </trkpt>
      <trkpt lat="45.15133" lon="5.61913">
        <ele>1093.64</ele>
        <time>2011-07-08T09:00:37Z</time>
      </trkpt>
      <trkpt lat="45.15132" lon="5.61914">
        <ele>1093.64</ele>
        <time>2011-07-08T09:00:36Z</time>
      </trkpt>
      <trkpt lat="45.1513" lon="5.61914">
        <ele>1094.12</ele>
        <time>2011-07-08T09:00:35Z</time>
      </trkpt>
      <trkpt lat="45.15122" lon="5.61918">
        <ele>1093.16</ele>
        <time>2011-07-08T09:00:30Z</time>
      </trkpt>
      <trkpt lat="45.15088" lon="5.61934">
        <ele>1097.48</ele>
        <time>2011-07-08T09:00:14Z</time>
      </trkpt>
      <trkpt lat="45.15061" lon="5.61951">
        <ele>1097</ele>
        <time>2011-07-08T09:00:01Z</time>
      </trkpt>
      <trkpt lat="45.1506" lon="5.61952">
        <ele>1096.52</ele>
        <time>2011-07-08T09:00:00Z</time>
      </trkpt>
      <trkpt lat="45.15058" lon="5.61953">
        <ele>1096.04</ele>
        <time>2011-07-08T08:59:59Z</time>
      </trkpt>
      <trkpt lat="45.15052" lon="5.6196">
        <ele>1094.6</ele>
        <time>2011-07-08T08:59:55Z</time>
      </trkpt>
      <trkpt lat="45.15031" lon="5.61967">
        <ele>1093.16</ele>
        <time>2011-07-08T08:59:43Z</time>
      </trkpt>
      <trkpt lat="45.15028" lon="5.61968">
        <ele>1092.68</ele>
        <time>2011-07-08T08:59:41Z</time>
      </trkpt>
      <trkpt lat="45.15008" lon="5.6197">
        <ele>1086.43</ele>
        <time>2011-07-08T08:59:29Z</time>
      </trkpt>
      <trkpt lat="45.15006" lon="5.6197">
        <ele>1085.95</ele>
        <time>2011-07-08T08:59:28Z</time>
      </trkpt>
      <trkpt lat="45.15004" lon="5.61969">
        <ele>1084.99</ele>
        <time>2011-07-08T08:59:27Z</time>
      </trkpt>
      <trkpt lat="45.14988" lon="5.61964">
        <ele>1083.06</ele>
        <time>2011-07-08T08:59:17Z</time>
      </trkpt>
      <trkpt lat="45.14966" lon="5.61963">
        <ele>1078.26</ele>
        <time>2011-07-08T08:59:03Z</time>
      </trkpt>
      <trkpt lat="45.14949" lon="5.61965">
        <ele>1072.97</ele>
        <time>2011-07-08T08:58:54Z</time>
      </trkpt>
      <trkpt lat="45.14922" lon="5.61967">
        <ele>1072.97</ele>
        <time>2011-07-08T08:58:42Z</time>
      </trkpt>
      <trkpt lat="45.14892" lon="5.6197">
        <ele>1073.45</ele>
        <time>2011-07-08T08:58:31Z</time>
      </trkpt>
      <trkpt lat="45.14858" lon="5.61975">
        <ele>1073.45</ele>
        <time>2011-07-08T08:58:18Z</time>
      </trkpt>
      <trkpt lat="45.14855" lon="5.61976">
        <ele>1073.45</ele>
        <time>2011-07-08T08:58:17Z</time>
      </trkpt>
      <trkpt lat="45.14853" lon="5.61976">
        <ele>1073.45</ele>
        <time>2011-07-08T08:58:16Z</time>
      </trkpt>
      <trkpt lat="45.1485" lon="5.61977">
        <ele>1073.93</ele>
        <time>2011-07-08T08:58:15Z</time>
      </trkpt>
      <trkpt lat="45.14848" lon="5.61977">
        <ele>1073.93</ele>
        <time>2011-07-08T08:58:14Z</time>
      </trkpt>
      <trkpt lat="45.14846" lon="5.61977">
        <ele>1074.41</ele>
        <time>2011-07-08T08:58:13Z</time>
      </trkpt>
      <trkpt lat="45.14837" lon="5.61979">
        <ele>1073.45</ele>
        <time>2011-07-08T08:58:08Z</time>
      </trkpt>
      <trkpt lat="45.14818" lon="5.61982">
        <ele>1072.01</ele>
        <time>2011-07-08T08:57:56Z</time>
      </trkpt>
      <trkpt lat="45.148" lon="5.61987">
        <ele>1069.12</ele>
        <time>2011-07-08T08:57:42Z</time>
      </trkpt>
      <trkpt lat="45.14786" lon="5.61993">
        <ele>1065.76</ele>
        <time>2011-07-08T08:57:30Z</time>
      </trkpt>
      <trkpt lat="45.14769" lon="5.61997">
        <ele>1065.76</ele>
        <time>2011-07-08T08:57:17Z</time>
      </trkpt>
      <trkpt lat="45.14768" lon="5.61997">
        <ele>1065.76</ele>
        <time>2011-07-08T08:57:16Z</time>
      </trkpt>
      <trkpt lat="45.14765" lon="5.61997">
        <ele>1066.24</ele>
        <time>2011-07-08T08:57:14Z</time>
      </trkpt>
      <trkpt lat="45.1475" lon="5.61997">
        <ele>1066.72</ele>
        <time>2011-07-08T08:57:04Z</time>
      </trkpt>
      <trkpt lat="45.14736" lon="5.61993">
        <ele>1063.84</ele>
        <time>2011-07-08T08:56:55Z</time>
      </trkpt>
      <trkpt lat="45.14715" lon="5.61977">
        <ele>1063.84</ele>
        <time>2011-07-08T08:56:40Z</time>
      </trkpt>
      <trkpt lat="45.14691" lon="5.61957">
        <ele>1068.16</ele>
        <time>2011-07-08T08:56:28Z</time>
      </trkpt>
      <trkpt lat="45.14666" lon="5.61949">
        <ele>1062.39</ele>
        <time>2011-07-08T08:56:14Z</time>
      </trkpt>
      <trkpt lat="45.14663" lon="5.61948">
        <ele>1061.43</ele>
        <time>2011-07-08T08:56:12Z</time>
      </trkpt>
      <trkpt lat="45.14656" lon="5.61946">
        <ele>1059.51</ele>
        <time>2011-07-08T08:56:09Z</time>
      </trkpt>
      <trkpt lat="45.14653" lon="5.61946">
        <ele>1059.51</ele>
        <time>2011-07-08T08:56:08Z</time>
      </trkpt>
      <trkpt lat="45.14628" lon="5.6194">
        <ele>1054.22</ele>
        <time>2011-07-08T08:55:57Z</time>
      </trkpt>
      <trkpt lat="45.14592" lon="5.61935">
        <ele>1050.86</ele>
        <time>2011-07-08T08:55:45Z</time>
      </trkpt>
      <trkpt lat="45.14566" lon="5.61917">
        <ele>1050.86</ele>
        <time>2011-07-08T08:55:31Z</time>
      </trkpt>
      <trkpt lat="45.14564" lon="5.61915">
        <ele>1050.86</ele>
        <time>2011-07-08T08:55:30Z</time>
      </trkpt>
      <trkpt lat="45.14562" lon="5.61914">
        <ele>1051.34</ele>
        <time>2011-07-08T08:55:29Z</time>
      </trkpt>
      <trkpt lat="45.1456" lon="5.61912">
        <ele>1051.34</ele>
        <time>2011-07-08T08:55:28Z</time>
      </trkpt>
      <trkpt lat="45.14558" lon="5.61911">
        <ele>1051.34</ele>
        <time>2011-07-08T08:55:27Z</time>
      </trkpt>
      <trkpt lat="45.14556" lon="5.61908">
        <ele>1051.34</ele>
        <time>2011-07-08T08:55:26Z</time>
      </trkpt>
      <trkpt lat="45.14554" lon="5.61906">
        <ele>1051.34</ele>
        <time>2011-07-08T08:55:25Z</time>
      </trkpt>
      <trkpt lat="45.14553" lon="5.61905">
        <ele>1051.34</ele>
        <time>2011-07-08T08:55:24Z</time>
      </trkpt>
      <trkpt lat="45.14532" lon="5.61868">
        <ele>1053.74</ele>
        <time>2011-07-08T08:55:10Z</time>
      </trkpt>
      <trkpt lat="45.14517" lon="5.61831">
        <ele>1054.22</ele>
        <time>2011-07-08T08:54:59Z</time>
      </trkpt>
      <trkpt lat="45.14515" lon="5.61815">
        <ele>1054.7</ele>
        <time>2011-07-08T08:54:56Z</time>
      </trkpt>
      <trkpt lat="45.14515" lon="5.61806">
        <ele>1054.7</ele>
        <time>2011-07-08T08:54:55Z</time>
      </trkpt>
      <trkpt lat="45.14521" lon="5.61789">
        <ele>1055.18</ele>
        <time>2011-07-08T08:54:52Z</time>
      </trkpt>
      <trkpt lat="45.14523" lon="5.61784">
        <ele>1055.67</ele>
        <time>2011-07-08T08:54:51Z</time>
      </trkpt>
      <trkpt lat="45.14524" lon="5.61778">
        <ele>1056.63</ele>
        <time>2011-07-08T08:54:50Z</time>
      </trkpt>
      <trkpt lat="45.14526" lon="5.61771">
        <ele>1057.11</ele>
        <time>2011-07-08T08:54:49Z</time>
      </trkpt>
      <trkpt lat="45.14527" lon="5.61764">
        <ele>1057.59</ele>
        <time>2011-07-08T08:54:48Z</time>
      </trkpt>
      <trkpt lat="45.14529" lon="5.61746">
        <ele>1059.51</ele>
        <time>2011-07-08T08:54:45Z</time>
      </trkpt>
      <trkpt lat="45.14529" lon="5.61739">
        <ele>1059.99</ele>
        <time>2011-07-08T08:54:44Z</time>
      </trkpt>
      <trkpt lat="45.14525" lon="5.61713">
        <ele>1061.91</ele>
        <time>2011-07-08T08:54:40Z</time>
      </trkpt>
      <trkpt lat="45.14524" lon="5.61698">
        <ele>1062.39</ele>
        <time>2011-07-08T08:54:38Z</time>
      </trkpt>
      <trkpt lat="45.1452" lon="5.61676">
        <ele>1063.36</ele>
        <time>2011-07-08T08:54:35Z</time>
      </trkpt>
      <trkpt lat="45.14518" lon="5.61668">
        <ele>1063.36</ele>
        <time>2011-07-08T08:54:34Z</time>
      </trkpt>
      <trkpt lat="45.14516" lon="5.61662">
        <ele>1063.36</ele>
        <time>2011-07-08T08:54:33Z</time>
      </trkpt>
      <trkpt lat="45.14514" lon="5.61656">
        <ele>1063.36</ele>
        <time>2011-07-08T08:54:32Z</time>
      </trkpt>
      <trkpt lat="45.14512" lon="5.61649">
        <ele>1063.36</ele>
        <time>2011-07-08T08:54:31Z</time>
      </trkpt>
      <trkpt lat="45.1451" lon="5.61641">
        <ele>1063.36</ele>
        <time>2011-07-08T08:54:30Z</time>
      </trkpt>
      <trkpt lat="45.1448" lon="5.61564">
        <ele>1065.76</ele>
        <time>2011-07-08T08:54:22Z</time>
      </trkpt>
      <trkpt lat="45.14465" lon="5.61499">
        <ele>1065.76</ele>
        <time>2011-07-08T08:54:15Z</time>
      </trkpt>
      <trkpt lat="45.14463" lon="5.61491">
        <ele>1065.76</ele>
        <time>2011-07-08T08:54:14Z</time>
      </trkpt>
      <trkpt lat="45.14461" lon="5.61484">
        <ele>1066.24</ele>
        <time>2011-07-08T08:54:13Z</time>
      </trkpt>
      <trkpt lat="45.14459" lon="5.61479">
        <ele>1066.24</ele>
        <time>2011-07-08T08:54:12Z</time>
      </trkpt>
      <trkpt lat="45.14457" lon="5.61474">
        <ele>1066.24</ele>
        <time>2011-07-08T08:54:11Z</time>
      </trkpt>
      <trkpt lat="45.14456" lon="5.61469">
        <ele>1066.24</ele>
        <time>2011-07-08T08:54:10Z</time>
      </trkpt>
      <trkpt lat="45.14455" lon="5.61464">
        <ele>1066.24</ele>
        <time>2011-07-08T08:54:09Z</time>
      </trkpt>
      <trkpt lat="45.14454" lon="5.61459">
        <ele>1066.24</ele>
        <time>2011-07-08T08:54:08Z</time>
      </trkpt>
      <trkpt lat="45.14456" lon="5.61436">
        <ele>1066.72</ele>
        <time>2011-07-08T08:54:04Z</time>
      </trkpt>
      <trkpt lat="45.14457" lon="5.61431">
        <ele>1066.72</ele>
        <time>2011-07-08T08:54:03Z</time>
      </trkpt>
      <trkpt lat="45.1446" lon="5.61424">
        <ele>1066.72</ele>
        <time>2011-07-08T08:54:02Z</time>
      </trkpt>
      <trkpt lat="45.1447" lon="5.61408">
        <ele>1067.2</ele>
        <time>2011-07-08T08:53:59Z</time>
      </trkpt>
      <trkpt lat="45.14473" lon="5.61403">
        <ele>1067.2</ele>
        <time>2011-07-08T08:53:58Z</time>
      </trkpt>
      <trkpt lat="45.14481" lon="5.61391">
        <ele>1067.2</ele>
        <time>2011-07-08T08:53:55Z</time>
      </trkpt>
      <trkpt lat="45.14513" lon="5.61334">
        <ele>1070.08</ele>
        <time>2011-07-08T08:53:47Z</time>
      </trkpt>
      <trkpt lat="45.14545" lon="5.6129">
        <ele>1072.97</ele>
        <time>2011-07-08T08:53:42Z</time>
      </trkpt>
      <trkpt lat="45.14556" lon="5.61269">
        <ele>1074.41</ele>
        <time>2011-07-08T08:53:40Z</time>
      </trkpt>
      <trkpt lat="45.14586" lon="5.61166">
        <ele>1081.62</ele>
        <time>2011-07-08T08:53:31Z</time>
      </trkpt>
      <trkpt lat="45.14593" lon="5.61148">
        <ele>1082.1</ele>
        <time>2011-07-08T08:53:29Z</time>
      </trkpt>
      <trkpt lat="45.14597" lon="5.61141">
        <ele>1082.58</ele>
        <time>2011-07-08T08:53:28Z</time>
      </trkpt>
      <trkpt lat="45.14609" lon="5.61126">
        <ele>1083.06</ele>
        <time>2011-07-08T08:53:25Z</time>
      </trkpt>
      <trkpt lat="45.14626" lon="5.61091">
        <ele>1085.47</ele>
        <time>2011-07-08T08:53:17Z</time>
      </trkpt>
      <trkpt lat="45.14609" lon="5.61062">
        <ele>1089.31</ele>
        <time>2011-07-08T08:53:10Z</time>
      </trkpt>
      <trkpt lat="45.14583" lon="5.61049">
        <ele>1093.16</ele>
        <time>2011-07-08T08:53:04Z</time>
      </trkpt>
      <trkpt lat="45.14539" lon="5.61041">
        <ele>1093.64</ele>
        <time>2011-07-08T08:52:53Z</time>
      </trkpt>
      <trkpt lat="45.14533" lon="5.6104">
        <ele>1093.64</ele>
        <time>2011-07-08T08:52:52Z</time>
      </trkpt>
      <trkpt lat="45.14522" lon="5.61035">
        <ele>1086.3945313</ele>
      </trkpt>
      <trkpt lat="45.14507" lon="5.61034">
        <ele>1088.1953125</ele>
      </trkpt>
      <trkpt lat="45.14506" lon="5.61034">
        <ele>1088.3085938</ele>
      </trkpt>
      <trkpt lat="45.14491" lon="5.61029">
        <ele>1089.9960938</ele>
      </trkpt>
      <trkpt lat="45.1449" lon="5.61029">
        <ele>1090.15625</ele>
      </trkpt>
      <trkpt lat="45.14473" lon="5.61022">
        <ele>1092.1523438</ele>
      </trkpt>
      <trkpt lat="45.14459" lon="5.61017">
        <ele>1094.8046875</ele>
      </trkpt>
      <trkpt lat="45.14442" lon="5.61013">
        <ele>1098.46875</ele>
      </trkpt>
      <trkpt lat="45.14441" lon="5.61013">
        <ele>1098.6679688</ele>
      </trkpt>
      <trkpt lat="45.14426" lon="5.61009">
        <ele>1101.6445313</ele>
      </trkpt>
      <trkpt lat="45.1441" lon="5.61007">
        <ele>1070.57</ele>
        <time>2011-07-08T08:49:45Z</time>
      </trkpt>
      <trkpt lat="45.14398" lon="5.61002">
        <ele>1071.53</ele>
        <time>2011-07-08T08:49:42Z</time>
      </trkpt>
      <trkpt lat="45.14395" lon="5.60999">
        <ele>1072.01</ele>
        <time>2011-07-08T08:49:41Z</time>
      </trkpt>
      <trkpt lat="45.14393" lon="5.60994">
        <ele>1072.01</ele>
        <time>2011-07-08T08:49:40Z</time>
      </trkpt>
      <trkpt lat="45.14393" lon="5.60989">
        <ele>1072.01</ele>
        <time>2011-07-08T08:49:39Z</time>
      </trkpt>
      <trkpt lat="45.14392" lon="5.60985">
        <ele>1072.49</ele>
        <time>2011-07-08T08:49:38Z</time>
      </trkpt>
      <trkpt lat="45.14409" lon="5.60937">
        <ele>1078.26</ele>
        <time>2011-07-08T08:49:30Z</time>
      </trkpt>
      <trkpt lat="45.14412" lon="5.60931">
        <ele>1078.74</ele>
        <time>2011-07-08T08:49:29Z</time>
      </trkpt>
      <trkpt lat="45.14433" lon="5.60903">
        <ele>1083.06</ele>
        <time>2011-07-08T08:49:23Z</time>
      </trkpt>
      <trkpt lat="45.14459" lon="5.60883">
        <ele>1093.16</ele>
        <time>2011-07-08T08:49:12Z</time>
      </trkpt>
      <trkpt lat="45.14461" lon="5.60881">
        <ele>1093.64</ele>
        <time>2011-07-08T08:49:11Z</time>
      </trkpt>
      <trkpt lat="45.14466" lon="5.60875">
        <ele>1096.04</ele>
        <time>2011-07-08T08:48:57Z</time>
      </trkpt>
      <trkpt lat="45.14488" lon="5.60851">
        <ele>1102.77</ele>
        <time>2011-07-08T08:48:46Z</time>
      </trkpt>
      <trkpt lat="45.14492" lon="5.60848">
        <ele>1103.25</ele>
        <time>2011-07-08T08:48:45Z</time>
      </trkpt>
      <trkpt lat="45.14495" lon="5.60845">
        <ele>1103.73</ele>
        <time>2011-07-08T08:48:44Z</time>
      </trkpt>
      <trkpt lat="45.14501" lon="5.60837">
        <ele>1104.69</ele>
        <time>2011-07-08T08:48:42Z</time>
      </trkpt>
      <trkpt lat="45.14528" lon="5.608">
        <ele>1109.02</ele>
        <time>2011-07-08T08:48:28Z</time>
      </trkpt>
      <trkpt lat="45.14551" lon="5.60768">
        <ele>1107.58</ele>
        <time>2011-07-08T08:48:17Z</time>
      </trkpt>
      <trkpt lat="45.14597" lon="5.60737">
        <ele>1110.94</ele>
        <time>2011-07-08T08:48:07Z</time>
      </trkpt>
      <trkpt lat="45.1461" lon="5.6073">
        <ele>1111.9</ele>
        <time>2011-07-08T08:48:05Z</time>
      </trkpt>
      <trkpt lat="45.14643" lon="5.6071">
        <ele>1113.82</ele>
        <time>2011-07-08T08:48:00Z</time>
      </trkpt>
      <trkpt lat="45.14649" lon="5.60707">
        <ele>1113.82</ele>
        <time>2011-07-08T08:47:59Z</time>
      </trkpt>
      <trkpt lat="45.14655" lon="5.60704">
        <ele>1114.31</ele>
        <time>2011-07-08T08:47:58Z</time>
      </trkpt>
      <trkpt lat="45.14661" lon="5.607">
        <ele>1114.31</ele>
        <time>2011-07-08T08:47:57Z</time>
      </trkpt>
      <trkpt lat="45.14666" lon="5.60695">
        <ele>1115.27</ele>
        <time>2011-07-08T08:47:56Z</time>
      </trkpt>
      <trkpt lat="45.14699" lon="5.60667">
        <ele>1118.15</ele>
        <time>2011-07-08T08:47:50Z</time>
      </trkpt>
      <trkpt lat="45.14744" lon="5.60627">
        <ele>1123.44</ele>
        <time>2011-07-08T08:47:41Z</time>
      </trkpt>
      <trkpt lat="45.14767" lon="5.60614">
        <ele>1126.32</ele>
        <time>2011-07-08T08:47:34Z</time>
      </trkpt>
      <trkpt lat="45.14792" lon="5.60596">
        <ele>1125.36</ele>
        <time>2011-07-08T08:47:22Z</time>
      </trkpt>
      <trkpt lat="45.14809" lon="5.6058">
        <ele>1130.17</ele>
        <time>2011-07-08T08:47:10Z</time>
      </trkpt>
      <trkpt lat="45.14812" lon="5.60578">
        <ele>1130.17</ele>
        <time>2011-07-08T08:47:09Z</time>
      </trkpt>
      <trkpt lat="45.1483" lon="5.60562">
        <ele>1128.73</ele>
        <time>2011-07-08T08:46:54Z</time>
      </trkpt>
      <trkpt lat="45.14838" lon="5.60559">
        <ele>1127.28</ele>
        <time>2011-07-08T08:46:47Z</time>
      </trkpt>
      <trkpt lat="45.1486" lon="5.60553">
        <ele>1123.92</ele>
        <time>2011-07-08T08:46:32Z</time>
      </trkpt>
      <trkpt lat="45.14865" lon="5.60553">
        <ele>1122.96</ele>
        <time>2011-07-08T08:46:28Z</time>
      </trkpt>
      <trkpt lat="45.14881" lon="5.60551">
        <ele>1121.03</ele>
        <time>2011-07-08T08:46:15Z</time>
      </trkpt>
      <trkpt lat="45.14885" lon="5.60551">
        <ele>1120.55</ele>
        <time>2011-07-08T08:46:12Z</time>
      </trkpt>
      <trkpt lat="45.14887" lon="5.60551">
        <ele>1120.07</ele>
        <time>2011-07-08T08:46:11Z</time>
      </trkpt>
      <trkpt lat="45.14903" lon="5.60551">
        <ele>1119.59</ele>
        <time>2011-07-08T08:45:57Z</time>
      </trkpt>
      <trkpt lat="45.14906" lon="5.60551">
        <ele>1119.59</ele>
        <time>2011-07-08T08:45:55Z</time>
      </trkpt>
      <trkpt lat="45.14909" lon="5.60553">
        <ele>1119.59</ele>
        <time>2011-07-08T08:45:51Z</time>
      </trkpt>
      <trkpt lat="45.14928" lon="5.60562">
        <ele>1116.71</ele>
        <time>2011-07-08T08:45:35Z</time>
      </trkpt>
      <trkpt lat="45.14933" lon="5.60566">
        <ele>1116.23</ele>
        <time>2011-07-08T08:45:31Z</time>
      </trkpt>
      <trkpt lat="45.14945" lon="5.60581">
        <ele>1113.82</ele>
        <time>2011-07-08T08:45:17Z</time>
      </trkpt>
      <trkpt lat="45.14956" lon="5.60592">
        <ele>1111.9</ele>
        <time>2011-07-08T08:45:02Z</time>
      </trkpt>
      <trkpt lat="45.14958" lon="5.60596">
        <ele>1112.38</ele>
        <time>2011-07-08T08:44:39Z</time>
      </trkpt>
      <trkpt lat="45.14958" lon="5.60598">
        <ele>1111.42</ele>
        <time>2011-07-08T08:44:19Z</time>
      </trkpt>
      <trkpt lat="45.1496" lon="5.606">
        <ele>1109.98</ele>
        <time>2011-07-08T08:44:06Z</time>
      </trkpt>
      <trkpt lat="45.14965" lon="5.60607">
        <ele>1105.17</ele>
        <time>2011-07-08T08:43:50Z</time>
      </trkpt>
      <trkpt lat="45.14976" lon="5.6061">
        <ele>1099.4</ele>
        <time>2011-07-08T08:43:34Z</time>
      </trkpt>
      <trkpt lat="45.14986" lon="5.60612">
        <ele>1096.52</ele>
        <time>2011-07-08T08:43:23Z</time>
      </trkpt>
      <trkpt lat="45.14996" lon="5.60611">
        <ele>1092.2</ele>
        <time>2011-07-08T08:43:13Z</time>
      </trkpt>
      <trkpt lat="45.15004" lon="5.60612">
        <ele>1088.35</ele>
        <time>2011-07-08T08:43:02Z</time>
      </trkpt>
      <trkpt lat="45.15017" lon="5.60612">
        <ele>1084.5</ele>
        <time>2011-07-08T08:42:40Z</time>
      </trkpt>
      <trkpt lat="45.15023" lon="5.60614">
        <ele>1086.43</ele>
        <time>2011-07-08T08:42:22Z</time>
      </trkpt>
      <trkpt lat="45.15031" lon="5.60618">
        <ele>1086.91</ele>
        <time>2011-07-08T08:42:14Z</time>
      </trkpt>
      <trkpt lat="45.15045" lon="5.60616">
        <ele>1086.91</ele>
        <time>2011-07-08T08:42:04Z</time>
      </trkpt>
      <trkpt lat="45.15055" lon="5.60612">
        <ele>1085.47</ele>
        <time>2011-07-08T08:41:57Z</time>
      </trkpt>
      <trkpt lat="45.15061" lon="5.60607">
        <ele>1084.02</ele>
        <time>2011-07-08T08:41:53Z</time>
      </trkpt>
      <trkpt lat="45.15064" lon="5.60605">
        <ele>1083.54</ele>
        <time>2011-07-08T08:41:51Z</time>
      </trkpt>
      <trkpt lat="45.15071" lon="5.606">
        <ele>1080.66</ele>
        <time>2011-07-08T08:41:46Z</time>
      </trkpt>
      <trkpt lat="45.15085" lon="5.606">
        <ele>1079.22</ele>
        <time>2011-07-08T08:41:40Z</time>
      </trkpt>
      <trkpt lat="45.15096" lon="5.60606">
        <ele>1079.7</ele>
        <time>2011-07-08T08:41:34Z</time>
      </trkpt>
      <trkpt lat="45.15114" lon="5.60608">
        <ele>1077.29</ele>
        <time>2011-07-08T08:41:23Z</time>
      </trkpt>
      <trkpt lat="45.15122" lon="5.60607">
        <ele>1077.78</ele>
        <time>2011-07-08T08:41:18Z</time>
      </trkpt>
      <trkpt lat="45.15124" lon="5.60607">
        <ele>1077.78</ele>
        <time>2011-07-08T08:41:16Z</time>
      </trkpt>
      <trkpt lat="45.15125" lon="5.60608">
        <ele>1078.26</ele>
        <time>2011-07-08T08:40:17Z</time>
      </trkpt>
      <trkpt lat="45.15139" lon="5.60608">
        <ele>1079.22</ele>
        <time>2011-07-08T08:40:02Z</time>
      </trkpt>
      <trkpt lat="45.15158" lon="5.60603">
        <ele>1082.1</ele>
        <time>2011-07-08T08:39:52Z</time>
      </trkpt>
      <trkpt lat="45.15163" lon="5.60605">
        <ele>1082.58</ele>
        <time>2011-07-08T08:39:49Z</time>
      </trkpt>
      <trkpt lat="45.15173" lon="5.60604">
        <ele>1084.5</ele>
        <time>2011-07-08T08:39:42Z</time>
      </trkpt>
      <trkpt lat="45.15178" lon="5.60604">
        <ele>1084.99</ele>
        <time>2011-07-08T08:39:39Z</time>
      </trkpt>
      <trkpt lat="45.1518" lon="5.60603">
        <ele>1085.47</ele>
        <time>2011-07-08T08:39:38Z</time>
      </trkpt>
      <trkpt lat="45.15193" lon="5.60602">
        <ele>1086.91</ele>
        <time>2011-07-08T08:38:42Z</time>
      </trkpt>
      <trkpt lat="45.15195" lon="5.60602">
        <ele>1086.43</ele>
        <time>2011-07-08T08:38:29Z</time>
      </trkpt>
      <trkpt lat="45.15198" lon="5.60605">
        <ele>1086.43</ele>
        <time>2011-07-08T08:38:26Z</time>
      </trkpt>
      <trkpt lat="45.15198" lon="5.60605">
        <ele>1086.43</ele>
        <time>2011-07-08T08:37:17Z</time>
      </trkpt>
      <trkpt lat="45.152" lon="5.60607">
        <ele>1085.47</ele>
        <time>2011-07-08T08:36:46Z</time>
      </trkpt>
      <trkpt lat="45.15197" lon="5.60606">
        <ele>1085.47</ele>
        <time>2011-07-08T08:18:18Z</time>
      </trkpt>
      <trkpt lat="45.15193" lon="5.60607">
        <ele>1085.47</ele>
        <time>2011-07-08T08:18:02Z</time>
      </trkpt>
      <trkpt lat="45.15182" lon="5.60601">
        <ele>1084.5</ele>
        <time>2011-07-08T08:17:56Z</time>
      </trkpt>
      <trkpt lat="45.15164" lon="5.60604">
        <ele>1082.58</ele>
        <time>2011-07-08T08:17:50Z</time>
      </trkpt>
      <trkpt lat="45.15157" lon="5.60605">
        <ele>1082.58</ele>
        <time>2011-07-08T08:17:48Z</time>
      </trkpt>
      <trkpt lat="45.15144" lon="5.60609">
        <ele>1082.58</ele>
        <time>2011-07-08T08:17:43Z</time>
      </trkpt>
      <trkpt lat="45.15133" lon="5.60609">
        <ele>1083.54</ele>
        <time>2011-07-08T08:17:38Z</time>
      </trkpt>
      <trkpt lat="45.15131" lon="5.60609">
        <ele>1084.02</ele>
        <time>2011-07-08T08:17:37Z</time>
      </trkpt>
      <trkpt lat="45.15129" lon="5.60609">
        <ele>1084.5</ele>
        <time>2011-07-08T08:17:36Z</time>
      </trkpt>
      <trkpt lat="45.15108" lon="5.6061">
        <ele>1085.95</ele>
        <time>2011-07-08T08:17:29Z</time>
      </trkpt>
      <trkpt lat="45.15102" lon="5.60611">
        <ele>1086.43</ele>
        <time>2011-07-08T08:17:28Z</time>
      </trkpt>
      <trkpt lat="45.15097" lon="5.6061">
        <ele>1086.91</ele>
        <time>2011-07-08T08:17:27Z</time>
      </trkpt>
      <trkpt lat="45.15092" lon="5.60608">
        <ele>1087.39</ele>
        <time>2011-07-08T08:17:26Z</time>
      </trkpt>
      <trkpt lat="45.15087" lon="5.60606">
        <ele>1088.35</ele>
        <time>2011-07-08T08:17:25Z</time>
      </trkpt>
      <trkpt lat="45.15083" lon="5.60603">
        <ele>1089.31</ele>
        <time>2011-07-08T08:17:24Z</time>
      </trkpt>
      <trkpt lat="45.15081" lon="5.60601">
        <ele>1089.31</ele>
        <time>2011-07-08T08:17:23Z</time>
      </trkpt>
      <trkpt lat="45.1508" lon="5.60598">
        <ele>1089.79</ele>
        <time>2011-07-08T08:17:22Z</time>
      </trkpt>
      <trkpt lat="45.15078" lon="5.60595">
        <ele>1089.79</ele>
        <time>2011-07-08T08:17:21Z</time>
      </trkpt>
      <trkpt lat="45.15076" lon="5.60592">
        <ele>1089.31</ele>
        <time>2011-07-08T08:17:20Z</time>
      </trkpt>
      <trkpt lat="45.15073" lon="5.60589">
        <ele>1088.83</ele>
        <time>2011-07-08T08:17:19Z</time>
      </trkpt>
      <trkpt lat="45.15071" lon="5.60588">
        <ele>1087.87</ele>
        <time>2011-07-08T08:17:18Z</time>
      </trkpt>
      <trkpt lat="45.15068" lon="5.60587">
        <ele>1086.91</ele>
        <time>2011-07-08T08:17:17Z</time>
      </trkpt>
      <trkpt lat="45.15066" lon="5.60586">
        <ele>1086.43</ele>
        <time>2011-07-08T08:17:16Z</time>
      </trkpt>
      <trkpt lat="45.15063" lon="5.60586">
        <ele>1085.95</ele>
        <time>2011-07-08T08:17:15Z</time>
      </trkpt>
      <trkpt lat="45.15061" lon="5.60585">
        <ele>1085.47</ele>
        <time>2011-07-08T08:17:14Z</time>
      </trkpt>
      <trkpt lat="45.15055" lon="5.6058">
        <ele>1084.5</ele>
        <time>2011-07-08T08:17:09Z</time>
      </trkpt>
      <trkpt lat="45.15054" lon="5.60578">
        <ele>1084.02</ele>
        <time>2011-07-08T08:17:08Z</time>
      </trkpt>
      <trkpt lat="45.15053" lon="5.60576">
        <ele>1084.02</ele>
        <time>2011-07-08T08:17:07Z</time>
      </trkpt>
      <trkpt lat="45.15052" lon="5.60574">
        <ele>1083.54</ele>
        <time>2011-07-08T08:17:06Z</time>
      </trkpt>
      <trkpt lat="45.15038" lon="5.60556">
        <ele>1080.18</ele>
        <time>2011-07-08T08:16:56Z</time>
      </trkpt>
      <trkpt lat="45.15037" lon="5.60554">
        <ele>1080.66</ele>
        <time>2011-07-08T08:16:55Z</time>
      </trkpt>
      <trkpt lat="45.15036" lon="5.60552">
        <ele>1080.66</ele>
        <time>2011-07-08T08:16:54Z</time>
      </trkpt>
      <trkpt lat="45.15034" lon="5.6055">
        <ele>1080.66</ele>
        <time>2011-07-08T08:16:53Z</time>
      </trkpt>
      <trkpt lat="45.15033" lon="5.60547">
        <ele>1080.66</ele>
        <time>2011-07-08T08:16:52Z</time>
      </trkpt>
      <trkpt lat="45.15032" lon="5.60545">
        <ele>1080.66</ele>
        <time>2011-07-08T08:16:51Z</time>
      </trkpt>
      <trkpt lat="45.15031" lon="5.60543">
        <ele>1081.14</ele>
        <time>2011-07-08T08:16:50Z</time>
      </trkpt>
      <trkpt lat="45.15025" lon="5.60525">
        <ele>1080.66</ele>
        <time>2011-07-08T08:16:43Z</time>
      </trkpt>
      <trkpt lat="45.15015" lon="5.60491">
        <ele>1081.14</ele>
        <time>2011-07-08T08:16:35Z</time>
      </trkpt>
      <trkpt lat="45.15001" lon="5.60465">
        <ele>1082.1</ele>
        <time>2011-07-08T08:16:28Z</time>
      </trkpt>
      <trkpt lat="45.15" lon="5.60461">
        <ele>1082.58</ele>
        <time>2011-07-08T08:16:27Z</time>
      </trkpt>
      <trkpt lat="45.14997" lon="5.60453">
        <ele>1083.06</ele>
        <time>2011-07-08T08:16:24Z</time>
      </trkpt>
      <trkpt lat="45.14996" lon="5.60451">
        <ele>1083.06</ele>
        <time>2011-07-08T08:16:23Z</time>
      </trkpt>
      <trkpt lat="45.14996" lon="5.60448">
        <ele>1083.06</ele>
        <time>2011-07-08T08:16:22Z</time>
      </trkpt>
      <trkpt lat="45.14995" lon="5.60446">
        <ele>1083.06</ele>
        <time>2011-07-08T08:16:21Z</time>
      </trkpt>
      <trkpt lat="45.14994" lon="5.60443">
        <ele>1083.54</ele>
        <time>2011-07-08T08:16:20Z</time>
      </trkpt>
      <trkpt lat="45.14993" lon="5.6044">
        <ele>1083.06</ele>
        <time>2011-07-08T08:16:19Z</time>
      </trkpt>
      <trkpt lat="45.14991" lon="5.60438">
        <ele>1083.06</ele>
        <time>2011-07-08T08:16:18Z</time>
      </trkpt>
      <trkpt lat="45.1499" lon="5.60436">
        <ele>1083.06</ele>
        <time>2011-07-08T08:16:17Z</time>
      </trkpt>
      <trkpt lat="45.14989" lon="5.60434">
        <ele>1083.06</ele>
        <time>2011-07-08T08:16:16Z</time>
      </trkpt>
      <trkpt lat="45.14987" lon="5.60433">
        <ele>1083.06</ele>
        <time>2011-07-08T08:16:15Z</time>
      </trkpt>
      <trkpt lat="45.14985" lon="5.60432">
        <ele>1083.06</ele>
        <time>2011-07-08T08:16:14Z</time>
      </trkpt>
      <trkpt lat="45.14983" lon="5.60431">
        <ele>1082.58</ele>
        <time>2011-07-08T08:16:13Z</time>
      </trkpt>
      <trkpt lat="45.14981" lon="5.60429">
        <ele>1082.58</ele>
        <time>2011-07-08T08:16:12Z</time>
      </trkpt>
      <trkpt lat="45.14978" lon="5.60427">
        <ele>1082.58</ele>
        <time>2011-07-08T08:16:11Z</time>
      </trkpt>
      <trkpt lat="45.14958" lon="5.60404">
        <ele>1083.54</ele>
        <time>2011-07-08T08:16:02Z</time>
      </trkpt>
      <trkpt lat="45.14956" lon="5.60401">
        <ele>1083.54</ele>
        <time>2011-07-08T08:16:01Z</time>
      </trkpt>
      <trkpt lat="45.14955" lon="5.604">
        <ele>1083.06</ele>
        <time>2011-07-08T08:16:00Z</time>
      </trkpt>
      <trkpt lat="45.14953" lon="5.60398">
        <ele>1083.06</ele>
        <time>2011-07-08T08:15:59Z</time>
      </trkpt>
      <trkpt lat="45.1495" lon="5.60396">
        <ele>1083.06</ele>
        <time>2011-07-08T08:15:58Z</time>
      </trkpt>
      <trkpt lat="45.14929" lon="5.60385">
        <ele>1084.5</ele>
        <time>2011-07-08T08:15:51Z</time>
      </trkpt>
      <trkpt lat="45.14916" lon="5.60379">
        <ele>1086.43</ele>
        <time>2011-07-08T08:15:42Z</time>
      </trkpt>
      <trkpt lat="45.1491" lon="5.60378">
        <ele>1086.91</ele>
        <time>2011-07-08T08:15:37Z</time>
      </trkpt>
      <trkpt lat="45.149" lon="5.60375">
        <ele>1087.39</ele>
        <time>2011-07-08T08:15:27Z</time>
      </trkpt>
      <trkpt lat="45.14896" lon="5.60373">
        <ele>1086.91</ele>
        <time>2011-07-08T08:15:22Z</time>
      </trkpt>
      <trkpt lat="45.14887" lon="5.60366">
        <ele>1086.43</ele>
        <time>2011-07-08T08:15:08Z</time>
      </trkpt>
      <trkpt lat="45.14884" lon="5.60363">
        <ele>1082.58</ele>
        <time>2011-07-08T08:14:54Z</time>
      </trkpt>
      <trkpt lat="45.14879" lon="5.60359">
        <ele>1081.14</ele>
        <time>2011-07-08T08:14:39Z</time>
      </trkpt>
      <trkpt lat="45.14875" lon="5.60352">
        <ele>1076.33</ele>
        <time>2011-07-08T08:14:28Z</time>
      </trkpt>
      <trkpt lat="45.14868" lon="5.60341">
        <ele>1074.41</ele>
        <time>2011-07-08T08:14:16Z</time>
      </trkpt>
      <trkpt lat="45.1486" lon="5.60331">
        <ele>1073.45</ele>
        <time>2011-07-08T08:14:09Z</time>
      </trkpt>
      <trkpt lat="45.14856" lon="5.60324">
        <ele>1071.05</ele>
        <time>2011-07-08T08:14:03Z</time>
      </trkpt>
      <trkpt lat="45.14855" lon="5.60321">
        <ele>1070.57</ele>
        <time>2011-07-08T08:14:01Z</time>
      </trkpt>
      <trkpt lat="45.14838" lon="5.60303">
        <ele>1067.2</ele>
        <time>2011-07-08T08:13:47Z</time>
      </trkpt>
      <trkpt lat="45.14831" lon="5.60296">
        <ele>1064.8</ele>
        <time>2011-07-08T08:13:20Z</time>
      </trkpt>
      <trkpt lat="45.14823" lon="5.60289">
        <ele>1061.43</ele>
        <time>2011-07-08T08:13:03Z</time>
      </trkpt>
      <trkpt lat="45.14816" lon="5.60285">
        <ele>1059.99</ele>
        <time>2011-07-08T08:12:51Z</time>
      </trkpt>
      <trkpt lat="45.148" lon="5.60273">
        <ele>1058.07</ele>
        <time>2011-07-08T08:12:40Z</time>
      </trkpt>
      <trkpt lat="45.14799" lon="5.60272">
        <ele>1057.59</ele>
        <time>2011-07-08T08:12:39Z</time>
      </trkpt>
      <trkpt lat="45.14797" lon="5.6027">
        <ele>1057.59</ele>
        <time>2011-07-08T08:12:28Z</time>
      </trkpt>
      <trkpt lat="45.14791" lon="5.60269">
        <ele>1057.11</ele>
        <time>2011-07-08T08:12:13Z</time>
      </trkpt>
      <trkpt lat="45.14781" lon="5.60266">
        <ele>1057.11</ele>
        <time>2011-07-08T08:12:02Z</time>
      </trkpt>
      <trkpt lat="45.1477" lon="5.60263">
        <ele>1056.15</ele>
        <time>2011-07-08T08:11:10Z</time>
      </trkpt>
      <trkpt lat="45.14764" lon="5.60262">
        <ele>1055.67</ele>
        <time>2011-07-08T08:10:53Z</time>
      </trkpt>
      <trkpt lat="45.14751" lon="5.60263">
        <ele>1055.18</ele>
        <time>2011-07-08T08:10:43Z</time>
      </trkpt>
      <trkpt lat="45.14745" lon="5.60264">
        <ele>1054.22</ele>
        <time>2011-07-08T08:10:39Z</time>
      </trkpt>
      <trkpt lat="45.14734" lon="5.60264">
        <ele>1054.22</ele>
        <time>2011-07-08T08:10:30Z</time>
      </trkpt>
      <trkpt lat="45.14721" lon="5.60269">
        <ele>1051.34</ele>
        <time>2011-07-08T08:10:20Z</time>
      </trkpt>
      <trkpt lat="45.14715" lon="5.60272">
        <ele>1050.86</ele>
        <time>2011-07-08T08:10:15Z</time>
      </trkpt>
      <trkpt lat="45.14697" lon="5.60275">
        <ele>1046.05</ele>
        <time>2011-07-08T08:10:04Z</time>
      </trkpt>
      <trkpt lat="45.1468" lon="5.60285">
        <ele>1040.76</ele>
        <time>2011-07-08T08:09:53Z</time>
      </trkpt>
      <trkpt lat="45.14678" lon="5.60286">
        <ele>1040.76</ele>
        <time>2011-07-08T08:09:52Z</time>
      </trkpt>
      <trkpt lat="45.14676" lon="5.60288">
        <ele>1040.28</ele>
        <time>2011-07-08T08:09:51Z</time>
      </trkpt>
      <trkpt lat="45.14673" lon="5.60291">
        <ele>1039.32</ele>
        <time>2011-07-08T08:09:50Z</time>
      </trkpt>
      <trkpt lat="45.14669" lon="5.60294">
        <ele>1038.84</ele>
        <time>2011-07-08T08:09:49Z</time>
      </trkpt>
      <trkpt lat="45.14666" lon="5.60296">
        <ele>1038.36</ele>
        <time>2011-07-08T08:09:48Z</time>
      </trkpt>
      <trkpt lat="45.14663" lon="5.60298">
        <ele>1038.36</ele>
        <time>2011-07-08T08:09:47Z</time>
      </trkpt>
      <trkpt lat="45.14659" lon="5.603">
        <ele>1037.88</ele>
        <time>2011-07-08T08:09:46Z</time>
      </trkpt>
      <trkpt lat="45.14646" lon="5.60306">
        <ele>1036.44</ele>
        <time>2011-07-08T08:09:35Z</time>
      </trkpt>
      <trkpt lat="45.14644" lon="5.60305">
        <ele>1036.44</ele>
        <time>2011-07-08T08:09:34Z</time>
      </trkpt>
      <trkpt lat="45.14625" lon="5.60304">
        <ele>1035.96</ele>
        <time>2011-07-08T08:09:28Z</time>
      </trkpt>
      <trkpt lat="45.14621" lon="5.60304">
        <ele>1035.48</ele>
        <time>2011-07-08T08:09:27Z</time>
      </trkpt>
      <trkpt lat="45.14619" lon="5.60303">
        <ele>1035.48</ele>
        <time>2011-07-08T08:09:26Z</time>
      </trkpt>
      <trkpt lat="45.14616" lon="5.60303">
        <ele>1035</ele>
        <time>2011-07-08T08:09:25Z</time>
      </trkpt>
      <trkpt lat="45.14613" lon="5.60302">
        <ele>1035</ele>
        <time>2011-07-08T08:09:24Z</time>
      </trkpt>
      <trkpt lat="45.1461" lon="5.60302">
        <ele>1034.52</ele>
        <time>2011-07-08T08:09:23Z</time>
      </trkpt>
      <trkpt lat="45.14607" lon="5.60302">
        <ele>1034.04</ele>
        <time>2011-07-08T08:09:22Z</time>
      </trkpt>
      <trkpt lat="45.14604" lon="5.60303">
        <ele>1033.55</ele>
        <time>2011-07-08T08:09:21Z</time>
      </trkpt>
      <trkpt lat="45.14601" lon="5.60304">
        <ele>1033.07</ele>
        <time>2011-07-08T08:09:20Z</time>
      </trkpt>
      <trkpt lat="45.14596" lon="5.60308">
        <ele>1035</ele>
        <time>2011-07-08T08:09:15Z</time>
      </trkpt>
      <trkpt lat="45.14581" lon="5.60305">
        <ele>1036.44</ele>
        <time>2011-07-08T08:09:05Z</time>
      </trkpt>
      <trkpt lat="45.14559" lon="5.60308">
        <ele>1037.88</ele>
        <time>2011-07-08T08:08:53Z</time>
      </trkpt>
      <trkpt lat="45.14553" lon="5.60312">
        <ele>1036.44</ele>
        <time>2011-07-08T08:07:27Z</time>
      </trkpt>
      <trkpt lat="45.14553" lon="5.60312">
        <ele>1036.92</ele>
        <time>2011-07-08T08:05:58Z</time>
      </trkpt>
      <trkpt lat="45.14553" lon="5.60313">
        <ele>1037.4</ele>
        <time>2011-07-08T08:04:20Z</time>
      </trkpt>
      <trkpt lat="45.14553" lon="5.60313">
        <ele>1037.4</ele>
        <time>2011-07-08T08:03:05Z</time>
      </trkpt>
      <trkpt lat="45.14549" lon="5.60316">
        <ele>1037.4</ele>
        <time>2011-07-08T08:02:52Z</time>
      </trkpt>
      <trkpt lat="45.14533" lon="5.60328">
        <ele>1038.36</ele>
        <time>2011-07-08T08:02:41Z</time>
      </trkpt>
      <trkpt lat="45.14517" lon="5.60339">
        <ele>1038.84</ele>
        <time>2011-07-08T08:02:32Z</time>
      </trkpt>
      <trkpt lat="45.14516" lon="5.60338">
        <ele>1038.84</ele>
        <time>2011-07-08T08:02:31Z</time>
      </trkpt>
      <trkpt lat="45.14515" lon="5.60336">
        <ele>1038.84</ele>
        <time>2011-07-08T08:02:30Z</time>
      </trkpt>
      <trkpt lat="45.14515" lon="5.60333">
        <ele>1038.84</ele>
        <time>2011-07-08T08:02:29Z</time>
      </trkpt>
      <trkpt lat="45.14514" lon="5.60329">
        <ele>1038.84</ele>
        <time>2011-07-08T08:02:28Z</time>
      </trkpt>
      <trkpt lat="45.14515" lon="5.60325">
        <ele>1038.84</ele>
        <time>2011-07-08T08:02:27Z</time>
      </trkpt>
      <trkpt lat="45.14517" lon="5.6032">
        <ele>1038.84</ele>
        <time>2011-07-08T08:02:26Z</time>
      </trkpt>
      <trkpt lat="45.1452" lon="5.60315">
        <ele>1038.84</ele>
        <time>2011-07-08T08:02:25Z</time>
      </trkpt>
      <trkpt lat="45.14522" lon="5.60309">
        <ele>1038.36</ele>
        <time>2011-07-08T08:02:24Z</time>
      </trkpt>
      <trkpt lat="45.14539" lon="5.60264">
        <ele>1038.84</ele>
        <time>2011-07-08T08:02:16Z</time>
      </trkpt>
      <trkpt lat="45.1454" lon="5.60259">
        <ele>1038.84</ele>
        <time>2011-07-08T08:02:15Z</time>
      </trkpt>
      <trkpt lat="45.14541" lon="5.60254">
        <ele>1038.84</ele>
        <time>2011-07-08T08:02:14Z</time>
      </trkpt>
      <trkpt lat="45.14543" lon="5.60211">
        <ele>1039.8</ele>
        <time>2011-07-08T08:02:03Z</time>
      </trkpt>
      <trkpt lat="45.14537" lon="5.60189">
        <ele>1037.88</ele>
        <time>2011-07-08T08:01:53Z</time>
      </trkpt>
      <trkpt lat="45.14523" lon="5.60161">
        <ele>1031.63</ele>
        <time>2011-07-08T08:01:40Z</time>
      </trkpt>
      <trkpt lat="45.14522" lon="5.60159">
        <ele>1030.67</ele>
        <time>2011-07-08T08:01:39Z</time>
      </trkpt>
      <trkpt lat="45.14522" lon="5.60157">
        <ele>1030.19</ele>
        <time>2011-07-08T08:01:38Z</time>
      </trkpt>
      <trkpt lat="45.14521" lon="5.60155">
        <ele>1030.19</ele>
        <time>2011-07-08T08:01:37Z</time>
      </trkpt>
      <trkpt lat="45.14521" lon="5.60153">
        <ele>1029.71</ele>
        <time>2011-07-08T08:01:36Z</time>
      </trkpt>
      <trkpt lat="45.14508" lon="5.60138">
        <ele>1029.71</ele>
        <time>2011-07-08T08:01:28Z</time>
      </trkpt>
      <trkpt lat="45.14501" lon="5.60127">
        <ele>1028.75</ele>
        <time>2011-07-08T08:01:24Z</time>
      </trkpt>
      <trkpt lat="45.145" lon="5.60125">
        <ele>1028.75</ele>
        <time>2011-07-08T08:01:23Z</time>
      </trkpt>
      <trkpt lat="45.14498" lon="5.60122">
        <ele>1028.75</ele>
        <time>2011-07-08T08:01:22Z</time>
      </trkpt>
      <trkpt lat="45.14494" lon="5.60117">
        <ele>1029.71</ele>
        <time>2011-07-08T08:01:19Z</time>
      </trkpt>
      <trkpt lat="45.1449" lon="5.60113">
        <ele>1029.23</ele>
        <time>2011-07-08T08:01:17Z</time>
      </trkpt>
      <trkpt lat="45.14483" lon="5.60106">
        <ele>1029.23</ele>
        <time>2011-07-08T08:01:13Z</time>
      </trkpt>
      <trkpt lat="45.14471" lon="5.60097">
        <ele>1027.79</ele>
        <time>2011-07-08T08:01:02Z</time>
      </trkpt>
      <trkpt lat="45.1447" lon="5.60095">
        <ele>1027.31</ele>
        <time>2011-07-08T08:01:01Z</time>
      </trkpt>
      <trkpt lat="45.14469" lon="5.60095">
        <ele>1027.31</ele>
        <time>2011-07-08T08:01:00Z</time>
      </trkpt>
      <trkpt lat="45.14467" lon="5.60094">
        <ele>1026.83</ele>
        <time>2011-07-08T08:00:59Z</time>
      </trkpt>
      <trkpt lat="45.14465" lon="5.60093">
        <ele>1026.83</ele>
        <time>2011-07-08T08:00:58Z</time>
      </trkpt>
      <trkpt lat="45.14457" lon="5.6009">
        <ele>1026.83</ele>
        <time>2011-07-08T08:00:53Z</time>
      </trkpt>
      <trkpt lat="45.14452" lon="5.60087">
        <ele>1027.31</ele>
        <time>2011-07-08T08:00:49Z</time>
      </trkpt>
      <trkpt lat="45.14441" lon="5.60081">
        <ele>1028.75</ele>
        <time>2011-07-08T08:00:42Z</time>
      </trkpt>
      <trkpt lat="45.14438" lon="5.60079">
        <ele>1029.23</ele>
        <time>2011-07-08T08:00:39Z</time>
      </trkpt>
      <trkpt lat="45.14434" lon="5.60074">
        <ele>1030.19</ele>
        <time>2011-07-08T08:00:36Z</time>
      </trkpt>
      <trkpt lat="45.14433" lon="5.60072">
        <ele>1030.19</ele>
        <time>2011-07-08T08:00:35Z</time>
      </trkpt>
      <trkpt lat="45.14431" lon="5.60071">
        <ele>1030.67</ele>
        <time>2011-07-08T08:00:34Z</time>
      </trkpt>
      <trkpt lat="45.1443" lon="5.6007">
        <ele>1031.15</ele>
        <time>2011-07-08T08:00:33Z</time>
      </trkpt>
      <trkpt lat="45.14428" lon="5.60068">
        <ele>1031.15</ele>
        <time>2011-07-08T08:00:32Z</time>
      </trkpt>
      <trkpt lat="45.14425" lon="5.60066">
        <ele>1031.63</ele>
        <time>2011-07-08T08:00:30Z</time>
      </trkpt>
      <trkpt lat="45.14423" lon="5.60065">
        <ele>1031.63</ele>
        <time>2011-07-08T08:00:29Z</time>
      </trkpt>
      <trkpt lat="45.14422" lon="5.60063">
        <ele>1031.15</ele>
        <time>2011-07-08T08:00:28Z</time>
      </trkpt>
      <trkpt lat="45.14419" lon="5.6006">
        <ele>1030.67</ele>
        <time>2011-07-08T08:00:26Z</time>
      </trkpt>
      <trkpt lat="45.14408" lon="5.60048">
        <ele>1029.71</ele>
        <time>2011-07-08T08:00:18Z</time>
      </trkpt>
      <trkpt lat="45.14399" lon="5.60035">
        <ele>1027.31</ele>
        <time>2011-07-08T08:00:09Z</time>
      </trkpt>
      <trkpt lat="45.14389" lon="5.60029">
        <ele>1024.9</ele>
        <time>2011-07-08T08:00:02Z</time>
      </trkpt>
      <trkpt lat="45.14387" lon="5.60028">
        <ele>1024.42</ele>
        <time>2011-07-08T08:00:01Z</time>
      </trkpt>
      <trkpt lat="45.14386" lon="5.60028">
        <ele>1024.42</ele>
        <time>2011-07-08T08:00:00Z</time>
      </trkpt>
      <trkpt lat="45.14384" lon="5.60027">
        <ele>1023.46</ele>
        <time>2011-07-08T07:59:59Z</time>
      </trkpt>
      <trkpt lat="45.14369" lon="5.60016">
        <ele>1020.58</ele>
        <time>2011-07-08T07:59:48Z</time>
      </trkpt>
      <trkpt lat="45.14367" lon="5.60014">
        <ele>1020.58</ele>
        <time>2011-07-08T07:59:47Z</time>
      </trkpt>
      <trkpt lat="45.14354" lon="5.60004">
        <ele>1020.1</ele>
        <time>2011-07-08T07:59:36Z</time>
      </trkpt>
      <trkpt lat="45.14353" lon="5.60003">
        <ele>1020.1</ele>
        <time>2011-07-08T07:59:35Z</time>
      </trkpt>
      <trkpt lat="45.14351" lon="5.60002">
        <ele>1019.62</ele>
        <time>2011-07-08T07:59:34Z</time>
      </trkpt>
      <trkpt lat="45.1435" lon="5.60002">
        <ele>1019.62</ele>
        <time>2011-07-08T07:59:33Z</time>
      </trkpt>
      <trkpt lat="45.14349" lon="5.60001">
        <ele>1019.62</ele>
        <time>2011-07-08T07:59:32Z</time>
      </trkpt>
      <trkpt lat="45.14344" lon="5.59999">
        <ele>1018.65</ele>
        <time>2011-07-08T07:59:29Z</time>
      </trkpt>
      <trkpt lat="45.14316" lon="5.59984">
        <ele>1016.73</ele>
        <time>2011-07-08T07:59:14Z</time>
      </trkpt>
      <trkpt lat="45.14272" lon="5.5996">
        <ele>1012.89</ele>
        <time>2011-07-08T07:58:55Z</time>
      </trkpt>
      <trkpt lat="45.14238" lon="5.59952">
        <ele>1011.44</ele>
        <time>2011-07-08T07:58:44Z</time>
      </trkpt>
      <trkpt lat="45.14203" lon="5.59927">
        <ele>1011.44</ele>
        <time>2011-07-08T07:58:33Z</time>
      </trkpt>
      <trkpt lat="45.14201" lon="5.59926">
        <ele>1011.44</ele>
        <time>2011-07-08T07:58:32Z</time>
      </trkpt>
      <trkpt lat="45.14199" lon="5.59925">
        <ele>1011.44</ele>
        <time>2011-07-08T07:58:31Z</time>
      </trkpt>
      <trkpt lat="45.14197" lon="5.59924">
        <ele>1010.96</ele>
        <time>2011-07-08T07:58:30Z</time>
      </trkpt>
      <trkpt lat="45.14195" lon="5.59923">
        <ele>1010.96</ele>
        <time>2011-07-08T07:58:29Z</time>
      </trkpt>
      <trkpt lat="45.14193" lon="5.59923">
        <ele>1010.96</ele>
        <time>2011-07-08T07:58:28Z</time>
      </trkpt>
      <trkpt lat="45.14153" lon="5.59907">
        <ele>1009.52</ele>
        <time>2011-07-08T07:58:12Z</time>
      </trkpt>
      <trkpt lat="45.14116" lon="5.59888">
        <ele>1009.04</ele>
        <time>2011-07-08T07:57:58Z</time>
      </trkpt>
      <trkpt lat="45.14083" lon="5.59857">
        <ele>1005.2</ele>
        <time>2011-07-08T07:57:42Z</time>
      </trkpt>
      <trkpt lat="45.14064" lon="5.59819">
        <ele>1006.16</ele>
        <time>2011-07-08T07:57:30Z</time>
      </trkpt>
      <trkpt lat="45.14061" lon="5.59781">
        <ele>1007.6</ele>
        <time>2011-07-08T07:57:18Z</time>
      </trkpt>
      <trkpt lat="45.1406" lon="5.59779">
        <ele>1007.12</ele>
        <time>2011-07-08T07:57:17Z</time>
      </trkpt>
      <trkpt lat="45.1406" lon="5.59777">
        <ele>1007.12</ele>
        <time>2011-07-08T07:57:16Z</time>
      </trkpt>
      <trkpt lat="45.14055" lon="5.59749">
        <ele>1004.72</ele>
        <time>2011-07-08T07:57:01Z</time>
      </trkpt>
      <trkpt lat="45.14044" lon="5.59719">
        <ele>1001.35</ele>
        <time>2011-07-08T07:56:44Z</time>
      </trkpt>
      <trkpt lat="45.14044" lon="5.59716">
        <ele>1001.35</ele>
        <time>2011-07-08T07:56:43Z</time>
      </trkpt>
      <trkpt lat="45.1404" lon="5.59706">
        <ele>1000.39</ele>
        <time>2011-07-08T07:56:37Z</time>
      </trkpt>
      <trkpt lat="45.1404" lon="5.59704">
        <ele>1000.39</ele>
        <time>2011-07-08T07:56:36Z</time>
      </trkpt>
      <trkpt lat="45.14035" lon="5.59695">
        <ele>999.91</ele>
        <time>2011-07-08T07:56:30Z</time>
      </trkpt>
      <trkpt lat="45.14021" lon="5.59666">
        <ele>996.54</ele>
        <time>2011-07-08T07:56:14Z</time>
      </trkpt>
      <trkpt lat="45.14006" lon="5.59634">
        <ele>992.7</ele>
        <time>2011-07-08T07:56:00Z</time>
      </trkpt>
      <trkpt lat="45.13992" lon="5.59589">
        <ele>990.78</ele>
        <time>2011-07-08T07:55:46Z</time>
      </trkpt>
      <trkpt lat="45.13995" lon="5.59537">
        <ele>992.7</ele>
        <time>2011-07-08T07:55:35Z</time>
      </trkpt>
      <trkpt lat="45.13997" lon="5.59532">
        <ele>992.7</ele>
        <time>2011-07-08T07:55:34Z</time>
      </trkpt>
      <trkpt lat="45.13998" lon="5.59527">
        <ele>992.7</ele>
        <time>2011-07-08T07:55:33Z</time>
      </trkpt>
      <trkpt lat="45.13996" lon="5.59521">
        <ele>993.18</ele>
        <time>2011-07-08T07:55:32Z</time>
      </trkpt>
      <trkpt lat="45.13993" lon="5.59516">
        <ele>993.66</ele>
        <time>2011-07-08T07:55:31Z</time>
      </trkpt>
      <trkpt lat="45.13965" lon="5.59506">
        <ele>996.06</ele>
        <time>2011-07-08T07:55:27Z</time>
      </trkpt>
      <trkpt lat="45.13859" lon="5.59477">
        <ele>1006.64</ele>
        <time>2011-07-08T07:55:17Z</time>
      </trkpt>
      <trkpt lat="45.13849" lon="5.59475">
        <ele>1007.6</ele>
        <time>2011-07-08T07:55:16Z</time>
      </trkpt>
      <trkpt lat="45.13838" lon="5.59473">
        <ele>1008.56</ele>
        <time>2011-07-08T07:55:15Z</time>
      </trkpt>
      <trkpt lat="45.13829" lon="5.59469">
        <ele>1009.04</ele>
        <time>2011-07-08T07:55:14Z</time>
      </trkpt>
      <trkpt lat="45.13821" lon="5.59465">
        <ele>1010</ele>
        <time>2011-07-08T07:55:13Z</time>
      </trkpt>
      <trkpt lat="45.13813" lon="5.5946">
        <ele>1010.48</ele>
        <time>2011-07-08T07:55:12Z</time>
      </trkpt>
      <trkpt lat="45.13805" lon="5.59454">
        <ele>1011.44</ele>
        <time>2011-07-08T07:55:11Z</time>
      </trkpt>
      <trkpt lat="45.13798" lon="5.59448">
        <ele>1012.41</ele>
        <time>2011-07-08T07:55:10Z</time>
      </trkpt>
      <trkpt lat="45.13793" lon="5.59442">
        <ele>1012.89</ele>
        <time>2011-07-08T07:55:09Z</time>
      </trkpt>
      <trkpt lat="45.13788" lon="5.59437">
        <ele>1013.85</ele>
        <time>2011-07-08T07:55:08Z</time>
      </trkpt>
      <trkpt lat="45.13784" lon="5.59434">
        <ele>1014.33</ele>
        <time>2011-07-08T07:55:07Z</time>
      </trkpt>
      <trkpt lat="45.1378" lon="5.59434">
        <ele>1015.29</ele>
        <time>2011-07-08T07:55:06Z</time>
      </trkpt>
      <trkpt lat="45.13777" lon="5.59436">
        <ele>1015.77</ele>
        <time>2011-07-08T07:55:05Z</time>
      </trkpt>
      <trkpt lat="45.13775" lon="5.5944">
        <ele>1015.77</ele>
        <time>2011-07-08T07:55:04Z</time>
      </trkpt>
      <trkpt lat="45.13775" lon="5.59447">
        <ele>1016.25</ele>
        <time>2011-07-08T07:55:03Z</time>
      </trkpt>
      <trkpt lat="45.13776" lon="5.59453">
        <ele>1016.25</ele>
        <time>2011-07-08T07:55:02Z</time>
      </trkpt>
      <trkpt lat="45.13778" lon="5.59493">
        <ele>1018.17</ele>
        <time>2011-07-08T07:54:53Z</time>
      </trkpt>
      <trkpt lat="45.13774" lon="5.59579">
        <ele>1017.21</ele>
        <time>2011-07-08T07:54:38Z</time>
      </trkpt>
      <trkpt lat="45.13773" lon="5.59585">
        <ele>1017.21</ele>
        <time>2011-07-08T07:54:37Z</time>
      </trkpt>
      <trkpt lat="45.13766" lon="5.59603">
        <ele>1017.69</ele>
        <time>2011-07-08T07:54:34Z</time>
      </trkpt>
      <trkpt lat="45.13753" lon="5.59625">
        <ele>1018.65</ele>
        <time>2011-07-08T07:54:30Z</time>
      </trkpt>
      <trkpt lat="45.13707" lon="5.59704">
        <ele>1022.02</ele>
        <time>2011-07-08T07:54:16Z</time>
      </trkpt>
      <trkpt lat="45.13705" lon="5.5971">
        <ele>1022.02</ele>
        <time>2011-07-08T07:54:15Z</time>
      </trkpt>
      <trkpt lat="45.13669" lon="5.59751">
        <ele>1024.42</ele>
        <time>2011-07-08T07:54:06Z</time>
      </trkpt>
      <trkpt lat="45.13653" lon="5.59769">
        <ele>1024.9</ele>
        <time>2011-07-08T07:54:02Z</time>
      </trkpt>
      <trkpt lat="45.13644" lon="5.59785">
        <ele>1025.86</ele>
        <time>2011-07-08T07:53:59Z</time>
      </trkpt>
      <trkpt lat="45.13613" lon="5.59839">
        <ele>1026.83</ele>
        <time>2011-07-08T07:53:45Z</time>
      </trkpt>
      <trkpt lat="45.13611" lon="5.59842">
        <ele>1027.31</ele>
        <time>2011-07-08T07:53:44Z</time>
      </trkpt>
      <trkpt lat="45.13609" lon="5.59845">
        <ele>1026.83</ele>
        <time>2011-07-08T07:53:43Z</time>
      </trkpt>
      <trkpt lat="45.13607" lon="5.59847">
        <ele>1026.83</ele>
        <time>2011-07-08T07:53:42Z</time>
      </trkpt>
      <trkpt lat="45.13605" lon="5.59849">
        <ele>1026.83</ele>
        <time>2011-07-08T07:53:41Z</time>
      </trkpt>
      <trkpt lat="45.13568" lon="5.59826">
        <ele>1022.5</ele>
        <time>2011-07-08T07:53:26Z</time>
      </trkpt>
      <trkpt lat="45.13533" lon="5.59799">
        <ele>1021.06</ele>
        <time>2011-07-08T07:53:12Z</time>
      </trkpt>
      <trkpt lat="45.13485" lon="5.59758">
        <ele>1018.17</ele>
        <time>2011-07-08T07:52:56Z</time>
      </trkpt>
      <trkpt lat="45.1344" lon="5.59709">
        <ele>1016.25</ele>
        <time>2011-07-08T07:52:41Z</time>
      </trkpt>
      <trkpt lat="45.13411" lon="5.59694">
        <ele>1012.41</ele>
        <time>2011-07-08T07:52:29Z</time>
      </trkpt>
      <trkpt lat="45.13357" lon="5.59685">
        <ele>1011.93</ele>
        <time>2011-07-08T07:52:18Z</time>
      </trkpt>
      <trkpt lat="45.1335" lon="5.59684">
        <ele>1011.93</ele>
        <time>2011-07-08T07:52:17Z</time>
      </trkpt>
      <trkpt lat="45.13343" lon="5.59683">
        <ele>1012.41</ele>
        <time>2011-07-08T07:52:16Z</time>
      </trkpt>
      <trkpt lat="45.13336" lon="5.5968">
        <ele>1012.41</ele>
        <time>2011-07-08T07:52:15Z</time>
      </trkpt>
      <trkpt lat="45.13329" lon="5.59675">
        <ele>1012.89</ele>
        <time>2011-07-08T07:52:14Z</time>
      </trkpt>
      <trkpt lat="45.13281" lon="5.5962">
        <ele>1017.21</ele>
        <time>2011-07-08T07:52:07Z</time>
      </trkpt>
      <trkpt lat="45.13229" lon="5.59583">
        <ele>1022.02</ele>
        <time>2011-07-08T07:51:58Z</time>
      </trkpt>
      <trkpt lat="45.13167" lon="5.59558">
        <ele>1022.98</ele>
        <time>2011-07-08T07:51:43Z</time>
      </trkpt>
      <trkpt lat="45.13098" lon="5.59546">
        <ele>1022.02</ele>
        <time>2011-07-08T07:51:26Z</time>
      </trkpt>
      <trkpt lat="45.13033" lon="5.59541">
        <ele>1022.5</ele>
        <time>2011-07-08T07:51:12Z</time>
      </trkpt>
      <trkpt lat="45.13027" lon="5.5954">
        <ele>1022.5</ele>
        <time>2011-07-08T07:51:11Z</time>
      </trkpt>
      <trkpt lat="45.1301" lon="5.59537">
        <ele>1022.5</ele>
        <time>2011-07-08T07:51:08Z</time>
      </trkpt>
      <trkpt lat="45.13004" lon="5.59536">
        <ele>1022.5</ele>
        <time>2011-07-08T07:51:07Z</time>
      </trkpt>
      <trkpt lat="45.12982" lon="5.59525">
        <ele>1022.98</ele>
        <time>2011-07-08T07:51:03Z</time>
      </trkpt>
      <trkpt lat="45.12977" lon="5.59522">
        <ele>1022.98</ele>
        <time>2011-07-08T07:51:02Z</time>
      </trkpt>
      <trkpt lat="45.12962" lon="5.59512">
        <ele>1024.42</ele>
        <time>2011-07-08T07:50:58Z</time>
      </trkpt>
      <trkpt lat="45.12926" lon="5.59485">
        <ele>1025.38</ele>
        <time>2011-07-08T07:50:45Z</time>
      </trkpt>
      <trkpt lat="45.12924" lon="5.59445">
        <ele>1024.42</ele>
        <time>2011-07-08T07:50:32Z</time>
      </trkpt>
      <trkpt lat="45.12943" lon="5.59388">
        <ele>1023.46</ele>
        <time>2011-07-08T07:50:15Z</time>
      </trkpt>
      <trkpt lat="45.12962" lon="5.59336">
        <ele>1022.5</ele>
        <time>2011-07-08T07:50:00Z</time>
      </trkpt>
      <trkpt lat="45.12963" lon="5.59315">
        <ele>1020.58</ele>
        <time>2011-07-08T07:48:52Z</time>
      </trkpt>
      <trkpt lat="45.12962" lon="5.59301">
        <ele>1018.17</ele>
        <time>2011-07-08T07:48:36Z</time>
      </trkpt>
      <trkpt lat="45.12961" lon="5.59286">
        <ele>1014.33</ele>
        <time>2011-07-08T07:48:22Z</time>
      </trkpt>
      <trkpt lat="45.12961" lon="5.59282">
        <ele>1012.89</ele>
        <time>2011-07-08T07:48:05Z</time>
      </trkpt>
      <trkpt lat="45.1296" lon="5.59275">
        <ele>1009.52</ele>
        <time>2011-07-08T07:47:50Z</time>
      </trkpt>
      <trkpt lat="45.12956" lon="5.59275">
        <ele>1006.64</ele>
        <time>2011-07-08T07:47:39Z</time>
      </trkpt>
      <trkpt lat="45.12955" lon="5.59276">
        <ele>1006.16</ele>
        <time>2011-07-08T07:47:38Z</time>
      </trkpt>
      <trkpt lat="45.12954" lon="5.59277">
        <ele>1005.68</ele>
        <time>2011-07-08T07:47:37Z</time>
      </trkpt>
      <trkpt lat="45.1295" lon="5.59283">
        <ele>1003.27</ele>
        <time>2011-07-08T07:47:33Z</time>
      </trkpt>
      <trkpt lat="45.1295" lon="5.59284">
        <ele>1002.79</ele>
        <time>2011-07-08T07:47:32Z</time>
      </trkpt>
      <trkpt lat="45.12947" lon="5.59288">
        <ele>1001.35</ele>
        <time>2011-07-08T07:47:29Z</time>
      </trkpt>
      <trkpt lat="45.12946" lon="5.59289">
        <ele>1000.39</ele>
        <time>2011-07-08T07:47:28Z</time>
      </trkpt>
      <trkpt lat="45.12943" lon="5.59294">
        <ele>998.95</ele>
        <time>2011-07-08T07:47:25Z</time>
      </trkpt>
      <trkpt lat="45.12942" lon="5.59295">
        <ele>997.99</ele>
        <time>2011-07-08T07:47:24Z</time>
      </trkpt>
      <trkpt lat="45.12942" lon="5.59297">
        <ele>997.02</ele>
        <time>2011-07-08T07:47:23Z</time>
      </trkpt>
      <trkpt lat="45.1294" lon="5.59298">
        <ele>996.54</ele>
        <time>2011-07-08T07:47:22Z</time>
      </trkpt>
      <trkpt lat="45.12939" lon="5.59298">
        <ele>995.58</ele>
        <time>2011-07-08T07:47:21Z</time>
      </trkpt>
      <trkpt lat="45.12938" lon="5.59299">
        <ele>995.1</ele>
        <time>2011-07-08T07:47:20Z</time>
      </trkpt>
      <trkpt lat="45.12936" lon="5.593">
        <ele>994.62</ele>
        <time>2011-07-08T07:47:19Z</time>
      </trkpt>
      <trkpt lat="45.12935" lon="5.593">
        <ele>994.14</ele>
        <time>2011-07-08T07:47:18Z</time>
      </trkpt>
      <trkpt lat="45.12934" lon="5.593">
        <ele>993.66</ele>
        <time>2011-07-08T07:47:17Z</time>
      </trkpt>
      <trkpt lat="45.12933" lon="5.59299">
        <ele>993.66</ele>
        <time>2011-07-08T07:47:16Z</time>
      </trkpt>
      <trkpt lat="45.1293" lon="5.59295">
        <ele>992.7</ele>
        <time>2011-07-08T07:47:13Z</time>
      </trkpt>
      <trkpt lat="45.12929" lon="5.59291">
        <ele>992.22</ele>
        <time>2011-07-08T07:47:12Z</time>
      </trkpt>
      <trkpt lat="45.12928" lon="5.59285">
        <ele>991.74</ele>
        <time>2011-07-08T07:47:11Z</time>
      </trkpt>
      <trkpt lat="45.12925" lon="5.59279">
        <ele>991.74</ele>
        <time>2011-07-08T07:47:10Z</time>
      </trkpt>
      <trkpt lat="45.12921" lon="5.59273">
        <ele>992.22</ele>
        <time>2011-07-08T07:47:09Z</time>
      </trkpt>
      <trkpt lat="45.12916" lon="5.59266">
        <ele>992.22</ele>
        <time>2011-07-08T07:47:08Z</time>
      </trkpt>
      <trkpt lat="45.12911" lon="5.59259">
        <ele>993.18</ele>
        <time>2011-07-08T07:47:07Z</time>
      </trkpt>
      <trkpt lat="45.12906" lon="5.59251">
        <ele>994.14</ele>
        <time>2011-07-08T07:47:06Z</time>
      </trkpt>
      <trkpt lat="45.12898" lon="5.5923">
        <ele>996.54</ele>
        <time>2011-07-08T07:47:04Z</time>
      </trkpt>
      <trkpt lat="45.12895" lon="5.59219">
        <ele>997.51</ele>
        <time>2011-07-08T07:47:03Z</time>
      </trkpt>
      <trkpt lat="45.12889" lon="5.59179">
        <ele>1002.79</ele>
        <time>2011-07-08T07:46:58Z</time>
      </trkpt>
      <trkpt lat="45.12888" lon="5.59174">
        <ele>1003.75</ele>
        <time>2011-07-08T07:46:57Z</time>
      </trkpt>
      <trkpt lat="45.1287" lon="5.59134">
        <ele>1009.52</ele>
        <time>2011-07-08T07:46:49Z</time>
      </trkpt>
      <trkpt lat="45.12868" lon="5.59131">
        <ele>1010</ele>
        <time>2011-07-08T07:46:48Z</time>
      </trkpt>
      <trkpt lat="45.12866" lon="5.59128">
        <ele>1010.48</ele>
        <time>2011-07-08T07:46:47Z</time>
      </trkpt>
      <trkpt lat="45.12864" lon="5.59125">
        <ele>1010.48</ele>
        <time>2011-07-08T07:46:46Z</time>
      </trkpt>
      <trkpt lat="45.12862" lon="5.59123">
        <ele>1010.96</ele>
        <time>2011-07-08T07:46:45Z</time>
      </trkpt>
      <trkpt lat="45.1286" lon="5.5912">
        <ele>1011.44</ele>
        <time>2011-07-08T07:46:44Z</time>
      </trkpt>
      <trkpt lat="45.12859" lon="5.59116">
        <ele>1011.93</ele>
        <time>2011-07-08T07:46:43Z</time>
      </trkpt>
      <trkpt lat="45.12844" lon="5.59098">
        <ele>1014.81</ele>
        <time>2011-07-08T07:46:37Z</time>
      </trkpt>
      <trkpt lat="45.12841" lon="5.59095">
        <ele>1015.29</ele>
        <time>2011-07-08T07:46:36Z</time>
      </trkpt>
      <trkpt lat="45.12838" lon="5.59092">
        <ele>1015.77</ele>
        <time>2011-07-08T07:46:35Z</time>
      </trkpt>
      <trkpt lat="45.12836" lon="5.59089">
        <ele>1016.25</ele>
        <time>2011-07-08T07:46:34Z</time>
      </trkpt>
      <trkpt lat="45.12834" lon="5.59085">
        <ele>1016.73</ele>
        <time>2011-07-08T07:46:33Z</time>
      </trkpt>
      <trkpt lat="45.12832" lon="5.59082">
        <ele>1017.21</ele>
        <time>2011-07-08T07:46:32Z</time>
      </trkpt>
      <trkpt lat="45.1283" lon="5.5908">
        <ele>1017.69</ele>
        <time>2011-07-08T07:46:31Z</time>
      </trkpt>
      <trkpt lat="45.12829" lon="5.59078">
        <ele>1018.17</ele>
        <time>2011-07-08T07:46:30Z</time>
      </trkpt>
      <trkpt lat="45.12824" lon="5.59073">
        <ele>1019.62</ele>
        <time>2011-07-08T07:46:25Z</time>
      </trkpt>
      <trkpt lat="45.12821" lon="5.59067">
        <ele>1021.06</ele>
        <time>2011-07-08T07:46:08Z</time>
      </trkpt>
      <trkpt lat="45.12811" lon="5.59057">
        <ele>1021.54</ele>
        <time>2011-07-08T07:45:58Z</time>
      </trkpt>
      <trkpt lat="45.12801" lon="5.59029">
        <ele>1021.06</ele>
        <time>2011-07-08T07:45:48Z</time>
      </trkpt>
      <trkpt lat="45.12809" lon="5.58969">
        <ele>1018.65</ele>
        <time>2011-07-08T07:45:33Z</time>
      </trkpt>
      <trkpt lat="45.12817" lon="5.58905">
        <ele>1017.21</ele>
        <time>2011-07-08T07:45:17Z</time>
      </trkpt>
      <trkpt lat="45.12827" lon="5.5885">
        <ele>1016.25</ele>
        <time>2011-07-08T07:45:03Z</time>
      </trkpt>
      <trkpt lat="45.12828" lon="5.58847">
        <ele>1016.25</ele>
        <time>2011-07-08T07:45:02Z</time>
      </trkpt>
      <trkpt lat="45.12828" lon="5.58843">
        <ele>1015.77</ele>
        <time>2011-07-08T07:45:01Z</time>
      </trkpt>
      <trkpt lat="45.12828" lon="5.58839">
        <ele>1015.77</ele>
        <time>2011-07-08T07:45:00Z</time>
      </trkpt>
      <trkpt lat="45.12829" lon="5.58836">
        <ele>1015.29</ele>
        <time>2011-07-08T07:44:59Z</time>
      </trkpt>
      <trkpt lat="45.12829" lon="5.58833">
        <ele>1014.81</ele>
        <time>2011-07-08T07:44:58Z</time>
      </trkpt>
      <trkpt lat="45.1283" lon="5.5883">
        <ele>1014.81</ele>
        <time>2011-07-08T07:44:57Z</time>
      </trkpt>
      <trkpt lat="45.12834" lon="5.58826">
        <ele>1013.85</ele>
        <time>2011-07-08T07:44:55Z</time>
      </trkpt>
      <trkpt lat="45.1284" lon="5.58803">
        <ele>1007.6</ele>
        <time>2011-07-08T07:44:43Z</time>
      </trkpt>
      <trkpt lat="45.12844" lon="5.5879">
        <ele>1003.75</ele>
        <time>2011-07-08T07:44:31Z</time>
      </trkpt>
      <trkpt lat="45.12844" lon="5.58787">
        <ele>1002.79</ele>
        <time>2011-07-08T07:44:30Z</time>
      </trkpt>
      <trkpt lat="45.12844" lon="5.58785">
        <ele>1002.31</ele>
        <time>2011-07-08T07:44:29Z</time>
      </trkpt>
      <trkpt lat="45.12846" lon="5.58778">
        <ele>1001.83</ele>
        <time>2011-07-08T07:44:26Z</time>
      </trkpt>
      <trkpt lat="45.12847" lon="5.58775">
        <ele>1001.35</ele>
        <time>2011-07-08T07:44:25Z</time>
      </trkpt>
      <trkpt lat="45.12849" lon="5.58771">
        <ele>1001.83</ele>
        <time>2011-07-08T07:44:24Z</time>
      </trkpt>
      <trkpt lat="45.1285" lon="5.58768">
        <ele>1001.83</ele>
        <time>2011-07-08T07:44:23Z</time>
      </trkpt>
      <trkpt lat="45.12862" lon="5.58727">
        <ele>1015.9375</ele>
      </trkpt>
      <trkpt lat="45.1298" lon="5.58343">
        <ele>1008.3515625</ele>
      </trkpt>
      <trkpt lat="45.12957" lon="5.58327">
        <ele>1008.5859375</ele>
      </trkpt>
      <trkpt lat="45.12931" lon="5.5831">
        <ele>1007.84375</ele>
      </trkpt>
      <trkpt lat="45.12893" lon="5.58299">
        <ele>1007.0117188</ele>
      </trkpt>
      <trkpt lat="45.12835" lon="5.58292">
        <ele>1006.7539063</ele>
      </trkpt>
      <trkpt lat="45.12787" lon="5.58274">
        <ele>1007.6875</ele>
      </trkpt>
      <trkpt lat="45.12536" lon="5.58195">
        <ele>1005.2734375</ele>
      </trkpt>
      <trkpt lat="45.12508" lon="5.58183">
        <ele>999.91</ele>
        <time>2011-07-08T07:41:38Z</time>
      </trkpt>
      <trkpt lat="45.12443" lon="5.58163">
        <ele>998.95</ele>
        <time>2011-07-08T07:41:21Z</time>
      </trkpt>
      <trkpt lat="45.1237" lon="5.58139">
        <ele>998.47</ele>
        <time>2011-07-08T07:41:03Z</time>
      </trkpt>
      <trkpt lat="45.12298" lon="5.58114">
        <ele>999.43</ele>
        <time>2011-07-08T07:40:46Z</time>
      </trkpt>
      <trkpt lat="45.12227" lon="5.58091">
        <ele>998.95</ele>
        <time>2011-07-08T07:40:29Z</time>
      </trkpt>
      <trkpt lat="45.12194" lon="5.5808">
        <ele>998.95</ele>
        <time>2011-07-08T07:40:21Z</time>
      </trkpt>
      <trkpt lat="45.12124" lon="5.58055">
        <ele>996.54</ele>
        <time>2011-07-08T07:40:04Z</time>
      </trkpt>
      <trkpt lat="45.1212" lon="5.58053">
        <ele>996.54</ele>
        <time>2011-07-08T07:40:03Z</time>
      </trkpt>
      <trkpt lat="45.12112" lon="5.58051">
        <ele>996.06</ele>
        <time>2011-07-08T07:40:01Z</time>
      </trkpt>
      <trkpt lat="45.12045" lon="5.58027">
        <ele>995.1</ele>
        <time>2011-07-08T07:39:44Z</time>
      </trkpt>
      <trkpt lat="45.11984" lon="5.57993">
        <ele>996.06</ele>
        <time>2011-07-08T07:39:28Z</time>
      </trkpt>
      <trkpt lat="45.11922" lon="5.57952">
        <ele>997.02</ele>
        <time>2011-07-08T07:39:11Z</time>
      </trkpt>
      <trkpt lat="45.11864" lon="5.57911">
        <ele>994.14</ele>
        <time>2011-07-08T07:38:56Z</time>
      </trkpt>
      <trkpt lat="45.11775" lon="5.57849">
        <ele>993.66</ele>
        <time>2011-07-08T07:38:34Z</time>
      </trkpt>
      <trkpt lat="45.11707" lon="5.57802">
        <ele>994.14</ele>
        <time>2011-07-08T07:38:17Z</time>
      </trkpt>
      <trkpt lat="45.11645" lon="5.57758">
        <ele>993.18</ele>
        <time>2011-07-08T07:38:01Z</time>
      </trkpt>
      <trkpt lat="45.11584" lon="5.57715">
        <ele>993.18</ele>
        <time>2011-07-08T07:37:44Z</time>
      </trkpt>
      <trkpt lat="45.11581" lon="5.57712">
        <ele>993.18</ele>
        <time>2011-07-08T07:37:43Z</time>
      </trkpt>
      <trkpt lat="45.11577" lon="5.5771">
        <ele>993.18</ele>
        <time>2011-07-08T07:37:42Z</time>
      </trkpt>
      <trkpt lat="45.11526" lon="5.57676">
        <ele>992.7</ele>
        <time>2011-07-08T07:37:28Z</time>
      </trkpt>
      <trkpt lat="45.11497" lon="5.57655">
        <ele>992.22</ele>
        <time>2011-07-08T07:37:20Z</time>
      </trkpt>
      <trkpt lat="45.11453" lon="5.57625">
        <ele>992.22</ele>
        <time>2011-07-08T07:37:08Z</time>
      </trkpt>
      <trkpt lat="45.1145" lon="5.57622">
        <ele>992.22</ele>
        <time>2011-07-08T07:37:07Z</time>
      </trkpt>
      <trkpt lat="45.11418" lon="5.576">
        <ele>991.26</ele>
        <time>2011-07-08T07:36:58Z</time>
      </trkpt>
      <trkpt lat="45.1137" lon="5.57565">
        <ele>989.81</ele>
        <time>2011-07-08T07:36:44Z</time>
      </trkpt>
      <trkpt lat="45.11322" lon="5.57533">
        <ele>990.3</ele>
        <time>2011-07-08T07:36:29Z</time>
      </trkpt>
      <trkpt lat="45.11293" lon="5.57512">
        <ele>990.78</ele>
        <time>2011-07-08T07:36:16Z</time>
      </trkpt>
      <trkpt lat="45.11276" lon="5.57502">
        <ele>991.26</ele>
        <time>2011-07-08T07:36:04Z</time>
      </trkpt>
      <trkpt lat="45.11275" lon="5.57501">
        <ele>990.78</ele>
        <time>2011-07-08T07:36:03Z</time>
      </trkpt>
      <trkpt lat="45.11275" lon="5.57499">
        <ele>990.78</ele>
        <time>2011-07-08T07:35:36Z</time>
      </trkpt>
      <trkpt lat="45.11273" lon="5.57498">
        <ele>991.26</ele>
        <time>2011-07-08T07:35:21Z</time>
      </trkpt>
      <trkpt lat="45.11272" lon="5.57497">
        <ele>991.74</ele>
        <time>2011-07-08T07:35:20Z</time>
      </trkpt>
      <trkpt lat="45.1127" lon="5.57496">
        <ele>991.26</ele>
        <time>2011-07-08T07:35:19Z</time>
      </trkpt>
      <trkpt lat="45.11268" lon="5.57494">
        <ele>991.26</ele>
        <time>2011-07-08T07:35:18Z</time>
      </trkpt>
      <trkpt lat="45.11265" lon="5.57492">
        <ele>991.26</ele>
        <time>2011-07-08T07:35:17Z</time>
      </trkpt>
      <trkpt lat="45.11262" lon="5.5749">
        <ele>991.26</ele>
        <time>2011-07-08T07:35:16Z</time>
      </trkpt>
      <trkpt lat="45.11254" lon="5.57486">
        <ele>991.26</ele>
        <time>2011-07-08T07:35:14Z</time>
      </trkpt>
      <trkpt lat="45.11234" lon="5.57473">
        <ele>991.74</ele>
        <time>2011-07-08T07:35:09Z</time>
      </trkpt>
      <trkpt lat="45.11166" lon="5.57425">
        <ele>989.81</ele>
        <time>2011-07-08T07:34:52Z</time>
      </trkpt>
      <trkpt lat="45.111" lon="5.57366">
        <ele>988.37</ele>
        <time>2011-07-08T07:34:34Z</time>
      </trkpt>
      <trkpt lat="45.11087" lon="5.57351">
        <ele>987.89</ele>
        <time>2011-07-08T07:34:30Z</time>
      </trkpt>
      <trkpt lat="45.11043" lon="5.57301">
        <ele>989.33</ele>
        <time>2011-07-08T07:34:16Z</time>
      </trkpt>
      <trkpt lat="45.10982" lon="5.57233">
        <ele>989.33</ele>
        <time>2011-07-08T07:33:58Z</time>
      </trkpt>
      <trkpt lat="45.1092" lon="5.57159">
        <ele>988.85</ele>
        <time>2011-07-08T07:33:39Z</time>
      </trkpt>
      <trkpt lat="45.10907" lon="5.57147">
        <ele>991.7070313</ele>
      </trkpt>
      <trkpt lat="45.10886" lon="5.57121">
        <ele>991.6523438</ele>
      </trkpt>
      <trkpt lat="45.10754" lon="5.56966">
        <ele>990.9296875</ele>
      </trkpt>
      <trkpt lat="45.10569" lon="5.56758">
        <ele>989.796875</ele>
      </trkpt>
      <trkpt lat="45.10568" lon="5.56758">
        <ele>989.8203125</ele>
      </trkpt>
      <trkpt lat="45.1049" lon="5.56662">
        <ele>990.046875</ele>
      </trkpt>
      <trkpt lat="45.10395" lon="5.56573">
        <ele>989</ele>
      </trkpt>
      <trkpt lat="45.10103" lon="5.56312">
        <ele>986.4257813</ele>
      </trkpt>
      <trkpt lat="45.101" lon="5.56319">
        <ele>985.8</ele>
      </trkpt>
      <trkpt lat="45.101" lon="5.56345">
        <ele>986.2</ele>
      </trkpt>
      <trkpt lat="45.10098" lon="5.56367">
        <ele>986</ele>
      </trkpt>
      <trkpt lat="45.10098" lon="5.56367">
        <ele>986</ele>
      </trkpt>
      <trkpt lat="45.10097" lon="5.56399">
        <ele>985.9</ele>
      </trkpt>
      <trkpt lat="45.10099" lon="5.56421">
        <ele>986</ele>
      </trkpt>
      <trkpt lat="45.10103" lon="5.56433">
        <ele>986.4</ele>
      </trkpt>
      <trkpt lat="45.10109" lon="5.56453">
        <ele>987</ele>
      </trkpt>
      <trkpt lat="45.10117" lon="5.56496">
        <ele>987.9</ele>
      </trkpt>
      <trkpt lat="45.10122" lon="5.56529">
        <ele>988.9</ele>
      </trkpt>
      <trkpt lat="45.10123" lon="5.56548">
        <ele>989.3</ele>
      </trkpt>
      <trkpt lat="45.10112" lon="5.56593">
        <ele>990.3</ele>
      </trkpt>
      <trkpt lat="45.10107" lon="5.56618">
        <ele>991.5</ele>
      </trkpt>
      <trkpt lat="45.10103" lon="5.56634">
        <ele>992.2</ele>
      </trkpt>
      <trkpt lat="45.10102" lon="5.56738">
        <ele>998.4</ele>
      </trkpt>
      <trkpt lat="45.10103" lon="5.56789">
        <ele>1000.8</ele>
      </trkpt>
      <trkpt lat="45.1009" lon="5.56874">
        <ele>1004.3</ele>
      </trkpt>
      <trkpt lat="45.10083" lon="5.56903">
        <ele>1005.9</ele>
      </trkpt>
      <trkpt lat="45.10081" lon="5.56957">
        <ele>1008.7</ele>
      </trkpt>
      <trkpt lat="45.10063" lon="5.57077">
        <ele>1006.5</ele>
      </trkpt>
      <trkpt lat="45.1006" lon="5.57116">
        <ele>1005.5</ele>
      </trkpt>
      <trkpt lat="45.1006" lon="5.57116">
        <ele>1005.5</ele>
      </trkpt>
      <trkpt lat="45.10041" lon="5.57242">
        <ele>1003.1</ele>
      </trkpt>
      <trkpt lat="45.10035" lon="5.57284">
        <ele>1003</ele>
      </trkpt>
      <trkpt lat="45.10031" lon="5.57306">
        <ele>1003</ele>
      </trkpt>
      <trkpt lat="45.10026" lon="5.57339">
        <ele>1003</ele>
      </trkpt>
      <trkpt lat="45.10023" lon="5.57363">
        <ele>1003.2</ele>
      </trkpt>
      <trkpt lat="45.10023" lon="5.57386">
        <ele>1003.4</ele>
      </trkpt>
      <trkpt lat="45.10022" lon="5.5743">
        <ele>1004.5</ele>
      </trkpt>
      <trkpt lat="45.10022" lon="5.5743">
        <ele>1004.5</ele>
      </trkpt>
      <trkpt lat="45.1003" lon="5.57461">
        <ele>1006.8</ele>
      </trkpt>
      <trkpt lat="45.10034" lon="5.57516">
        <ele>1009.9</ele>
      </trkpt>
      <trkpt lat="45.10047" lon="5.57568">
        <ele>1010</ele>
      </trkpt>
      <trkpt lat="45.10046" lon="5.57584">
        <ele>1010.2</ele>
      </trkpt>
      <trkpt lat="45.1004" lon="5.57614">
        <ele>1011</ele>
      </trkpt>
      <trkpt lat="45.1003" lon="5.57643">
        <ele>1012</ele>
      </trkpt>
      <trkpt lat="45.1002" lon="5.57664">
        <ele>1012.8</ele>
      </trkpt>
      <trkpt lat="45.10007" lon="5.57704">
        <ele>1015</ele>
      </trkpt>
      <trkpt lat="45.09983" lon="5.57793">
        <ele>1019.1</ele>
      </trkpt>
      <trkpt lat="45.09968" lon="5.57836">
        <ele>1020.8</ele>
      </trkpt>
      <trkpt lat="45.09955" lon="5.57887">
        <ele>1023.7</ele>
      </trkpt>
      <trkpt lat="45.09947" lon="5.57916">
        <ele>1025.3</ele>
      </trkpt>
      <trkpt lat="45.09942" lon="5.57947">
        <ele>1025.9</ele>
      </trkpt>
      <trkpt lat="45.09942" lon="5.58005">
        <ele>1027.3</ele>
      </trkpt>
      <trkpt lat="45.09942" lon="5.58005">
        <ele>1027.3</ele>
      </trkpt>
      <trkpt lat="45.09903" lon="5.58018">
        <ele>1028.5</ele>
      </trkpt>
      <trkpt lat="45.09894" lon="5.58021">
        <ele>1028.4</ele>
      </trkpt>
      <trkpt lat="45.09886" lon="5.58024">
        <ele>1028.3</ele>
      </trkpt>
      <trkpt lat="45.09882" lon="5.58042">
        <ele>1029.5</ele>
      </trkpt>
      <trkpt lat="45.09876" lon="5.58058">
        <ele>1030.6</ele>
      </trkpt>
      <trkpt lat="45.09873" lon="5.58078">
        <ele>1032.1</ele>
      </trkpt>
      <trkpt lat="45.09869" lon="5.58096">
        <ele>1033</ele>
      </trkpt>
      <trkpt lat="45.09866" lon="5.58124">
        <ele>1034.4</ele>
      </trkpt>
      <trkpt lat="45.09856" lon="5.58164">
        <ele>1036.1</ele>
      </trkpt>
      <trkpt lat="45.09846" lon="5.58197">
        <ele>1038.7</ele>
      </trkpt>
      <trkpt lat="45.09828" lon="5.58234">
        <ele>1041.5</ele>
      </trkpt>
      <trkpt lat="45.09818" lon="5.58246">
        <ele>1041.9</ele>
      </trkpt>
      <trkpt lat="45.09814" lon="5.58262">
        <ele>1043.1</ele>
      </trkpt>
      <trkpt lat="45.09825" lon="5.58288">
        <ele>1046.1</ele>
      </trkpt>
      <trkpt lat="45.09835" lon="5.58305">
        <ele>1048.2</ele>
      </trkpt>
      <trkpt lat="45.09845" lon="5.58319">
        <ele>1049.6</ele>
      </trkpt>
      <trkpt lat="45.09868" lon="5.58348">
        <ele>1052.9</ele>
      </trkpt>
      <trkpt lat="45.09894" lon="5.5837">
        <ele>1056.4</ele>
      </trkpt>
      <trkpt lat="45.0992" lon="5.58385">
        <ele>1058.9</ele>
      </trkpt>
      <trkpt lat="45.0994" lon="5.58403">
        <ele>1060.9</ele>
      </trkpt>
      <trkpt lat="45.09956" lon="5.58434">
        <ele>1064.3</ele>
      </trkpt>
      <trkpt lat="45.0997" lon="5.58466">
        <ele>1068.2</ele>
      </trkpt>
      <trkpt lat="45.0998" lon="5.58483">
        <ele>1070.1</ele>
      </trkpt>
      <trkpt lat="45.09991" lon="5.58504">
        <ele>1072.7</ele>
      </trkpt>
      <trkpt lat="45.09991" lon="5.58504">
        <ele>1072.7</ele>
      </trkpt>
      <trkpt lat="45.09965" lon="5.58519">
        <ele>1075.3</ele>
      </trkpt>
      <trkpt lat="45.09934" lon="5.58523">
        <ele>1076.6</ele>
      </trkpt>
      <trkpt lat="45.09905" lon="5.58515">
        <ele>1075.1</ele>
      </trkpt>
      <trkpt lat="45.09889" lon="5.58518">
        <ele>1074.3</ele>
      </trkpt>
      <trkpt lat="45.09879" lon="5.58536">
        <ele>1075.5</ele>
      </trkpt>
      <trkpt lat="45.09874" lon="5.58553">
        <ele>1076.8</ele>
      </trkpt>
      <trkpt lat="45.0987" lon="5.58582">
        <ele>1079.2</ele>
      </trkpt>
      <trkpt lat="45.0987" lon="5.58608">
        <ele>1082</ele>
      </trkpt>
      <trkpt lat="45.09872" lon="5.58624">
        <ele>1084</ele>
      </trkpt>
      <trkpt lat="45.09878" lon="5.58632">
        <ele>1085.7</ele>
      </trkpt>
      <trkpt lat="45.099" lon="5.58635">
        <ele>1089</ele>
      </trkpt>
      <trkpt lat="45.09923" lon="5.58641">
        <ele>1092</ele>
      </trkpt>
      <trkpt lat="45.09932" lon="5.58664">
        <ele>1095.2</ele>
      </trkpt>
      <trkpt lat="45.09939" lon="5.58686">
        <ele>1098.8</ele>
      </trkpt>
      <trkpt lat="45.09939" lon="5.58686">
        <ele>1098.8</ele>
      </trkpt>
      <trkpt lat="45.09967" lon="5.58707">
        <ele>1103.2</ele>
      </trkpt>
      <trkpt lat="45.09981" lon="5.58712">
        <ele>1104.4</ele>
      </trkpt>
      <trkpt lat="45.10005" lon="5.58717">
        <ele>1105.8</ele>
      </trkpt>
      <trkpt lat="45.1003" lon="5.58726">
        <ele>1106.9</ele>
      </trkpt>
      <trkpt lat="45.10045" lon="5.58729">
        <ele>1107</ele>
      </trkpt>
      <trkpt lat="45.10065" lon="5.5873">
        <ele>1106.9</ele>
      </trkpt>
      <trkpt lat="45.10093" lon="5.58721">
        <ele>1105.7</ele>
      </trkpt>
      <trkpt lat="45.10093" lon="5.58721">
        <ele>1105.7</ele>
      </trkpt>
      <trkpt lat="45.10087" lon="5.58746">
        <ele>1108.7</ele>
      </trkpt>
      <trkpt lat="45.10077" lon="5.5877">
        <ele>1111.9</ele>
      </trkpt>
      <trkpt lat="45.10075" lon="5.58787">
        <ele>1114.2</ele>
      </trkpt>
      <trkpt lat="45.10035" lon="5.58837">
        <ele>1123</ele>
      </trkpt>
      <trkpt lat="45.10016" lon="5.58851">
        <ele>1127.1</ele>
      </trkpt>
      <trkpt lat="45.09993" lon="5.58886">
        <ele>1136.2</ele>
      </trkpt>
      <trkpt lat="45.09987" lon="5.58912">
        <ele>1142.7</ele>
      </trkpt>
      <trkpt lat="45.09987" lon="5.58912">
        <ele>1142.7</ele>
      </trkpt>
      <trkpt lat="45.10005" lon="5.5892">
        <ele>1144</ele>
      </trkpt>
      <trkpt lat="45.10019" lon="5.58931">
        <ele>1147.8</ele>
      </trkpt>
      <trkpt lat="45.10019" lon="5.58931">
        <ele>1147.8</ele>
      </trkpt>
      <trkpt lat="45.10029" lon="5.58933">
        <ele>1148.2</ele>
      </trkpt>
      <trkpt lat="45.10039" lon="5.58961">
        <ele>1159.8</ele>
      </trkpt>
      <trkpt lat="45.10052" lon="5.58983">
        <ele>1169</ele>
      </trkpt>
      <trkpt lat="45.10067" lon="5.58995">
        <ele>1173.5</ele>
      </trkpt>
      <trkpt lat="45.1008" lon="5.58998">
        <ele>1174.1</ele>
      </trkpt>
      <trkpt lat="45.10096" lon="5.59002">
        <ele>1175.6</ele>
      </trkpt>
      <trkpt lat="45.10124" lon="5.59003">
        <ele>1176.1</ele>
      </trkpt>
      <trkpt lat="45.10166" lon="5.58998">
        <ele>1174.3</ele>
      </trkpt>
      <trkpt lat="45.10187" lon="5.59001">
        <ele>1174.7</ele>
      </trkpt>
      <trkpt lat="45.10225" lon="5.5902">
        <ele>1181.8</ele>
      </trkpt>
      <trkpt lat="45.10257" lon="5.59029">
        <ele>1185.6</ele>
      </trkpt>
      <trkpt lat="45.10287" lon="5.59033">
        <ele>1187.1</ele>
      </trkpt>
      <trkpt lat="45.10317" lon="5.59034">
        <ele>1187.9</ele>
      </trkpt>
      <trkpt lat="45.10345" lon="5.5903">
        <ele>1184.5</ele>
      </trkpt>
      <trkpt lat="45.10391" lon="5.59036">
        <ele>1182.4</ele>
      </trkpt>
      <trkpt lat="45.10405" lon="5.59047">
        <ele>1186.4</ele>
      </trkpt>
      <trkpt lat="45.1044" lon="5.59074">
        <ele>1193.4</ele>
      </trkpt>
      <trkpt lat="45.10464" lon="5.59099">
        <ele>1199.8</ele>
      </trkpt>
      <trkpt lat="45.10533" lon="5.59143">
        <ele>1211.4</ele>
      </trkpt>
      <trkpt lat="45.10567" lon="5.5916">
        <ele>1215.2</ele>
      </trkpt>
      <trkpt lat="45.10587" lon="5.59173">
        <ele>1218.2</ele>
      </trkpt>
      <trkpt lat="45.10628" lon="5.59198">
        <ele>1223.4</ele>
      </trkpt>
      <trkpt lat="45.10663" lon="5.59235">
        <ele>1234.7</ele>
      </trkpt>
      <trkpt lat="45.10692" lon="5.59255">
        <ele>1239.7</ele>
      </trkpt>
      <trkpt lat="45.1073" lon="5.59272">
        <ele>1242</ele>
      </trkpt>
      <trkpt lat="45.10795" lon="5.59298">
        <ele>1245.3</ele>
      </trkpt>
      <trkpt lat="45.10815" lon="5.59312">
        <ele>1248.3</ele>
      </trkpt>
      <trkpt lat="45.10823" lon="5.59327">
        <ele>1252.9</ele>
      </trkpt>
      <trkpt lat="45.10837" lon="5.59343">
        <ele>1257.5</ele>
      </trkpt>
      <trkpt lat="45.1088" lon="5.59362">
        <ele>1262.3</ele>
      </trkpt>
      <trkpt lat="45.10936" lon="5.59371">
        <ele>1264.8</ele>
      </trkpt>
      <trkpt lat="45.10993" lon="5.59373">
        <ele>1269.2</ele>
      </trkpt>
      <trkpt lat="45.11053" lon="5.59372">
        <ele>1274.7</ele>
      </trkpt>
      <trkpt lat="45.11053" lon="5.59372">
        <ele>1274.7</ele>
      </trkpt>
      <trkpt lat="45.1108" lon="5.59367">
        <ele>1275.2</ele>
      </trkpt>
      <trkpt lat="45.11125" lon="5.59386">
        <ele>1283.4</ele>
      </trkpt>
      <trkpt lat="45.11152" lon="5.594">
        <ele>1289.7</ele>
      </trkpt>
      <trkpt lat="45.11211" lon="5.59425">
        <ele>1290.2</ele>
      </trkpt>
      <trkpt lat="45.11243" lon="5.5944">
        <ele>1286.8</ele>
      </trkpt>
      <trkpt lat="45.11262" lon="5.59463">
        <ele>1285</ele>
      </trkpt>
      <trkpt lat="45.11273" lon="5.59489">
        <ele>1283.7</ele>
      </trkpt>
      <trkpt lat="45.11265" lon="5.5952">
        <ele>1289.4</ele>
      </trkpt>
      <trkpt lat="45.1126" lon="5.59541">
        <ele>1290.6</ele>
      </trkpt>
      <trkpt lat="45.11256" lon="5.59563">
        <ele>1291.8</ele>
      </trkpt>
      <trkpt lat="45.11253" lon="5.59589">
        <ele>1291.1</ele>
      </trkpt>
      <trkpt lat="45.11246" lon="5.59603">
        <ele>1292</ele>
      </trkpt>
      <trkpt lat="45.11231" lon="5.59619">
        <ele>1295.4</ele>
      </trkpt>
      <trkpt lat="45.11216" lon="5.59637">
        <ele>1298.3</ele>
      </trkpt>
      <trkpt lat="45.11203" lon="5.59664">
        <ele>1299.8</ele>
      </trkpt>
      <trkpt lat="45.11185" lon="5.59678">
        <ele>1305.4</ele>
      </trkpt>
      <trkpt lat="45.11159" lon="5.597">
        <ele>1313.9</ele>
      </trkpt>
      <trkpt lat="45.11138" lon="5.59708">
        <ele>1320.8</ele>
      </trkpt>
      <trkpt lat="45.11131" lon="5.59745">
        <ele>1324.6</ele>
      </trkpt>
      <trkpt lat="45.11127" lon="5.59764">
        <ele>1327.4</ele>
      </trkpt>
      <trkpt lat="45.11127" lon="5.59764">
        <ele>1327.4</ele>
      </trkpt>
      <trkpt lat="45.11135" lon="5.59791">
        <ele>1326.3</ele>
      </trkpt>
      <trkpt lat="45.11141" lon="5.59816">
        <ele>1326</ele>
      </trkpt>
      <trkpt lat="45.11144" lon="5.59839">
        <ele>1326</ele>
      </trkpt>
      <trkpt lat="45.11148" lon="5.59865">
        <ele>1324.2</ele>
      </trkpt>
      <trkpt lat="45.11142" lon="5.59903">
        <ele>1325.6</ele>
      </trkpt>
      <trkpt lat="45.11144" lon="5.59928">
        <ele>1322.7</ele>
      </trkpt>
      <trkpt lat="45.11146" lon="5.59955">
        <ele>1316.1</ele>
      </trkpt>
      <trkpt lat="45.11142" lon="5.5997">
        <ele>1314.7</ele>
      </trkpt>
      <trkpt lat="45.11133" lon="5.59966">
        <ele>1319</ele>
      </trkpt>
      <trkpt lat="45.1113" lon="5.59953">
        <ele>1322.7</ele>
      </trkpt>
      <trkpt lat="45.11129" lon="5.59933">
        <ele>1327.2</ele>
      </trkpt>
      <trkpt lat="45.11128" lon="5.5991">
        <ele>1331</ele>
      </trkpt>
      <trkpt lat="45.11126" lon="5.59873">
        <ele>1332.6</ele>
      </trkpt>
      <trkpt lat="45.11115" lon="5.59839">
        <ele>1337.8</ele>
      </trkpt>
      <trkpt lat="45.11101" lon="5.59823">
        <ele>1343</ele>
      </trkpt>
      <trkpt lat="45.11089" lon="5.59802">
        <ele>1345.7</ele>
      </trkpt>
      <trkpt lat="45.11076" lon="5.59788">
        <ele>1349</ele>
      </trkpt>
      <trkpt lat="45.11054" lon="5.59764">
        <ele>1353.9</ele>
      </trkpt>
      <trkpt lat="45.11034" lon="5.59754">
        <ele>1359.3</ele>
      </trkpt>
      <trkpt lat="45.11022" lon="5.59739">
        <ele>1360.6</ele>
      </trkpt>
      <trkpt lat="45.10986" lon="5.59732">
        <ele>1368</ele>
      </trkpt>
      <trkpt lat="45.10956" lon="5.59725">
        <ele>1371.5</ele>
      </trkpt>
      <trkpt lat="45.10939" lon="5.59724">
        <ele>1374.3</ele>
      </trkpt>
      <trkpt lat="45.10917" lon="5.59719">
        <ele>1376.5</ele>
      </trkpt>
      <trkpt lat="45.10894" lon="5.59722">
        <ele>1381</ele>
      </trkpt>
      <trkpt lat="45.10871" lon="5.5973">
        <ele>1387.8</ele>
      </trkpt>
      <trkpt lat="45.10844" lon="5.59724">
        <ele>1389.6</ele>
      </trkpt>
      <trkpt lat="45.10818" lon="5.59724">
        <ele>1392.9</ele>
      </trkpt>
      <trkpt lat="45.10733" lon="5.59727">
        <ele>1403.8</ele>
      </trkpt>
      <trkpt lat="45.10652" lon="5.59723">
        <ele>1411.5</ele>
      </trkpt>
      <trkpt lat="45.10582" lon="5.59722">
        <ele>1417.3</ele>
      </trkpt>
      <trkpt lat="45.10497" lon="5.59712">
        <ele>1419.9</ele>
      </trkpt>
      <trkpt lat="45.10391" lon="5.59705">
        <ele>1425.7</ele>
      </trkpt>
      <trkpt lat="45.10315" lon="5.59701">
        <ele>1432.3</ele>
      </trkpt>
      <trkpt lat="45.10253" lon="5.59687">
        <ele>1433.4</ele>
      </trkpt>
      <trkpt lat="45.10214" lon="5.59669">
        <ele>1432.6</ele>
      </trkpt>
      <trkpt lat="45.10198" lon="5.59654">
        <ele>1430.2</ele>
      </trkpt>
      <trkpt lat="45.10173" lon="5.59645">
        <ele>1430.1</ele>
      </trkpt>
      <trkpt lat="45.10158" lon="5.59656">
        <ele>1432.5</ele>
      </trkpt>
      <trkpt lat="45.1015" lon="5.5966">
        <ele>1432.9</ele>
      </trkpt>
      <trkpt lat="45.10138" lon="5.59674">
        <ele>1434.5</ele>
      </trkpt>
      <trkpt lat="45.1013" lon="5.59684">
        <ele>1435.3</ele>
      </trkpt>
      <trkpt lat="45.10128" lon="5.59695">
        <ele>1436.5</ele>
      </trkpt>
      <trkpt lat="45.10126" lon="5.59712">
        <ele>1438.4</ele>
      </trkpt>
      <trkpt lat="45.10122" lon="5.59727">
        <ele>1440.1</ele>
      </trkpt>
      <trkpt lat="45.10115" lon="5.59738">
        <ele>1441.2</ele>
      </trkpt>
      <trkpt lat="45.10095" lon="5.59743">
        <ele>1441.4</ele>
      </trkpt>
      <trkpt lat="45.10085" lon="5.59751">
        <ele>1442.3</ele>
      </trkpt>
      <trkpt lat="45.10076" lon="5.5976">
        <ele>1443.9</ele>
      </trkpt>
      <trkpt lat="45.10061" lon="5.59772">
        <ele>1446.2</ele>
      </trkpt>
      <trkpt lat="45.10052" lon="5.59769">
        <ele>1446</ele>
      </trkpt>
      <trkpt lat="45.10034" lon="5.59736">
        <ele>1442.3</ele>
      </trkpt>
      <trkpt lat="45.10015" lon="5.59717">
        <ele>1441</ele>
      </trkpt>
      <trkpt lat="45.09998" lon="5.59705">
        <ele>1440.5</ele>
      </trkpt>
      <trkpt lat="45.09998" lon="5.59705">
        <ele>1440.5</ele>
      </trkpt>
      <trkpt lat="45.09986" lon="5.59694">
        <ele>1438.7</ele>
      </trkpt>
      <trkpt lat="45.09977" lon="5.59688">
        <ele>1437.6</ele>
      </trkpt>
      <trkpt lat="45.09957" lon="5.59677">
        <ele>1435.3</ele>
      </trkpt>
      <trkpt lat="45.09949" lon="5.59669">
        <ele>1434.1</ele>
      </trkpt>
      <trkpt lat="45.09937" lon="5.59662">
        <ele>1432.5</ele>
      </trkpt>
      <trkpt lat="45.09919" lon="5.59651">
        <ele>1430.5</ele>
      </trkpt>
      <trkpt lat="45.09918" lon="5.59626">
        <ele>1428.1</ele>
      </trkpt>
      <trkpt lat="45.09907" lon="5.59609">
        <ele>1425.3</ele>
      </trkpt>
      <trkpt lat="45.09898" lon="5.59595">
        <ele>1423</ele>
      </trkpt>
      <trkpt lat="45.09878" lon="5.59606">
        <ele>1421.7</ele>
      </trkpt>
      <trkpt lat="45.09859" lon="5.59628">
        <ele>1420.9</ele>
      </trkpt>
      <trkpt lat="45.09844" lon="5.59655">
        <ele>1420.7</ele>
      </trkpt>
      <trkpt lat="45.09835" lon="5.59683">
        <ele>1422.6</ele>
      </trkpt>
      <trkpt lat="45.09831" lon="5.597">
        <ele>1424.9</ele>
      </trkpt>
      <trkpt lat="45.09829" lon="5.59728">
        <ele>1429.2</ele>
      </trkpt>
      <trkpt lat="45.09824" lon="5.59751">
        <ele>1432.2</ele>
      </trkpt>
      <trkpt lat="45.09798" lon="5.59753">
        <ele>1430.2</ele>
      </trkpt>
      <trkpt lat="45.09761" lon="5.59757">
        <ele>1427.6</ele>
      </trkpt>
      <trkpt lat="45.09724" lon="5.59755">
        <ele>1425.7</ele>
      </trkpt>
      <trkpt lat="45.09689" lon="5.59742">
        <ele>1422.7</ele>
      </trkpt>
      <trkpt lat="45.09674" lon="5.5973">
        <ele>1420</ele>
      </trkpt>
      <trkpt lat="45.09643" lon="5.59714">
        <ele>1416.3</ele>
      </trkpt>
      <trkpt lat="45.09613" lon="5.59715">
        <ele>1416</ele>
      </trkpt>
      <trkpt lat="45.0958" lon="5.59722">
        <ele>1416.7</ele>
      </trkpt>
      <trkpt lat="45.09559" lon="5.59719">
        <ele>1416.4</ele>
      </trkpt>
      <trkpt lat="45.09522" lon="5.59679">
        <ele>1410.7</ele>
      </trkpt>
      <trkpt lat="45.09506" lon="5.59673">
        <ele>1409.9</ele>
      </trkpt>
      <trkpt lat="45.09478" lon="5.59673">
        <ele>1412.1</ele>
      </trkpt>
      <trkpt lat="45.09465" lon="5.59671">
        <ele>1412.9</ele>
      </trkpt>
      <trkpt lat="45.09459" lon="5.59663">
        <ele>1412.5</ele>
      </trkpt>
      <trkpt lat="45.09447" lon="5.59641">
        <ele>1411</ele>
      </trkpt>
      <trkpt lat="45.09438" lon="5.59614">
        <ele>1408.3</ele>
      </trkpt>
      <trkpt lat="45.09435" lon="5.59585">
        <ele>1404.9</ele>
      </trkpt>
      <trkpt lat="45.0943" lon="5.59569">
        <ele>1403</ele>
      </trkpt>
      <trkpt lat="45.09415" lon="5.59544">
        <ele>1400.5</ele>
      </trkpt>
      <trkpt lat="45.094" lon="5.59531">
        <ele>1399.7</ele>
      </trkpt>
      <trkpt lat="45.09378" lon="5.59523">
        <ele>1400.1</ele>
      </trkpt>
      <trkpt lat="45.09342" lon="5.59528">
        <ele>1403.3</ele>
      </trkpt>
      <trkpt lat="45.09335" lon="5.59534">
        <ele>1405</ele>
      </trkpt>
      <trkpt lat="45.09289" lon="5.59548">
        <ele>1407.4</ele>
      </trkpt>
      <trkpt lat="45.09268" lon="5.59558">
        <ele>1409.2</ele>
      </trkpt>
      <trkpt lat="45.09249" lon="5.59565">
        <ele>1410.5</ele>
      </trkpt>
      <trkpt lat="45.0922" lon="5.59569">
        <ele>1411</ele>
      </trkpt>
      <trkpt lat="45.09192" lon="5.59563">
        <ele>1409.8</ele>
      </trkpt>
      <trkpt lat="45.09165" lon="5.59574">
        <ele>1411.4</ele>
      </trkpt>
      <trkpt lat="45.09155" lon="5.59584">
        <ele>1413.7</ele>
      </trkpt>
      <trkpt lat="45.09142" lon="5.59584">
        <ele>1414.3</ele>
      </trkpt>
      <trkpt lat="45.09114" lon="5.59579">
        <ele>1414.9</ele>
      </trkpt>
      <trkpt lat="45.09084" lon="5.5957">
        <ele>1415.1</ele>
      </trkpt>
      <trkpt lat="45.09051" lon="5.59557">
        <ele>1414.9</ele>
      </trkpt>
      <trkpt lat="45.09024" lon="5.59537">
        <ele>1413.8</ele>
      </trkpt>
      <trkpt lat="45.09005" lon="5.59516">
        <ele>1412.4</ele>
      </trkpt>
      <trkpt lat="45.08962" lon="5.5949">
        <ele>1408.9</ele>
      </trkpt>
      <trkpt lat="45.08925" lon="5.59491">
        <ele>1408.9</ele>
      </trkpt>
      <trkpt lat="45.08897" lon="5.59508">
        <ele>1409.7</ele>
      </trkpt>
      <trkpt lat="45.08877" lon="5.59524">
        <ele>1410.6</ele>
      </trkpt>
      <trkpt lat="45.08853" lon="5.59537">
        <ele>1411.2</ele>
      </trkpt>
      <trkpt lat="45.08828" lon="5.59549">
        <ele>1411.6</ele>
      </trkpt>
      <trkpt lat="45.08809" lon="5.59559">
        <ele>1411.6</ele>
      </trkpt>
      <trkpt lat="45.08801" lon="5.59557">
        <ele>1410.7</ele>
      </trkpt>
      <trkpt lat="45.08762" lon="5.59538">
        <ele>1404.3</ele>
      </trkpt>
      <trkpt lat="45.08754" lon="5.59533">
        <ele>1402.9</ele>
      </trkpt>
      <trkpt lat="45.08742" lon="5.59528">
        <ele>1400.8</ele>
      </trkpt>
      <trkpt lat="45.08713" lon="5.59523">
        <ele>1397.1</ele>
      </trkpt>
      <trkpt lat="45.08713" lon="5.59523">
        <ele>1397.1</ele>
      </trkpt>
      <trkpt lat="45.08692" lon="5.59524">
        <ele>1395.2</ele>
      </trkpt>
      <trkpt lat="45.08679" lon="5.5954">
        <ele>1395.7</ele>
      </trkpt>
      <trkpt lat="45.08672" lon="5.59553">
        <ele>1396.4</ele>
      </trkpt>
      <trkpt lat="45.08659" lon="5.59586">
        <ele>1398.2</ele>
      </trkpt>
      <trkpt lat="45.08654" lon="5.59596">
        <ele>1398.5</ele>
      </trkpt>
      <trkpt lat="45.08644" lon="5.59616">
        <ele>1399</ele>
      </trkpt>
      <trkpt lat="45.08635" lon="5.5962">
        <ele>1397.5</ele>
      </trkpt>
      <trkpt lat="45.08635" lon="5.5962">
        <ele>1397.5</ele>
      </trkpt>
      <trkpt lat="45.08633" lon="5.59621">
        <ele>1397.2</ele>
      </trkpt>
      <trkpt lat="45.08615" lon="5.59616">
        <ele>1393.1</ele>
      </trkpt>
      <trkpt lat="45.08598" lon="5.5961">
        <ele>1389.1</ele>
      </trkpt>
      <trkpt lat="45.08549" lon="5.59618">
        <ele>1375.8</ele>
      </trkpt>
      <trkpt lat="45.08544" lon="5.59635">
        <ele>1375.3</ele>
      </trkpt>
      <trkpt lat="45.08541" lon="5.5966">
        <ele>1376</ele>
      </trkpt>
      <trkpt lat="45.08536" lon="5.5967">
        <ele>1375.5</ele>
      </trkpt>
      <trkpt lat="45.08525" lon="5.59682">
        <ele>1374.5</ele>
      </trkpt>
      <trkpt lat="45.08511" lon="5.59695">
        <ele>1373.2</ele>
      </trkpt>
      <trkpt lat="45.08507" lon="5.59704">
        <ele>1373.7</ele>
      </trkpt>
      <trkpt lat="45.0849" lon="5.59723">
        <ele>1373.1</ele>
      </trkpt>
      <trkpt lat="45.08482" lon="5.59739">
        <ele>1374.1</ele>
      </trkpt>
      <trkpt lat="45.08473" lon="5.59749">
        <ele>1373.1</ele>
      </trkpt>
      <trkpt lat="45.08462" lon="5.59771">
        <ele>1374.2</ele>
      </trkpt>
      <trkpt lat="45.08459" lon="5.59781">
        <ele>1375.1</ele>
      </trkpt>
      <trkpt lat="45.08453" lon="5.59797">
        <ele>1376.9</ele>
      </trkpt>
      <trkpt lat="45.08447" lon="5.59803">
        <ele>1376.6</ele>
      </trkpt>
      <trkpt lat="45.08439" lon="5.59812">
        <ele>1376.4</ele>
      </trkpt>
      <trkpt lat="45.08431" lon="5.59819">
        <ele>1375.9</ele>
      </trkpt>
      <trkpt lat="45.08417" lon="5.59834">
        <ele>1376.1</ele>
      </trkpt>
      <trkpt lat="45.08417" lon="5.59846">
        <ele>1380.9</ele>
      </trkpt>
      <trkpt lat="45.08418" lon="5.59882">
        <ele>1394.4</ele>
      </trkpt>
      <trkpt lat="45.08418" lon="5.59882">
        <ele>1394.4</ele>
      </trkpt>
      <trkpt lat="45.08402" lon="5.59877">
        <ele>1388.9</ele>
      </trkpt>
      <trkpt lat="45.08384" lon="5.59883">
        <ele>1387.3</ele>
      </trkpt>
      <trkpt lat="45.08362" lon="5.59882">
        <ele>1382.2</ele>
      </trkpt>
      <trkpt lat="45.08333" lon="5.59883">
        <ele>1376.1</ele>
      </trkpt>
      <trkpt lat="45.08303" lon="5.59869">
        <ele>1370.2</ele>
      </trkpt>
      <trkpt lat="45.08291" lon="5.59857">
        <ele>1365</ele>
      </trkpt>
      <trkpt lat="45.08279" lon="5.59842">
        <ele>1358.7</ele>
      </trkpt>
      <trkpt lat="45.08262" lon="5.59823">
        <ele>1351.6</ele>
      </trkpt>
      <trkpt lat="45.0825" lon="5.59808">
        <ele>1347</ele>
      </trkpt>
      <trkpt lat="45.08226" lon="5.59779">
        <ele>1340.8</ele>
      </trkpt>
      <trkpt lat="45.08211" lon="5.59762">
        <ele>1336.7</ele>
      </trkpt>
      <trkpt lat="45.08199" lon="5.5975">
        <ele>1333.5</ele>
      </trkpt>
      <trkpt lat="45.08187" lon="5.59739">
        <ele>1331.8</ele>
      </trkpt>
      <trkpt lat="45.08171" lon="5.59724">
        <ele>1329.3</ele>
      </trkpt>
      <trkpt lat="45.08157" lon="5.59715">
        <ele>1328.6</ele>
      </trkpt>
      <trkpt lat="45.08144" lon="5.59709">
        <ele>1328.5</ele>
      </trkpt>
      <trkpt lat="45.08129" lon="5.59703">
        <ele>1328.5</ele>
      </trkpt>
      <trkpt lat="45.08114" lon="5.59698">
        <ele>1328.6</ele>
      </trkpt>
      <trkpt lat="45.08093" lon="5.59681">
        <ele>1325.9</ele>
      </trkpt>
      <trkpt lat="45.08076" lon="5.59677">
        <ele>1326.5</ele>
      </trkpt>
      <trkpt lat="45.08064" lon="5.59672">
        <ele>1326.6</ele>
      </trkpt>
      <trkpt lat="45.08044" lon="5.5966">
        <ele>1326.3</ele>
      </trkpt>
      <trkpt lat="45.08038" lon="5.59654">
        <ele>1326.1</ele>
      </trkpt>
      <trkpt lat="45.08023" lon="5.59641">
        <ele>1325.3</ele>
      </trkpt>
      <trkpt lat="45.08003" lon="5.59636">
        <ele>1325.9</ele>
      </trkpt>
      <trkpt lat="45.07993" lon="5.59627">
        <ele>1324.3</ele>
      </trkpt>
      <trkpt lat="45.07986" lon="5.59619">
        <ele>1322.7</ele>
      </trkpt>
      <trkpt lat="45.07971" lon="5.59603">
        <ele>1319.4</ele>
      </trkpt>
      <trkpt lat="45.07964" lon="5.59595">
        <ele>1317.8</ele>
      </trkpt>
      <trkpt lat="45.07951" lon="5.59585">
        <ele>1315.8</ele>
      </trkpt>
      <trkpt lat="45.0795" lon="5.59575">
        <ele>1314.1</ele>
      </trkpt>
      <trkpt lat="45.07951" lon="5.59565">
        <ele>1312.6</ele>
      </trkpt>
      <trkpt lat="45.07949" lon="5.59554">
        <ele>1310.9</ele>
      </trkpt>
      <trkpt lat="45.07944" lon="5.59532">
        <ele>1307.4</ele>
      </trkpt>
      <trkpt lat="45.07915" lon="5.59514">
        <ele>1302.5</ele>
      </trkpt>
      <trkpt lat="45.07907" lon="5.59492">
        <ele>1299.1</ele>
      </trkpt>
      <trkpt lat="45.07892" lon="5.59464">
        <ele>1295.8</ele>
      </trkpt>
      <trkpt lat="45.07877" lon="5.59436">
        <ele>1292.4</ele>
      </trkpt>
      <trkpt lat="45.07865" lon="5.59424">
        <ele>1291</ele>
      </trkpt>
      <trkpt lat="45.07855" lon="5.59422">
        <ele>1290.6</ele>
      </trkpt>
      <trkpt lat="45.07843" lon="5.59417">
        <ele>1290</ele>
      </trkpt>
      <trkpt lat="45.07826" lon="5.5941">
        <ele>1289.2</ele>
      </trkpt>
      <trkpt lat="45.07815" lon="5.594">
        <ele>1288</ele>
      </trkpt>
      <trkpt lat="45.07804" lon="5.59383">
        <ele>1286.1</ele>
      </trkpt>
      <trkpt lat="45.0779" lon="5.59367">
        <ele>1283.9</ele>
      </trkpt>
      <trkpt lat="45.07781" lon="5.59343">
        <ele>1281.2</ele>
      </trkpt>
      <trkpt lat="45.07778" lon="5.59311">
        <ele>1279.2</ele>
      </trkpt>
      <trkpt lat="45.0778" lon="5.59289">
        <ele>1278.6</ele>
      </trkpt>
      <trkpt lat="45.07781" lon="5.59262">
        <ele>1277.7</ele>
      </trkpt>
      <trkpt lat="45.07773" lon="5.59225">
        <ele>1275.9</ele>
      </trkpt>
      <trkpt lat="45.07766" lon="5.59197">
        <ele>1274.7</ele>
      </trkpt>
      <trkpt lat="45.07756" lon="5.5917">
        <ele>1273.5</ele>
      </trkpt>
      <trkpt lat="45.07741" lon="5.59138">
        <ele>1273</ele>
      </trkpt>
      <trkpt lat="45.07733" lon="5.59122">
        <ele>1273.2</ele>
      </trkpt>
      <trkpt lat="45.07723" lon="5.59103">
        <ele>1273.4</ele>
      </trkpt>
      <trkpt lat="45.07717" lon="5.59082">
        <ele>1273.3</ele>
      </trkpt>
      <trkpt lat="45.07715" lon="5.59067">
        <ele>1272.2</ele>
      </trkpt>
      <trkpt lat="45.0771" lon="5.59052">
        <ele>1271.4</ele>
      </trkpt>
      <trkpt lat="45.07703" lon="5.59033">
        <ele>1270.4</ele>
      </trkpt>
      <trkpt lat="45.07694" lon="5.59019">
        <ele>1269.9</ele>
      </trkpt>
      <trkpt lat="45.07688" lon="5.58998">
        <ele>1268.6</ele>
      </trkpt>
      <trkpt lat="45.07684" lon="5.58969">
        <ele>1265.8</ele>
      </trkpt>
      <trkpt lat="45.07683" lon="5.58949">
        <ele>1263.7</ele>
      </trkpt>
      <trkpt lat="45.07682" lon="5.58919">
        <ele>1260.6</ele>
      </trkpt>
      <trkpt lat="45.07678" lon="5.589">
        <ele>1258.3</ele>
      </trkpt>
      <trkpt lat="45.07674" lon="5.58887">
        <ele>1256.4</ele>
      </trkpt>
      <trkpt lat="45.07667" lon="5.58851">
        <ele>1251.4</ele>
      </trkpt>
      <trkpt lat="45.07659" lon="5.58838">
        <ele>1250.7</ele>
      </trkpt>
      <trkpt lat="45.07652" lon="5.58825">
        <ele>1250.8</ele>
      </trkpt>
      <trkpt lat="45.07639" lon="5.58787">
        <ele>1249.9</ele>
      </trkpt>
      <trkpt lat="45.07636" lon="5.58745">
        <ele>1247.7</ele>
      </trkpt>
      <trkpt lat="45.07622" lon="5.58703">
        <ele>1247.8</ele>
      </trkpt>
      <trkpt lat="45.07613" lon="5.58669">
        <ele>1247</ele>
      </trkpt>
      <trkpt lat="45.07604" lon="5.58645">
        <ele>1246.5</ele>
      </trkpt>
      <trkpt lat="45.07596" lon="5.58627">
        <ele>1245.7</ele>
      </trkpt>
      <trkpt lat="45.07593" lon="5.58608">
        <ele>1244.5</ele>
      </trkpt>
      <trkpt lat="45.07571" lon="5.58579">
        <ele>1244.8</ele>
      </trkpt>
      <trkpt lat="45.0755" lon="5.58561">
        <ele>1246.8</ele>
      </trkpt>
      <trkpt lat="45.07533" lon="5.58546">
        <ele>1247.2</ele>
      </trkpt>
      <trkpt lat="45.07509" lon="5.58515">
        <ele>1242.6</ele>
      </trkpt>
      <trkpt lat="45.07495" lon="5.58494">
        <ele>1237.9</ele>
      </trkpt>
      <trkpt lat="45.07476" lon="5.58464">
        <ele>1232.3</ele>
      </trkpt>
      <trkpt lat="45.07456" lon="5.58433">
        <ele>1225</ele>
      </trkpt>
      <trkpt lat="45.07435" lon="5.58406">
        <ele>1219.5</ele>
      </trkpt>
      <trkpt lat="45.07413" lon="5.58389">
        <ele>1217.3</ele>
      </trkpt>
      <trkpt lat="45.07386" lon="5.58357">
        <ele>1217.5</ele>
      </trkpt>
      <trkpt lat="45.07378" lon="5.58348">
        <ele>1217.4</ele>
      </trkpt>
      <trkpt lat="45.07378" lon="5.58348">
        <ele>1217.4</ele>
      </trkpt>
      <trkpt lat="45.07358" lon="5.58306">
        <ele>1216</ele>
      </trkpt>
      <trkpt lat="45.07337" lon="5.5826">
        <ele>1212.9</ele>
      </trkpt>
      <trkpt lat="45.07317" lon="5.58215">
        <ele>1210.1</ele>
      </trkpt>
      <trkpt lat="45.073" lon="5.5818">
        <ele>1207.8</ele>
      </trkpt>
      <trkpt lat="45.07284" lon="5.58158">
        <ele>1206</ele>
      </trkpt>
      <trkpt lat="45.0727" lon="5.58141">
        <ele>1204</ele>
      </trkpt>
      <trkpt lat="45.07269" lon="5.58122">
        <ele>1200.7</ele>
      </trkpt>
      <trkpt lat="45.07273" lon="5.58105">
        <ele>1197.4</ele>
      </trkpt>
      <trkpt lat="45.07285" lon="5.58077">
        <ele>1192</ele>
      </trkpt>
      <trkpt lat="45.07298" lon="5.58044">
        <ele>1186.8</ele>
      </trkpt>
      <trkpt lat="45.07306" lon="5.5801">
        <ele>1182</ele>
      </trkpt>
      <trkpt lat="45.0731" lon="5.57991">
        <ele>1179.9</ele>
      </trkpt>
      <trkpt lat="45.0731" lon="5.57991">
        <ele>1179.9</ele>
      </trkpt>
      <trkpt lat="45.073" lon="5.57981">
        <ele>1179.4</ele>
      </trkpt>
      <trkpt lat="45.07264" lon="5.57958">
        <ele>1179.3</ele>
      </trkpt>
      <trkpt lat="45.07229" lon="5.57943">
        <ele>1181.2</ele>
      </trkpt>
      <trkpt lat="45.07214" lon="5.57939">
        <ele>1182.3</ele>
      </trkpt>
      <trkpt lat="45.07204" lon="5.57935">
        <ele>1182.7</ele>
      </trkpt>
      <trkpt lat="45.07204" lon="5.57935">
        <ele>1182.7</ele>
      </trkpt>
      <trkpt lat="45.07198" lon="5.57912">
        <ele>1180.5</ele>
      </trkpt>
      <trkpt lat="45.072" lon="5.57857">
        <ele>1173.4</ele>
      </trkpt>
      <trkpt lat="45.07196" lon="5.57811">
        <ele>1166.7</ele>
      </trkpt>
      <trkpt lat="45.07173" lon="5.5776">
        <ele>1159.3</ele>
      </trkpt>
      <trkpt lat="45.07164" lon="5.57742">
        <ele>1157.1</ele>
      </trkpt>
      <trkpt lat="45.0716" lon="5.57727">
        <ele>1155.3</ele>
      </trkpt>
      <trkpt lat="45.07163" lon="5.57713">
        <ele>1153.5</ele>
      </trkpt>
      <trkpt lat="45.07167" lon="5.57689">
        <ele>1150.7</ele>
      </trkpt>
      <trkpt lat="45.07169" lon="5.57675">
        <ele>1148.7</ele>
      </trkpt>
      <trkpt lat="45.07165" lon="5.57665">
        <ele>1147.6</ele>
      </trkpt>
      <trkpt lat="45.0716" lon="5.57654">
        <ele>1144.9</ele>
      </trkpt>
      <trkpt lat="45.07146" lon="5.57644">
        <ele>1142</ele>
      </trkpt>
      <trkpt lat="45.07155" lon="5.57635">
        <ele>1140.3</ele>
      </trkpt>
      <trkpt lat="45.07174" lon="5.57638">
        <ele>1140.7</ele>
      </trkpt>
      <trkpt lat="45.07185" lon="5.57639">
        <ele>1139.5</ele>
      </trkpt>
      <trkpt lat="45.07203" lon="5.57636">
        <ele>1136.8</ele>
      </trkpt>
      <trkpt lat="45.07213" lon="5.57633">
        <ele>1134.9</ele>
      </trkpt>
      <trkpt lat="45.0723" lon="5.57626">
        <ele>1131.5</ele>
      </trkpt>
      <trkpt lat="45.07241" lon="5.57614">
        <ele>1127.7</ele>
      </trkpt>
      <trkpt lat="45.07245" lon="5.57596">
        <ele>1123.4</ele>
      </trkpt>
      <trkpt lat="45.07248" lon="5.57568">
        <ele>1116.8</ele>
      </trkpt>
      <trkpt lat="45.07249" lon="5.57535">
        <ele>1109.5</ele>
      </trkpt>
      <trkpt lat="45.07252" lon="5.57485">
        <ele>1100.6</ele>
      </trkpt>
      <trkpt lat="45.0723" lon="5.57485">
        <ele>1100.3</ele>
      </trkpt>
      <trkpt lat="45.07219" lon="5.57443">
        <ele>1093.8</ele>
      </trkpt>
      <trkpt lat="45.07204" lon="5.57429">
        <ele>1090.8</ele>
      </trkpt>
      <trkpt lat="45.07189" lon="5.57433">
        <ele>1091.1</ele>
      </trkpt>
      <trkpt lat="45.07164" lon="5.57418">
        <ele>1088</ele>
      </trkpt>
      <trkpt lat="45.07151" lon="5.57391">
        <ele>1088.2</ele>
      </trkpt>
      <trkpt lat="45.0714" lon="5.5736">
        <ele>1087.2</ele>
      </trkpt>
      <trkpt lat="45.07125" lon="5.57333">
        <ele>1087.4</ele>
      </trkpt>
      <trkpt lat="45.07118" lon="5.57311">
        <ele>1086.9</ele>
      </trkpt>
      <trkpt lat="45.07124" lon="5.57275">
        <ele>1082.5</ele>
      </trkpt>
      <trkpt lat="45.07131" lon="5.57247">
        <ele>1078.6</ele>
      </trkpt>
      <trkpt lat="45.07155" lon="5.57196">
        <ele>1070.2</ele>
      </trkpt>
      <trkpt lat="45.07167" lon="5.57146">
        <ele>1065.2</ele>
      </trkpt>
      <trkpt lat="45.07186" lon="5.57095">
        <ele>1060.7</ele>
      </trkpt>
      <trkpt lat="45.07206" lon="5.57063">
        <ele>1056.6</ele>
      </trkpt>
      <trkpt lat="45.07225" lon="5.57032">
        <ele>1053.1</ele>
      </trkpt>
      <trkpt lat="45.07231" lon="5.5701">
        <ele>1050.8</ele>
      </trkpt>
      <trkpt lat="45.07239" lon="5.5698">
        <ele>1049.9</ele>
      </trkpt>
      <trkpt lat="45.07244" lon="5.56932">
        <ele>1050</ele>
      </trkpt>
      <trkpt lat="45.07249" lon="5.56905">
        <ele>1049.6</ele>
      </trkpt>
      <trkpt lat="45.07277" lon="5.56882">
        <ele>1049</ele>
      </trkpt>
      <trkpt lat="45.0732" lon="5.56848">
        <ele>1044.9</ele>
      </trkpt>
      <trkpt lat="45.0738" lon="5.56821">
        <ele>1039.5</ele>
      </trkpt>
      <trkpt lat="45.07419" lon="5.56815">
        <ele>1038.4</ele>
      </trkpt>
      <trkpt lat="45.07436" lon="5.56812">
        <ele>1036.8</ele>
      </trkpt>
      <trkpt lat="45.07467" lon="5.56804">
        <ele>1033.6</ele>
      </trkpt>
      <trkpt lat="45.07491" lon="5.56809">
        <ele>1033.1</ele>
      </trkpt>
      <trkpt lat="45.07501" lon="5.56795">
        <ele>1030.6</ele>
      </trkpt>
      <trkpt lat="45.07509" lon="5.56766">
        <ele>1027.7</ele>
      </trkpt>
      <trkpt lat="45.07508" lon="5.56738">
        <ele>1024</ele>
      </trkpt>
      <trkpt lat="45.07508" lon="5.56705">
        <ele>1020.2</ele>
      </trkpt>
      <trkpt lat="45.07512" lon="5.56667">
        <ele>1016.4</ele>
      </trkpt>
      <trkpt lat="45.07512" lon="5.56667">
        <ele>1016.4</ele>
      </trkpt>
      <trkpt lat="45.07471" lon="5.56604">
        <ele>1012.5</ele>
      </trkpt>
      <trkpt lat="45.07454" lon="5.56566">
        <ele>1014.4</ele>
      </trkpt>
      <trkpt lat="45.07436" lon="5.56533">
        <ele>1019.1</ele>
      </trkpt>
      <trkpt lat="45.07393" lon="5.56507">
        <ele>1027.1</ele>
      </trkpt>
      <trkpt lat="45.07354" lon="5.56485">
        <ele>1031.3</ele>
      </trkpt>
      <trkpt lat="45.07324" lon="5.56479">
        <ele>1033.2</ele>
      </trkpt>
      <trkpt lat="45.07324" lon="5.56479">
        <ele>1033.2</ele>
      </trkpt>
      <trkpt lat="45.07383" lon="5.56563">
        <ele>1025.4</ele>
      </trkpt>
      <trkpt lat="45.07385" lon="5.56576">
        <ele>1024.3</ele>
      </trkpt>
      <trkpt lat="45.07375" lon="5.56582">
        <ele>1026</ele>
      </trkpt>
      <trkpt lat="45.07352" lon="5.5659">
        <ele>1030.3</ele>
      </trkpt>
      <trkpt lat="45.07283" lon="5.56638">
        <ele>1036.3</ele>
      </trkpt>
      <trkpt lat="45.0727" lon="5.56633">
        <ele>1038.8</ele>
      </trkpt>
      <trkpt lat="45.07233" lon="5.5666">
        <ele>1041.5</ele>
      </trkpt>
      <trkpt lat="45.07186" lon="5.56663">
        <ele>1048.8</ele>
      </trkpt>
      <trkpt lat="45.071" lon="5.56673">
        <ele>1059</ele>
      </trkpt>
      <trkpt lat="45.07069" lon="5.56681">
        <ele>1062.4</ele>
      </trkpt>
      <trkpt lat="45.06955" lon="5.56697">
        <ele>1074.5</ele>
      </trkpt>
      <trkpt lat="45.06864" lon="5.56715">
        <ele>1079.2</ele>
      </trkpt>
      <trkpt lat="45.06859" lon="5.56737">
        <ele>1078.1</ele>
      </trkpt>
      <trkpt lat="45.06821" lon="5.56744">
        <ele>1080.5</ele>
      </trkpt>
      <trkpt lat="45.06799" lon="5.56753">
        <ele>1084.2</ele>
      </trkpt>
      <trkpt lat="45.06799" lon="5.56753">
        <ele>1084.2</ele>
      </trkpt>
      <trkpt lat="45.06735" lon="5.56742">
        <ele>1094.7</ele>
      </trkpt>
      <trkpt lat="45.06735" lon="5.56742">
        <ele>1094.7</ele>
      </trkpt>
      <trkpt lat="45.06717" lon="5.56742">
        <ele>1097.1</ele>
      </trkpt>
      <trkpt lat="45.06721" lon="5.56718">
        <ele>1095.7</ele>
      </trkpt>
      <trkpt lat="45.06702" lon="5.56719">
        <ele>1098.2</ele>
      </trkpt>
      <trkpt lat="45.06679" lon="5.56726">
        <ele>1101.6</ele>
      </trkpt>
      <trkpt lat="45.06659" lon="5.56733">
        <ele>1104.8</ele>
      </trkpt>
      <trkpt lat="45.06634" lon="5.56739">
        <ele>1109.2</ele>
      </trkpt>
      <trkpt lat="45.06608" lon="5.56749">
        <ele>1113.9</ele>
      </trkpt>
      <trkpt lat="45.06593" lon="5.56743">
        <ele>1116.4</ele>
      </trkpt>
      <trkpt lat="45.06583" lon="5.56729">
        <ele>1117.9</ele>
      </trkpt>
      <trkpt lat="45.06583" lon="5.56729">
        <ele>1117.9</ele>
      </trkpt>
      <trkpt lat="45.06556" lon="5.56709">
        <ele>1123.3</ele>
      </trkpt>
      <trkpt lat="45.06535" lon="5.56695">
        <ele>1127.1</ele>
      </trkpt>
      <trkpt lat="45.06503" lon="5.56686">
        <ele>1132.8</ele>
      </trkpt>
      <trkpt lat="45.06479" lon="5.5668">
        <ele>1134.3</ele>
      </trkpt>
      <trkpt lat="45.06463" lon="5.56683">
        <ele>1135.8</ele>
      </trkpt>
      <trkpt lat="45.06454" lon="5.56682">
        <ele>1136.2</ele>
      </trkpt>
      <trkpt lat="45.06454" lon="5.56682">
        <ele>1136.2</ele>
      </trkpt>
      <trkpt lat="45.06416" lon="5.56682">
        <ele>1138.8</ele>
      </trkpt>
      <trkpt lat="45.06387" lon="5.56697">
        <ele>1136.5</ele>
      </trkpt>
      <trkpt lat="45.06359" lon="5.5673">
        <ele>1139.9</ele>
      </trkpt>
      <trkpt lat="45.06338" lon="5.56742">
        <ele>1139.2</ele>
      </trkpt>
      <trkpt lat="45.06317" lon="5.5675">
        <ele>1138.1</ele>
      </trkpt>
      <trkpt lat="45.06293" lon="5.56738">
        <ele>1130.5</ele>
      </trkpt>
      <trkpt lat="45.06274" lon="5.56732">
        <ele>1126.4</ele>
      </trkpt>
      <trkpt lat="45.06256" lon="5.5671">
        <ele>1120.4</ele>
      </trkpt>
      <trkpt lat="45.06256" lon="5.5671">
        <ele>1120.4</ele>
      </trkpt>
      <trkpt lat="45.06242" lon="5.5672">
        <ele>1122.5</ele>
      </trkpt>
      <trkpt lat="45.06229" lon="5.56753">
        <ele>1127.1</ele>
      </trkpt>
      <trkpt lat="45.06225" lon="5.56763">
        <ele>1129.9</ele>
      </trkpt>
      <trkpt lat="45.06197" lon="5.56789">
        <ele>1134.8</ele>
      </trkpt>
      <trkpt lat="45.06171" lon="5.56784">
        <ele>1133.5</ele>
      </trkpt>
      <trkpt lat="45.06178" lon="5.56779">
        <ele>1133.1</ele>
      </trkpt>
      <trkpt lat="45.06187" lon="5.56769">
        <ele>1131.9</ele>
      </trkpt>
      <trkpt lat="45.06196" lon="5.56737">
        <ele>1129.9</ele>
      </trkpt>
      <trkpt lat="45.06207" lon="5.56708">
        <ele>1129.5</ele>
      </trkpt>
      <trkpt lat="45.06217" lon="5.5668">
        <ele>1127.2</ele>
      </trkpt>
      <trkpt lat="45.06224" lon="5.56665">
        <ele>1124.3</ele>
      </trkpt>
      <trkpt lat="45.06237" lon="5.56633">
        <ele>1123.1</ele>
      </trkpt>
      <trkpt lat="45.06243" lon="5.56612">
        <ele>1123</ele>
      </trkpt>
      <trkpt lat="45.06245" lon="5.56589">
        <ele>1124.4</ele>
      </trkpt>
      <trkpt lat="45.06253" lon="5.56542">
        <ele>1124.6</ele>
      </trkpt>
      <trkpt lat="45.06253" lon="5.56516">
        <ele>1126.2</ele>
      </trkpt>
      <trkpt lat="45.06252" lon="5.56483">
        <ele>1127.1</ele>
      </trkpt>
      <trkpt lat="45.06254" lon="5.56455">
        <ele>1125.7</ele>
      </trkpt>
      <trkpt lat="45.06258" lon="5.56398">
        <ele>1124.2</ele>
      </trkpt>
      <trkpt lat="45.0626" lon="5.56365">
        <ele>1123.9</ele>
      </trkpt>
      <trkpt lat="45.06266" lon="5.56322">
        <ele>1122</ele>
      </trkpt>
      <trkpt lat="45.06279" lon="5.56291">
        <ele>1116.6</ele>
      </trkpt>
      <trkpt lat="45.06295" lon="5.56196">
        <ele>1106.7</ele>
      </trkpt>
      <trkpt lat="45.06295" lon="5.56125">
        <ele>1101</ele>
      </trkpt>
      <trkpt lat="45.06282" lon="5.56094">
        <ele>1102.4</ele>
      </trkpt>
      <trkpt lat="45.06282" lon="5.56094">
        <ele>1102.4</ele>
      </trkpt>
      <trkpt lat="45.06285" lon="5.56061">
        <ele>1096.9</ele>
      </trkpt>
      <trkpt lat="45.0629" lon="5.56034">
        <ele>1091.5</ele>
      </trkpt>
      <trkpt lat="45.06291" lon="5.56012">
        <ele>1087.8</ele>
      </trkpt>
      <trkpt lat="45.06296" lon="5.55992">
        <ele>1084</ele>
      </trkpt>
      <trkpt lat="45.06301" lon="5.55963">
        <ele>1080</ele>
      </trkpt>
      <trkpt lat="45.06303" lon="5.55936">
        <ele>1077.4</ele>
      </trkpt>
      <trkpt lat="45.06303" lon="5.55936">
        <ele>1077.4</ele>
      </trkpt>
      <trkpt lat="45.06275" lon="5.55847">
        <ele>1077.1</ele>
      </trkpt>
      <trkpt lat="45.06275" lon="5.55847">
        <ele>1077.1</ele>
      </trkpt>
      <trkpt lat="45.06276" lon="5.55827">
        <ele>1076.3</ele>
      </trkpt>
      <trkpt lat="45.06275" lon="5.55806">
        <ele>1076.5</ele>
      </trkpt>
      <trkpt lat="45.06223" lon="5.55713">
        <ele>1072.8</ele>
      </trkpt>
      <trkpt lat="45.06164" lon="5.5561">
        <ele>1063.7</ele>
      </trkpt>
      <trkpt lat="45.06164" lon="5.5561">
        <ele>1063.7</ele>
      </trkpt>
      <trkpt lat="45.06145" lon="5.55624">
        <ele>1061.4</ele>
      </trkpt>
      <trkpt lat="45.06102" lon="5.55675">
        <ele>1057.8</ele>
      </trkpt>
      <trkpt lat="45.06086" lon="5.55698">
        <ele>1058.6</ele>
      </trkpt>
      <trkpt lat="45.06073" lon="5.55704">
        <ele>1059.8</ele>
      </trkpt>
      <trkpt lat="45.06059" lon="5.55702">
        <ele>1060.5</ele>
      </trkpt>
      <trkpt lat="45.06017" lon="5.55672">
        <ele>1060.3</ele>
      </trkpt>
      <trkpt lat="45.06" lon="5.55657">
        <ele>1060.9</ele>
      </trkpt>
      <trkpt lat="45.05987" lon="5.55644">
        <ele>1063.4</ele>
      </trkpt>
      <trkpt lat="45.05987" lon="5.55644">
        <ele>1063.4</ele>
      </trkpt>
      <trkpt lat="45.05974" lon="5.55645">
        <ele>1066</ele>
      </trkpt>
      <trkpt lat="45.05966" lon="5.55637">
        <ele>1067.6</ele>
      </trkpt>
      <trkpt lat="45.0596" lon="5.55625">
        <ele>1068.4</ele>
      </trkpt>
      <trkpt lat="45.05948" lon="5.55599">
        <ele>1070</ele>
      </trkpt>
      <trkpt lat="45.05924" lon="5.55551">
        <ele>1068.8</ele>
      </trkpt>
      <trkpt lat="45.05924" lon="5.55551">
        <ele>1068.8</ele>
      </trkpt>
      <trkpt lat="45.05906" lon="5.55543">
        <ele>1068.8</ele>
      </trkpt>
      <trkpt lat="45.05879" lon="5.55553">
        <ele>1070.8</ele>
      </trkpt>
      <trkpt lat="45.05849" lon="5.55571">
        <ele>1074</ele>
      </trkpt>
      <trkpt lat="45.0583" lon="5.55593">
        <ele>1077.2</ele>
      </trkpt>
      <trkpt lat="45.05803" lon="5.55627">
        <ele>1081.8</ele>
      </trkpt>
      <trkpt lat="45.05778" lon="5.55658">
        <ele>1086.6</ele>
      </trkpt>
      <trkpt lat="45.05751" lon="5.55673">
        <ele>1089.4</ele>
      </trkpt>
      <trkpt lat="45.05724" lon="5.55687">
        <ele>1095.3</ele>
      </trkpt>
      <trkpt lat="45.05689" lon="5.55697">
        <ele>1100.8</ele>
      </trkpt>
      <trkpt lat="45.05653" lon="5.55691">
        <ele>1106.6</ele>
      </trkpt>
      <trkpt lat="45.05653" lon="5.55691">
        <ele>1106.6</ele>
      </trkpt>
      <trkpt lat="45.05635" lon="5.55662">
        <ele>1107.8</ele>
      </trkpt>
      <trkpt lat="45.05611" lon="5.55644">
        <ele>1112.8</ele>
      </trkpt>
      <trkpt lat="45.05586" lon="5.55626">
        <ele>1118.4</ele>
      </trkpt>
      <trkpt lat="45.05565" lon="5.55607">
        <ele>1123.2</ele>
      </trkpt>
      <trkpt lat="45.05526" lon="5.55569">
        <ele>1130.6</ele>
      </trkpt>
      <trkpt lat="45.05492" lon="5.55539">
        <ele>1134.8</ele>
      </trkpt>
      <trkpt lat="45.05459" lon="5.55494">
        <ele>1133.5</ele>
      </trkpt>
      <trkpt lat="45.0544" lon="5.55458">
        <ele>1132.2</ele>
      </trkpt>
      <trkpt lat="45.0544" lon="5.55458">
        <ele>1132.2</ele>
      </trkpt>
      <trkpt lat="45.05418" lon="5.55434">
        <ele>1132.7</ele>
      </trkpt>
      <trkpt lat="45.05397" lon="5.5541">
        <ele>1131</ele>
      </trkpt>
      <trkpt lat="45.05364" lon="5.55394">
        <ele>1134.1</ele>
      </trkpt>
      <trkpt lat="45.05333" lon="5.55371">
        <ele>1136.4</ele>
      </trkpt>
      <trkpt lat="45.05256" lon="5.55343">
        <ele>1127.2</ele>
      </trkpt>
      <trkpt lat="45.05233" lon="5.55342">
        <ele>1126.8</ele>
      </trkpt>
      <trkpt lat="45.05208" lon="5.5535">
        <ele>1128.6</ele>
      </trkpt>
      <trkpt lat="45.05198" lon="5.5535">
        <ele>1128.9</ele>
      </trkpt>
      <trkpt lat="45.05171" lon="5.55318">
        <ele>1124.9</ele>
      </trkpt>
      <trkpt lat="45.05131" lon="5.55296">
        <ele>1124.9</ele>
      </trkpt>
      <trkpt lat="45.0508" lon="5.55262">
        <ele>1127.1</ele>
      </trkpt>
      <trkpt lat="45.05065" lon="5.5524">
        <ele>1126</ele>
      </trkpt>
      <trkpt lat="45.05065" lon="5.5524">
        <ele>1126</ele>
      </trkpt>
      <trkpt lat="45.05043" lon="5.55236">
        <ele>1127.1</ele>
      </trkpt>
      <trkpt lat="45.04997" lon="5.55251">
        <ele>1133.2</ele>
      </trkpt>
      <trkpt lat="45.0496" lon="5.55254">
        <ele>1135.1</ele>
      </trkpt>
      <trkpt lat="45.04921" lon="5.5526">
        <ele>1137.3</ele>
      </trkpt>
      <trkpt lat="45.04883" lon="5.55257">
        <ele>1133.2</ele>
      </trkpt>
      <trkpt lat="45.04854" lon="5.5526">
        <ele>1129.8</ele>
      </trkpt>
      <trkpt lat="45.04841" lon="5.55273">
        <ele>1128.7</ele>
      </trkpt>
      <trkpt lat="45.04841" lon="5.55273">
        <ele>1128.7</ele>
      </trkpt>
      <trkpt lat="45.04831" lon="5.55317">
        <ele>1127.9</ele>
      </trkpt>
      <trkpt lat="45.04822" lon="5.55366">
        <ele>1126.4</ele>
      </trkpt>
      <trkpt lat="45.0482" lon="5.55386">
        <ele>1126.1</ele>
      </trkpt>
      <trkpt lat="45.04817" lon="5.55412">
        <ele>1126</ele>
      </trkpt>
      <trkpt lat="45.04813" lon="5.55468">
        <ele>1126.7</ele>
      </trkpt>
      <trkpt lat="45.04811" lon="5.55521">
        <ele>1128.6</ele>
      </trkpt>
      <trkpt lat="45.04811" lon="5.55521">
        <ele>1128.6</ele>
      </trkpt>
      <trkpt lat="45.04821" lon="5.55582">
        <ele>1131.9</ele>
      </trkpt>
      <trkpt lat="45.04821" lon="5.55582">
        <ele>1131.9</ele>
      </trkpt>
      <trkpt lat="45.04813" lon="5.5559">
        <ele>1132.7</ele>
      </trkpt>
      <trkpt lat="45.04803" lon="5.55598">
        <ele>1133.5</ele>
      </trkpt>
      <trkpt lat="45.04792" lon="5.55603">
        <ele>1133.9</ele>
      </trkpt>
      <trkpt lat="45.04777" lon="5.55607">
        <ele>1134.2</ele>
      </trkpt>
      <trkpt lat="45.04763" lon="5.556">
        <ele>1133.4</ele>
      </trkpt>
      <trkpt lat="45.04739" lon="5.55576">
        <ele>1131.2</ele>
      </trkpt>
      <trkpt lat="45.04722" lon="5.55548">
        <ele>1128.5</ele>
      </trkpt>
      <trkpt lat="45.04705" lon="5.55519">
        <ele>1126.6</ele>
      </trkpt>
      <trkpt lat="45.04696" lon="5.55508">
        <ele>1126.1</ele>
      </trkpt>
      <trkpt lat="45.0468" lon="5.55502">
        <ele>1126.5</ele>
      </trkpt>
      <trkpt lat="45.04673" lon="5.55511">
        <ele>1127.3</ele>
      </trkpt>
      <trkpt lat="45.04673" lon="5.5553">
        <ele>1128.3</ele>
      </trkpt>
      <trkpt lat="45.04668" lon="5.55548">
        <ele>1129.3</ele>
      </trkpt>
      <trkpt lat="45.04661" lon="5.55559">
        <ele>1129.2</ele>
      </trkpt>
      <trkpt lat="45.04651" lon="5.55572">
        <ele>1129</ele>
      </trkpt>
      <trkpt lat="45.04651" lon="5.55572">
        <ele>1129</ele>
      </trkpt>
      <trkpt lat="45.04642" lon="5.55582">
        <ele>1128.8</ele>
      </trkpt>
      <trkpt lat="45.04629" lon="5.55589">
        <ele>1128.6</ele>
      </trkpt>
      <trkpt lat="45.04611" lon="5.55592">
        <ele>1127.5</ele>
      </trkpt>
      <trkpt lat="45.0459" lon="5.55598">
        <ele>1126.7</ele>
      </trkpt>
      <trkpt lat="45.04576" lon="5.55609">
        <ele>1125.6</ele>
      </trkpt>
      <trkpt lat="45.04568" lon="5.55622">
        <ele>1124.7</ele>
      </trkpt>
      <trkpt lat="45.0456" lon="5.55641">
        <ele>1124.6</ele>
      </trkpt>
      <trkpt lat="45.04558" lon="5.55655">
        <ele>1126</ele>
      </trkpt>
      <trkpt lat="45.04551" lon="5.55682">
        <ele>1126.7</ele>
      </trkpt>
      <trkpt lat="45.04543" lon="5.55716">
        <ele>1127.6</ele>
      </trkpt>
      <trkpt lat="45.04543" lon="5.55735">
        <ele>1129.2</ele>
      </trkpt>
      <trkpt lat="45.04531" lon="5.55769">
        <ele>1129.3</ele>
      </trkpt>
      <trkpt lat="45.04526" lon="5.55784">
        <ele>1129.7</ele>
      </trkpt>
      <trkpt lat="45.0452" lon="5.558">
        <ele>1129.8</ele>
      </trkpt>
      <trkpt lat="45.04508" lon="5.5583">
        <ele>1130.6</ele>
      </trkpt>
      <trkpt lat="45.04502" lon="5.55843">
        <ele>1131.5</ele>
      </trkpt>
      <trkpt lat="45.04495" lon="5.55857">
        <ele>1134.5</ele>
      </trkpt>
      <trkpt lat="45.04492" lon="5.55871">
        <ele>1137.7</ele>
      </trkpt>
      <trkpt lat="45.04487" lon="5.55883">
        <ele>1140.6</ele>
      </trkpt>
      <trkpt lat="45.04476" lon="5.55896">
        <ele>1143.9</ele>
      </trkpt>
      <trkpt lat="45.04469" lon="5.55903">
        <ele>1145.7</ele>
      </trkpt>
      <trkpt lat="45.0446" lon="5.5589">
        <ele>1143.6</ele>
      </trkpt>
      <trkpt lat="45.04443" lon="5.55864">
        <ele>1139.6</ele>
      </trkpt>
      <trkpt lat="45.04432" lon="5.55855">
        <ele>1138.8</ele>
      </trkpt>
      <trkpt lat="45.04423" lon="5.55835">
        <ele>1135.7</ele>
      </trkpt>
      <trkpt lat="45.04411" lon="5.55803">
        <ele>1135.2</ele>
      </trkpt>
      <trkpt lat="45.04402" lon="5.5578">
        <ele>1136.6</ele>
      </trkpt>
      <trkpt lat="45.04392" lon="5.5575">
        <ele>1138.2</ele>
      </trkpt>
      <trkpt lat="45.04384" lon="5.55723">
        <ele>1141</ele>
      </trkpt>
      <trkpt lat="45.04364" lon="5.55692">
        <ele>1149.1</ele>
      </trkpt>
      <trkpt lat="45.04352" lon="5.55667">
        <ele>1153.1</ele>
      </trkpt>
      <trkpt lat="45.04343" lon="5.55646">
        <ele>1155</ele>
      </trkpt>
      <trkpt lat="45.04331" lon="5.55624">
        <ele>1157.4</ele>
      </trkpt>
      <trkpt lat="45.04322" lon="5.55603">
        <ele>1156.9</ele>
      </trkpt>
      <trkpt lat="45.04313" lon="5.55585">
        <ele>1157.1</ele>
      </trkpt>
      <trkpt lat="45.04302" lon="5.55567">
        <ele>1157.9</ele>
      </trkpt>
      <trkpt lat="45.04291" lon="5.55553">
        <ele>1159.4</ele>
      </trkpt>
      <trkpt lat="45.04282" lon="5.55537">
        <ele>1160.2</ele>
      </trkpt>
      <trkpt lat="45.04274" lon="5.55518">
        <ele>1160.6</ele>
      </trkpt>
      <trkpt lat="45.04261" lon="5.5549">
        <ele>1162.3</ele>
      </trkpt>
      <trkpt lat="45.04248" lon="5.5545">
        <ele>1164.7</ele>
      </trkpt>
      <trkpt lat="45.04248" lon="5.5545">
        <ele>1164.7</ele>
      </trkpt>
      <trkpt lat="45.04233" lon="5.55428">
        <ele>1167.2</ele>
      </trkpt>
      <trkpt lat="45.04224" lon="5.55404">
        <ele>1167.6</ele>
      </trkpt>
      <trkpt lat="45.04206" lon="5.55368">
        <ele>1168.4</ele>
      </trkpt>
      <trkpt lat="45.04179" lon="5.55318">
        <ele>1169.7</ele>
      </trkpt>
      <trkpt lat="45.04153" lon="5.55297">
        <ele>1173.1</ele>
      </trkpt>
      <trkpt lat="45.04144" lon="5.5528">
        <ele>1173.3</ele>
      </trkpt>
      <trkpt lat="45.04141" lon="5.55265">
        <ele>1172.2</ele>
      </trkpt>
      <trkpt lat="45.04139" lon="5.55252">
        <ele>1171.2</ele>
      </trkpt>
      <trkpt lat="45.04138" lon="5.55238">
        <ele>1169.2</ele>
      </trkpt>
      <trkpt lat="45.04137" lon="5.55222">
        <ele>1166.8</ele>
      </trkpt>
      <trkpt lat="45.04143" lon="5.55209">
        <ele>1162.9</ele>
      </trkpt>
      <trkpt lat="45.04149" lon="5.55192">
        <ele>1158.4</ele>
      </trkpt>
      <trkpt lat="45.04147" lon="5.55175">
        <ele>1155.8</ele>
      </trkpt>
      <trkpt lat="45.04141" lon="5.55156">
        <ele>1155.6</ele>
      </trkpt>
      <trkpt lat="45.04132" lon="5.55137">
        <ele>1157.5</ele>
      </trkpt>
      <trkpt lat="45.04133" lon="5.55122">
        <ele>1156.3</ele>
      </trkpt>
      <trkpt lat="45.04141" lon="5.55101">
        <ele>1153.1</ele>
      </trkpt>
      <trkpt lat="45.04159" lon="5.55074">
        <ele>1147.3</ele>
      </trkpt>
      <trkpt lat="45.04175" lon="5.55053">
        <ele>1144</ele>
      </trkpt>
      <trkpt lat="45.04193" lon="5.55045">
        <ele>1140</ele>
      </trkpt>
      <trkpt lat="45.04212" lon="5.55024">
        <ele>1136.6</ele>
      </trkpt>
      <trkpt lat="45.04227" lon="5.54996">
        <ele>1134.5</ele>
      </trkpt>
      <trkpt lat="45.04238" lon="5.54984">
        <ele>1133</ele>
      </trkpt>
      <trkpt lat="45.04249" lon="5.54965">
        <ele>1132.9</ele>
      </trkpt>
      <trkpt lat="45.04254" lon="5.54958">
        <ele>1132.4</ele>
      </trkpt>
      <trkpt lat="45.04268" lon="5.54921">
        <ele>1134</ele>
      </trkpt>
      <trkpt lat="45.04268" lon="5.54921">
        <ele>1134</ele>
      </trkpt>
      <trkpt lat="45.04276" lon="5.54897">
        <ele>1133</ele>
      </trkpt>
      <trkpt lat="45.04263" lon="5.54882">
        <ele>1135.4</ele>
      </trkpt>
      <trkpt lat="45.04239" lon="5.54872">
        <ele>1138.1</ele>
      </trkpt>
      <trkpt lat="45.04212" lon="5.54869">
        <ele>1139.5</ele>
      </trkpt>
      <trkpt lat="45.04194" lon="5.54872">
        <ele>1140.9</ele>
      </trkpt>
      <trkpt lat="45.0418" lon="5.54869">
        <ele>1141.4</ele>
      </trkpt>
      <trkpt lat="45.04172" lon="5.54863">
        <ele>1141</ele>
      </trkpt>
      <trkpt lat="45.04169" lon="5.54795">
        <ele>1134.6</ele>
      </trkpt>
      <trkpt lat="45.04168" lon="5.54772">
        <ele>1133.2</ele>
      </trkpt>
      <trkpt lat="45.04176" lon="5.54752">
        <ele>1131.2</ele>
      </trkpt>
      <trkpt lat="45.04187" lon="5.54734">
        <ele>1130.3</ele>
      </trkpt>
      <trkpt lat="45.04198" lon="5.5472">
        <ele>1128.7</ele>
      </trkpt>
      <trkpt lat="45.04213" lon="5.54707">
        <ele>1125.9</ele>
      </trkpt>
      <trkpt lat="45.04232" lon="5.54691">
        <ele>1120.9</ele>
      </trkpt>
      <trkpt lat="45.04245" lon="5.54667">
        <ele>1115.4</ele>
      </trkpt>
      <trkpt lat="45.04249" lon="5.54647">
        <ele>1114.9</ele>
      </trkpt>
      <trkpt lat="45.04253" lon="5.54628">
        <ele>1114.5</ele>
      </trkpt>
      <trkpt lat="45.04253" lon="5.546">
        <ele>1115.6</ele>
      </trkpt>
      <trkpt lat="45.04255" lon="5.54573">
        <ele>1115.2</ele>
      </trkpt>
      <trkpt lat="45.04246" lon="5.54521">
        <ele>1117.9</ele>
      </trkpt>
      <trkpt lat="45.04238" lon="5.5448">
        <ele>1117.2</ele>
      </trkpt>
      <trkpt lat="45.0422" lon="5.54373">
        <ele>1106.1</ele>
      </trkpt>
      <trkpt lat="45.0421" lon="5.54315">
        <ele>1098.8</ele>
      </trkpt>
      <trkpt lat="45.04206" lon="5.54273">
        <ele>1094</ele>
      </trkpt>
      <trkpt lat="45.04206" lon="5.54273">
        <ele>1094</ele>
      </trkpt>
      <trkpt lat="45.04192" lon="5.54248">
        <ele>1093.2</ele>
      </trkpt>
      <trkpt lat="45.04177" lon="5.54238">
        <ele>1094.9</ele>
      </trkpt>
      <trkpt lat="45.04164" lon="5.54227">
        <ele>1096.3</ele>
      </trkpt>
      <trkpt lat="45.04147" lon="5.54204">
        <ele>1097.5</ele>
      </trkpt>
      <trkpt lat="45.04145" lon="5.54166">
        <ele>1094.2</ele>
      </trkpt>
      <trkpt lat="45.04143" lon="5.54131">
        <ele>1092.6</ele>
      </trkpt>
      <trkpt lat="45.04141" lon="5.54108">
        <ele>1091.8</ele>
      </trkpt>
      <trkpt lat="45.04139" lon="5.54071">
        <ele>1091.2</ele>
      </trkpt>
      <trkpt lat="45.04124" lon="5.5404">
        <ele>1094.2</ele>
      </trkpt>
      <trkpt lat="45.04122" lon="5.54021">
        <ele>1094.4</ele>
      </trkpt>
      <trkpt lat="45.04121" lon="5.54002">
        <ele>1094.4</ele>
      </trkpt>
      <trkpt lat="45.04124" lon="5.53973">
        <ele>1093.4</ele>
      </trkpt>
      <trkpt lat="45.0412" lon="5.53945">
        <ele>1093.1</ele>
      </trkpt>
      <trkpt lat="45.04098" lon="5.53928">
        <ele>1096</ele>
      </trkpt>
      <trkpt lat="45.04062" lon="5.53912">
        <ele>1101.4</ele>
      </trkpt>
      <trkpt lat="45.04029" lon="5.53883">
        <ele>1104.4</ele>
      </trkpt>
      <trkpt lat="45.04008" lon="5.53869">
        <ele>1106.5</ele>
      </trkpt>
      <trkpt lat="45.0398" lon="5.53845">
        <ele>1109.7</ele>
      </trkpt>
      <trkpt lat="45.0395" lon="5.53815">
        <ele>1110.5</ele>
      </trkpt>
      <trkpt lat="45.0395" lon="5.53815">
        <ele>1110.5</ele>
      </trkpt>
      <trkpt lat="45.0394" lon="5.53806">
        <ele>1110.2</ele>
      </trkpt>
      <trkpt lat="45.03923" lon="5.53785">
        <ele>1108.8</ele>
      </trkpt>
      <trkpt lat="45.03872" lon="5.53722">
        <ele>1101.5</ele>
      </trkpt>
      <trkpt lat="45.03842" lon="5.53698">
        <ele>1100.9</ele>
      </trkpt>
      <trkpt lat="45.03821" lon="5.53669">
        <ele>1100.1</ele>
      </trkpt>
      <trkpt lat="45.0377" lon="5.53617">
        <ele>1103.9</ele>
      </trkpt>
      <trkpt lat="45.03721" lon="5.53576">
        <ele>1106.6</ele>
      </trkpt>
      <trkpt lat="45.03696" lon="5.53548">
        <ele>1108</ele>
      </trkpt>
      <trkpt lat="45.03664" lon="5.53492">
        <ele>1105.9</ele>
      </trkpt>
      <trkpt lat="45.03663" lon="5.53468">
        <ele>1101.9</ele>
      </trkpt>
      <trkpt lat="45.03663" lon="5.53468">
        <ele>1101.9</ele>
      </trkpt>
      <trkpt lat="45.03648" lon="5.53455">
        <ele>1101</ele>
      </trkpt>
      <trkpt lat="45.03592" lon="5.53434">
        <ele>1102.9</ele>
      </trkpt>
      <trkpt lat="45.03592" lon="5.53434">
        <ele>1102.9</ele>
      </trkpt>
      <trkpt lat="45.03563" lon="5.53428">
        <ele>1104.1</ele>
      </trkpt>
      <trkpt lat="45.0349" lon="5.53406">
        <ele>1105.5</ele>
      </trkpt>
      <trkpt lat="45.03455" lon="5.53382">
        <ele>1105.1</ele>
      </trkpt>
      <trkpt lat="45.03408" lon="5.53342">
        <ele>1100.4</ele>
      </trkpt>
      <trkpt lat="45.03383" lon="5.53309">
        <ele>1101.3</ele>
      </trkpt>
      <trkpt lat="45.03352" lon="5.53247">
        <ele>1099.8</ele>
      </trkpt>
      <trkpt lat="45.03337" lon="5.53178">
        <ele>1096.6</ele>
      </trkpt>
      <trkpt lat="45.03337" lon="5.53178">
        <ele>1096.6</ele>
      </trkpt>
      <trkpt lat="45.03322" lon="5.53181">
        <ele>1098.2</ele>
      </trkpt>
      <trkpt lat="45.03297" lon="5.53199">
        <ele>1103.1</ele>
      </trkpt>
      <trkpt lat="45.03289" lon="5.53204">
        <ele>1105</ele>
      </trkpt>
      <trkpt lat="45.03279" lon="5.53197">
        <ele>1105.2</ele>
      </trkpt>
      <trkpt lat="45.03252" lon="5.5315">
        <ele>1101.1</ele>
      </trkpt>
      <trkpt lat="45.03238" lon="5.53135">
        <ele>1102.3</ele>
      </trkpt>
      <trkpt lat="45.03228" lon="5.53126">
        <ele>1103.3</ele>
      </trkpt>
      <trkpt lat="45.0322" lon="5.53122">
        <ele>1104.3</ele>
      </trkpt>
      <trkpt lat="45.03204" lon="5.53109">
        <ele>1105.6</ele>
      </trkpt>
      <trkpt lat="45.03195" lon="5.53104">
        <ele>1106.3</ele>
      </trkpt>
      <trkpt lat="45.03187" lon="5.53093">
        <ele>1106.4</ele>
      </trkpt>
      <trkpt lat="45.03179" lon="5.53088">
        <ele>1107</ele>
      </trkpt>
      <trkpt lat="45.03177" lon="5.53052">
        <ele>1104.8</ele>
      </trkpt>
      <trkpt lat="45.03161" lon="5.53015">
        <ele>1103.5</ele>
      </trkpt>
      <trkpt lat="45.03135" lon="5.52984">
        <ele>1103.8</ele>
      </trkpt>
      <trkpt lat="45.03111" lon="5.52958">
        <ele>1104.2</ele>
      </trkpt>
      <trkpt lat="45.03105" lon="5.52931">
        <ele>1103.2</ele>
      </trkpt>
      <trkpt lat="45.03104" lon="5.52892">
        <ele>1102.4</ele>
      </trkpt>
      <trkpt lat="45.031" lon="5.52851">
        <ele>1102</ele>
      </trkpt>
      <trkpt lat="45.03091" lon="5.52799">
        <ele>1101.8</ele>
      </trkpt>
      <trkpt lat="45.03148" lon="5.52741">
        <ele>1105.1</ele>
      </trkpt>
      <trkpt lat="45.03126" lon="5.52765">
        <ele>1103.9</ele>
      </trkpt>
      <trkpt lat="45.03109" lon="5.52776">
        <ele>1102.9</ele>
      </trkpt>
      <trkpt lat="45.03091" lon="5.52799">
        <ele>1101.8</ele>
      </trkpt>
      <trkpt lat="45.03148" lon="5.52741">
        <ele>1105.1</ele>
      </trkpt>
      <trkpt lat="45.03125" lon="5.52722">
        <ele>1104.5</ele>
      </trkpt>
      <trkpt lat="45.03086" lon="5.52698">
        <ele>1104.5</ele>
      </trkpt>
      <trkpt lat="45.03038" lon="5.52664">
        <ele>1106.1</ele>
      </trkpt>
      <trkpt lat="45.0301" lon="5.52624">
        <ele>1106.6</ele>
      </trkpt>
      <trkpt lat="45.02979" lon="5.52574">
        <ele>1107.6</ele>
      </trkpt>
      <trkpt lat="45.02943" lon="5.52516">
        <ele>1109.5</ele>
      </trkpt>
      <trkpt lat="45.02916" lon="5.52465">
        <ele>1111.5</ele>
      </trkpt>
      <trkpt lat="45.02886" lon="5.524">
        <ele>1113.4</ele>
      </trkpt>
      <trkpt lat="45.0286" lon="5.52344">
        <ele>1115.1</ele>
      </trkpt>
      <trkpt lat="45.0286" lon="5.52344">
        <ele>1115.1</ele>
      </trkpt>
      <trkpt lat="45.02846" lon="5.52317">
        <ele>1115.4</ele>
      </trkpt>
      <trkpt lat="45.02798" lon="5.5224">
        <ele>1114.9</ele>
      </trkpt>
      <trkpt lat="45.02798" lon="5.5224">
        <ele>1114.9</ele>
      </trkpt>
      <trkpt lat="45.02778" lon="5.52215">
        <ele>1115.7</ele>
      </trkpt>
      <trkpt lat="45.0275" lon="5.52188">
        <ele>1117.3</ele>
      </trkpt>
      <trkpt lat="45.0275" lon="5.52188">
        <ele>1117.3</ele>
      </trkpt>
      <trkpt lat="45.0273" lon="5.52157">
        <ele>1118</ele>
      </trkpt>
      <trkpt lat="45.02699" lon="5.52133">
        <ele>1118.9</ele>
      </trkpt>
      <trkpt lat="45.02667" lon="5.52126">
        <ele>1120</ele>
      </trkpt>
      <trkpt lat="45.02649" lon="5.52117">
        <ele>1122.4</ele>
      </trkpt>
      <trkpt lat="45.0253" lon="5.51911">
        <ele>1137.7</ele>
      </trkpt>
      <trkpt lat="45.0253" lon="5.51911">
        <ele>1137.7</ele>
      </trkpt>
      <trkpt lat="45.02512" lon="5.51893">
        <ele>1140.7</ele>
      </trkpt>
      <trkpt lat="45.02512" lon="5.51893">
        <ele>1140.7</ele>
      </trkpt>
      <trkpt lat="45.02471" lon="5.51855">
        <ele>1145.1</ele>
      </trkpt>
      <trkpt lat="45.02453" lon="5.51857">
        <ele>1147.5</ele>
      </trkpt>
      <trkpt lat="45.02453" lon="5.51857">
        <ele>1147.5</ele>
      </trkpt>
      <trkpt lat="45.02437" lon="5.5184">
        <ele>1148.3</ele>
      </trkpt>
      <trkpt lat="45.02414" lon="5.51819">
        <ele>1149.4</ele>
      </trkpt>
      <trkpt lat="45.02392" lon="5.51809">
        <ele>1151.5</ele>
      </trkpt>
      <trkpt lat="45.02359" lon="5.51803">
        <ele>1155.1</ele>
      </trkpt>
      <trkpt lat="45.02335" lon="5.51804">
        <ele>1158</ele>
      </trkpt>
      <trkpt lat="45.02327" lon="5.518">
        <ele>1158.4</ele>
      </trkpt>
      <trkpt lat="45.02327" lon="5.518">
        <ele>1158.4</ele>
      </trkpt>
      <trkpt lat="45.02326" lon="5.51777">
        <ele>1157</ele>
      </trkpt>
      <trkpt lat="45.02324" lon="5.51758">
        <ele>1155.9</ele>
      </trkpt>
      <trkpt lat="45.02332" lon="5.51718">
        <ele>1157.3</ele>
      </trkpt>
      <trkpt lat="45.02347" lon="5.51678">
        <ele>1159.7</ele>
      </trkpt>
      <trkpt lat="45.02375" lon="5.51651">
        <ele>1161.6</ele>
      </trkpt>
      <trkpt lat="45.02386" lon="5.51658">
        <ele>1160.7</ele>
      </trkpt>
      <trkpt lat="45.02386" lon="5.51658">
        <ele>1160.7</ele>
      </trkpt>
      <trkpt lat="45.02427" lon="5.51633">
        <ele>1163.9</ele>
      </trkpt>
      <trkpt lat="45.02451" lon="5.51624">
        <ele>1167.2</ele>
      </trkpt>
      <trkpt lat="45.02487" lon="5.51608">
        <ele>1172.6</ele>
      </trkpt>
      <trkpt lat="45.02494" lon="5.51606">
        <ele>1173.5</ele>
      </trkpt>
      <trkpt lat="45.02494" lon="5.51606">
        <ele>1173.5</ele>
      </trkpt>
      <trkpt lat="45.02542" lon="5.51591">
        <ele>1179.6</ele>
      </trkpt>
      <trkpt lat="45.02623" lon="5.51573">
        <ele>1187.2</ele>
      </trkpt>
      <trkpt lat="45.02623" lon="5.51573">
        <ele>1187.2</ele>
      </trkpt>
      <trkpt lat="45.0264" lon="5.51568">
        <ele>1188.5</ele>
      </trkpt>
      <trkpt lat="45.02677" lon="5.5154">
        <ele>1192.1</ele>
      </trkpt>
      <trkpt lat="45.02677" lon="5.5154">
        <ele>1192.1</ele>
      </trkpt>
      <trkpt lat="45.02684" lon="5.51509">
        <ele>1193.7</ele>
      </trkpt>
      <trkpt lat="45.02705" lon="5.51483">
        <ele>1195.8</ele>
      </trkpt>
      <trkpt lat="45.02722" lon="5.51448">
        <ele>1198.3</ele>
      </trkpt>
      <trkpt lat="45.02767" lon="5.51397">
        <ele>1204.5</ele>
      </trkpt>
      <trkpt lat="45.02787" lon="5.51345">
        <ele>1206.9</ele>
      </trkpt>
      <trkpt lat="45.02802" lon="5.51314">
        <ele>1207.9</ele>
      </trkpt>
      <trkpt lat="45.02809" lon="5.51278">
        <ele>1207.7</ele>
      </trkpt>
      <trkpt lat="45.02821" lon="5.51252">
        <ele>1208</ele>
      </trkpt>
      <trkpt lat="45.02843" lon="5.51238">
        <ele>1209.2</ele>
      </trkpt>
      <trkpt lat="45.0287" lon="5.5123">
        <ele>1210.6</ele>
      </trkpt>
      <trkpt lat="45.02897" lon="5.51212">
        <ele>1211.5</ele>
      </trkpt>
      <trkpt lat="45.02923" lon="5.51195">
        <ele>1212.8</ele>
      </trkpt>
      <trkpt lat="45.02944" lon="5.51177">
        <ele>1214.8</ele>
      </trkpt>
      <trkpt lat="45.02966" lon="5.51142">
        <ele>1216.5</ele>
      </trkpt>
      <trkpt lat="45.02981" lon="5.51078">
        <ele>1216.4</ele>
      </trkpt>
      <trkpt lat="45.0299" lon="5.51033">
        <ele>1215</ele>
      </trkpt>
      <trkpt lat="45.0301" lon="5.50991">
        <ele>1215.1</ele>
      </trkpt>
      <trkpt lat="45.0301" lon="5.50991">
        <ele>1215.1</ele>
      </trkpt>
      <trkpt lat="45.03026" lon="5.50995">
        <ele>1217.1</ele>
      </trkpt>
      <trkpt lat="45.03059" lon="5.50967">
        <ele>1219.9</ele>
      </trkpt>
      <trkpt lat="45.03072" lon="5.50954">
        <ele>1220.7</ele>
      </trkpt>
      <trkpt lat="45.03087" lon="5.50934">
        <ele>1221.3</ele>
      </trkpt>
      <trkpt lat="45.03108" lon="5.50913">
        <ele>1222.9</ele>
      </trkpt>
      <trkpt lat="45.03127" lon="5.50908">
        <ele>1225</ele>
      </trkpt>
      <trkpt lat="45.03143" lon="5.50911">
        <ele>1227</ele>
      </trkpt>
      <trkpt lat="45.03161" lon="5.50904">
        <ele>1228.9</ele>
      </trkpt>
      <trkpt lat="45.03176" lon="5.50871">
        <ele>1229.5</ele>
      </trkpt>
      <trkpt lat="45.03186" lon="5.50831">
        <ele>1229</ele>
      </trkpt>
      <trkpt lat="45.03203" lon="5.50817">
        <ele>1230.6</ele>
      </trkpt>
      <trkpt lat="45.03238" lon="5.50811">
        <ele>1233.5</ele>
      </trkpt>
      <trkpt lat="45.0326" lon="5.50813">
        <ele>1235.4</ele>
      </trkpt>
      <trkpt lat="45.03295" lon="5.50826">
        <ele>1239.7</ele>
      </trkpt>
      <trkpt lat="45.03316" lon="5.50835">
        <ele>1242.5</ele>
      </trkpt>
      <trkpt lat="45.03343" lon="5.50836">
        <ele>1244.3</ele>
      </trkpt>
      <trkpt lat="45.0336" lon="5.50836">
        <ele>1244.3</ele>
      </trkpt>
      <trkpt lat="45.03376" lon="5.50828">
        <ele>1243.5</ele>
      </trkpt>
      <trkpt lat="45.03404" lon="5.50819">
        <ele>1242.9</ele>
      </trkpt>
      <trkpt lat="45.03421" lon="5.50821">
        <ele>1242.9</ele>
      </trkpt>
      <trkpt lat="45.03447" lon="5.50827">
        <ele>1241.6</ele>
      </trkpt>
      <trkpt lat="45.03463" lon="5.50842">
        <ele>1241.7</ele>
      </trkpt>
      <trkpt lat="45.03483" lon="5.50846">
        <ele>1240.6</ele>
      </trkpt>
      <trkpt lat="45.03507" lon="5.50853">
        <ele>1240.4</ele>
      </trkpt>
      <trkpt lat="45.03534" lon="5.50861">
        <ele>1242.1</ele>
      </trkpt>
      <trkpt lat="45.03555" lon="5.50863">
        <ele>1242.9</ele>
      </trkpt>
      <trkpt lat="45.03578" lon="5.50862">
        <ele>1243.6</ele>
      </trkpt>
      <trkpt lat="45.03606" lon="5.50866">
        <ele>1245.1</ele>
      </trkpt>
      <trkpt lat="45.03624" lon="5.50874">
        <ele>1246.4</ele>
      </trkpt>
      <trkpt lat="45.0364" lon="5.5088">
        <ele>1247.5</ele>
      </trkpt>
      <trkpt lat="45.0366" lon="5.50887">
        <ele>1248.9</ele>
      </trkpt>
      <trkpt lat="45.0366" lon="5.50887">
        <ele>1248.9</ele>
      </trkpt>
      <trkpt lat="45.03674" lon="5.50883">
        <ele>1248.8</ele>
      </trkpt>
      <trkpt lat="45.03682" lon="5.50885">
        <ele>1248.6</ele>
      </trkpt>
      <trkpt lat="45.03686" lon="5.50864">
        <ele>1247.2</ele>
      </trkpt>
      <trkpt lat="45.03686" lon="5.50864">
        <ele>1247.2</ele>
      </trkpt>
      <trkpt lat="45.03675" lon="5.50851">
        <ele>1246.8</ele>
      </trkpt>
      <trkpt lat="45.03672" lon="5.50831">
        <ele>1245.8</ele>
      </trkpt>
      <trkpt lat="45.0367" lon="5.50795">
        <ele>1245.5</ele>
      </trkpt>
      <trkpt lat="45.03666" lon="5.50773">
        <ele>1245.3</ele>
      </trkpt>
      <trkpt lat="45.03665" lon="5.5074">
        <ele>1245.5</ele>
      </trkpt>
      <trkpt lat="45.03663" lon="5.50707">
        <ele>1247.4</ele>
      </trkpt>
      <trkpt lat="45.03666" lon="5.50677">
        <ele>1249.4</ele>
      </trkpt>
      <trkpt lat="45.03664" lon="5.50642">
        <ele>1251.6</ele>
      </trkpt>
      <trkpt lat="45.03669" lon="5.50602">
        <ele>1254.6</ele>
      </trkpt>
      <trkpt lat="45.0368" lon="5.50581">
        <ele>1255.7</ele>
      </trkpt>
      <trkpt lat="45.03688" lon="5.50561">
        <ele>1256.4</ele>
      </trkpt>
      <trkpt lat="45.03702" lon="5.50544">
        <ele>1257</ele>
      </trkpt>
      <trkpt lat="45.03737" lon="5.50541">
        <ele>1256.4</ele>
      </trkpt>
      <trkpt lat="45.03764" lon="5.5054">
        <ele>1256.2</ele>
      </trkpt>
      <trkpt lat="45.03772" lon="5.50536">
        <ele>1256.5</ele>
      </trkpt>
      <trkpt lat="45.03803" lon="5.5048">
        <ele>1261.6</ele>
      </trkpt>
      <trkpt lat="45.03814" lon="5.5046">
        <ele>1263.5</ele>
      </trkpt>
      <trkpt lat="45.03833" lon="5.50421">
        <ele>1266.6</ele>
      </trkpt>
      <trkpt lat="45.03856" lon="5.50376">
        <ele>1271</ele>
      </trkpt>
      <trkpt lat="45.0387" lon="5.50355">
        <ele>1273.4</ele>
      </trkpt>
      <trkpt lat="45.03883" lon="5.50332">
        <ele>1276.1</ele>
      </trkpt>
      <trkpt lat="45.03883" lon="5.50332">
        <ele>1276.1</ele>
      </trkpt>
      <trkpt lat="45.03872" lon="5.50312">
        <ele>1276.5</ele>
      </trkpt>
      <trkpt lat="45.03852" lon="5.50295">
        <ele>1276.3</ele>
      </trkpt>
      <trkpt lat="45.03848" lon="5.50268">
        <ele>1277.7</ele>
      </trkpt>
      <trkpt lat="45.03854" lon="5.50233">
        <ele>1280.2</ele>
      </trkpt>
      <trkpt lat="45.03869" lon="5.50201">
        <ele>1283.2</ele>
      </trkpt>
      <trkpt lat="45.03883" lon="5.50155">
        <ele>1287.1</ele>
      </trkpt>
      <trkpt lat="45.03896" lon="5.50122">
        <ele>1289</ele>
      </trkpt>
      <trkpt lat="45.03907" lon="5.50114">
        <ele>1289.3</ele>
      </trkpt>
      <trkpt lat="45.03933" lon="5.50107">
        <ele>1290.3</ele>
      </trkpt>
      <trkpt lat="45.03971" lon="5.50106">
        <ele>1292.5</ele>
      </trkpt>
      <trkpt lat="45.0405" lon="5.50114">
        <ele>1294.3</ele>
      </trkpt>
      <trkpt lat="45.04102" lon="5.50129">
        <ele>1294.9</ele>
      </trkpt>
      <trkpt lat="45.04142" lon="5.50128">
        <ele>1294.1</ele>
      </trkpt>
      <trkpt lat="45.04175" lon="5.50114">
        <ele>1293</ele>
      </trkpt>
      <trkpt lat="45.04195" lon="5.50099">
        <ele>1292.5</ele>
      </trkpt>
      <trkpt lat="45.04213" lon="5.50082">
        <ele>1292.5</ele>
      </trkpt>
      <trkpt lat="45.04232" lon="5.50055">
        <ele>1291.3</ele>
      </trkpt>
      <trkpt lat="45.04261" lon="5.50015">
        <ele>1289.7</ele>
      </trkpt>
      <trkpt lat="45.04273" lon="5.49993">
        <ele>1288.8</ele>
      </trkpt>
      <trkpt lat="45.04273" lon="5.49993">
        <ele>1288.8</ele>
      </trkpt>
      <trkpt lat="45.0427" lon="5.49975">
        <ele>1289.1</ele>
      </trkpt>
      <trkpt lat="45.0427" lon="5.49961">
        <ele>1289.2</ele>
      </trkpt>
      <trkpt lat="45.04282" lon="5.4994">
        <ele>1289.3</ele>
      </trkpt>
      <trkpt lat="45.04285" lon="5.49919">
        <ele>1289.6</ele>
      </trkpt>
      <trkpt lat="45.04279" lon="5.49879">
        <ele>1292.5</ele>
      </trkpt>
      <trkpt lat="45.04269" lon="5.49843">
        <ele>1295.3</ele>
      </trkpt>
      <trkpt lat="45.04263" lon="5.49823">
        <ele>1297.7</ele>
      </trkpt>
      <trkpt lat="45.04254" lon="5.49804">
        <ele>1300.5</ele>
      </trkpt>
      <trkpt lat="45.04238" lon="5.4979">
        <ele>1302</ele>
      </trkpt>
      <trkpt lat="45.04206" lon="5.49774">
        <ele>1302.2</ele>
      </trkpt>
      <trkpt lat="45.0417" lon="5.49758">
        <ele>1302.1</ele>
      </trkpt>
      <trkpt lat="45.04114" lon="5.49737">
        <ele>1308.1</ele>
      </trkpt>
      <trkpt lat="45.04088" lon="5.4973">
        <ele>1310.6</ele>
      </trkpt>
      <trkpt lat="45.0405" lon="5.49717">
        <ele>1314.7</ele>
      </trkpt>
      <trkpt lat="45.04022" lon="5.49697">
        <ele>1321.5</ele>
      </trkpt>
      <trkpt lat="45.03998" lon="5.49688">
        <ele>1325</ele>
      </trkpt>
      <trkpt lat="45.03966" lon="5.49683">
        <ele>1327.5</ele>
      </trkpt>
      <trkpt lat="45.03936" lon="5.49678">
        <ele>1329.9</ele>
      </trkpt>
      <trkpt lat="45.03913" lon="5.49659">
        <ele>1335.7</ele>
      </trkpt>
      <trkpt lat="45.03911" lon="5.4964">
        <ele>1340.5</ele>
      </trkpt>
      <trkpt lat="45.03911" lon="5.4964">
        <ele>1340.5</ele>
      </trkpt>
      <trkpt lat="45.03945" lon="5.49628">
        <ele>1344.4</ele>
      </trkpt>
      <trkpt lat="45.0396" lon="5.4961">
        <ele>1349.8</ele>
      </trkpt>
      <trkpt lat="45.03971" lon="5.49582">
        <ele>1358.6</ele>
      </trkpt>
      <trkpt lat="45.03997" lon="5.49567">
        <ele>1364.1</ele>
      </trkpt>
      <trkpt lat="45.04025" lon="5.49564">
        <ele>1365.2</ele>
      </trkpt>
      <trkpt lat="45.04035" lon="5.49546">
        <ele>1370.4</ele>
      </trkpt>
      <trkpt lat="45.04035" lon="5.49523">
        <ele>1376.8</ele>
      </trkpt>
      <trkpt lat="45.04035" lon="5.49511">
        <ele>1380.3</ele>
      </trkpt>
      <trkpt lat="45.04036" lon="5.49492">
        <ele>1385</ele>
      </trkpt>
      <trkpt lat="45.04036" lon="5.49457">
        <ele>1391.7</ele>
      </trkpt>
      <trkpt lat="45.04039" lon="5.49434">
        <ele>1396.3</ele>
      </trkpt>
      <trkpt lat="45.04039" lon="5.49434">
        <ele>1396.3</ele>
      </trkpt>
      <trkpt lat="45.04065" lon="5.49425">
        <ele>1400</ele>
      </trkpt>
      <trkpt lat="45.04081" lon="5.49423">
        <ele>1401.5</ele>
      </trkpt>
      <trkpt lat="45.04093" lon="5.49419">
        <ele>1403.6</ele>
      </trkpt>
      <trkpt lat="45.04107" lon="5.49415">
        <ele>1405.7</ele>
      </trkpt>
      <trkpt lat="45.04125" lon="5.49414">
        <ele>1407.9</ele>
      </trkpt>
      <trkpt lat="45.04151" lon="5.49412">
        <ele>1411</ele>
      </trkpt>
      <trkpt lat="45.04165" lon="5.49403">
        <ele>1413.6</ele>
      </trkpt>
      <trkpt lat="45.04204" lon="5.49392">
        <ele>1418</ele>
      </trkpt>
      <trkpt lat="45.04222" lon="5.49385">
        <ele>1420.2</ele>
      </trkpt>
      <trkpt lat="45.04247" lon="5.49387">
        <ele>1421.6</ele>
      </trkpt>
      <trkpt lat="45.04259" lon="5.49389">
        <ele>1422.4</ele>
      </trkpt>
      <trkpt lat="45.04281" lon="5.49391">
        <ele>1424.2</ele>
      </trkpt>
      <trkpt lat="45.04299" lon="5.49392">
        <ele>1425.6</ele>
      </trkpt>
      <trkpt lat="45.04308" lon="5.49392">
        <ele>1426.4</ele>
      </trkpt>
      <trkpt lat="45.04308" lon="5.49392">
        <ele>1426.4</ele>
      </trkpt>
      <trkpt lat="45.04321" lon="5.49391">
        <ele>1427.6</ele>
      </trkpt>
      <trkpt lat="45.04339" lon="5.49386">
        <ele>1429.6</ele>
      </trkpt>
      <trkpt lat="45.04365" lon="5.49385">
        <ele>1431.2</ele>
      </trkpt>
      <trkpt lat="45.04375" lon="5.49378">
        <ele>1432.7</ele>
      </trkpt>
      <trkpt lat="45.04406" lon="5.4936">
        <ele>1437.1</ele>
      </trkpt>
      <trkpt lat="45.04432" lon="5.49346">
        <ele>1441.3</ele>
      </trkpt>
      <trkpt lat="45.04491" lon="5.49319">
        <ele>1449</ele>
      </trkpt>
      <trkpt lat="45.04507" lon="5.49305">
        <ele>1451.4</ele>
      </trkpt>
      <trkpt lat="45.04507" lon="5.49305">
        <ele>1451.4</ele>
      </trkpt>
      <trkpt lat="45.0449" lon="5.49274">
        <ele>1451</ele>
      </trkpt>
      <trkpt lat="45.04482" lon="5.49259">
        <ele>1451.2</ele>
      </trkpt>
      <trkpt lat="45.04482" lon="5.49259">
        <ele>1451.2</ele>
      </trkpt>
      <trkpt lat="45.0449" lon="5.49234">
        <ele>1454.2</ele>
      </trkpt>
      <trkpt lat="45.04494" lon="5.49224">
        <ele>1455.7</ele>
      </trkpt>
      <trkpt lat="45.04506" lon="5.4921">
        <ele>1458.6</ele>
      </trkpt>
      <trkpt lat="45.04515" lon="5.49207">
        <ele>1460</ele>
      </trkpt>
      <trkpt lat="45.04525" lon="5.49212">
        <ele>1460.5</ele>
      </trkpt>
      <trkpt lat="45.04532" lon="5.49213">
        <ele>1461.4</ele>
      </trkpt>
      <trkpt lat="45.04536" lon="5.49205">
        <ele>1462.6</ele>
      </trkpt>
      <trkpt lat="45.04537" lon="5.49192">
        <ele>1464.1</ele>
      </trkpt>
      <trkpt lat="45.04537" lon="5.49172">
        <ele>1466</ele>
      </trkpt>
      <trkpt lat="45.04541" lon="5.49137">
        <ele>1469.2</ele>
      </trkpt>
      <trkpt lat="45.04556" lon="5.49126">
        <ele>1471.6</ele>
      </trkpt>
      <trkpt lat="45.0457" lon="5.49108">
        <ele>1474.6</ele>
      </trkpt>
      <trkpt lat="45.04579" lon="5.49098">
        <ele>1476.3</ele>
      </trkpt>
      <trkpt lat="45.046" lon="5.49081">
        <ele>1480.8</ele>
      </trkpt>
      <trkpt lat="45.04609" lon="5.49072">
        <ele>1482.9</ele>
      </trkpt>
      <trkpt lat="45.0463" lon="5.49055">
        <ele>1486.8</ele>
      </trkpt>
      <trkpt lat="45.04648" lon="5.49037">
        <ele>1490.3</ele>
      </trkpt>
      <trkpt lat="45.04655" lon="5.49037">
        <ele>1491.2</ele>
      </trkpt>
      <trkpt lat="45.04676" lon="5.49017">
        <ele>1494.9</ele>
      </trkpt>
      <trkpt lat="45.0469" lon="5.48999">
        <ele>1498.3</ele>
      </trkpt>
      <trkpt lat="45.04703" lon="5.48987">
        <ele>1501.7</ele>
      </trkpt>
      <trkpt lat="45.04718" lon="5.48976">
        <ele>1504.9</ele>
      </trkpt>
      <trkpt lat="45.04736" lon="5.48959">
        <ele>1508.2</ele>
      </trkpt>
      <trkpt lat="45.04757" lon="5.48935">
        <ele>1511.6</ele>
      </trkpt>
      <trkpt lat="45.0478" lon="5.48936">
        <ele>1514.7</ele>
      </trkpt>
      <trkpt lat="45.0482" lon="5.48901">
        <ele>1520.4</ele>
      </trkpt>
      <trkpt lat="45.04825" lon="5.48885">
        <ele>1521.2</ele>
      </trkpt>
      <trkpt lat="45.04839" lon="5.48871">
        <ele>1522.6</ele>
      </trkpt>
      <trkpt lat="45.04851" lon="5.48854">
        <ele>1523.7</ele>
      </trkpt>
      <trkpt lat="45.04865" lon="5.48801">
        <ele>1524.8</ele>
      </trkpt>
      <trkpt lat="45.04881" lon="5.48747">
        <ele>1525.2</ele>
      </trkpt>
      <trkpt lat="45.04898" lon="5.48705">
        <ele>1521.6</ele>
      </trkpt>
      <trkpt lat="45.04898" lon="5.48705">
        <ele>1521.6</ele>
      </trkpt>
      <trkpt lat="45.04896" lon="5.48689">
        <ele>1519.7</ele>
      </trkpt>
      <trkpt lat="45.04883" lon="5.48667">
        <ele>1517.4</ele>
      </trkpt>
      <trkpt lat="45.04858" lon="5.48641">
        <ele>1515.9</ele>
      </trkpt>
      <trkpt lat="45.04827" lon="5.48623">
        <ele>1516.2</ele>
      </trkpt>
      <trkpt lat="45.04797" lon="5.48601">
        <ele>1518.9</ele>
      </trkpt>
      <trkpt lat="45.04779" lon="5.48584">
        <ele>1520.2</ele>
      </trkpt>
      <trkpt lat="45.04779" lon="5.48584">
        <ele>1520.2</ele>
      </trkpt>
      <trkpt lat="45.04763" lon="5.48572">
        <ele>1521.7</ele>
      </trkpt>
      <trkpt lat="45.04724" lon="5.48549">
        <ele>1524.7</ele>
      </trkpt>
      <trkpt lat="45.0468" lon="5.48528">
        <ele>1527.3</ele>
      </trkpt>
      <trkpt lat="45.04662" lon="5.48514">
        <ele>1527.1</ele>
      </trkpt>
      <trkpt lat="45.04609" lon="5.48476">
        <ele>1527.2</ele>
      </trkpt>
      <trkpt lat="45.04595" lon="5.48467">
        <ele>1527.6</ele>
      </trkpt>
      <trkpt lat="45.04583" lon="5.48466">
        <ele>1528.2</ele>
      </trkpt>
      <trkpt lat="45.04573" lon="5.48455">
        <ele>1526.5</ele>
      </trkpt>
      <trkpt lat="45.04557" lon="5.48435">
        <ele>1524.2</ele>
      </trkpt>
      <trkpt lat="45.04539" lon="5.48421">
        <ele>1522.2</ele>
      </trkpt>
      <trkpt lat="45.04514" lon="5.48375">
        <ele>1521.9</ele>
      </trkpt>
      <trkpt lat="45.04514" lon="5.48375">
        <ele>1521.9</ele>
      </trkpt>
      <trkpt lat="45.04505" lon="5.48362">
        <ele>1521.7</ele>
      </trkpt>
      <trkpt lat="45.04498" lon="5.48359">
        <ele>1520.9</ele>
      </trkpt>
      <trkpt lat="45.04486" lon="5.48355">
        <ele>1517.3</ele>
      </trkpt>
      <trkpt lat="45.04486" lon="5.48357">
        <ele>1517</ele>
      </trkpt>
      <trkpt lat="45.04484" lon="5.48365">
        <ele>1515.7</ele>
      </trkpt>
      <trkpt lat="45.04492" lon="5.48388">
        <ele>1516.7</ele>
      </trkpt>
      <trkpt lat="45.04495" lon="5.48404">
        <ele>1516.8</ele>
      </trkpt>
      <trkpt lat="45.04502" lon="5.48422">
        <ele>1518</ele>
      </trkpt>
      <trkpt lat="45.04506" lon="5.48435">
        <ele>1518</ele>
      </trkpt>
      <trkpt lat="45.04496" lon="5.48435">
        <ele>1515.5</ele>
      </trkpt>
      <trkpt lat="45.04491" lon="5.4842">
        <ele>1514.1</ele>
      </trkpt>
      <trkpt lat="45.04486" lon="5.48406">
        <ele>1513.1</ele>
      </trkpt>
      <trkpt lat="45.04469" lon="5.48395">
        <ele>1507.2</ele>
      </trkpt>
      <trkpt lat="45.04461" lon="5.48387">
        <ele>1505.1</ele>
      </trkpt>
      <trkpt lat="45.04447" lon="5.48373">
        <ele>1501.9</ele>
      </trkpt>
      <trkpt lat="45.04423" lon="5.48338">
        <ele>1500</ele>
      </trkpt>
      <trkpt lat="45.04407" lon="5.48318">
        <ele>1496.4</ele>
      </trkpt>
      <trkpt lat="45.04395" lon="5.48294">
        <ele>1494</ele>
      </trkpt>
      <trkpt lat="45.04388" lon="5.4826">
        <ele>1495.2</ele>
      </trkpt>
      <trkpt lat="45.04388" lon="5.48254">
        <ele>1496</ele>
      </trkpt>
      <trkpt lat="45.04388" lon="5.48231">
        <ele>1495.2</ele>
      </trkpt>
      <trkpt lat="45.04388" lon="5.4823">
        <ele>1495.1</ele>
      </trkpt>
      <trkpt lat="45.04388" lon="5.48229">
        <ele>1495.1</ele>
      </trkpt>
      <trkpt lat="45.04397" lon="5.48205">
        <ele>1495.7</ele>
      </trkpt>
      <trkpt lat="45.04414" lon="5.4819">
        <ele>1498.5</ele>
      </trkpt>
      <trkpt lat="45.04444" lon="5.48166">
        <ele>1501.6</ele>
      </trkpt>
      <trkpt lat="45.04469" lon="5.4816">
        <ele>1505</ele>
      </trkpt>
      <trkpt lat="45.04521" lon="5.48148">
        <ele>1507.7</ele>
      </trkpt>
      <trkpt lat="45.04554" lon="5.48138">
        <ele>1504.9</ele>
      </trkpt>
      <trkpt lat="45.04589" lon="5.48125">
        <ele>1500.3</ele>
      </trkpt>
      <trkpt lat="45.04612" lon="5.48116">
        <ele>1496.3</ele>
      </trkpt>
      <trkpt lat="45.04635" lon="5.48111">
        <ele>1493.8</ele>
      </trkpt>
      <trkpt lat="45.04663" lon="5.48103">
        <ele>1489.6</ele>
      </trkpt>
      <trkpt lat="45.04696" lon="5.48096">
        <ele>1486.6</ele>
      </trkpt>
      <trkpt lat="45.04723" lon="5.48089">
        <ele>1483.7</ele>
      </trkpt>
      <trkpt lat="45.04759" lon="5.48085">
        <ele>1481.9</ele>
      </trkpt>
      <trkpt lat="45.04809" lon="5.4808">
        <ele>1478</ele>
      </trkpt>
      <trkpt lat="45.04837" lon="5.48073">
        <ele>1473.9</ele>
      </trkpt>
      <trkpt lat="45.04888" lon="5.4807">
        <ele>1468.7</ele>
      </trkpt>
      <trkpt lat="45.04926" lon="5.48066">
        <ele>1465.2</ele>
      </trkpt>
      <trkpt lat="45.04983" lon="5.48058">
        <ele>1463.5</ele>
      </trkpt>
      <trkpt lat="45.05015" lon="5.48059">
        <ele>1463.1</ele>
      </trkpt>
      <trkpt lat="45.05042" lon="5.4806">
        <ele>1461.3</ele>
      </trkpt>
      <trkpt lat="45.05053" lon="5.48061">
        <ele>1460.5</ele>
      </trkpt>
      <trkpt lat="45.05086" lon="5.48062">
        <ele>1457.5</ele>
      </trkpt>
      <trkpt lat="45.05102" lon="5.48062">
        <ele>1455.7</ele>
      </trkpt>
      <trkpt lat="45.05108" lon="5.48064">
        <ele>1456.2</ele>
      </trkpt>
      <trkpt lat="45.05107" lon="5.48058">
        <ele>1453.1</ele>
      </trkpt>
      <trkpt lat="45.05101" lon="5.48053">
        <ele>1451.5</ele>
      </trkpt>
      <trkpt lat="45.05095" lon="5.48053">
        <ele>1451.9</ele>
      </trkpt>
      <trkpt lat="45.05084" lon="5.48051">
        <ele>1452.5</ele>
      </trkpt>
      <trkpt lat="45.05059" lon="5.48045">
        <ele>1451.3</ele>
      </trkpt>
      <trkpt lat="45.05042" lon="5.48041">
        <ele>1450.7</ele>
      </trkpt>
      <trkpt lat="45.0501" lon="5.48033">
        <ele>1448.8</ele>
      </trkpt>
      <trkpt lat="45.05004" lon="5.4803">
        <ele>1447.3</ele>
      </trkpt>
      <trkpt lat="45.04995" lon="5.48026">
        <ele>1445</ele>
      </trkpt>
      <trkpt lat="45.04971" lon="5.48014">
        <ele>1438.8</ele>
      </trkpt>
      <trkpt lat="45.04898" lon="5.47989">
        <ele>1429.8</ele>
      </trkpt>
      <trkpt lat="45.04887" lon="5.47985">
        <ele>1429</ele>
      </trkpt>
      <trkpt lat="45.04877" lon="5.47981">
        <ele>1427.8</ele>
      </trkpt>
      <trkpt lat="45.04774" lon="5.47935">
        <ele>1415.4</ele>
      </trkpt>
      <trkpt lat="45.04752" lon="5.47926">
        <ele>1413.5</ele>
      </trkpt>
      <trkpt lat="45.0465" lon="5.47884">
        <ele>1407.6</ele>
      </trkpt>
      <trkpt lat="45.04623" lon="5.47866">
        <ele>1404.8</ele>
      </trkpt>
      <trkpt lat="45.04597" lon="5.47845">
        <ele>1401.6</ele>
      </trkpt>
      <trkpt lat="45.04569" lon="5.47827">
        <ele>1398</ele>
      </trkpt>
      <trkpt lat="45.04557" lon="5.47808">
        <ele>1394.1</ele>
      </trkpt>
      <trkpt lat="45.04545" lon="5.4779">
        <ele>1390.1</ele>
      </trkpt>
      <trkpt lat="45.04534" lon="5.4777">
        <ele>1385.9</ele>
      </trkpt>
      <trkpt lat="45.04531" lon="5.47759">
        <ele>1383.7</ele>
      </trkpt>
      <trkpt lat="45.0453" lon="5.47711">
        <ele>1378.1</ele>
      </trkpt>
      <trkpt lat="45.0453" lon="5.47711">
        <ele>1378.1</ele>
      </trkpt>
      <trkpt lat="45.04507" lon="5.47709">
        <ele>1376.4</ele>
      </trkpt>
      <trkpt lat="45.04489" lon="5.47705">
        <ele>1376</ele>
      </trkpt>
      <trkpt lat="45.04467" lon="5.47701">
        <ele>1376.4</ele>
      </trkpt>
      <trkpt lat="45.04446" lon="5.47701">
        <ele>1377</ele>
      </trkpt>
      <trkpt lat="45.04426" lon="5.47699">
        <ele>1377.7</ele>
      </trkpt>
      <trkpt lat="45.04402" lon="5.47701">
        <ele>1377.5</ele>
      </trkpt>
      <trkpt lat="45.04383" lon="5.47707">
        <ele>1377</ele>
      </trkpt>
      <trkpt lat="45.04364" lon="5.4771">
        <ele>1376.4</ele>
      </trkpt>
      <trkpt lat="45.04337" lon="5.4771">
        <ele>1375.2</ele>
      </trkpt>
      <trkpt lat="45.0431" lon="5.47707">
        <ele>1374.4</ele>
      </trkpt>
      <trkpt lat="45.04288" lon="5.47702">
        <ele>1373.6</ele>
      </trkpt>
      <trkpt lat="45.04263" lon="5.47701">
        <ele>1372.9</ele>
      </trkpt>
      <trkpt lat="45.04242" lon="5.47703">
        <ele>1372.9</ele>
      </trkpt>
      <trkpt lat="45.04217" lon="5.47709">
        <ele>1373.6</ele>
      </trkpt>
      <trkpt lat="45.04174" lon="5.47724">
        <ele>1374.9</ele>
      </trkpt>
      <trkpt lat="45.04095" lon="5.4774">
        <ele>1367.8</ele>
      </trkpt>
      <trkpt lat="45.0403" lon="5.4777">
        <ele>1360.6</ele>
      </trkpt>
      <trkpt lat="45.04001" lon="5.47775">
        <ele>1356.9</ele>
      </trkpt>
      <trkpt lat="45.03931" lon="5.47812">
        <ele>1351</ele>
      </trkpt>
      <trkpt lat="45.03795" lon="5.47853">
        <ele>1339.8</ele>
      </trkpt>
      <trkpt lat="45.03768" lon="5.47869">
        <ele>1337</ele>
      </trkpt>
      <trkpt lat="45.03747" lon="5.47902">
        <ele>1333.1</ele>
      </trkpt>
      <trkpt lat="45.03689" lon="5.47966">
        <ele>1329.6</ele>
      </trkpt>
      <trkpt lat="45.03664" lon="5.47999">
        <ele>1326.9</ele>
      </trkpt>
      <trkpt lat="45.03642" lon="5.48014">
        <ele>1328</ele>
      </trkpt>
      <trkpt lat="45.03598" lon="5.48025">
        <ele>1329.2</ele>
      </trkpt>
      <trkpt lat="45.03565" lon="5.48029">
        <ele>1330.3</ele>
      </trkpt>
      <trkpt lat="45.03537" lon="5.4803">
        <ele>1331.3</ele>
      </trkpt>
      <trkpt lat="45.03493" lon="5.4803">
        <ele>1332.2</ele>
      </trkpt>
      <trkpt lat="45.03455" lon="5.48033">
        <ele>1331.7</ele>
      </trkpt>
      <trkpt lat="45.03433" lon="5.48033">
        <ele>1331.1</ele>
      </trkpt>
      <trkpt lat="45.03405" lon="5.4802">
        <ele>1327.2</ele>
      </trkpt>
      <trkpt lat="45.03392" lon="5.4801">
        <ele>1324.3</ele>
      </trkpt>
      <trkpt lat="45.03366" lon="5.47987">
        <ele>1319.3</ele>
      </trkpt>
      <trkpt lat="45.03351" lon="5.47965">
        <ele>1315</ele>
      </trkpt>
      <trkpt lat="45.03338" lon="5.47943">
        <ele>1309.7</ele>
      </trkpt>
      <trkpt lat="45.03312" lon="5.47913">
        <ele>1302.6</ele>
      </trkpt>
      <trkpt lat="45.03286" lon="5.47871">
        <ele>1303</ele>
      </trkpt>
      <trkpt lat="45.03271" lon="5.47852">
        <ele>1303.8</ele>
      </trkpt>
      <trkpt lat="45.03249" lon="5.47839">
        <ele>1304.4</ele>
      </trkpt>
      <trkpt lat="45.03203" lon="5.4784">
        <ele>1298.1</ele>
      </trkpt>
      <trkpt lat="45.03177" lon="5.47839">
        <ele>1294.5</ele>
      </trkpt>
      <trkpt lat="45.03143" lon="5.47833">
        <ele>1291.6</ele>
      </trkpt>
      <trkpt lat="45.03116" lon="5.47828">
        <ele>1290.2</ele>
      </trkpt>
      <trkpt lat="45.03083" lon="5.47806">
        <ele>1288.3</ele>
      </trkpt>
      <trkpt lat="45.03043" lon="5.47793">
        <ele>1288.9</ele>
      </trkpt>
      <trkpt lat="45.02994" lon="5.47781">
        <ele>1289.6</ele>
      </trkpt>
      <trkpt lat="45.02934" lon="5.47774">
        <ele>1286</ele>
      </trkpt>
      <trkpt lat="45.02934" lon="5.47774">
        <ele>1286</ele>
      </trkpt>
      <trkpt lat="45.02923" lon="5.47773">
        <ele>1285.3</ele>
      </trkpt>
      <trkpt lat="45.02898" lon="5.47767">
        <ele>1283.6</ele>
      </trkpt>
      <trkpt lat="45.02868" lon="5.47759">
        <ele>1281.8</ele>
      </trkpt>
      <trkpt lat="45.02853" lon="5.47756">
        <ele>1281.1</ele>
      </trkpt>
      <trkpt lat="45.02835" lon="5.47751">
        <ele>1280.1</ele>
      </trkpt>
      <trkpt lat="45.0281" lon="5.47754">
        <ele>1280.5</ele>
      </trkpt>
      <trkpt lat="45.02765" lon="5.4777">
        <ele>1281.6</ele>
      </trkpt>
      <trkpt lat="45.02735" lon="5.47775">
        <ele>1282</ele>
      </trkpt>
      <trkpt lat="45.02709" lon="5.47765">
        <ele>1281.7</ele>
      </trkpt>
      <trkpt lat="45.02663" lon="5.47756">
        <ele>1281.4</ele>
      </trkpt>
      <trkpt lat="45.02618" lon="5.47756">
        <ele>1282.3</ele>
      </trkpt>
      <trkpt lat="45.02589" lon="5.47752">
        <ele>1282.9</ele>
      </trkpt>
      <trkpt lat="45.0257" lon="5.47744">
        <ele>1282.9</ele>
      </trkpt>
      <trkpt lat="45.02566" lon="5.47743">
        <ele>1283.1</ele>
      </trkpt>
      <trkpt lat="45.02566" lon="5.47743">
        <ele>1283.1</ele>
      </trkpt>
      <trkpt lat="45.0255" lon="5.47741">
        <ele>1283.8</ele>
      </trkpt>
      <trkpt lat="45.0252" lon="5.47736">
        <ele>1285.2</ele>
      </trkpt>
      <trkpt lat="45.02497" lon="5.47728">
        <ele>1286.6</ele>
      </trkpt>
      <trkpt lat="45.02472" lon="5.47722">
        <ele>1289.6</ele>
      </trkpt>
      <trkpt lat="45.02425" lon="5.47721">
        <ele>1295.6</ele>
      </trkpt>
      <trkpt lat="45.02389" lon="5.47705">
        <ele>1297.3</ele>
      </trkpt>
      <trkpt lat="45.02313" lon="5.47686">
        <ele>1300.3</ele>
      </trkpt>
      <trkpt lat="45.02293" lon="5.47682">
        <ele>1300.4</ele>
      </trkpt>
      <trkpt lat="45.02274" lon="5.47678">
        <ele>1300.3</ele>
      </trkpt>
      <trkpt lat="45.02271" lon="5.47676">
        <ele>1300</ele>
      </trkpt>
      <trkpt lat="45.02262" lon="5.47669">
        <ele>1299.3</ele>
      </trkpt>
      <trkpt lat="45.0225" lon="5.47665">
        <ele>1298.9</ele>
      </trkpt>
      <trkpt lat="45.0224" lon="5.47663">
        <ele>1299.8</ele>
      </trkpt>
      <trkpt lat="45.02229" lon="5.47663">
        <ele>1300.9</ele>
      </trkpt>
      <trkpt lat="45.02224" lon="5.47664">
        <ele>1301.6</ele>
      </trkpt>
      <trkpt lat="45.0222" lon="5.47665">
        <ele>1302.2</ele>
      </trkpt>
      <trkpt lat="45.02207" lon="5.47664">
        <ele>1303.3</ele>
      </trkpt>
      <trkpt lat="45.02185" lon="5.47654">
        <ele>1304.4</ele>
      </trkpt>
      <trkpt lat="45.02165" lon="5.4765">
        <ele>1305.8</ele>
      </trkpt>
      <trkpt lat="45.02145" lon="5.47643">
        <ele>1306.8</ele>
      </trkpt>
      <trkpt lat="45.02143" lon="5.47642">
        <ele>1306.9</ele>
      </trkpt>
      <trkpt lat="45.02134" lon="5.47635">
        <ele>1306.9</ele>
      </trkpt>
      <trkpt lat="45.02124" lon="5.47629">
        <ele>1307.2</ele>
      </trkpt>
      <trkpt lat="45.02114" lon="5.47627">
        <ele>1307.9</ele>
      </trkpt>
      <trkpt lat="45.02102" lon="5.47628">
        <ele>1309.4</ele>
      </trkpt>
      <trkpt lat="45.02088" lon="5.47625">
        <ele>1310.5</ele>
      </trkpt>
      <trkpt lat="45.02073" lon="5.47624">
        <ele>1312.8</ele>
      </trkpt>
      <trkpt lat="45.02064" lon="5.47617">
        <ele>1313.6</ele>
      </trkpt>
      <trkpt lat="45.02048" lon="5.47601">
        <ele>1314.6</ele>
      </trkpt>
      <trkpt lat="45.02043" lon="5.47587">
        <ele>1313.7</ele>
      </trkpt>
      <trkpt lat="45.02042" lon="5.4758">
        <ele>1313.3</ele>
      </trkpt>
      <trkpt lat="45.02038" lon="5.47561">
        <ele>1312.7</ele>
      </trkpt>
      <trkpt lat="45.02038" lon="5.4753">
        <ele>1310.5</ele>
      </trkpt>
      <trkpt lat="45.02034" lon="5.47479">
        <ele>1297.6015625</ele>
      </trkpt>
      <trkpt lat="45.02027" lon="5.47453">
        <ele>1297.2617188</ele>
      </trkpt>
      <trkpt lat="45.02027" lon="5.47451">
        <ele>1297.1054688</ele>
      </trkpt>
      <trkpt lat="45.02015" lon="5.47424">
        <ele>1297.9257813</ele>
      </trkpt>
      <trkpt lat="45.02007" lon="5.47402">
        <ele>1297.90625</ele>
      </trkpt>
      <trkpt lat="45.02006" lon="5.47396">
        <ele>1297.8164063</ele>
      </trkpt>
      <trkpt lat="45.01998" lon="5.47374">
        <ele>1298.6914063</ele>
      </trkpt>
      <trkpt lat="45.01989" lon="5.47356">
        <ele>1305.13</ele>
      </trkpt>
      <trkpt lat="45.01986" lon="5.47357">
        <ele>1306.09</ele>
      </trkpt>
      <trkpt lat="45.01973" lon="5.47371">
        <ele>1307.53</ele>
      </trkpt>
      <trkpt lat="45.01967" lon="5.47378">
        <ele>1308.49</ele>
      </trkpt>
      <trkpt lat="45.01949" lon="5.474">
        <ele>1311.86</ele>
      </trkpt>
      <trkpt lat="45.01937" lon="5.47424">
        <ele>1317.14</ele>
      </trkpt>
      <trkpt lat="45.01931" lon="5.47436">
        <ele>1319.07</ele>
      </trkpt>
      <trkpt lat="45.01925" lon="5.47459">
        <ele>1318.59</ele>
      </trkpt>
      <trkpt lat="45.01914" lon="5.47488">
        <ele>1319.07</ele>
      </trkpt>
      <trkpt lat="45.01912" lon="5.47489">
        <ele>1316.66</ele>
      </trkpt>
      <trkpt lat="45.01881" lon="5.47544">
        <ele>1319.55</ele>
      </trkpt>
      <trkpt lat="45.0187" lon="5.47561">
        <ele>1318.1</ele>
      </trkpt>
      <trkpt lat="45.01865" lon="5.47566">
        <ele>1320.51</ele>
      </trkpt>
      <trkpt lat="45.01858" lon="5.47572">
        <ele>1318.59</ele>
      </trkpt>
      <trkpt lat="45.01857" lon="5.47572">
        <ele>1317.62</ele>
      </trkpt>
      <trkpt lat="45.01854" lon="5.47574">
        <ele>1320.99</ele>
      </trkpt>
      <trkpt lat="45.01823" lon="5.47573">
        <ele>1320.03</ele>
      </trkpt>
      <trkpt lat="45.01806" lon="5.47562">
        <ele>1320.03</ele>
      </trkpt>
      <trkpt lat="45.01801" lon="5.47556">
        <ele>1321.95</ele>
      </trkpt>
      <trkpt lat="45.01798" lon="5.47554">
        <ele>1320.03</ele>
      </trkpt>
      <trkpt lat="45.01796" lon="5.47552">
        <ele>1323.87</ele>
      </trkpt>
      <trkpt lat="45.01793" lon="5.4755">
        <ele>1319.55</ele>
      </trkpt>
      <trkpt lat="45.0179" lon="5.47549">
        <ele>1320.99</ele>
      </trkpt>
      <trkpt lat="45.01774" lon="5.4754">
        <ele>1322.43</ele>
      </trkpt>
      <trkpt lat="45.0176" lon="5.47533">
        <ele>1321.95</ele>
      </trkpt>
      <trkpt lat="45.01716" lon="5.47537">
        <ele>1320.99</ele>
      </trkpt>
      <trkpt lat="45.01712" lon="5.47541">
        <ele>1322.91</ele>
      </trkpt>
      <trkpt lat="45.0171" lon="5.47546">
        <ele>1321.95</ele>
      </trkpt>
      <trkpt lat="45.01708" lon="5.47551">
        <ele>1323.87</ele>
      </trkpt>
      <trkpt lat="45.01706" lon="5.47554">
        <ele>1324.83</ele>
      </trkpt>
      <trkpt lat="45.01704" lon="5.47556">
        <ele>1324.83</ele>
      </trkpt>
      <trkpt lat="45.01696" lon="5.47557">
        <ele>1323.87</ele>
      </trkpt>
      <trkpt lat="45.01687" lon="5.47554">
        <ele>1326.28</ele>
      </trkpt>
      <trkpt lat="45.01686" lon="5.47554">
        <ele>1326.76</ele>
      </trkpt>
      <trkpt lat="45.01679" lon="5.47557">
        <ele>1322.43</ele>
      </trkpt>
      <trkpt lat="45.01661" lon="5.47541">
        <ele>1321.95</ele>
      </trkpt>
      <trkpt lat="45.01641" lon="5.47512">
        <ele>1320.99</ele>
      </trkpt>
      <trkpt lat="45.01626" lon="5.47498">
        <ele>1317.14</ele>
      </trkpt>
      <trkpt lat="45.01623" lon="5.47497">
        <ele>1318.1</ele>
      </trkpt>
      <trkpt lat="45.01617" lon="5.47495">
        <ele>1314.74</ele>
      </trkpt>
      <trkpt lat="45.01612" lon="5.47492">
        <ele>1314.74</ele>
      </trkpt>
      <trkpt lat="45.01611" lon="5.4749">
        <ele>1312.82</ele>
      </trkpt>
      <trkpt lat="45.01602" lon="5.47474">
        <ele>1312.34</ele>
      </trkpt>
      <trkpt lat="45.01573" lon="5.47436">
        <ele>1308.97</ele>
      </trkpt>
      <trkpt lat="45.01568" lon="5.47432">
        <ele>1310.41</ele>
      </trkpt>
      <trkpt lat="45.01565" lon="5.47429">
        <ele>1311.38</ele>
      </trkpt>
      <trkpt lat="45.01561" lon="5.47426">
        <ele>1309.93</ele>
      </trkpt>
      <trkpt lat="45.01558" lon="5.47423">
        <ele>1308.97</ele>
      </trkpt>
      <trkpt lat="45.01555" lon="5.4742">
        <ele>1310.9</ele>
      </trkpt>
      <trkpt lat="45.01552" lon="5.47419">
        <ele>1310.41</ele>
      </trkpt>
      <trkpt lat="45.01537" lon="5.47424">
        <ele>1336.803</ele>
      </trkpt>
      <trkpt lat="45.01524" lon="5.47449">
        <ele>1336.186</ele>
      </trkpt>
      <trkpt lat="45.01495" lon="5.47468">
        <ele>1336.327</ele>
      </trkpt>
      <trkpt lat="45.01491" lon="5.47465">
        <ele>1336.467</ele>
      </trkpt>
      <trkpt lat="45.01479" lon="5.47461">
        <ele>1337.24</ele>
      </trkpt>
      <trkpt lat="45.01471" lon="5.47462">
        <ele>1337.797</ele>
      </trkpt>
      <trkpt lat="45.01443" lon="5.47473">
        <ele>1340.202</ele>
      </trkpt>
      <trkpt lat="45.01425" lon="5.4749">
        <ele>1341.483</ele>
      </trkpt>
      <trkpt lat="45.01399" lon="5.47505">
        <ele>1342.555</ele>
      </trkpt>
      <trkpt lat="45.01368" lon="5.47514">
        <ele>1344.163</ele>
      </trkpt>
      <trkpt lat="45.01349" lon="5.47518">
        <ele>1344.727</ele>
      </trkpt>
      <trkpt lat="45.01334" lon="5.4752">
        <ele>1344.725</ele>
      </trkpt>
      <trkpt lat="45.01331" lon="5.4752">
        <ele>1344.782</ele>
      </trkpt>
      <trkpt lat="45.01311" lon="5.47531">
        <ele>1345.387</ele>
      </trkpt>
      <trkpt lat="45.01303" lon="5.47539">
        <ele>1345.651</ele>
      </trkpt>
      <trkpt lat="45.0129" lon="5.47551">
        <ele>1345.932</ele>
      </trkpt>
      <trkpt lat="45.01274" lon="5.47561">
        <ele>1345.941</ele>
      </trkpt>
      <trkpt lat="45.01267" lon="5.47565">
        <ele>1345.28</ele>
      </trkpt>
      <trkpt lat="45.01253" lon="5.47572">
        <ele>1344.822</ele>
      </trkpt>
      <trkpt lat="45.0124" lon="5.47579">
        <ele>1344.575</ele>
      </trkpt>
      <trkpt lat="45.01227" lon="5.47585">
        <ele>1344.628</ele>
      </trkpt>
      <trkpt lat="45.01227" lon="5.47585">
        <ele>1344.628</ele>
      </trkpt>
      <trkpt lat="45.01213" lon="5.47592">
        <ele>1344.551</ele>
      </trkpt>
      <trkpt lat="45.012" lon="5.47597">
        <ele>1344.681</ele>
      </trkpt>
      <trkpt lat="45.01168" lon="5.47604">
        <ele>1345.514</ele>
      </trkpt>
      <trkpt lat="45.01156" lon="5.4761">
        <ele>1345.529</ele>
      </trkpt>
      <trkpt lat="45.0114" lon="5.47618">
        <ele>1345.945</ele>
      </trkpt>
      <trkpt lat="45.01125" lon="5.47624">
        <ele>1345.196</ele>
      </trkpt>
      <trkpt lat="45.01112" lon="5.4763">
        <ele>1343.965</ele>
      </trkpt>
      <trkpt lat="45.01097" lon="5.47635">
        <ele>1343.002</ele>
      </trkpt>
      <trkpt lat="45.01089" lon="5.47636">
        <ele>1340.849</ele>
      </trkpt>
      <trkpt lat="45.01079" lon="5.47636">
        <ele>1338.943</ele>
      </trkpt>
      <trkpt lat="45.01055" lon="5.47628">
        <ele>1337.7</ele>
      </trkpt>
      <trkpt lat="45.01052" lon="5.47626">
        <ele>1337.65</ele>
      </trkpt>
      <trkpt lat="45.01045" lon="5.47618">
        <ele>1337.836</ele>
      </trkpt>
      <trkpt lat="45.01041" lon="5.47623">
        <ele>1338.321</ele>
      </trkpt>
      <trkpt lat="45.01041" lon="5.47623">
        <ele>1338.343</ele>
      </trkpt>
      <trkpt lat="45.01041" lon="5.47623">
        <ele>1338.413</ele>
      </trkpt>
      <trkpt lat="45.01041" lon="5.47623">
        <ele>1339.895</ele>
      </trkpt>
      <trkpt lat="45.01041" lon="5.47623">
        <ele>1339.961</ele>
      </trkpt>
      <trkpt lat="45.0103" lon="5.47626">
        <ele>1340.252</ele>
      </trkpt>
      <trkpt lat="45.01002" lon="5.47627">
        <ele>1340.308</ele>
      </trkpt>
      <trkpt lat="45.00979" lon="5.47653">
        <ele>1340.9</ele>
      </trkpt>
      <trkpt lat="45.00972" lon="5.47663">
        <ele>1341.019</ele>
      </trkpt>
      <trkpt lat="45.00947" lon="5.47696">
        <ele>1341.406</ele>
      </trkpt>
      <trkpt lat="45.00912" lon="5.4772">
        <ele>1341.813</ele>
      </trkpt>
      <trkpt lat="45.00897" lon="5.47726">
        <ele>1341.843</ele>
      </trkpt>
      <trkpt lat="45.0088" lon="5.47733">
        <ele>1342.096</ele>
      </trkpt>
      <trkpt lat="45.00853" lon="5.47747">
        <ele>1342.733</ele>
      </trkpt>
      <trkpt lat="45.00823" lon="5.47779">
        <ele>1342.683</ele>
      </trkpt>
      <trkpt lat="45.00791" lon="5.47809">
        <ele>1342.398</ele>
      </trkpt>
      <trkpt lat="45.00766" lon="5.47833">
        <ele>1342.283</ele>
      </trkpt>
      <trkpt lat="45.00748" lon="5.47846">
        <ele>1342.349</ele>
      </trkpt>
      <trkpt lat="45.00717" lon="5.47867">
        <ele>1342.59</ele>
      </trkpt>
      <trkpt lat="45.0071" lon="5.47869">
        <ele>1342.682</ele>
      </trkpt>
      <trkpt lat="45.00676" lon="5.47873">
        <ele>1343.181</ele>
      </trkpt>
      <trkpt lat="45.00663" lon="5.47871">
        <ele>1343.327</ele>
      </trkpt>
      <trkpt lat="45.00651" lon="5.47868">
        <ele>1343.53</ele>
      </trkpt>
      <trkpt lat="45.00625" lon="5.47858">
        <ele>1343.773</ele>
      </trkpt>
      <trkpt lat="45.00602" lon="5.47873">
        <ele>1344.266</ele>
      </trkpt>
      <trkpt lat="45.00587" lon="5.47889">
        <ele>1344.395</ele>
      </trkpt>
      <trkpt lat="45.00556" lon="5.47908">
        <ele>1344.841</ele>
      </trkpt>
      <trkpt lat="45.0054" lon="5.47914">
        <ele>1344.913</ele>
      </trkpt>
      <trkpt lat="45.00521" lon="5.47929">
        <ele>1344.825</ele>
      </trkpt>
      <trkpt lat="45.00516" lon="5.47934">
        <ele>1344.838</ele>
      </trkpt>
      <trkpt lat="45.00503" lon="5.47942">
        <ele>1344.835</ele>
      </trkpt>
      <trkpt lat="45.00478" lon="5.47942">
        <ele>1345.286</ele>
      </trkpt>
      <trkpt lat="45.00458" lon="5.47929">
        <ele>1345.233</ele>
      </trkpt>
      <trkpt lat="45.00443" lon="5.47907">
        <ele>1345.773</ele>
      </trkpt>
      <trkpt lat="45.00439" lon="5.47902">
        <ele>1345.699</ele>
      </trkpt>
      <trkpt lat="45.0042" lon="5.47894">
        <ele>1345.198</ele>
      </trkpt>
      <trkpt lat="45.00397" lon="5.47906">
        <ele>1344.801</ele>
      </trkpt>
      <trkpt lat="45.00385" lon="5.47914">
        <ele>1318.1</ele>
      </trkpt>
      <trkpt lat="45.00377" lon="5.47922">
        <ele>1319.07</ele>
      </trkpt>
      <trkpt lat="45.00376" lon="5.47925">
        <ele>1316.18</ele>
      </trkpt>
      <trkpt lat="45.00357" lon="5.47946">
        <ele>1316.66</ele>
      </trkpt>
      <trkpt lat="45.00338" lon="5.47966">
        <ele>1318.1</ele>
      </trkpt>
      <trkpt lat="45.00319" lon="5.47975">
        <ele>1315.22</ele>
      </trkpt>
      <trkpt lat="45.00273" lon="5.47984">
        <ele>1314.74</ele>
      </trkpt>
      <trkpt lat="45.0023" lon="5.48025">
        <ele>1315.22</ele>
      </trkpt>
      <trkpt lat="45.00198" lon="5.48048">
        <ele>1314.26</ele>
      </trkpt>
      <trkpt lat="45.0017" lon="5.48045">
        <ele>1310.9</ele>
      </trkpt>
      <trkpt lat="45.00147" lon="5.48043">
        <ele>1309.93</ele>
      </trkpt>
      <trkpt lat="45.00092" lon="5.48018">
        <ele>1309.45</ele>
      </trkpt>
      <trkpt lat="45.00047" lon="5.47982">
        <ele>1308.49</ele>
      </trkpt>
      <trkpt lat="45.00043" lon="5.47979">
        <ele>1308.97</ele>
      </trkpt>
      <trkpt lat="45.0003" lon="5.47959">
        <ele>1308.97</ele>
      </trkpt>
      <trkpt lat="45.00023" lon="5.4795">
        <ele>1309.45</ele>
      </trkpt>
      <trkpt lat="45.00019" lon="5.47945">
        <ele>1308.01</ele>
      </trkpt>
      <trkpt lat="45.00002" lon="5.47915">
        <ele>1309.45</ele>
      </trkpt>
      <trkpt lat="44.99999" lon="5.4791">
        <ele>1307.53</ele>
      </trkpt>
      <trkpt lat="44.99992" lon="5.47901">
        <ele>1307.05</ele>
      </trkpt>
      <trkpt lat="44.99989" lon="5.47896">
        <ele>1308.01</ele>
      </trkpt>
      <trkpt lat="44.99984" lon="5.47893">
        <ele>1308.49</ele>
      </trkpt>
      <trkpt lat="44.99979" lon="5.47891">
        <ele>1307.53</ele>
      </trkpt>
      <trkpt lat="44.99974" lon="5.4789">
        <ele>1309.45</ele>
      </trkpt>
      <trkpt lat="44.99954" lon="5.47881">
        <ele>1309.45</ele>
      </trkpt>
      <trkpt lat="44.99948" lon="5.47877">
        <ele>1308.01</ele>
      </trkpt>
      <trkpt lat="44.99937" lon="5.47867">
        <ele>1308.97</ele>
      </trkpt>
      <trkpt lat="44.99932" lon="5.47862">
        <ele>1310.41</ele>
      </trkpt>
      <trkpt lat="44.99926" lon="5.47856">
        <ele>1310.41</ele>
      </trkpt>
      <trkpt lat="44.99919" lon="5.47853">
        <ele>1310.41</ele>
      </trkpt>
      <trkpt lat="44.99912" lon="5.4785">
        <ele>1310.9</ele>
      </trkpt>
      <trkpt lat="44.99905" lon="5.47848">
        <ele>1310.41</ele>
      </trkpt>
      <trkpt lat="44.99899" lon="5.47845">
        <ele>1309.45</ele>
      </trkpt>
      <trkpt lat="44.99893" lon="5.47839">
        <ele>1308.97</ele>
      </trkpt>
      <trkpt lat="44.99888" lon="5.47832">
        <ele>1309.45</ele>
      </trkpt>
      <trkpt lat="44.99884" lon="5.47824">
        <ele>1308.97</ele>
      </trkpt>
      <trkpt lat="44.9988" lon="5.47816">
        <ele>1309.93</ele>
      </trkpt>
      <trkpt lat="44.99877" lon="5.47808">
        <ele>1311.38</ele>
      </trkpt>
      <trkpt lat="44.99873" lon="5.47802">
        <ele>1312.82</ele>
      </trkpt>
      <trkpt lat="44.99867" lon="5.47796">
        <ele>1310.9</ele>
      </trkpt>
      <trkpt lat="44.9986" lon="5.4779">
        <ele>1310.41</ele>
      </trkpt>
      <trkpt lat="44.99843" lon="5.47783">
        <ele>1311.38</ele>
      </trkpt>
      <trkpt lat="44.99786" lon="5.47776">
        <ele>1315.22</ele>
      </trkpt>
      <trkpt lat="44.99776" lon="5.47771">
        <ele>1314.74</ele>
      </trkpt>
      <trkpt lat="44.99771" lon="5.47767">
        <ele>1315.7</ele>
      </trkpt>
      <trkpt lat="44.99767" lon="5.47762">
        <ele>1315.22</ele>
      </trkpt>
      <trkpt lat="44.99756" lon="5.47738">
        <ele>1318.1</ele>
      </trkpt>
      <trkpt lat="44.99753" lon="5.4773">
        <ele>1318.59</ele>
      </trkpt>
      <trkpt lat="44.9975" lon="5.47723">
        <ele>1319.07</ele>
      </trkpt>
      <trkpt lat="44.99746" lon="5.47718">
        <ele>1320.51</ele>
      </trkpt>
      <trkpt lat="44.9974" lon="5.47715">
        <ele>1320.03</ele>
      </trkpt>
      <trkpt lat="44.99734" lon="5.47714">
        <ele>1319.55</ele>
      </trkpt>
      <trkpt lat="44.99728" lon="5.47715">
        <ele>1319.07</ele>
      </trkpt>
      <trkpt lat="44.99719" lon="5.47718">
        <ele>1319.07</ele>
      </trkpt>
      <trkpt lat="44.99713" lon="5.4772">
        <ele>1322.43</ele>
      </trkpt>
      <trkpt lat="44.99672" lon="5.47735">
        <ele>1321.47</ele>
      </trkpt>
      <trkpt lat="44.99667" lon="5.47736">
        <ele>1321.47</ele>
      </trkpt>
      <trkpt lat="44.99662" lon="5.47735">
        <ele>1322.43</ele>
      </trkpt>
      <trkpt lat="44.99657" lon="5.47734">
        <ele>1323.39</ele>
      </trkpt>
      <trkpt lat="44.99653" lon="5.47733">
        <ele>1322.43</ele>
      </trkpt>
      <trkpt lat="44.99649" lon="5.47731">
        <ele>1321.47</ele>
      </trkpt>
      <trkpt lat="44.99645" lon="5.47729">
        <ele>1322.91</ele>
      </trkpt>
      <trkpt lat="44.99638" lon="5.47721">
        <ele>1323.87</ele>
      </trkpt>
      <trkpt lat="44.99634" lon="5.47716">
        <ele>1321.47</ele>
      </trkpt>
      <trkpt lat="44.99623" lon="5.47688">
        <ele>1322.91</ele>
      </trkpt>
      <trkpt lat="44.9962" lon="5.47682">
        <ele>1325.31</ele>
      </trkpt>
      <trkpt lat="44.99618" lon="5.47676">
        <ele>1323.87</ele>
      </trkpt>
      <trkpt lat="44.99614" lon="5.47671">
        <ele>1323.39</ele>
      </trkpt>
      <trkpt lat="44.99609" lon="5.47667">
        <ele>1325.31</ele>
      </trkpt>
      <trkpt lat="44.99603" lon="5.47663">
        <ele>1323.87</ele>
      </trkpt>
      <trkpt lat="44.99597" lon="5.47661">
        <ele>1322.91</ele>
      </trkpt>
      <trkpt lat="44.99591" lon="5.4766">
        <ele>1325.31</ele>
      </trkpt>
      <trkpt lat="44.99585" lon="5.47661">
        <ele>1324.35</ele>
      </trkpt>
      <trkpt lat="44.9958" lon="5.47663">
        <ele>1325.31</ele>
      </trkpt>
      <trkpt lat="44.99575" lon="5.47666">
        <ele>1325.8</ele>
      </trkpt>
      <trkpt lat="44.99557" lon="5.47686">
        <ele>1326.76</ele>
      </trkpt>
      <trkpt lat="44.99524" lon="5.47716">
        <ele>1325.8</ele>
      </trkpt>
      <trkpt lat="44.99507" lon="5.47725">
        <ele>1327.24</ele>
      </trkpt>
      <trkpt lat="44.99495" lon="5.4773">
        <ele>1327.72</ele>
      </trkpt>
      <trkpt lat="44.99489" lon="5.47733">
        <ele>1328.68</ele>
      </trkpt>
      <trkpt lat="44.99469" lon="5.4775">
        <ele>1326.28</ele>
      </trkpt>
      <trkpt lat="44.99437" lon="5.4779">
        <ele>1329.64</ele>
      </trkpt>
      <trkpt lat="44.99433" lon="5.47795">
        <ele>1328.68</ele>
      </trkpt>
      <trkpt lat="44.99423" lon="5.47805">
        <ele>1329.64</ele>
      </trkpt>
      <trkpt lat="44.99408" lon="5.47816">
        <ele>1330.6</ele>
      </trkpt>
      <trkpt lat="44.99403" lon="5.4782">
        <ele>1329.16</ele>
      </trkpt>
      <trkpt lat="44.99398" lon="5.47824">
        <ele>1328.68</ele>
      </trkpt>
      <trkpt lat="44.99393" lon="5.47829">
        <ele>1331.08</ele>
      </trkpt>
      <trkpt lat="44.9933" lon="5.47869">
        <ele>1330.6</ele>
      </trkpt>
      <trkpt lat="44.99324" lon="5.47872">
        <ele>1333.01</ele>
      </trkpt>
      <trkpt lat="44.9932" lon="5.47875">
        <ele>1327.24</ele>
      </trkpt>
      <trkpt lat="44.99304" lon="5.47884">
        <ele>1333.01</ele>
      </trkpt>
      <trkpt lat="44.99299" lon="5.47887">
        <ele>1324.35</ele>
      </trkpt>
      <trkpt lat="44.99283" lon="5.47895">
        <ele>1332.52</ele>
      </trkpt>
      <trkpt lat="44.99279" lon="5.47897">
        <ele>1331.56</ele>
      </trkpt>
      <trkpt lat="44.99275" lon="5.47897">
        <ele>1333.01</ele>
      </trkpt>
      <trkpt lat="44.99273" lon="5.47895">
        <ele>1333.49</ele>
      </trkpt>
      <trkpt lat="44.9927" lon="5.4789">
        <ele>1333.97</ele>
      </trkpt>
      <trkpt lat="44.99268" lon="5.47883">
        <ele>1333.97</ele>
      </trkpt>
      <trkpt lat="44.99268" lon="5.47875">
        <ele>1334.93</ele>
      </trkpt>
      <trkpt lat="44.99269" lon="5.47865">
        <ele>1335.41</ele>
      </trkpt>
      <trkpt lat="44.99271" lon="5.47856">
        <ele>1334.45</ele>
      </trkpt>
      <trkpt lat="44.99274" lon="5.47847">
        <ele>1338.29</ele>
      </trkpt>
      <trkpt lat="44.99279" lon="5.47838">
        <ele>1336.85</ele>
      </trkpt>
      <trkpt lat="44.99284" lon="5.47832">
        <ele>1337.81</ele>
      </trkpt>
      <trkpt lat="44.99291" lon="5.47828">
        <ele>1339.73</ele>
      </trkpt>
      <trkpt lat="44.99297" lon="5.47824">
        <ele>1339.25</ele>
      </trkpt>
      <trkpt lat="44.99304" lon="5.47819">
        <ele>1341.18</ele>
      </trkpt>
      <trkpt lat="44.99311" lon="5.47812">
        <ele>1339.73</ele>
      </trkpt>
      <trkpt lat="44.9932" lon="5.47804">
        <ele>1339.25</ele>
      </trkpt>
      <trkpt lat="44.99323" lon="5.47799">
        <ele>1338.29</ele>
      </trkpt>
      <trkpt lat="44.99323" lon="5.47794">
        <ele>1341.18</ele>
      </trkpt>
      <trkpt lat="44.99318" lon="5.47783">
        <ele>1341.18</ele>
      </trkpt>
      <trkpt lat="44.993" lon="5.47763">
        <ele>1342.14</ele>
      </trkpt>
      <trkpt lat="44.99292" lon="5.47752">
        <ele>1343.1</ele>
      </trkpt>
      <trkpt lat="44.99289" lon="5.47747">
        <ele>1343.58</ele>
      </trkpt>
      <trkpt lat="44.99285" lon="5.4774">
        <ele>1344.54</ele>
      </trkpt>
      <trkpt lat="44.99283" lon="5.47733">
        <ele>1342.14</ele>
      </trkpt>
      <trkpt lat="44.99281" lon="5.47726">
        <ele>1343.1</ele>
      </trkpt>
      <trkpt lat="44.9928" lon="5.47719">
        <ele>1344.06</ele>
      </trkpt>
      <trkpt lat="44.9928" lon="5.47711">
        <ele>1343.58</ele>
      </trkpt>
      <trkpt lat="44.99281" lon="5.47703">
        <ele>1343.58</ele>
      </trkpt>
      <trkpt lat="44.99282" lon="5.47696">
        <ele>1342.62</ele>
      </trkpt>
      <trkpt lat="44.9928" lon="5.47689">
        <ele>1345.98</ele>
      </trkpt>
      <trkpt lat="44.99277" lon="5.47684">
        <ele>1344.06</ele>
      </trkpt>
      <trkpt lat="44.99273" lon="5.4768">
        <ele>1345.5</ele>
      </trkpt>
      <trkpt lat="44.99268" lon="5.47676">
        <ele>1345.5</ele>
      </trkpt>
      <trkpt lat="44.99263" lon="5.47674">
        <ele>1346.46</ele>
      </trkpt>
      <trkpt lat="44.99229" lon="5.47661">
        <ele>1346.46</ele>
      </trkpt>
      <trkpt lat="44.99207" lon="5.47647">
        <ele>1345.5</ele>
      </trkpt>
      <trkpt lat="44.99203" lon="5.47645">
        <ele>1345.5</ele>
      </trkpt>
      <trkpt lat="44.99198" lon="5.47644">
        <ele>1346.46</ele>
      </trkpt>
      <trkpt lat="44.9918" lon="5.47645">
        <ele>1346.46</ele>
      </trkpt>
      <trkpt lat="44.99175" lon="5.47646">
        <ele>1347.91</ele>
      </trkpt>
      <trkpt lat="44.9917" lon="5.47647">
        <ele>1345.98</ele>
      </trkpt>
      <trkpt lat="44.99165" lon="5.47648">
        <ele>1348.39</ele>
      </trkpt>
      <trkpt lat="44.9916" lon="5.47649">
        <ele>1346.46</ele>
      </trkpt>
      <trkpt lat="44.99155" lon="5.47649">
        <ele>1346.94</ele>
      </trkpt>
      <trkpt lat="44.99151" lon="5.4765">
        <ele>1347.43</ele>
      </trkpt>
      <trkpt lat="44.99126" lon="5.47659">
        <ele>1346.46</ele>
      </trkpt>
      <trkpt lat="44.9912" lon="5.47661">
        <ele>1345.5</ele>
      </trkpt>
      <trkpt lat="44.99115" lon="5.47661">
        <ele>1347.43</ele>
      </trkpt>
      <trkpt lat="44.99104" lon="5.47658">
        <ele>1347.43</ele>
      </trkpt>
      <trkpt lat="44.99062" lon="5.47642">
        <ele>1348.87</ele>
      </trkpt>
      <trkpt lat="44.99018" lon="5.47623">
        <ele>1349.83</ele>
      </trkpt>
      <trkpt lat="44.99004" lon="5.47605">
        <ele>1352.71</ele>
      </trkpt>
      <trkpt lat="44.99003" lon="5.47603">
        <ele>1352.71</ele>
      </trkpt>
      <trkpt lat="44.99001" lon="5.47598">
        <ele>1352.23</ele>
      </trkpt>
      <trkpt lat="44.99001" lon="5.47596">
        <ele>1352.71</ele>
      </trkpt>
      <trkpt lat="44.99001" lon="5.47593">
        <ele>1352.71</ele>
      </trkpt>
      <trkpt lat="44.99001" lon="5.47591">
        <ele>1352.71</ele>
      </trkpt>
      <trkpt lat="44.99003" lon="5.47576">
        <ele>1353.67</ele>
      </trkpt>
      <trkpt lat="44.98989" lon="5.47525">
        <ele>1357.04</ele>
      </trkpt>
      <trkpt lat="44.98986" lon="5.47508">
        <ele>1358</ele>
      </trkpt>
      <trkpt lat="44.98984" lon="5.475">
        <ele>1366.65</ele>
      </trkpt>
      <trkpt lat="44.98983" lon="5.47492">
        <ele>1345.5</ele>
      </trkpt>
      <trkpt lat="44.9898" lon="5.47485">
        <ele>1358.96</ele>
      </trkpt>
      <trkpt lat="44.98976" lon="5.47479">
        <ele>1359.44</ele>
      </trkpt>
      <trkpt lat="44.98942" lon="5.47458">
        <ele>1359.44</ele>
      </trkpt>
      <trkpt lat="44.98918" lon="5.4744">
        <ele>1362.81</ele>
      </trkpt>
      <trkpt lat="44.98883" lon="5.47413">
        <ele>1363.29</ele>
      </trkpt>
      <trkpt lat="44.98882" lon="5.47412">
        <ele>1365.21</ele>
      </trkpt>
      <trkpt lat="44.9888" lon="5.47411">
        <ele>1364.73</ele>
      </trkpt>
      <trkpt lat="44.98879" lon="5.4741">
        <ele>1363.77</ele>
      </trkpt>
      <trkpt lat="44.98879" lon="5.4741">
        <ele>1365.21</ele>
      </trkpt>
      <trkpt lat="44.98879" lon="5.4741">
        <ele>1368.09</ele>
      </trkpt>
      <trkpt lat="44.98879" lon="5.4741">
        <ele>1362.81</ele>
      </trkpt>
      <trkpt lat="44.98879" lon="5.4741">
        <ele>1365.21</ele>
      </trkpt>
      <trkpt lat="44.98879" lon="5.4741">
        <ele>1369.05</ele>
      </trkpt>
      <trkpt lat="44.98879" lon="5.4741">
        <ele>1365.21</ele>
      </trkpt>
      <trkpt lat="44.98879" lon="5.4741">
        <ele>1357.52</ele>
      </trkpt>
      <trkpt lat="44.98879" lon="5.4741">
        <ele>1365.69</ele>
      </trkpt>
      <trkpt lat="44.98879" lon="5.4741">
        <ele>1356.08</ele>
      </trkpt>
      <trkpt lat="44.98877" lon="5.47411">
        <ele>1362.81</ele>
      </trkpt>
      <trkpt lat="44.98875" lon="5.47411">
        <ele>1365.69</ele>
      </trkpt>
      <trkpt lat="44.98874" lon="5.47411">
        <ele>1363.29</ele>
      </trkpt>
      <trkpt lat="44.98871" lon="5.47411">
        <ele>1364.25</ele>
      </trkpt>
      <trkpt lat="44.98869" lon="5.47411">
        <ele>1365.21</ele>
      </trkpt>
      <trkpt lat="44.98867" lon="5.47412">
        <ele>1360.88</ele>
      </trkpt>
      <trkpt lat="44.98864" lon="5.47414">
        <ele>1365.21</ele>
      </trkpt>
      <trkpt lat="44.98863" lon="5.47414">
        <ele>1360.4</ele>
      </trkpt>
      <trkpt lat="44.98857" lon="5.47417">
        <ele>1365.21</ele>
      </trkpt>
      <trkpt lat="44.98853" lon="5.4742">
        <ele>1359.92</ele>
      </trkpt>
      <trkpt lat="44.98851" lon="5.4742">
        <ele>1364.25</ele>
      </trkpt>
      <trkpt lat="44.98845" lon="5.47422">
        <ele>1360.88</ele>
      </trkpt>
      <trkpt lat="44.98843" lon="5.47422">
        <ele>1364.25</ele>
      </trkpt>
      <trkpt lat="44.98837" lon="5.47424">
        <ele>1359.92</ele>
      </trkpt>
      <trkpt lat="44.98832" lon="5.47425">
        <ele>1363.29</ele>
      </trkpt>
      <trkpt lat="44.98824" lon="5.47429">
        <ele>1361.36</ele>
      </trkpt>
      <trkpt lat="44.98812" lon="5.47433">
        <ele>1360.88</ele>
      </trkpt>
      <trkpt lat="44.98804" lon="5.47434">
        <ele>1359.44</ele>
      </trkpt>
      <trkpt lat="44.98801" lon="5.47434">
        <ele>1362.81</ele>
      </trkpt>
      <trkpt lat="44.988" lon="5.47434">
        <ele>1363.29</ele>
      </trkpt>
      <trkpt lat="44.98796" lon="5.47434">
        <ele>1359.44</ele>
      </trkpt>
      <trkpt lat="44.9879" lon="5.47432">
        <ele>1362.33</ele>
      </trkpt>
      <trkpt lat="44.98789" lon="5.4743">
        <ele>1360.88</ele>
      </trkpt>
      <trkpt lat="44.98788" lon="5.47428">
        <ele>1363.29</ele>
      </trkpt>
      <trkpt lat="44.98786" lon="5.47426">
        <ele>1359.92</ele>
      </trkpt>
      <trkpt lat="44.98786" lon="5.47424">
        <ele>1359.44</ele>
      </trkpt>
      <trkpt lat="44.98785" lon="5.47422">
        <ele>1363.29</ele>
      </trkpt>
      <trkpt lat="44.98784" lon="5.47419">
        <ele>1362.81</ele>
      </trkpt>
      <trkpt lat="44.98784" lon="5.47417">
        <ele>1359.44</ele>
      </trkpt>
      <trkpt lat="44.98783" lon="5.47415">
        <ele>1358.96</ele>
      </trkpt>
      <trkpt lat="44.98783" lon="5.47414">
        <ele>1359.92</ele>
      </trkpt>
      <trkpt lat="44.98781" lon="5.4741">
        <ele>1362.81</ele>
      </trkpt>
      <trkpt lat="44.98773" lon="5.47404">
        <ele>1359.44</ele>
      </trkpt>
      <trkpt lat="44.98772" lon="5.47403">
        <ele>1356.56</ele>
      </trkpt>
      <trkpt lat="44.9877" lon="5.47398">
        <ele>1357.52</ele>
      </trkpt>
      <trkpt lat="44.9877" lon="5.47393">
        <ele>1356.08</ele>
      </trkpt>
      <trkpt lat="44.98764" lon="5.47378">
        <ele>1358.48</ele>
      </trkpt>
      <trkpt lat="44.98751" lon="5.47349">
        <ele>1356.56</ele>
      </trkpt>
      <trkpt lat="44.98733" lon="5.47295">
        <ele>1357.52</ele>
      </trkpt>
      <trkpt lat="44.98729" lon="5.47289">
        <ele>1357.04</ele>
      </trkpt>
      <trkpt lat="44.98706" lon="5.47265">
        <ele>1353.19</ele>
      </trkpt>
      <trkpt lat="44.98702" lon="5.47258">
        <ele>1353.67</ele>
      </trkpt>
      <trkpt lat="44.98689" lon="5.4723">
        <ele>1357.04</ele>
      </trkpt>
      <trkpt lat="44.98683" lon="5.47219">
        <ele>1360.88</ele>
      </trkpt>
      <trkpt lat="44.98673" lon="5.47198">
        <ele>1364.73</ele>
      </trkpt>
      <trkpt lat="44.98671" lon="5.47195">
        <ele>1368.09</ele>
      </trkpt>
      <trkpt lat="44.9867" lon="5.47194">
        <ele>1367.61</ele>
      </trkpt>
      <trkpt lat="44.98668" lon="5.4719">
        <ele>1372.42</ele>
      </trkpt>
      <trkpt lat="44.98665" lon="5.47185">
        <ele>1374.34</ele>
      </trkpt>
      <trkpt lat="44.98658" lon="5.47179">
        <ele>1372.9</ele>
      </trkpt>
      <trkpt lat="44.98656" lon="5.47177">
        <ele>1375.3</ele>
      </trkpt>
      <trkpt lat="44.98645" lon="5.47171">
        <ele>1370.5</ele>
      </trkpt>
      <trkpt lat="44.98634" lon="5.47157">
        <ele>1373.86</ele>
      </trkpt>
      <trkpt lat="44.98631" lon="5.47151">
        <ele>1377.23</ele>
      </trkpt>
      <trkpt lat="44.98628" lon="5.47147">
        <ele>1375.3</ele>
      </trkpt>
      <trkpt lat="44.98595" lon="5.47102">
        <ele>1379.63</ele>
      </trkpt>
      <trkpt lat="44.98581" lon="5.4709">
        <ele>1382.03</ele>
      </trkpt>
      <trkpt lat="44.98574" lon="5.47086">
        <ele>1380.11</ele>
      </trkpt>
      <trkpt lat="44.9856" lon="5.47079">
        <ele>1382.03</ele>
      </trkpt>
      <trkpt lat="44.98551" lon="5.47068">
        <ele>1384.44</ele>
      </trkpt>
      <trkpt lat="44.98541" lon="5.47058">
        <ele>1387.32</ele>
      </trkpt>
      <trkpt lat="44.98498" lon="5.47017">
        <ele>1383.96</ele>
      </trkpt>
      <trkpt lat="44.98476" lon="5.46956">
        <ele>1386.36</ele>
      </trkpt>
      <trkpt lat="44.98457" lon="5.46904">
        <ele>1387.32</ele>
      </trkpt>
      <trkpt lat="44.98454" lon="5.46893">
        <ele>1389.72</ele>
      </trkpt>
      <trkpt lat="44.98449" lon="5.46858">
        <ele>1390.68</ele>
      </trkpt>
      <trkpt lat="44.98447" lon="5.46815">
        <ele>1386.84</ele>
      </trkpt>
      <trkpt lat="44.98444" lon="5.46804">
        <ele>1386.84</ele>
      </trkpt>
      <trkpt lat="44.98432" lon="5.46781">
        <ele>1389.72</ele>
      </trkpt>
      <trkpt lat="44.98408" lon="5.46752">
        <ele>1393.57</ele>
      </trkpt>
      <trkpt lat="44.98394" lon="5.46729">
        <ele>1393.57</ele>
      </trkpt>
      <trkpt lat="44.9839" lon="5.4672">
        <ele>1394.05</ele>
      </trkpt>
      <trkpt lat="44.98389" lon="5.46719">
        <ele>1393.57</ele>
      </trkpt>
      <trkpt lat="44.98388" lon="5.46705">
        <ele>1394.05</ele>
      </trkpt>
      <trkpt lat="44.98388" lon="5.46687">
        <ele>1392.61</ele>
      </trkpt>
      <trkpt lat="44.98387" lon="5.46683">
        <ele>1392.61</ele>
      </trkpt>
      <trkpt lat="44.98382" lon="5.46669">
        <ele>1389.72</ele>
      </trkpt>
      <trkpt lat="44.98381" lon="5.46664">
        <ele>1389.24</ele>
      </trkpt>
      <trkpt lat="44.98381" lon="5.46663">
        <ele>1389.24</ele>
      </trkpt>
      <trkpt lat="44.98376" lon="5.46651">
        <ele>1386.36</ele>
      </trkpt>
      <trkpt lat="44.98367" lon="5.46637">
        <ele>1386.36</ele>
      </trkpt>
      <trkpt lat="44.98358" lon="5.46629">
        <ele>1382.51</ele>
      </trkpt>
      <trkpt lat="44.98357" lon="5.46627">
        <ele>1382.03</ele>
      </trkpt>
      <trkpt lat="44.98352" lon="5.4662">
        <ele>1381.55</ele>
      </trkpt>
      <trkpt lat="44.98351" lon="5.46616">
        <ele>1381.07</ele>
      </trkpt>
      <trkpt lat="44.98343" lon="5.46605">
        <ele>1379.15</ele>
      </trkpt>
      <trkpt lat="44.98334" lon="5.46596">
        <ele>1378.19</ele>
      </trkpt>
      <trkpt lat="44.98323" lon="5.46579">
        <ele>1374.82</ele>
      </trkpt>
      <trkpt lat="44.98312" lon="5.46566">
        <ele>1372.9</ele>
      </trkpt>
      <trkpt lat="44.98301" lon="5.46553">
        <ele>1370.5</ele>
      </trkpt>
      <trkpt lat="44.98291" lon="5.46537">
        <ele>1367.61</ele>
      </trkpt>
      <trkpt lat="44.98282" lon="5.46524">
        <ele>1366.17</ele>
      </trkpt>
      <trkpt lat="44.98281" lon="5.46523">
        <ele>1366.65</ele>
      </trkpt>
      <trkpt lat="44.9827" lon="5.46512">
        <ele>1363.77</ele>
      </trkpt>
      <trkpt lat="44.98269" lon="5.46509">
        <ele>1363.77</ele>
      </trkpt>
      <trkpt lat="44.98269" lon="5.46508">
        <ele>1363.29</ele>
      </trkpt>
      <trkpt lat="44.98269" lon="5.46508">
        <ele>1362.81</ele>
      </trkpt>
      <trkpt lat="44.98269" lon="5.46508">
        <ele>1366.65</ele>
      </trkpt>
      <trkpt lat="44.98269" lon="5.46508">
        <ele>1362.81</ele>
      </trkpt>
      <trkpt lat="44.98269" lon="5.46508">
        <ele>1367.61</ele>
      </trkpt>
      <trkpt lat="44.98269" lon="5.46508">
        <ele>1363.77</ele>
      </trkpt>
      <trkpt lat="44.98269" lon="5.46508">
        <ele>1358</ele>
      </trkpt>
      <trkpt lat="44.98269" lon="5.46507">
        <ele>1363.29</ele>
      </trkpt>
      <trkpt lat="44.9827" lon="5.46506">
        <ele>1363.77</ele>
      </trkpt>
      <trkpt lat="44.9827" lon="5.46506">
        <ele>1364.73</ele>
      </trkpt>
      <trkpt lat="44.9827" lon="5.46506">
        <ele>1363.29</ele>
      </trkpt>
      <trkpt lat="44.9827" lon="5.46506">
        <ele>1366.17</ele>
      </trkpt>
      <trkpt lat="44.9827" lon="5.46506">
        <ele>1366.17</ele>
      </trkpt>
      <trkpt lat="44.9827" lon="5.46506">
        <ele>1361.84</ele>
      </trkpt>
      <trkpt lat="44.9827" lon="5.46506">
        <ele>1363.29</ele>
      </trkpt>
      <trkpt lat="44.98271" lon="5.46507">
        <ele>1364.73</ele>
      </trkpt>
      <trkpt lat="44.98271" lon="5.46507">
        <ele>1366.17</ele>
      </trkpt>
      <trkpt lat="44.98272" lon="5.46507">
        <ele>1364.25</ele>
      </trkpt>
      <trkpt lat="44.98272" lon="5.46507">
        <ele>1363.77</ele>
      </trkpt>
      <trkpt lat="44.98272" lon="5.46507">
        <ele>1362.33</ele>
      </trkpt>
      <trkpt lat="44.98271" lon="5.46506">
        <ele>1366.65</ele>
      </trkpt>
      <trkpt lat="44.98273" lon="5.46504">
        <ele>1365.21</ele>
      </trkpt>
      <trkpt lat="44.98269" lon="5.46487">
        <ele>1363.77</ele>
      </trkpt>
      <trkpt lat="44.98261" lon="5.46478">
        <ele>1362.33</ele>
      </trkpt>
      <trkpt lat="44.98254" lon="5.46468">
        <ele>1360.4</ele>
      </trkpt>
      <trkpt lat="44.98241" lon="5.46448">
        <ele>1358</ele>
      </trkpt>
      <trkpt lat="44.98237" lon="5.46442">
        <ele>1357.52</ele>
      </trkpt>
      <trkpt lat="44.9823" lon="5.46436">
        <ele>1356.08</ele>
      </trkpt>
      <trkpt lat="44.98225" lon="5.46429">
        <ele>1353.67</ele>
      </trkpt>
      <trkpt lat="44.98224" lon="5.46427">
        <ele>1355.12</ele>
      </trkpt>
      <trkpt lat="44.9822" lon="5.46421">
        <ele>1353.67</ele>
      </trkpt>
      <trkpt lat="44.98211" lon="5.46402">
        <ele>1351.75</ele>
      </trkpt>
      <trkpt lat="44.98207" lon="5.46398">
        <ele>1348.87</ele>
      </trkpt>
      <trkpt lat="44.98197" lon="5.46379">
        <ele>1348.87</ele>
      </trkpt>
      <trkpt lat="44.9818" lon="5.46355">
        <ele>1346.46</ele>
      </trkpt>
      <trkpt lat="44.98179" lon="5.46354">
        <ele>1347.43</ele>
      </trkpt>
      <trkpt lat="44.98166" lon="5.46317">
        <ele>1343.58</ele>
      </trkpt>
      <trkpt lat="44.98165" lon="5.46314">
        <ele>1342.14</ele>
      </trkpt>
      <trkpt lat="44.98155" lon="5.46288">
        <ele>1342.14</ele>
      </trkpt>
      <trkpt lat="44.98154" lon="5.46288">
        <ele>1341.18</ele>
      </trkpt>
      <trkpt lat="44.9815" lon="5.4628">
        <ele>1340.22</ele>
      </trkpt>
      <trkpt lat="44.9815" lon="5.46277">
        <ele>1341.18</ele>
      </trkpt>
      <trkpt lat="44.9814" lon="5.46262">
        <ele>1338.29</ele>
      </trkpt>
      <trkpt lat="44.9814" lon="5.46261">
        <ele>1339.73</ele>
      </trkpt>
      <trkpt lat="44.98138" lon="5.46259">
        <ele>1336.37</ele>
      </trkpt>
      <trkpt lat="44.98135" lon="5.46254">
        <ele>1337.33</ele>
      </trkpt>
      <trkpt lat="44.98135" lon="5.46254">
        <ele>1335.41</ele>
      </trkpt>
      <trkpt lat="44.98135" lon="5.46254">
        <ele>1335.89</ele>
      </trkpt>
      <trkpt lat="44.98135" lon="5.46253">
        <ele>1338.29</ele>
      </trkpt>
      <trkpt lat="44.98129" lon="5.4625">
        <ele>1335.41</ele>
      </trkpt>
      <trkpt lat="44.98129" lon="5.46249">
        <ele>1333.49</ele>
      </trkpt>
      <trkpt lat="44.98123" lon="5.4624">
        <ele>1334.45</ele>
      </trkpt>
      <trkpt lat="44.98122" lon="5.46239">
        <ele>1332.52</ele>
      </trkpt>
      <trkpt lat="44.98115" lon="5.46234">
        <ele>1333.49</ele>
      </trkpt>
      <trkpt lat="44.98109" lon="5.46232">
        <ele>1331.08</ele>
      </trkpt>
      <trkpt lat="44.98105" lon="5.4623">
        <ele>1331.08</ele>
      </trkpt>
      <trkpt lat="44.98098" lon="5.46231">
        <ele>1330.12</ele>
      </trkpt>
      <trkpt lat="44.98097" lon="5.46231">
        <ele>1328.68</ele>
      </trkpt>
      <trkpt lat="44.98088" lon="5.46232">
        <ele>1327.72</ele>
      </trkpt>
      <trkpt lat="44.98079" lon="5.46237">
        <ele>1326.76</ele>
      </trkpt>
      <trkpt lat="44.98065" lon="5.46223">
        <ele>1324.35</ele>
      </trkpt>
      <trkpt lat="44.9806" lon="5.46204">
        <ele>1321.95</ele>
      </trkpt>
      <trkpt lat="44.98056" lon="5.46175">
        <ele>1318.59</ele>
      </trkpt>
      <trkpt lat="44.98056" lon="5.46165">
        <ele>1318.59</ele>
      </trkpt>
      <trkpt lat="44.98058" lon="5.46162">
        <ele>1319.07</ele>
      </trkpt>
      <trkpt lat="44.98058" lon="5.46154">
        <ele>1318.1</ele>
      </trkpt>
      <trkpt lat="44.9806" lon="5.46141">
        <ele>1317.62</ele>
      </trkpt>
      <trkpt lat="44.98059" lon="5.46128">
        <ele>1316.18</ele>
      </trkpt>
      <trkpt lat="44.98059" lon="5.46119">
        <ele>1315.7</ele>
      </trkpt>
      <trkpt lat="44.98057" lon="5.46109">
        <ele>1313.78</ele>
      </trkpt>
      <trkpt lat="44.98055" lon="5.46106">
        <ele>1313.3</ele>
      </trkpt>
      <trkpt lat="44.98052" lon="5.46093">
        <ele>1311.86</ele>
      </trkpt>
      <trkpt lat="44.9805" lon="5.4609">
        <ele>1311.38</ele>
      </trkpt>
      <trkpt lat="44.98049" lon="5.46081">
        <ele>1310.9</ele>
      </trkpt>
      <trkpt lat="44.98046" lon="5.46065">
        <ele>1307.53</ele>
      </trkpt>
      <trkpt lat="44.98045" lon="5.46051">
        <ele>1304.65</ele>
      </trkpt>
      <trkpt lat="44.9804" lon="5.46026">
        <ele>1302.72</ele>
      </trkpt>
      <trkpt lat="44.98034" lon="5.45997">
        <ele>1300.32</ele>
      </trkpt>
      <trkpt lat="44.98034" lon="5.45995">
        <ele>1300.32</ele>
      </trkpt>
      <trkpt lat="44.98032" lon="5.45989">
        <ele>1299.36</ele>
      </trkpt>
      <trkpt lat="44.98031" lon="5.45986">
        <ele>1299.84</ele>
      </trkpt>
      <trkpt lat="44.98031" lon="5.45985">
        <ele>1299.36</ele>
      </trkpt>
      <trkpt lat="44.98027" lon="5.45965">
        <ele>1298.4</ele>
      </trkpt>
      <trkpt lat="44.98025" lon="5.45962">
        <ele>1297.44</ele>
      </trkpt>
      <trkpt lat="44.98024" lon="5.4596">
        <ele>1297.44</ele>
      </trkpt>
      <trkpt lat="44.98019" lon="5.45944">
        <ele>1296.96</ele>
      </trkpt>
      <trkpt lat="44.98015" lon="5.45934">
        <ele>1294.07</ele>
      </trkpt>
      <trkpt lat="44.98016" lon="5.45928">
        <ele>1294.07</ele>
      </trkpt>
      <trkpt lat="44.98018" lon="5.45924">
        <ele>1292.63</ele>
      </trkpt>
      <trkpt lat="44.98005" lon="5.459">
        <ele>1292.63</ele>
      </trkpt>
      <trkpt lat="44.97987" lon="5.45897">
        <ele>1293.11</ele>
      </trkpt>
      <trkpt lat="44.97953" lon="5.45895">
        <ele>1294.07</ele>
      </trkpt>
      <trkpt lat="44.979" lon="5.45896">
        <ele>1297.44</ele>
      </trkpt>
      <trkpt lat="44.97878" lon="5.45899">
        <ele>1298.88</ele>
      </trkpt>
      <trkpt lat="44.9783" lon="5.45904">
        <ele>1302.72</ele>
      </trkpt>
      <trkpt lat="44.97823" lon="5.45905">
        <ele>1304.65</ele>
      </trkpt>
      <trkpt lat="44.97804" lon="5.45912">
        <ele>1305.61</ele>
      </trkpt>
      <trkpt lat="44.978" lon="5.45914">
        <ele>1307.05</ele>
      </trkpt>
      <trkpt lat="44.97795" lon="5.45917">
        <ele>1305.13</ele>
      </trkpt>
      <trkpt lat="44.97791" lon="5.45922">
        <ele>1306.09</ele>
      </trkpt>
      <trkpt lat="44.97788" lon="5.45929">
        <ele>1306.57</ele>
      </trkpt>
      <trkpt lat="44.97785" lon="5.45936">
        <ele>1306.57</ele>
      </trkpt>
      <trkpt lat="44.97783" lon="5.45943">
        <ele>1305.61</ele>
      </trkpt>
      <trkpt lat="44.97777" lon="5.45968">
        <ele>1307.05</ele>
      </trkpt>
      <trkpt lat="44.97769" lon="5.45994">
        <ele>1308.01</ele>
      </trkpt>
      <trkpt lat="44.97767" lon="5.46004">
        <ele>1308.49</ele>
      </trkpt>
      <trkpt lat="44.97764" lon="5.46013">
        <ele>1308.97</ele>
      </trkpt>
      <trkpt lat="44.97753" lon="5.4604">
        <ele>1308.49</ele>
      </trkpt>
      <trkpt lat="44.9775" lon="5.46047">
        <ele>1312.82</ele>
      </trkpt>
      <trkpt lat="44.97748" lon="5.46051">
        <ele>1301.76</ele>
      </trkpt>
      <trkpt lat="44.97743" lon="5.46062">
        <ele>1311.38</ele>
      </trkpt>
      <trkpt lat="44.97739" lon="5.46071">
        <ele>1309.93</ele>
      </trkpt>
      <trkpt lat="44.97735" lon="5.46079">
        <ele>1309.45</ele>
      </trkpt>
      <trkpt lat="44.9773" lon="5.46085">
        <ele>1310.41</ele>
      </trkpt>
      <trkpt lat="44.97709" lon="5.46112">
        <ele>1310.9</ele>
      </trkpt>
      <trkpt lat="44.97697" lon="5.46125">
        <ele>1311.38</ele>
      </trkpt>
      <trkpt lat="44.97691" lon="5.46131">
        <ele>1311.86</ele>
      </trkpt>
      <trkpt lat="44.97673" lon="5.4615">
        <ele>1311.86</ele>
      </trkpt>
      <trkpt lat="44.97651" lon="5.46171">
        <ele>1311.86</ele>
      </trkpt>
      <trkpt lat="44.97622" lon="5.46193">
        <ele>1313.3</ele>
      </trkpt>
      <trkpt lat="44.97613" lon="5.46197">
        <ele>1313.3</ele>
      </trkpt>
      <trkpt lat="44.97604" lon="5.46201">
        <ele>1314.74</ele>
      </trkpt>
      <trkpt lat="44.97585" lon="5.46207">
        <ele>1314.26</ele>
      </trkpt>
      <trkpt lat="44.97523" lon="5.46222">
        <ele>1317.62</ele>
      </trkpt>
      <trkpt lat="44.97467" lon="5.4624">
        <ele>1320.99</ele>
      </trkpt>
      <trkpt lat="44.97451" lon="5.46243">
        <ele>1321.95</ele>
      </trkpt>
      <trkpt lat="44.97437" lon="5.46247">
        <ele>1323.39</ele>
      </trkpt>
      <trkpt lat="44.97427" lon="5.46249">
        <ele>1324.35</ele>
      </trkpt>
      <trkpt lat="44.97424" lon="5.46249">
        <ele>1326.76</ele>
      </trkpt>
      <trkpt lat="44.97417" lon="5.4625">
        <ele>1324.35</ele>
      </trkpt>
      <trkpt lat="44.97392" lon="5.46258">
        <ele>1326.76</ele>
      </trkpt>
      <trkpt lat="44.97388" lon="5.4626">
        <ele>1328.2</ele>
      </trkpt>
      <trkpt lat="44.97382" lon="5.46262">
        <ele>1328.2</ele>
      </trkpt>
      <trkpt lat="44.97378" lon="5.46263">
        <ele>1327.72</ele>
      </trkpt>
      <trkpt lat="44.97373" lon="5.46264">
        <ele>1326.76</ele>
      </trkpt>
      <trkpt lat="44.97363" lon="5.46264">
        <ele>1326.76</ele>
      </trkpt>
      <trkpt lat="44.97346" lon="5.46262">
        <ele>1328.2</ele>
      </trkpt>
      <trkpt lat="44.97329" lon="5.4626">
        <ele>1328.2</ele>
      </trkpt>
      <trkpt lat="44.97314" lon="5.46256">
        <ele>1331.56</ele>
      </trkpt>
      <trkpt lat="44.97308" lon="5.46253">
        <ele>1330.6</ele>
      </trkpt>
      <trkpt lat="44.97284" lon="5.46239">
        <ele>1331.08</ele>
      </trkpt>
      <trkpt lat="44.97278" lon="5.46236">
        <ele>1331.56</ele>
      </trkpt>
      <trkpt lat="44.97269" lon="5.46233">
        <ele>1334.45</ele>
      </trkpt>
      <trkpt lat="44.97239" lon="5.46235">
        <ele>1334.45</ele>
      </trkpt>
      <trkpt lat="44.97222" lon="5.46235">
        <ele>1333.49</ele>
      </trkpt>
      <trkpt lat="44.97219" lon="5.46235">
        <ele>1331.56</ele>
      </trkpt>
      <trkpt lat="44.97178" lon="5.4622">
        <ele>1331.08</ele>
      </trkpt>
      <trkpt lat="44.97175" lon="5.46218">
        <ele>1333.01</ele>
      </trkpt>
      <trkpt lat="44.97134" lon="5.46164">
        <ele>1330.12</ele>
      </trkpt>
      <trkpt lat="44.9711" lon="5.46138">
        <ele>1328.68</ele>
      </trkpt>
      <trkpt lat="44.97109" lon="5.46136">
        <ele>1325.8</ele>
      </trkpt>
      <trkpt lat="44.97107" lon="5.46134">
        <ele>1327.24</ele>
      </trkpt>
      <trkpt lat="44.97087" lon="5.46095">
        <ele>1326.28</ele>
      </trkpt>
      <trkpt lat="44.97086" lon="5.46089">
        <ele>1323.39</ele>
      </trkpt>
      <trkpt lat="44.97086" lon="5.46046">
        <ele>1322.91</ele>
      </trkpt>
      <trkpt lat="44.9706" lon="5.45997">
        <ele>1321.95</ele>
      </trkpt>
      <trkpt lat="44.97036" lon="5.4597">
        <ele>1320.51</ele>
      </trkpt>
      <trkpt lat="44.97007" lon="5.4594">
        <ele>1319.55</ele>
      </trkpt>
      <trkpt lat="44.96968" lon="5.45926">
        <ele>1318.1</ele>
      </trkpt>
      <trkpt lat="44.96966" lon="5.45926">
        <ele>1319.55</ele>
      </trkpt>
      <trkpt lat="44.96956" lon="5.45925">
        <ele>1319.07</ele>
      </trkpt>
      <trkpt lat="44.96934" lon="5.45902">
        <ele>1316.66</ele>
      </trkpt>
      <trkpt lat="44.9691" lon="5.45874">
        <ele>1315.7</ele>
      </trkpt>
      <trkpt lat="44.96881" lon="5.45851">
        <ele>1314.74</ele>
      </trkpt>
      <trkpt lat="44.9687" lon="5.45832">
        <ele>1313.78</ele>
      </trkpt>
      <trkpt lat="44.96857" lon="5.45795">
        <ele>1312.34</ele>
      </trkpt>
      <trkpt lat="44.96849" lon="5.45772">
        <ele>1311.38</ele>
      </trkpt>
      <trkpt lat="44.96823" lon="5.45738">
        <ele>1308.49</ele>
      </trkpt>
      <trkpt lat="44.96801" lon="5.45706">
        <ele>1307.53</ele>
      </trkpt>
      <trkpt lat="44.96763" lon="5.45664">
        <ele>1306.57</ele>
      </trkpt>
      <trkpt lat="44.9676" lon="5.45658">
        <ele>1311.38</ele>
      </trkpt>
      <trkpt lat="44.96759" lon="5.45658">
        <ele>1299.84</ele>
      </trkpt>
      <trkpt lat="44.96751" lon="5.45651">
        <ele>1306.57</ele>
      </trkpt>
      <trkpt lat="44.96745" lon="5.45644">
        <ele>1309.45</ele>
      </trkpt>
      <trkpt lat="44.96735" lon="5.45642">
        <ele>1305.61</ele>
      </trkpt>
      <trkpt lat="44.96719" lon="5.45656">
        <ele>1307.53</ele>
      </trkpt>
      <trkpt lat="44.96683" lon="5.45724">
        <ele>1308.01</ele>
      </trkpt>
      <trkpt lat="44.96681" lon="5.45727">
        <ele>1301.28</ele>
      </trkpt>
      <trkpt lat="44.9668" lon="5.4573">
        <ele>1307.05</ele>
      </trkpt>
      <trkpt lat="44.9666" lon="5.45781">
        <ele>1306.09</ele>
      </trkpt>
      <trkpt lat="44.96651" lon="5.45821">
        <ele>1306.09</ele>
      </trkpt>
      <trkpt lat="44.9664" lon="5.4588">
        <ele>1305.61</ele>
      </trkpt>
      <trkpt lat="44.96634" lon="5.4593">
        <ele>1306.57</ele>
      </trkpt>
      <trkpt lat="44.96634" lon="5.45938">
        <ele>1308.49</ele>
      </trkpt>
      <trkpt lat="44.96633" lon="5.45944">
        <ele>1295.51</ele>
      </trkpt>
      <trkpt lat="44.96629" lon="5.45973">
        <ele>1306.57</ele>
      </trkpt>
      <trkpt lat="44.96627" lon="5.45978">
        <ele>1306.57</ele>
      </trkpt>
      <trkpt lat="44.96623" lon="5.45989">
        <ele>1306.57</ele>
      </trkpt>
      <trkpt lat="44.96617" lon="5.45998">
        <ele>1307.05</ele>
      </trkpt>
      <trkpt lat="44.96607" lon="5.4601">
        <ele>1306.57</ele>
      </trkpt>
      <trkpt lat="44.96603" lon="5.46014">
        <ele>1305.61</ele>
      </trkpt>
      <trkpt lat="44.96599" lon="5.46016">
        <ele>1307.05</ele>
      </trkpt>
      <trkpt lat="44.96584" lon="5.46021">
        <ele>1307.05</ele>
      </trkpt>
      <trkpt lat="44.96579" lon="5.46021">
        <ele>1306.57</ele>
      </trkpt>
      <trkpt lat="44.96552" lon="5.46014">
        <ele>1307.05</ele>
      </trkpt>
      <trkpt lat="44.96545" lon="5.46013">
        <ele>1306.57</ele>
      </trkpt>
      <trkpt lat="44.96538" lon="5.46013">
        <ele>1308.01</ele>
      </trkpt>
      <trkpt lat="44.96531" lon="5.46014">
        <ele>1307.05</ele>
      </trkpt>
      <trkpt lat="44.96517" lon="5.46022">
        <ele>1307.53</ele>
      </trkpt>
      <trkpt lat="44.96497" lon="5.46038">
        <ele>1307.53</ele>
      </trkpt>
      <trkpt lat="44.96486" lon="5.46047">
        <ele>1308.97</ele>
      </trkpt>
      <trkpt lat="44.96483" lon="5.4605">
        <ele>1307.53</ele>
      </trkpt>
      <trkpt lat="44.96475" lon="5.46054">
        <ele>1308.97</ele>
      </trkpt>
      <trkpt lat="44.96461" lon="5.46056">
        <ele>1310.9</ele>
      </trkpt>
      <trkpt lat="44.96454" lon="5.46054">
        <ele>1310.41</ele>
      </trkpt>
      <trkpt lat="44.96439" lon="5.46044">
        <ele>1310.41</ele>
      </trkpt>
      <trkpt lat="44.96431" lon="5.46038">
        <ele>1311.86</ele>
      </trkpt>
      <trkpt lat="44.96413" lon="5.46033">
        <ele>1312.82</ele>
      </trkpt>
      <trkpt lat="44.96388" lon="5.46032">
        <ele>1314.26</ele>
      </trkpt>
      <trkpt lat="44.96347" lon="5.4604">
        <ele>1317.62</ele>
      </trkpt>
      <trkpt lat="44.96341" lon="5.4604">
        <ele>1318.59</ele>
      </trkpt>
      <trkpt lat="44.96335" lon="5.46039">
        <ele>1318.1</ele>
      </trkpt>
      <trkpt lat="44.9633" lon="5.46037">
        <ele>1320.03</ele>
      </trkpt>
      <trkpt lat="44.96326" lon="5.46032">
        <ele>1318.59</ele>
      </trkpt>
      <trkpt lat="44.96323" lon="5.46024">
        <ele>1320.51</ele>
      </trkpt>
      <trkpt lat="44.96321" lon="5.46016">
        <ele>1320.99</ele>
      </trkpt>
      <trkpt lat="44.96321" lon="5.46007">
        <ele>1320.99</ele>
      </trkpt>
      <trkpt lat="44.96322" lon="5.45998">
        <ele>1322.43</ele>
      </trkpt>
      <trkpt lat="44.96325" lon="5.45991">
        <ele>1321.95</ele>
      </trkpt>
      <trkpt lat="44.96329" lon="5.45984">
        <ele>1322.43</ele>
      </trkpt>
      <trkpt lat="44.96336" lon="5.45976">
        <ele>1323.39</ele>
      </trkpt>
      <trkpt lat="44.96349" lon="5.45968">
        <ele>1324.83</ele>
      </trkpt>
      <trkpt lat="44.96356" lon="5.45963">
        <ele>1325.8</ele>
      </trkpt>
      <trkpt lat="44.96362" lon="5.45957">
        <ele>1325.31</ele>
      </trkpt>
      <trkpt lat="44.96397" lon="5.45929">
        <ele>1327.72</ele>
      </trkpt>
      <trkpt lat="44.96402" lon="5.45925">
        <ele>1329.64</ele>
      </trkpt>
      <trkpt lat="44.96407" lon="5.45919">
        <ele>1329.16</ele>
      </trkpt>
      <trkpt lat="44.96409" lon="5.45913">
        <ele>1329.16</ele>
      </trkpt>
      <trkpt lat="44.9641" lon="5.45906">
        <ele>1330.12</ele>
      </trkpt>
      <trkpt lat="44.96407" lon="5.45901">
        <ele>1331.08</ele>
      </trkpt>
      <trkpt lat="44.96402" lon="5.45899">
        <ele>1330.12</ele>
      </trkpt>
      <trkpt lat="44.96397" lon="5.459">
        <ele>1331.56</ele>
      </trkpt>
      <trkpt lat="44.96393" lon="5.45901">
        <ele>1331.56</ele>
      </trkpt>
      <trkpt lat="44.96367" lon="5.45918">
        <ele>1333.49</ele>
      </trkpt>
      <trkpt lat="44.96343" lon="5.45921">
        <ele>1334.93</ele>
      </trkpt>
      <trkpt lat="44.96335" lon="5.4592">
        <ele>1335.41</ele>
      </trkpt>
      <trkpt lat="44.96313" lon="5.45916">
        <ele>1338.77</ele>
      </trkpt>
      <trkpt lat="44.96308" lon="5.45913">
        <ele>1338.29</ele>
      </trkpt>
      <trkpt lat="44.96283" lon="5.45875">
        <ele>1339.73</ele>
      </trkpt>
      <trkpt lat="44.96276" lon="5.45867">
        <ele>1341.18</ele>
      </trkpt>
      <trkpt lat="44.96269" lon="5.4586">
        <ele>1342.14</ele>
      </trkpt>
      <trkpt lat="44.9626" lon="5.45855">
        <ele>1342.62</ele>
      </trkpt>
      <trkpt lat="44.96251" lon="5.45852">
        <ele>1344.06</ele>
      </trkpt>
      <trkpt lat="44.96231" lon="5.45851">
        <ele>1344.54</ele>
      </trkpt>
      <trkpt lat="44.96207" lon="5.45855">
        <ele>1346.46</ele>
      </trkpt>
      <trkpt lat="44.96196" lon="5.45856">
        <ele>1374.485</ele>
      </trkpt>
      <trkpt lat="44.96164" lon="5.45873">
        <ele>1376.651</ele>
      </trkpt>
      <trkpt lat="44.96132" lon="5.45908">
        <ele>1378.067</ele>
      </trkpt>
      <trkpt lat="44.96112" lon="5.45941">
        <ele>1379.163</ele>
      </trkpt>
      <trkpt lat="44.96109" lon="5.45957">
        <ele>1379.37</ele>
      </trkpt>
      <trkpt lat="44.96108" lon="5.45978">
        <ele>1379.604</ele>
      </trkpt>
      <trkpt lat="44.96103" lon="5.46002">
        <ele>1379.919</ele>
      </trkpt>
      <trkpt lat="44.96098" lon="5.4603">
        <ele>1379.51</ele>
      </trkpt>
      <trkpt lat="44.96097" lon="5.46043">
        <ele>1379.248</ele>
      </trkpt>
      <trkpt lat="44.96099" lon="5.46059">
        <ele>1378.403</ele>
      </trkpt>
      <trkpt lat="44.96099" lon="5.46078">
        <ele>1377.689</ele>
      </trkpt>
      <trkpt lat="44.96097" lon="5.46092">
        <ele>1376.876</ele>
      </trkpt>
      <trkpt lat="44.96091" lon="5.46103">
        <ele>1375.999</ele>
      </trkpt>
      <trkpt lat="44.96079" lon="5.46112">
        <ele>1374.217</ele>
      </trkpt>
      <trkpt lat="44.96072" lon="5.46128">
        <ele>1373.181</ele>
      </trkpt>
      <trkpt lat="44.96078" lon="5.46137">
        <ele>1372.608</ele>
      </trkpt>
      <trkpt lat="44.96094" lon="5.46147">
        <ele>1371.177</ele>
      </trkpt>
      <trkpt lat="44.96108" lon="5.46156">
        <ele>1369.642</ele>
      </trkpt>
      <trkpt lat="44.96116" lon="5.46167">
        <ele>1368.637</ele>
      </trkpt>
      <trkpt lat="44.96116" lon="5.4617">
        <ele>1368.481</ele>
      </trkpt>
      <trkpt lat="44.9611" lon="5.46184">
        <ele>1367.891</ele>
      </trkpt>
      <trkpt lat="44.96098" lon="5.46186">
        <ele>1367.079</ele>
      </trkpt>
      <trkpt lat="44.96083" lon="5.46182">
        <ele>1365.892</ele>
      </trkpt>
      <trkpt lat="44.96072" lon="5.46194">
        <ele>1364.925</ele>
      </trkpt>
      <trkpt lat="44.96067" lon="5.46207">
        <ele>1363.646</ele>
      </trkpt>
      <trkpt lat="44.96061" lon="5.46225">
        <ele>1362.424</ele>
      </trkpt>
      <trkpt lat="44.9605" lon="5.46244">
        <ele>1361.42</ele>
      </trkpt>
      <trkpt lat="44.96031" lon="5.46258">
        <ele>1361.282</ele>
      </trkpt>
      <trkpt lat="44.95993" lon="5.46265">
        <ele>1362.052</ele>
      </trkpt>
      <trkpt lat="44.95991" lon="5.46264">
        <ele>1352.9140625</ele>
      </trkpt>
      <trkpt lat="44.95987" lon="5.46263">
        <ele>1352.875</ele>
      </trkpt>
      <trkpt lat="44.95982" lon="5.4626">
        <ele>1352.109375</ele>
      </trkpt>
      <trkpt lat="44.95976" lon="5.46253">
        <ele>1350.25</ele>
      </trkpt>
      <trkpt lat="44.95971" lon="5.46248">
        <ele>1348.8164063</ele>
      </trkpt>
      <trkpt lat="44.95966" lon="5.46239">
        <ele>1346.5078125</ele>
      </trkpt>
      <trkpt lat="44.95961" lon="5.46228">
        <ele>1340.22</ele>
      </trkpt>
      <trkpt lat="44.95955" lon="5.46211">
        <ele>1339.73</ele>
      </trkpt>
      <trkpt lat="44.95955" lon="5.46209">
        <ele>1338.29</ele>
      </trkpt>
      <trkpt lat="44.95954" lon="5.46206">
        <ele>1339.73</ele>
      </trkpt>
      <trkpt lat="44.95952" lon="5.46195">
        <ele>1338.77</ele>
      </trkpt>
      <trkpt lat="44.95956" lon="5.46151">
        <ele>1336.85</ele>
      </trkpt>
      <trkpt lat="44.95956" lon="5.46149">
        <ele>1338.77</ele>
      </trkpt>
      <trkpt lat="44.95953" lon="5.46128">
        <ele>1336.37</ele>
      </trkpt>
      <trkpt lat="44.95953" lon="5.46126">
        <ele>1334.93</ele>
      </trkpt>
      <trkpt lat="44.9595" lon="5.46118">
        <ele>1335.89</ele>
      </trkpt>
      <trkpt lat="44.9595" lon="5.46116">
        <ele>1337.81</ele>
      </trkpt>
      <trkpt lat="44.95946" lon="5.46109">
        <ele>1337.33</ele>
      </trkpt>
      <trkpt lat="44.95936" lon="5.46102">
        <ele>1335.89</ele>
      </trkpt>
      <trkpt lat="44.95936" lon="5.46102">
        <ele>1335.89</ele>
      </trkpt>
      <trkpt lat="44.95936" lon="5.46102">
        <ele>1334.45</ele>
      </trkpt>
      <trkpt lat="44.95936" lon="5.46102">
        <ele>1335.41</ele>
      </trkpt>
      <trkpt lat="44.95936" lon="5.46102">
        <ele>1333.97</ele>
      </trkpt>
      <trkpt lat="44.95936" lon="5.46102">
        <ele>1336.37</ele>
      </trkpt>
      <trkpt lat="44.95936" lon="5.46102">
        <ele>1334.93</ele>
      </trkpt>
      <trkpt lat="44.95936" lon="5.46103">
        <ele>1335.41</ele>
      </trkpt>
      <trkpt lat="44.95936" lon="5.46103">
        <ele>1333.49</ele>
      </trkpt>
      <trkpt lat="44.95936" lon="5.46103">
        <ele>1333.97</ele>
      </trkpt>
      <trkpt lat="44.95935" lon="5.46103">
        <ele>1335.41</ele>
      </trkpt>
      <trkpt lat="44.95922" lon="5.46101">
        <ele>1333.97</ele>
      </trkpt>
      <trkpt lat="44.95919" lon="5.46102">
        <ele>1333.49</ele>
      </trkpt>
      <trkpt lat="44.95909" lon="5.46104">
        <ele>1332.52</ele>
      </trkpt>
      <trkpt lat="44.95909" lon="5.46104">
        <ele>1330.6</ele>
      </trkpt>
      <trkpt lat="44.95909" lon="5.46104">
        <ele>1332.04</ele>
      </trkpt>
      <trkpt lat="44.95909" lon="5.46104">
        <ele>1334.45</ele>
      </trkpt>
      <trkpt lat="44.95909" lon="5.46104">
        <ele>1332.04</ele>
      </trkpt>
      <trkpt lat="44.95909" lon="5.46104">
        <ele>1333.97</ele>
      </trkpt>
      <trkpt lat="44.95908" lon="5.46105">
        <ele>1333.49</ele>
      </trkpt>
      <trkpt lat="44.95907" lon="5.46105">
        <ele>1331.56</ele>
      </trkpt>
      <trkpt lat="44.95902" lon="5.46105">
        <ele>1332.04</ele>
      </trkpt>
      <trkpt lat="44.95901" lon="5.46105">
        <ele>1331.08</ele>
      </trkpt>
      <trkpt lat="44.95897" lon="5.46105">
        <ele>1330.12</ele>
      </trkpt>
      <trkpt lat="44.95892" lon="5.46104">
        <ele>1329.64</ele>
      </trkpt>
      <trkpt lat="44.9589" lon="5.46104">
        <ele>1327.72</ele>
      </trkpt>
      <trkpt lat="44.95889" lon="5.46105">
        <ele>1327.72</ele>
      </trkpt>
      <trkpt lat="44.95872" lon="5.46097">
        <ele>1326.76</ele>
      </trkpt>
      <trkpt lat="44.95871" lon="5.46096">
        <ele>1327.72</ele>
      </trkpt>
      <trkpt lat="44.9587" lon="5.46096">
        <ele>1324.35</ele>
      </trkpt>
      <trkpt lat="44.95868" lon="5.46094">
        <ele>1326.76</ele>
      </trkpt>
      <trkpt lat="44.95866" lon="5.46092">
        <ele>1324.35</ele>
      </trkpt>
      <trkpt lat="44.95857" lon="5.46088">
        <ele>1323.87</ele>
      </trkpt>
      <trkpt lat="44.95855" lon="5.46086">
        <ele>1325.31</ele>
      </trkpt>
      <trkpt lat="44.95842" lon="5.46078">
        <ele>1325.31</ele>
      </trkpt>
      <trkpt lat="44.95832" lon="5.46062">
        <ele>1322.91</ele>
      </trkpt>
      <trkpt lat="44.9583" lon="5.46054">
        <ele>1321.95</ele>
      </trkpt>
      <trkpt lat="44.95817" lon="5.46047">
        <ele>1321.47</ele>
      </trkpt>
      <trkpt lat="44.95801" lon="5.46046">
        <ele>1319.07</ele>
      </trkpt>
      <trkpt lat="44.95796" lon="5.46046">
        <ele>1318.59</ele>
      </trkpt>
      <trkpt lat="44.95775" lon="5.46054">
        <ele>1316.66</ele>
      </trkpt>
      <trkpt lat="44.95774" lon="5.46055">
        <ele>1315.7</ele>
      </trkpt>
      <trkpt lat="44.95755" lon="5.46052">
        <ele>1314.74</ele>
      </trkpt>
      <trkpt lat="44.95751" lon="5.46051">
        <ele>1315.22</ele>
      </trkpt>
      <trkpt lat="44.95748" lon="5.4605">
        <ele>1315.22</ele>
      </trkpt>
      <trkpt lat="44.95748" lon="5.4605">
        <ele>1311.38</ele>
      </trkpt>
      <trkpt lat="44.95748" lon="5.4605">
        <ele>1316.18</ele>
      </trkpt>
      <trkpt lat="44.95747" lon="5.46049">
        <ele>1315.22</ele>
      </trkpt>
      <trkpt lat="44.95738" lon="5.46044">
        <ele>1314.26</ele>
      </trkpt>
      <trkpt lat="44.95731" lon="5.46038">
        <ele>1314.26</ele>
      </trkpt>
      <trkpt lat="44.95725" lon="5.46029">
        <ele>1312.34</ele>
      </trkpt>
      <trkpt lat="44.95725" lon="5.46029">
        <ele>1305.61</ele>
      </trkpt>
      <trkpt lat="44.95725" lon="5.4603">
        <ele>1312.34</ele>
      </trkpt>
      <trkpt lat="44.95725" lon="5.46029">
        <ele>1315.22</ele>
      </trkpt>
      <trkpt lat="44.95725" lon="5.46029">
        <ele>1307.53</ele>
      </trkpt>
      <trkpt lat="44.95722" lon="5.46023">
        <ele>1309.93</ele>
      </trkpt>
      <trkpt lat="44.95722" lon="5.46023">
        <ele>1314.26</ele>
      </trkpt>
      <trkpt lat="44.95722" lon="5.46023">
        <ele>1300.32</ele>
      </trkpt>
      <trkpt lat="44.95722" lon="5.46023">
        <ele>1311.86</ele>
      </trkpt>
      <trkpt lat="44.95721" lon="5.46023">
        <ele>1310.9</ele>
      </trkpt>
      <trkpt lat="44.9572" lon="5.46022">
        <ele>1311.38</ele>
      </trkpt>
      <trkpt lat="44.9572" lon="5.46021">
        <ele>1310.41</ele>
      </trkpt>
      <trkpt lat="44.9572" lon="5.4602">
        <ele>1311.38</ele>
      </trkpt>
      <trkpt lat="44.95719" lon="5.46019">
        <ele>1309.93</ele>
      </trkpt>
      <trkpt lat="44.95718" lon="5.46019">
        <ele>1310.41</ele>
      </trkpt>
      <trkpt lat="44.95718" lon="5.46018">
        <ele>1308.49</ele>
      </trkpt>
      <trkpt lat="44.95716" lon="5.46015">
        <ele>1308.01</ele>
      </trkpt>
      <trkpt lat="44.95716" lon="5.46014">
        <ele>1309.45</ele>
      </trkpt>
      <trkpt lat="44.95716" lon="5.46013">
        <ele>1307.05</ele>
      </trkpt>
      <trkpt lat="44.95715" lon="5.46013">
        <ele>1308.97</ele>
      </trkpt>
      <trkpt lat="44.95713" lon="5.46009">
        <ele>1308.01</ele>
      </trkpt>
      <trkpt lat="44.95713" lon="5.46008">
        <ele>1307.53</ele>
      </trkpt>
      <trkpt lat="44.95713" lon="5.46008">
        <ele>1305.61</ele>
      </trkpt>
      <trkpt lat="44.95712" lon="5.46008">
        <ele>1307.05</ele>
      </trkpt>
      <trkpt lat="44.95712" lon="5.46008">
        <ele>1306.09</ele>
      </trkpt>
      <trkpt lat="44.95712" lon="5.46007">
        <ele>1307.53</ele>
      </trkpt>
      <trkpt lat="44.95711" lon="5.46007">
        <ele>1305.61</ele>
      </trkpt>
      <trkpt lat="44.9571" lon="5.46007">
        <ele>1307.05</ele>
      </trkpt>
      <trkpt lat="44.95708" lon="5.46006">
        <ele>1306.09</ele>
      </trkpt>
      <trkpt lat="44.95702" lon="5.46001">
        <ele>1304.65</ele>
      </trkpt>
      <trkpt lat="44.95701" lon="5.46">
        <ele>1302.72</ele>
      </trkpt>
      <trkpt lat="44.95697" lon="5.45996">
        <ele>1302.72</ele>
      </trkpt>
      <trkpt lat="44.95696" lon="5.45997">
        <ele>1302.72</ele>
      </trkpt>
      <trkpt lat="44.95695" lon="5.45996">
        <ele>1299.84</ele>
      </trkpt>
      <trkpt lat="44.95693" lon="5.45995">
        <ele>1301.28</ele>
      </trkpt>
      <trkpt lat="44.95688" lon="5.45995">
        <ele>1297.92</ele>
      </trkpt>
      <trkpt lat="44.95683" lon="5.45995">
        <ele>1298.4</ele>
      </trkpt>
      <trkpt lat="44.95681" lon="5.45996">
        <ele>1297.44</ele>
      </trkpt>
      <trkpt lat="44.95672" lon="5.46">
        <ele>1294.55</ele>
      </trkpt>
      <trkpt lat="44.95669" lon="5.46003">
        <ele>1293.59</ele>
      </trkpt>
      <trkpt lat="44.95665" lon="5.46003">
        <ele>1292.63</ele>
      </trkpt>
      <trkpt lat="44.95659" lon="5.46008">
        <ele>1291.19</ele>
      </trkpt>
      <trkpt lat="44.95658" lon="5.46008">
        <ele>1291.19</ele>
      </trkpt>
      <trkpt lat="44.95657" lon="5.46009">
        <ele>1290.71</ele>
      </trkpt>
      <trkpt lat="44.95646" lon="5.46007">
        <ele>1287.82</ele>
      </trkpt>
      <trkpt lat="44.95643" lon="5.46006">
        <ele>1287.34</ele>
      </trkpt>
      <trkpt lat="44.95638" lon="5.46007">
        <ele>1286.38</ele>
      </trkpt>
      <trkpt lat="44.95636" lon="5.46008">
        <ele>1284.94</ele>
      </trkpt>
      <trkpt lat="44.95629" lon="5.46006">
        <ele>1284.46</ele>
      </trkpt>
      <trkpt lat="44.9562" lon="5.46004">
        <ele>1283.5</ele>
      </trkpt>
      <trkpt lat="44.95614" lon="5.46003">
        <ele>1282.54</ele>
      </trkpt>
      <trkpt lat="44.95607" lon="5.45998">
        <ele>1282.06</ele>
      </trkpt>
      <trkpt lat="44.95605" lon="5.45997">
        <ele>1281.57</ele>
      </trkpt>
      <trkpt lat="44.95598" lon="5.45989">
        <ele>1279.65</ele>
      </trkpt>
      <trkpt lat="44.95594" lon="5.45983">
        <ele>1280.61</ele>
      </trkpt>
      <trkpt lat="44.95593" lon="5.45981">
        <ele>1278.69</ele>
      </trkpt>
      <trkpt lat="44.95591" lon="5.45981">
        <ele>1280.13</ele>
      </trkpt>
      <trkpt lat="44.95586" lon="5.45974">
        <ele>1278.69</ele>
      </trkpt>
      <trkpt lat="44.95572" lon="5.45964">
        <ele>1278.21</ele>
      </trkpt>
      <trkpt lat="44.95559" lon="5.45951">
        <ele>1275.33</ele>
      </trkpt>
      <trkpt lat="44.95552" lon="5.45946">
        <ele>1275.33</ele>
      </trkpt>
      <trkpt lat="44.95551" lon="5.45945">
        <ele>1275.33</ele>
      </trkpt>
      <trkpt lat="44.95545" lon="5.45942">
        <ele>1275.81</ele>
      </trkpt>
      <trkpt lat="44.95528" lon="5.45935">
        <ele>1271.48</ele>
      </trkpt>
      <trkpt lat="44.95506" lon="5.45928">
        <ele>1270.52</ele>
      </trkpt>
      <trkpt lat="44.95498" lon="5.45906">
        <ele>1268.12</ele>
      </trkpt>
      <trkpt lat="44.95495" lon="5.45905">
        <ele>1271.0742188</ele>
      </trkpt>
      <trkpt lat="44.95492" lon="5.45907">
        <ele>1270.7265625</ele>
      </trkpt>
      <trkpt lat="44.95487" lon="5.45911">
        <ele>1270.21875</ele>
      </trkpt>
      <trkpt lat="44.95482" lon="5.45914">
        <ele>1269.8945313</ele>
      </trkpt>
      <trkpt lat="44.95482" lon="5.45915">
        <ele>1269.90625</ele>
      </trkpt>
      <trkpt lat="44.95477" lon="5.45917">
        <ele>1269.9765625</ele>
      </trkpt>
      <trkpt lat="44.95476" lon="5.45917">
        <ele>1269.9765625</ele>
      </trkpt>
      <trkpt lat="44.95471" lon="5.45916">
        <ele>1269.9609375</ele>
      </trkpt>
      <trkpt lat="44.95471" lon="5.45916">
        <ele>1269.9609375</ele>
      </trkpt>
      <trkpt lat="44.95465" lon="5.45917">
        <ele>1270.0039063</ele>
      </trkpt>
      <trkpt lat="44.95465" lon="5.45917">
        <ele>1270.0039063</ele>
      </trkpt>
      <trkpt lat="44.95457" lon="5.45919">
        <ele>1270.0585938</ele>
      </trkpt>
      <trkpt lat="44.95457" lon="5.45919">
        <ele>1270.0585938</ele>
      </trkpt>
      <trkpt lat="44.95449" lon="5.45919">
        <ele>1270.2695313</ele>
      </trkpt>
      <trkpt lat="44.95441" lon="5.4592">
        <ele>1270.5820313</ele>
      </trkpt>
      <trkpt lat="44.95441" lon="5.4592">
        <ele>1270.5898438</ele>
      </trkpt>
      <trkpt lat="44.95432" lon="5.4592">
        <ele>1271.48</ele>
      </trkpt>
      <trkpt lat="44.95419" lon="5.45923">
        <ele>1271</ele>
      </trkpt>
      <trkpt lat="44.95412" lon="5.45926">
        <ele>1270.52</ele>
      </trkpt>
      <trkpt lat="44.95391" lon="5.45989">
        <ele>1274.36</ele>
      </trkpt>
      <trkpt lat="44.95378" lon="5.4602">
        <ele>1277.25</ele>
      </trkpt>
      <trkpt lat="44.95375" lon="5.46028">
        <ele>1276.29</ele>
      </trkpt>
      <trkpt lat="44.95364" lon="5.46066">
        <ele>1278.21</ele>
      </trkpt>
      <trkpt lat="44.9536" lon="5.46076">
        <ele>1277.25</ele>
      </trkpt>
      <trkpt lat="44.95355" lon="5.46086">
        <ele>1279.17</ele>
      </trkpt>
      <trkpt lat="44.95343" lon="5.46102">
        <ele>1278.69</ele>
      </trkpt>
      <trkpt lat="44.95338" lon="5.46112">
        <ele>1279.65</ele>
      </trkpt>
      <trkpt lat="44.95334" lon="5.46134">
        <ele>1280.13</ele>
      </trkpt>
      <trkpt lat="44.95332" lon="5.46156">
        <ele>1280.61</ele>
      </trkpt>
      <trkpt lat="44.9533" lon="5.46167">
        <ele>1282.06</ele>
      </trkpt>
      <trkpt lat="44.95329" lon="5.46178">
        <ele>1282.06</ele>
      </trkpt>
      <trkpt lat="44.95326" lon="5.46187">
        <ele>1284.46</ele>
      </trkpt>
      <trkpt lat="44.95321" lon="5.46195">
        <ele>1284.94</ele>
      </trkpt>
      <trkpt lat="44.95316" lon="5.462">
        <ele>1283.98</ele>
      </trkpt>
      <trkpt lat="44.95311" lon="5.46204">
        <ele>1285.42</ele>
      </trkpt>
      <trkpt lat="44.953" lon="5.46209">
        <ele>1285.42</ele>
      </trkpt>
      <trkpt lat="44.95295" lon="5.46211">
        <ele>1284.94</ele>
      </trkpt>
      <trkpt lat="44.95282" lon="5.46221">
        <ele>1286.86</ele>
      </trkpt>
      <trkpt lat="44.95272" lon="5.46229">
        <ele>1287.34</ele>
      </trkpt>
      <trkpt lat="44.95264" lon="5.46234">
        <ele>1286.86</ele>
      </trkpt>
      <trkpt lat="44.9526" lon="5.46236">
        <ele>1285.42</ele>
      </trkpt>
      <trkpt lat="44.95256" lon="5.46238">
        <ele>1287.34</ele>
      </trkpt>
      <trkpt lat="44.95252" lon="5.46239">
        <ele>1287.34</ele>
      </trkpt>
      <trkpt lat="44.95244" lon="5.46237">
        <ele>1285.42</ele>
      </trkpt>
      <trkpt lat="44.95239" lon="5.46233">
        <ele>1286.86</ele>
      </trkpt>
      <trkpt lat="44.95233" lon="5.46227">
        <ele>1285.9</ele>
      </trkpt>
      <trkpt lat="44.95224" lon="5.46213">
        <ele>1285.9</ele>
      </trkpt>
      <trkpt lat="44.95219" lon="5.46205">
        <ele>1286.86</ele>
      </trkpt>
      <trkpt lat="44.95213" lon="5.46199">
        <ele>1286.86</ele>
      </trkpt>
      <trkpt lat="44.95207" lon="5.46194">
        <ele>1289.27</ele>
      </trkpt>
      <trkpt lat="44.952" lon="5.4619">
        <ele>1289.27</ele>
      </trkpt>
      <trkpt lat="44.9519" lon="5.46187">
        <ele>1289.27</ele>
      </trkpt>
      <trkpt lat="44.95185" lon="5.46188">
        <ele>1290.71</ele>
      </trkpt>
      <trkpt lat="44.95178" lon="5.4619">
        <ele>1288.78</ele>
      </trkpt>
      <trkpt lat="44.95165" lon="5.46195">
        <ele>1289.75</ele>
      </trkpt>
      <trkpt lat="44.95159" lon="5.46196">
        <ele>1291.67</ele>
      </trkpt>
      <trkpt lat="44.95153" lon="5.46196">
        <ele>1290.71</ele>
      </trkpt>
      <trkpt lat="44.95149" lon="5.46191">
        <ele>1292.15</ele>
      </trkpt>
      <trkpt lat="44.95144" lon="5.46185">
        <ele>1293.11</ele>
      </trkpt>
      <trkpt lat="44.95137" lon="5.4617">
        <ele>1294.07</ele>
      </trkpt>
      <trkpt lat="44.95134" lon="5.46164">
        <ele>1294.55</ele>
      </trkpt>
      <trkpt lat="44.95129" lon="5.46159">
        <ele>1295.51</ele>
      </trkpt>
      <trkpt lat="44.95123" lon="5.46157">
        <ele>1295.99</ele>
      </trkpt>
      <trkpt lat="44.95116" lon="5.46159">
        <ele>1296.48</ele>
      </trkpt>
      <trkpt lat="44.95111" lon="5.46164">
        <ele>1296.48</ele>
      </trkpt>
      <trkpt lat="44.95105" lon="5.46172">
        <ele>1295.99</ele>
      </trkpt>
      <trkpt lat="44.95089" lon="5.46194">
        <ele>1297.44</ele>
      </trkpt>
      <trkpt lat="44.95084" lon="5.46201">
        <ele>1297.92</ele>
      </trkpt>
      <trkpt lat="44.95069" lon="5.46216">
        <ele>1299.36</ele>
      </trkpt>
      <trkpt lat="44.95048" lon="5.46234">
        <ele>1302.24</ele>
      </trkpt>
      <trkpt lat="44.95044" lon="5.46237">
        <ele>1301.28</ele>
      </trkpt>
      <trkpt lat="44.95039" lon="5.46239">
        <ele>1302.72</ele>
      </trkpt>
      <trkpt lat="44.95034" lon="5.4624">
        <ele>1303.2</ele>
      </trkpt>
      <trkpt lat="44.95011" lon="5.46237">
        <ele>1304.65</ele>
      </trkpt>
      <trkpt lat="44.95007" lon="5.46235">
        <ele>1303.69</ele>
      </trkpt>
      <trkpt lat="44.94962" lon="5.46215">
        <ele>1302.72</ele>
      </trkpt>
      <trkpt lat="44.94957" lon="5.46214">
        <ele>1303.2</ele>
      </trkpt>
      <trkpt lat="44.94953" lon="5.46211">
        <ele>1304.17</ele>
      </trkpt>
      <trkpt lat="44.94941" lon="5.46177">
        <ele>1304.65</ele>
      </trkpt>
      <trkpt lat="44.94941" lon="5.46169">
        <ele>1304.65</ele>
      </trkpt>
      <trkpt lat="44.94937" lon="5.46164">
        <ele>1303.69</ele>
      </trkpt>
      <trkpt lat="44.94934" lon="5.46158">
        <ele>1305.13</ele>
      </trkpt>
      <trkpt lat="44.94929" lon="5.46154">
        <ele>1304.17</ele>
      </trkpt>
      <trkpt lat="44.94925" lon="5.4615">
        <ele>1304.65</ele>
      </trkpt>
      <trkpt lat="44.9492" lon="5.46148">
        <ele>1304.17</ele>
      </trkpt>
      <trkpt lat="44.94912" lon="5.46147">
        <ele>1305.13</ele>
      </trkpt>
      <trkpt lat="44.949" lon="5.46153">
        <ele>1305.61</ele>
      </trkpt>
      <trkpt lat="44.94892" lon="5.46159">
        <ele>1305.13</ele>
      </trkpt>
      <trkpt lat="44.94883" lon="5.4617">
        <ele>1304.65</ele>
      </trkpt>
      <trkpt lat="44.9487" lon="5.4619">
        <ele>1306.09</ele>
      </trkpt>
      <trkpt lat="44.94858" lon="5.46206">
        <ele>1306.09</ele>
      </trkpt>
      <trkpt lat="44.9483" lon="5.46245">
        <ele>1307.05</ele>
      </trkpt>
      <trkpt lat="44.94828" lon="5.46251">
        <ele>1307.05</ele>
      </trkpt>
      <trkpt lat="44.94804" lon="5.46288">
        <ele>1306.57</ele>
      </trkpt>
      <trkpt lat="44.94802" lon="5.46293">
        <ele>1308.01</ele>
      </trkpt>
      <trkpt lat="44.94798" lon="5.46298">
        <ele>1306.57</ele>
      </trkpt>
      <trkpt lat="44.94793" lon="5.46303">
        <ele>1307.53</ele>
      </trkpt>
      <trkpt lat="44.94785" lon="5.46309">
        <ele>1307.53</ele>
      </trkpt>
      <trkpt lat="44.94781" lon="5.46312">
        <ele>1308.01</ele>
      </trkpt>
      <trkpt lat="44.94766" lon="5.46315">
        <ele>1308.97</ele>
      </trkpt>
      <trkpt lat="44.94761" lon="5.46316">
        <ele>1309.93</ele>
      </trkpt>
      <trkpt lat="44.94755" lon="5.46318">
        <ele>1308.49</ele>
      </trkpt>
      <trkpt lat="44.94749" lon="5.4632">
        <ele>1307.53</ele>
      </trkpt>
      <trkpt lat="44.94743" lon="5.46324">
        <ele>1308.97</ele>
      </trkpt>
      <trkpt lat="44.94738" lon="5.46326">
        <ele>1308.97</ele>
      </trkpt>
      <trkpt lat="44.94733" lon="5.46328">
        <ele>1308.97</ele>
      </trkpt>
      <trkpt lat="44.94729" lon="5.4633">
        <ele>1309.93</ele>
      </trkpt>
      <trkpt lat="44.9472" lon="5.46331">
        <ele>1312.34</ele>
      </trkpt>
      <trkpt lat="44.94714" lon="5.46332">
        <ele>1313.78</ele>
      </trkpt>
      <trkpt lat="44.94696" lon="5.46332">
        <ele>1315.22</ele>
      </trkpt>
      <trkpt lat="44.94694" lon="5.46332">
        <ele>1317.62</ele>
      </trkpt>
      <trkpt lat="44.94684" lon="5.4633">
        <ele>1317.62</ele>
      </trkpt>
      <trkpt lat="44.94675" lon="5.46319">
        <ele>1314.26</ele>
      </trkpt>
      <trkpt lat="44.94668" lon="5.46288">
        <ele>1317.62</ele>
      </trkpt>
      <trkpt lat="44.94672" lon="5.46252">
        <ele>1316.66</ele>
      </trkpt>
      <trkpt lat="44.94672" lon="5.46249">
        <ele>1318.1</ele>
      </trkpt>
      <trkpt lat="44.94681" lon="5.46223">
        <ele>1316.18</ele>
      </trkpt>
      <trkpt lat="44.94687" lon="5.46199">
        <ele>1316.18</ele>
      </trkpt>
      <trkpt lat="44.9469" lon="5.46155">
        <ele>1319.55</ele>
      </trkpt>
      <trkpt lat="44.94689" lon="5.46117">
        <ele>1320.99</ele>
      </trkpt>
      <trkpt lat="44.94689" lon="5.46114">
        <ele>1320.99</ele>
      </trkpt>
      <trkpt lat="44.9469" lon="5.46111">
        <ele>1321.95</ele>
      </trkpt>
      <trkpt lat="44.9469" lon="5.46108">
        <ele>1323.39</ele>
      </trkpt>
      <trkpt lat="44.9469" lon="5.46106">
        <ele>1320.99</ele>
      </trkpt>
      <trkpt lat="44.9469" lon="5.46104">
        <ele>1320.99</ele>
      </trkpt>
      <trkpt lat="44.94688" lon="5.46102">
        <ele>1320.99</ele>
      </trkpt>
      <trkpt lat="44.94686" lon="5.46092">
        <ele>1322.91</ele>
      </trkpt>
      <trkpt lat="44.94681" lon="5.46065">
        <ele>1322.91</ele>
      </trkpt>
      <trkpt lat="44.94667" lon="5.46044">
        <ele>1323.39</ele>
      </trkpt>
      <trkpt lat="44.94666" lon="5.46043">
        <ele>1322.91</ele>
      </trkpt>
      <trkpt lat="44.94663" lon="5.46041">
        <ele>1322.43</ele>
      </trkpt>
      <trkpt lat="44.94659" lon="5.46038">
        <ele>1323.87</ele>
      </trkpt>
      <trkpt lat="44.94648" lon="5.46034">
        <ele>1322.91</ele>
      </trkpt>
      <trkpt lat="44.94647" lon="5.46029">
        <ele>1323.39</ele>
      </trkpt>
      <trkpt lat="44.94647" lon="5.46028">
        <ele>1323.87</ele>
      </trkpt>
      <trkpt lat="44.94647" lon="5.46025">
        <ele>1321.95</ele>
      </trkpt>
      <trkpt lat="44.94647" lon="5.46027">
        <ele>1323.87</ele>
      </trkpt>
      <trkpt lat="44.94646" lon="5.46026">
        <ele>1325.31</ele>
      </trkpt>
      <trkpt lat="44.94645" lon="5.46024">
        <ele>1322.91</ele>
      </trkpt>
      <trkpt lat="44.94644" lon="5.46018">
        <ele>1324.83</ele>
      </trkpt>
      <trkpt lat="44.9464" lon="5.45988">
        <ele>1323.87</ele>
      </trkpt>
      <trkpt lat="44.94638" lon="5.45972">
        <ele>1326.76</ele>
      </trkpt>
      <trkpt lat="44.94638" lon="5.45954">
        <ele>1328.2</ele>
      </trkpt>
      <trkpt lat="44.94634" lon="5.45945">
        <ele>1331.08</ele>
      </trkpt>
      <trkpt lat="44.94632" lon="5.45935">
        <ele>1333.01</ele>
      </trkpt>
      <trkpt lat="44.9463" lon="5.45916">
        <ele>1334.93</ele>
      </trkpt>
      <trkpt lat="44.94632" lon="5.45909">
        <ele>1334.93</ele>
      </trkpt>
      <trkpt lat="44.94633" lon="5.45896">
        <ele>1337.33</ele>
      </trkpt>
      <trkpt lat="44.94633" lon="5.45876">
        <ele>1339.73</ele>
      </trkpt>
      <trkpt lat="44.94636" lon="5.45856">
        <ele>1341.66</ele>
      </trkpt>
      <trkpt lat="44.94634" lon="5.45833">
        <ele>1344.54</ele>
      </trkpt>
      <trkpt lat="44.94631" lon="5.45828">
        <ele>1345.02</ele>
      </trkpt>
      <trkpt lat="44.94627" lon="5.45825">
        <ele>1344.54</ele>
      </trkpt>
      <trkpt lat="44.94613" lon="5.45824">
        <ele>1342.14</ele>
      </trkpt>
      <trkpt lat="44.94609" lon="5.45823">
        <ele>1341.18</ele>
      </trkpt>
      <trkpt lat="44.94597" lon="5.45816">
        <ele>1342.62</ele>
      </trkpt>
      <trkpt lat="44.94588" lon="5.45801">
        <ele>1343.58</ele>
      </trkpt>
      <trkpt lat="44.94587" lon="5.45799">
        <ele>1343.1</ele>
      </trkpt>
      <trkpt lat="44.94586" lon="5.45797">
        <ele>1343.1</ele>
      </trkpt>
      <trkpt lat="44.94584" lon="5.45794">
        <ele>1345.02</ele>
      </trkpt>
      <trkpt lat="44.94585" lon="5.45786">
        <ele>1341.66</ele>
      </trkpt>
      <trkpt lat="44.94586" lon="5.45785">
        <ele>1342.62</ele>
      </trkpt>
      <trkpt lat="44.94583" lon="5.45778">
        <ele>1342.14</ele>
      </trkpt>
      <trkpt lat="44.94581" lon="5.45775">
        <ele>1344.06</ele>
      </trkpt>
      <trkpt lat="44.9457" lon="5.45772">
        <ele>1342.62</ele>
      </trkpt>
      <trkpt lat="44.94543" lon="5.45803">
        <ele>1345.98</ele>
      </trkpt>
      <trkpt lat="44.94523" lon="5.45849">
        <ele>1345.98</ele>
      </trkpt>
      <trkpt lat="44.94518" lon="5.45852">
        <ele>1344.54</ele>
      </trkpt>
      <trkpt lat="44.9451" lon="5.45857">
        <ele>1347.91</ele>
      </trkpt>
      <trkpt lat="44.94487" lon="5.45874">
        <ele>1343.58</ele>
      </trkpt>
      <trkpt lat="44.9446" lon="5.45892">
        <ele>1342.62</ele>
      </trkpt>
      <trkpt lat="44.94429" lon="5.45879">
        <ele>1342.14</ele>
      </trkpt>
      <trkpt lat="44.94398" lon="5.45889">
        <ele>1340.7</ele>
      </trkpt>
      <trkpt lat="44.94393" lon="5.4589">
        <ele>1342.14</ele>
      </trkpt>
      <trkpt lat="44.9439" lon="5.4589">
        <ele>1343.1</ele>
      </trkpt>
      <trkpt lat="44.94378" lon="5.45887">
        <ele>1338.77</ele>
      </trkpt>
      <trkpt lat="44.94376" lon="5.45885">
        <ele>1337.81</ele>
      </trkpt>
      <trkpt lat="44.94373" lon="5.45883">
        <ele>1341.66</ele>
      </trkpt>
      <trkpt lat="44.94359" lon="5.45878">
        <ele>1338.29</ele>
      </trkpt>
      <trkpt lat="44.94354" lon="5.45879">
        <ele>1337.33</ele>
      </trkpt>
      <trkpt lat="44.94333" lon="5.45879">
        <ele>1337.33</ele>
      </trkpt>
      <trkpt lat="44.94314" lon="5.45879">
        <ele>1338.29</ele>
      </trkpt>
      <trkpt lat="44.94306" lon="5.45876">
        <ele>1336.37</ele>
      </trkpt>
      <trkpt lat="44.94268" lon="5.45851">
        <ele>1334.93</ele>
      </trkpt>
      <trkpt lat="44.94264" lon="5.45847">
        <ele>1335.89</ele>
      </trkpt>
      <trkpt lat="44.94258" lon="5.45845">
        <ele>1335.41</ele>
      </trkpt>
      <trkpt lat="44.94244" lon="5.45844">
        <ele>1335.89</ele>
      </trkpt>
      <trkpt lat="44.94214" lon="5.45844">
        <ele>1337.81</ele>
      </trkpt>
      <trkpt lat="44.94206" lon="5.45843">
        <ele>1334.45</ele>
      </trkpt>
      <trkpt lat="44.94133" lon="5.45853">
        <ele>1337.81</ele>
      </trkpt>
      <trkpt lat="44.94124" lon="5.45854">
        <ele>1339.25</ele>
      </trkpt>
      <trkpt lat="44.94073" lon="5.45854">
        <ele>1341.18</ele>
      </trkpt>
      <trkpt lat="44.94065" lon="5.45856">
        <ele>1342.62</ele>
      </trkpt>
      <trkpt lat="44.94056" lon="5.45859">
        <ele>1339.25</ele>
      </trkpt>
      <trkpt lat="44.94047" lon="5.45863">
        <ele>1345.02</ele>
      </trkpt>
      <trkpt lat="44.94038" lon="5.45868">
        <ele>1342.62</ele>
      </trkpt>
      <trkpt lat="44.94029" lon="5.45871">
        <ele>1342.62</ele>
      </trkpt>
      <trkpt lat="44.94019" lon="5.45875">
        <ele>1346.46</ele>
      </trkpt>
      <trkpt lat="44.94009" lon="5.45876">
        <ele>1344.54</ele>
      </trkpt>
      <trkpt lat="44.94003" lon="5.45875">
        <ele>1347.43</ele>
      </trkpt>
      <trkpt lat="44.94" lon="5.45874">
        <ele>1344.06</ele>
      </trkpt>
      <trkpt lat="44.93993" lon="5.45873">
        <ele>1347.91</ele>
      </trkpt>
      <trkpt lat="44.93987" lon="5.45871">
        <ele>1346.46</ele>
      </trkpt>
      <trkpt lat="44.93979" lon="5.45866">
        <ele>1349.35</ele>
      </trkpt>
      <trkpt lat="44.93964" lon="5.4586">
        <ele>1347.91</ele>
      </trkpt>
      <trkpt lat="44.93957" lon="5.45858">
        <ele>1346.94</ele>
      </trkpt>
      <trkpt lat="44.9395" lon="5.45856">
        <ele>1351.27</ele>
      </trkpt>
      <trkpt lat="44.93942" lon="5.45855">
        <ele>1348.39</ele>
      </trkpt>
      <trkpt lat="44.93933" lon="5.45854">
        <ele>1378.077</ele>
      </trkpt>
      <trkpt lat="44.93928" lon="5.45853">
        <ele>1378.464</ele>
      </trkpt>
      <trkpt lat="44.93907" lon="5.45825">
        <ele>1381.745</ele>
      </trkpt>
      <trkpt lat="44.93902" lon="5.45817">
        <ele>1382.407</ele>
      </trkpt>
      <trkpt lat="44.93884" lon="5.45812">
        <ele>1383.938</ele>
      </trkpt>
      <trkpt lat="44.93864" lon="5.45803">
        <ele>1385.92</ele>
      </trkpt>
      <trkpt lat="44.93859" lon="5.45787">
        <ele>1387.224</ele>
      </trkpt>
      <trkpt lat="44.9386" lon="5.45762">
        <ele>1388.323</ele>
      </trkpt>
      <trkpt lat="44.93842" lon="5.4575">
        <ele>1389.002</ele>
      </trkpt>
      <trkpt lat="44.93833" lon="5.45752">
        <ele>1362.33</ele>
      </trkpt>
      <trkpt lat="44.9382" lon="5.45757">
        <ele>1365.21</ele>
      </trkpt>
      <trkpt lat="44.93818" lon="5.45758">
        <ele>1362.81</ele>
      </trkpt>
      <trkpt lat="44.93814" lon="5.45762">
        <ele>1366.17</ele>
      </trkpt>
      <trkpt lat="44.9381" lon="5.45765">
        <ele>1363.77</ele>
      </trkpt>
      <trkpt lat="44.93807" lon="5.45767">
        <ele>1365.69</ele>
      </trkpt>
      <trkpt lat="44.93804" lon="5.4577">
        <ele>1362.81</ele>
      </trkpt>
      <trkpt lat="44.93795" lon="5.45781">
        <ele>1364.25</ele>
      </trkpt>
      <trkpt lat="44.93789" lon="5.45788">
        <ele>1365.69</ele>
      </trkpt>
      <trkpt lat="44.93784" lon="5.45795">
        <ele>1362.81</ele>
      </trkpt>
      <trkpt lat="44.93783" lon="5.45797">
        <ele>1360.4</ele>
      </trkpt>
      <trkpt lat="44.93774" lon="5.45812">
        <ele>1361.84</ele>
      </trkpt>
      <trkpt lat="44.93758" lon="5.45845">
        <ele>1360.88</ele>
      </trkpt>
      <trkpt lat="44.93755" lon="5.45852">
        <ele>1359.92</ele>
      </trkpt>
      <trkpt lat="44.93734" lon="5.45895">
        <ele>1360.4</ele>
      </trkpt>
      <trkpt lat="44.93725" lon="5.45898">
        <ele>1357.04</ele>
      </trkpt>
      <trkpt lat="44.93691" lon="5.45861">
        <ele>1358.96</ele>
      </trkpt>
      <trkpt lat="44.93666" lon="5.45801">
        <ele>1355.6</ele>
      </trkpt>
      <trkpt lat="44.93663" lon="5.45793">
        <ele>1358.48</ele>
      </trkpt>
      <trkpt lat="44.93655" lon="5.4575">
        <ele>1355.6</ele>
      </trkpt>
      <trkpt lat="44.93655" lon="5.45747">
        <ele>1357.04</ele>
      </trkpt>
      <trkpt lat="44.93656" lon="5.45745">
        <ele>1355.6</ele>
      </trkpt>
      <trkpt lat="44.93656" lon="5.45742">
        <ele>1353.67</ele>
      </trkpt>
      <trkpt lat="44.93656" lon="5.45739">
        <ele>1357.04</ele>
      </trkpt>
      <trkpt lat="44.93654" lon="5.45716">
        <ele>1353.19</ele>
      </trkpt>
      <trkpt lat="44.93648" lon="5.45694">
        <ele>1354.63</ele>
      </trkpt>
      <trkpt lat="44.93634" lon="5.45672">
        <ele>1352.71</ele>
      </trkpt>
      <trkpt lat="44.9362" lon="5.45663">
        <ele>1349.35</ele>
      </trkpt>
      <trkpt lat="44.93575" lon="5.45653">
        <ele>1349.83</ele>
      </trkpt>
      <trkpt lat="44.93565" lon="5.45649">
        <ele>1349.35</ele>
      </trkpt>
      <trkpt lat="44.93556" lon="5.45643">
        <ele>1348.87</ele>
      </trkpt>
      <trkpt lat="44.9355" lon="5.45639">
        <ele>1349.83</ele>
      </trkpt>
      <trkpt lat="44.93544" lon="5.45636">
        <ele>1349.35</ele>
      </trkpt>
      <trkpt lat="44.93537" lon="5.45633">
        <ele>1349.83</ele>
      </trkpt>
      <trkpt lat="44.93531" lon="5.45631">
        <ele>1348.87</ele>
      </trkpt>
      <trkpt lat="44.93526" lon="5.45632">
        <ele>1346.46</ele>
      </trkpt>
      <trkpt lat="44.93522" lon="5.45634">
        <ele>1348.39</ele>
      </trkpt>
      <trkpt lat="44.93504" lon="5.45654">
        <ele>1349.35</ele>
      </trkpt>
      <trkpt lat="44.93492" lon="5.45666">
        <ele>1352.23</ele>
      </trkpt>
      <trkpt lat="44.93485" lon="5.45672">
        <ele>1347.91</ele>
      </trkpt>
      <trkpt lat="44.93481" lon="5.45675">
        <ele>1349.83</ele>
      </trkpt>
      <trkpt lat="44.93465" lon="5.45689">
        <ele>1350.79</ele>
      </trkpt>
      <trkpt lat="44.93418" lon="5.45709">
        <ele>1351.75</ele>
      </trkpt>
      <trkpt lat="44.93414" lon="5.45711">
        <ele>1350.79</ele>
      </trkpt>
      <trkpt lat="44.93409" lon="5.45712">
        <ele>1351.27</ele>
      </trkpt>
      <trkpt lat="44.93405" lon="5.45713">
        <ele>1353.19</ele>
      </trkpt>
      <trkpt lat="44.934" lon="5.45713">
        <ele>1352.71</ele>
      </trkpt>
      <trkpt lat="44.93395" lon="5.45713">
        <ele>1353.67</ele>
      </trkpt>
      <trkpt lat="44.93391" lon="5.45711">
        <ele>1350.79</ele>
      </trkpt>
      <trkpt lat="44.93387" lon="5.45707">
        <ele>1349.83</ele>
      </trkpt>
      <trkpt lat="44.93383" lon="5.45704">
        <ele>1352.71</ele>
      </trkpt>
      <trkpt lat="44.93378" lon="5.457">
        <ele>1354.15</ele>
      </trkpt>
      <trkpt lat="44.9337" lon="5.45692">
        <ele>1352.71</ele>
      </trkpt>
      <trkpt lat="44.93367" lon="5.45687">
        <ele>1353.19</ele>
      </trkpt>
      <trkpt lat="44.93363" lon="5.45683">
        <ele>1354.15</ele>
      </trkpt>
      <trkpt lat="44.93361" lon="5.45677">
        <ele>1351.27</ele>
      </trkpt>
      <trkpt lat="44.93359" lon="5.45672">
        <ele>1352.71</ele>
      </trkpt>
      <trkpt lat="44.93359" lon="5.45666">
        <ele>1354.15</ele>
      </trkpt>
      <trkpt lat="44.93359" lon="5.45654">
        <ele>1354.15</ele>
      </trkpt>
      <trkpt lat="44.93358" lon="5.45648">
        <ele>1352.23</ele>
      </trkpt>
      <trkpt lat="44.93357" lon="5.4564">
        <ele>1352.23</ele>
      </trkpt>
      <trkpt lat="44.93368" lon="5.45583">
        <ele>1351.75</ele>
      </trkpt>
      <trkpt lat="44.9337" lon="5.45574">
        <ele>1353.19</ele>
      </trkpt>
      <trkpt lat="44.93374" lon="5.45566">
        <ele>1353.67</ele>
      </trkpt>
      <trkpt lat="44.9338" lon="5.45552">
        <ele>1376.611</ele>
      </trkpt>
      <trkpt lat="44.93384" lon="5.45543">
        <ele>1376.774</ele>
      </trkpt>
      <trkpt lat="44.93403" lon="5.45484">
        <ele>1379.142</ele>
      </trkpt>
      <trkpt lat="44.93402" lon="5.45442">
        <ele>1380.302</ele>
      </trkpt>
      <trkpt lat="44.93392" lon="5.45384">
        <ele>1381.915</ele>
      </trkpt>
      <trkpt lat="44.93391" lon="5.45376">
        <ele>1382.157</ele>
      </trkpt>
      <trkpt lat="44.93392" lon="5.45352">
        <ele>1383.175</ele>
      </trkpt>
      <trkpt lat="44.93393" lon="5.45345">
        <ele>1383.388</ele>
      </trkpt>
      <trkpt lat="44.93389" lon="5.45327">
        <ele>1384.88</ele>
      </trkpt>
      <trkpt lat="44.93382" lon="5.45329">
        <ele>1385.734</ele>
      </trkpt>
      <trkpt lat="44.93378" lon="5.45352">
        <ele>1386.635</ele>
      </trkpt>
      <trkpt lat="44.93374" lon="5.4541">
        <ele>1388.002</ele>
      </trkpt>
      <trkpt lat="44.93372" lon="5.45435">
        <ele>1368.57</ele>
      </trkpt>
      <trkpt lat="44.93365" lon="5.45464">
        <ele>1368.09</ele>
      </trkpt>
      <trkpt lat="44.93363" lon="5.45472">
        <ele>1368.09</ele>
      </trkpt>
      <trkpt lat="44.93361" lon="5.45482">
        <ele>1366.65</ele>
      </trkpt>
      <trkpt lat="44.93359" lon="5.45491">
        <ele>1366.65</ele>
      </trkpt>
      <trkpt lat="44.93358" lon="5.45501">
        <ele>1368.57</ele>
      </trkpt>
      <trkpt lat="44.93356" lon="5.45511">
        <ele>1368.57</ele>
      </trkpt>
      <trkpt lat="44.93353" lon="5.45521">
        <ele>1368.57</ele>
      </trkpt>
      <trkpt lat="44.93348" lon="5.45531">
        <ele>1368.09</ele>
      </trkpt>
      <trkpt lat="44.93322" lon="5.45572">
        <ele>1369.54</ele>
      </trkpt>
      <trkpt lat="44.93316" lon="5.45581">
        <ele>1370.5</ele>
      </trkpt>
      <trkpt lat="44.9331" lon="5.45588">
        <ele>1370.02</ele>
      </trkpt>
      <trkpt lat="44.93302" lon="5.45593">
        <ele>1371.46</ele>
      </trkpt>
      <trkpt lat="44.93285" lon="5.45598">
        <ele>1372.42</ele>
      </trkpt>
      <trkpt lat="44.93277" lon="5.45598">
        <ele>1372.42</ele>
      </trkpt>
      <trkpt lat="44.93269" lon="5.45599">
        <ele>1374.34</ele>
      </trkpt>
      <trkpt lat="44.93263" lon="5.45602">
        <ele>1372.42</ele>
      </trkpt>
      <trkpt lat="44.9322" lon="5.45635">
        <ele>1375.3</ele>
      </trkpt>
      <trkpt lat="44.93214" lon="5.45641">
        <ele>1375.78</ele>
      </trkpt>
      <trkpt lat="44.93208" lon="5.45647">
        <ele>1376.75</ele>
      </trkpt>
      <trkpt lat="44.93199" lon="5.45651">
        <ele>1377.23</ele>
      </trkpt>
      <trkpt lat="44.93182" lon="5.45653">
        <ele>1378.19</ele>
      </trkpt>
      <trkpt lat="44.93175" lon="5.45655">
        <ele>1380.11</ele>
      </trkpt>
      <trkpt lat="44.93168" lon="5.45659">
        <ele>1378.67</ele>
      </trkpt>
      <trkpt lat="44.93144" lon="5.45689">
        <ele>1381.07</ele>
      </trkpt>
      <trkpt lat="44.93138" lon="5.45696">
        <ele>1381.55</ele>
      </trkpt>
      <trkpt lat="44.93132" lon="5.45701">
        <ele>1382.51</ele>
      </trkpt>
      <trkpt lat="44.93127" lon="5.45706">
        <ele>1382.99</ele>
      </trkpt>
      <trkpt lat="44.93122" lon="5.45712">
        <ele>1382.51</ele>
      </trkpt>
      <trkpt lat="44.93117" lon="5.45718">
        <ele>1381.55</ele>
      </trkpt>
      <trkpt lat="44.93112" lon="5.45725">
        <ele>1382.51</ele>
      </trkpt>
      <trkpt lat="44.93108" lon="5.45734">
        <ele>1381.07</ele>
      </trkpt>
      <trkpt lat="44.93104" lon="5.45744">
        <ele>1383.96</ele>
      </trkpt>
      <trkpt lat="44.93098" lon="5.45753">
        <ele>1382.99</ele>
      </trkpt>
      <trkpt lat="44.93078" lon="5.45778">
        <ele>1384.44</ele>
      </trkpt>
      <trkpt lat="44.93072" lon="5.45786">
        <ele>1384.44</ele>
      </trkpt>
      <trkpt lat="44.93064" lon="5.45793">
        <ele>1386.36</ele>
      </trkpt>
      <trkpt lat="44.93056" lon="5.45798">
        <ele>1386.36</ele>
      </trkpt>
      <trkpt lat="44.93047" lon="5.45802">
        <ele>1385.4</ele>
      </trkpt>
      <trkpt lat="44.93024" lon="5.45804">
        <ele>1386.84</ele>
      </trkpt>
      <trkpt lat="44.93017" lon="5.45806">
        <ele>1386.84</ele>
      </trkpt>
      <trkpt lat="44.93002" lon="5.45817">
        <ele>1388.28</ele>
      </trkpt>
      <trkpt lat="44.93" lon="5.45823">
        <ele>1390.2</ele>
      </trkpt>
      <trkpt lat="44.92998" lon="5.4583">
        <ele>1391.17</ele>
      </trkpt>
      <trkpt lat="44.92996" lon="5.45837">
        <ele>1390.2</ele>
      </trkpt>
      <trkpt lat="44.92995" lon="5.45846">
        <ele>1392.61</ele>
      </trkpt>
      <trkpt lat="44.92994" lon="5.45908">
        <ele>1391.17</ele>
      </trkpt>
      <trkpt lat="44.92994" lon="5.45916">
        <ele>1392.61</ele>
      </trkpt>
      <trkpt lat="44.92994" lon="5.45925">
        <ele>1391.65</ele>
      </trkpt>
      <trkpt lat="44.92978" lon="5.45957">
        <ele>1395.49</ele>
      </trkpt>
      <trkpt lat="44.92968" lon="5.45974">
        <ele>1396.45</ele>
      </trkpt>
      <trkpt lat="44.92963" lon="5.45987">
        <ele>1396.93</ele>
      </trkpt>
      <trkpt lat="44.9296" lon="5.45993">
        <ele>1396.93</ele>
      </trkpt>
      <trkpt lat="44.92959" lon="5.45998">
        <ele>1397.41</ele>
      </trkpt>
      <trkpt lat="44.92959" lon="5.46004">
        <ele>1396.93</ele>
      </trkpt>
      <trkpt lat="44.92959" lon="5.46011">
        <ele>1398.37</ele>
      </trkpt>
      <trkpt lat="44.92966" lon="5.46042">
        <ele>1399.82</ele>
      </trkpt>
      <trkpt lat="44.92975" lon="5.46079">
        <ele>1401.26</ele>
      </trkpt>
      <trkpt lat="44.92973" lon="5.46125">
        <ele>1402.22</ele>
      </trkpt>
      <trkpt lat="44.92972" lon="5.46134">
        <ele>1403.18</ele>
      </trkpt>
      <trkpt lat="44.92971" lon="5.46142">
        <ele>1402.7</ele>
      </trkpt>
      <trkpt lat="44.92969" lon="5.4615">
        <ele>1404.14</ele>
      </trkpt>
      <trkpt lat="44.92967" lon="5.46157">
        <ele>1404.62</ele>
      </trkpt>
      <trkpt lat="44.92963" lon="5.46164">
        <ele>1404.62</ele>
      </trkpt>
      <trkpt lat="44.92951" lon="5.46177">
        <ele>1405.58</ele>
      </trkpt>
      <trkpt lat="44.92947" lon="5.46182">
        <ele>1404.62</ele>
      </trkpt>
      <trkpt lat="44.92923" lon="5.4623">
        <ele>1405.58</ele>
      </trkpt>
      <trkpt lat="44.92921" lon="5.46236">
        <ele>1404.62</ele>
      </trkpt>
      <trkpt lat="44.9292" lon="5.46243">
        <ele>1404.14</ele>
      </trkpt>
      <trkpt lat="44.92918" lon="5.46249">
        <ele>1405.1</ele>
      </trkpt>
      <trkpt lat="44.92915" lon="5.46256">
        <ele>1403.66</ele>
      </trkpt>
      <trkpt lat="44.92913" lon="5.46262">
        <ele>1405.58</ele>
      </trkpt>
      <trkpt lat="44.92909" lon="5.46268">
        <ele>1405.1</ele>
      </trkpt>
      <trkpt lat="44.92906" lon="5.46274">
        <ele>1404.62</ele>
      </trkpt>
      <trkpt lat="44.92901" lon="5.46279">
        <ele>1405.1</ele>
      </trkpt>
      <trkpt lat="44.92895" lon="5.46283">
        <ele>1405.1</ele>
      </trkpt>
      <trkpt lat="44.9289" lon="5.46287">
        <ele>1404.62</ele>
      </trkpt>
      <trkpt lat="44.92874" lon="5.46304">
        <ele>1404.62</ele>
      </trkpt>
      <trkpt lat="44.9287" lon="5.4631">
        <ele>1405.1</ele>
      </trkpt>
      <trkpt lat="44.92868" lon="5.46314">
        <ele>1404.62</ele>
      </trkpt>
      <trkpt lat="44.92865" lon="5.46316">
        <ele>1405.1</ele>
      </trkpt>
      <trkpt lat="44.92863" lon="5.46316">
        <ele>1405.1</ele>
      </trkpt>
      <trkpt lat="44.92862" lon="5.46312">
        <ele>1406.07</ele>
      </trkpt>
      <trkpt lat="44.92861" lon="5.46306">
        <ele>1405.58</ele>
      </trkpt>
      <trkpt lat="44.92862" lon="5.46288">
        <ele>1406.55</ele>
      </trkpt>
      <trkpt lat="44.92861" lon="5.46281">
        <ele>1429.556</ele>
      </trkpt>
      <trkpt lat="44.92864" lon="5.46244">
        <ele>1430.238</ele>
      </trkpt>
      <trkpt lat="44.92878" lon="5.46183">
        <ele>1431.359</ele>
      </trkpt>
      <trkpt lat="44.92884" lon="5.46139">
        <ele>1431.863</ele>
      </trkpt>
      <trkpt lat="44.9288" lon="5.46091">
        <ele>1432.693</ele>
      </trkpt>
      <trkpt lat="44.92877" lon="5.46076">
        <ele>1433.26</ele>
      </trkpt>
      <trkpt lat="44.92865" lon="5.46068">
        <ele>1433.661</ele>
      </trkpt>
      <trkpt lat="44.92852" lon="5.46094">
        <ele>1434.217</ele>
      </trkpt>
      <trkpt lat="44.92833" lon="5.46109">
        <ele>1434.688</ele>
      </trkpt>
      <trkpt lat="44.92822" lon="5.46113">
        <ele>1435.031</ele>
      </trkpt>
      <trkpt lat="44.92809" lon="5.46127">
        <ele>1435.201</ele>
      </trkpt>
      <trkpt lat="44.92806" lon="5.46128">
        <ele>1413.28</ele>
      </trkpt>
      <trkpt lat="44.92794" lon="5.46204">
        <ele>1414.72</ele>
      </trkpt>
      <trkpt lat="44.9278" lon="5.46233">
        <ele>1415.2</ele>
      </trkpt>
      <trkpt lat="44.92778" lon="5.46235">
        <ele>1415.68</ele>
      </trkpt>
      <trkpt lat="44.92777" lon="5.46237">
        <ele>1415.68</ele>
      </trkpt>
      <trkpt lat="44.92775" lon="5.46238">
        <ele>1415.2</ele>
      </trkpt>
      <trkpt lat="44.92773" lon="5.4624">
        <ele>1415.2</ele>
      </trkpt>
      <trkpt lat="44.92766" lon="5.46248">
        <ele>1416.64</ele>
      </trkpt>
      <trkpt lat="44.92764" lon="5.46249">
        <ele>1416.64</ele>
      </trkpt>
      <trkpt lat="44.92755" lon="5.46243">
        <ele>1415.2</ele>
      </trkpt>
      <trkpt lat="44.9274" lon="5.46218">
        <ele>1416.64</ele>
      </trkpt>
      <trkpt lat="44.9274" lon="5.46215">
        <ele>1416.64</ele>
      </trkpt>
      <trkpt lat="44.92735" lon="5.4619">
        <ele>1412.31</ele>
      </trkpt>
      <trkpt lat="44.92731" lon="5.46176">
        <ele>1412.79</ele>
      </trkpt>
      <trkpt lat="44.92731" lon="5.46173">
        <ele>1407.99</ele>
      </trkpt>
      <trkpt lat="44.9273" lon="5.46171">
        <ele>1413.28</ele>
      </trkpt>
      <trkpt lat="44.92724" lon="5.46153">
        <ele>1408.95</ele>
      </trkpt>
      <trkpt lat="44.92722" lon="5.46151">
        <ele>1408.95</ele>
      </trkpt>
      <trkpt lat="44.92716" lon="5.46147">
        <ele>1408.47</ele>
      </trkpt>
      <trkpt lat="44.92712" lon="5.46144">
        <ele>1405.1</ele>
      </trkpt>
      <trkpt lat="44.92708" lon="5.46142">
        <ele>1408.47</ele>
      </trkpt>
      <trkpt lat="44.92703" lon="5.46139">
        <ele>1405.1</ele>
      </trkpt>
      <trkpt lat="44.92691" lon="5.46131">
        <ele>1408.47</ele>
      </trkpt>
      <trkpt lat="44.92688" lon="5.4613">
        <ele>1406.07</ele>
      </trkpt>
      <trkpt lat="44.92686" lon="5.46129">
        <ele>1402.22</ele>
      </trkpt>
      <trkpt lat="44.92677" lon="5.46124">
        <ele>1407.03</ele>
      </trkpt>
      <trkpt lat="44.92673" lon="5.4612">
        <ele>1403.66</ele>
      </trkpt>
      <trkpt lat="44.92672" lon="5.46118">
        <ele>1404.14</ele>
      </trkpt>
      <trkpt lat="44.92671" lon="5.46116">
        <ele>1401.26</ele>
      </trkpt>
      <trkpt lat="44.9267" lon="5.46115">
        <ele>1402.22</ele>
      </trkpt>
      <trkpt lat="44.92669" lon="5.46113">
        <ele>1404.62</ele>
      </trkpt>
      <trkpt lat="44.92662" lon="5.46089">
        <ele>1401.26</ele>
      </trkpt>
      <trkpt lat="44.9266" lon="5.46075">
        <ele>1401.26</ele>
      </trkpt>
      <trkpt lat="44.92659" lon="5.46072">
        <ele>1400.3</ele>
      </trkpt>
      <trkpt lat="44.92659" lon="5.4607">
        <ele>1403.18</ele>
      </trkpt>
      <trkpt lat="44.92658" lon="5.46067">
        <ele>1400.3</ele>
      </trkpt>
      <trkpt lat="44.92656" lon="5.46066">
        <ele>1399.34</ele>
      </trkpt>
      <trkpt lat="44.92654" lon="5.46066">
        <ele>1397.41</ele>
      </trkpt>
      <trkpt lat="44.92653" lon="5.46067">
        <ele>1397.41</ele>
      </trkpt>
      <trkpt lat="44.92651" lon="5.46072">
        <ele>1397.89</ele>
      </trkpt>
      <trkpt lat="44.92651" lon="5.46074">
        <ele>1395.01</ele>
      </trkpt>
      <trkpt lat="44.92652" lon="5.46082">
        <ele>1398.86</ele>
      </trkpt>
      <trkpt lat="44.92654" lon="5.46089">
        <ele>1395.49</ele>
      </trkpt>
      <trkpt lat="44.92656" lon="5.46102">
        <ele>1398.37</ele>
      </trkpt>
      <trkpt lat="44.92657" lon="5.46105">
        <ele>1394.53</ele>
      </trkpt>
      <trkpt lat="44.92658" lon="5.46107">
        <ele>1398.86</ele>
      </trkpt>
      <trkpt lat="44.92659" lon="5.46111">
        <ele>1394.05</ele>
      </trkpt>
      <trkpt lat="44.9266" lon="5.46114">
        <ele>1391.65</ele>
      </trkpt>
      <trkpt lat="44.92661" lon="5.46127">
        <ele>1396.93</ele>
      </trkpt>
      <trkpt lat="44.92661" lon="5.4613">
        <ele>1391.65</ele>
      </trkpt>
      <trkpt lat="44.92661" lon="5.46133">
        <ele>1396.93</ele>
      </trkpt>
      <trkpt lat="44.92661" lon="5.46144">
        <ele>1393.57</ele>
      </trkpt>
      <trkpt lat="44.92659" lon="5.46152">
        <ele>1395.01</ele>
      </trkpt>
      <trkpt lat="44.92657" lon="5.46156">
        <ele>1389.24</ele>
      </trkpt>
      <trkpt lat="44.92637" lon="5.4618">
        <ele>1392.61</ele>
      </trkpt>
      <trkpt lat="44.92636" lon="5.46182">
        <ele>1387.8</ele>
      </trkpt>
      <trkpt lat="44.92633" lon="5.46184">
        <ele>1392.13</ele>
      </trkpt>
      <trkpt lat="44.92629" lon="5.46188">
        <ele>1387.8</ele>
      </trkpt>
      <trkpt lat="44.92627" lon="5.46191">
        <ele>1394.05</ele>
      </trkpt>
      <trkpt lat="44.92622" lon="5.46199">
        <ele>1388.76</ele>
      </trkpt>
      <trkpt lat="44.92622" lon="5.462">
        <ele>1392.13</ele>
      </trkpt>
      <trkpt lat="44.92618" lon="5.46206">
        <ele>1389.24</ele>
      </trkpt>
      <trkpt lat="44.92615" lon="5.4621">
        <ele>1392.13</ele>
      </trkpt>
      <trkpt lat="44.92608" lon="5.46224">
        <ele>1389.24</ele>
      </trkpt>
      <trkpt lat="44.92604" lon="5.46226">
        <ele>1386.36</ele>
      </trkpt>
      <trkpt lat="44.92601" lon="5.46229">
        <ele>1390.68</ele>
      </trkpt>
      <trkpt lat="44.92592" lon="5.46234">
        <ele>1386.84</ele>
      </trkpt>
      <trkpt lat="44.9259" lon="5.46237">
        <ele>1390.2</ele>
      </trkpt>
      <trkpt lat="44.92588" lon="5.46238">
        <ele>1389.72</ele>
      </trkpt>
      <trkpt lat="44.92581" lon="5.46238">
        <ele>1385.88</ele>
      </trkpt>
      <trkpt lat="44.92578" lon="5.46237">
        <ele>1384.44</ele>
      </trkpt>
      <trkpt lat="44.92572" lon="5.46233">
        <ele>1388.76</ele>
      </trkpt>
      <trkpt lat="44.92569" lon="5.46231">
        <ele>1384.92</ele>
      </trkpt>
      <trkpt lat="44.92566" lon="5.4623">
        <ele>1389.72</ele>
      </trkpt>
      <trkpt lat="44.92563" lon="5.46228">
        <ele>1386.84</ele>
      </trkpt>
      <trkpt lat="44.9256" lon="5.46226">
        <ele>1385.4</ele>
      </trkpt>
      <trkpt lat="44.92556" lon="5.46223">
        <ele>1388.76</ele>
      </trkpt>
      <trkpt lat="44.92555" lon="5.46223">
        <ele>1383.96</ele>
      </trkpt>
      <trkpt lat="44.92553" lon="5.46222">
        <ele>1386.84</ele>
      </trkpt>
      <trkpt lat="44.92551" lon="5.4622">
        <ele>1386.84</ele>
      </trkpt>
      <trkpt lat="44.9255" lon="5.46218">
        <ele>1382.51</ele>
      </trkpt>
      <trkpt lat="44.9255" lon="5.46215">
        <ele>1388.28</ele>
      </trkpt>
      <trkpt lat="44.92549" lon="5.46212">
        <ele>1386.84</ele>
      </trkpt>
      <trkpt lat="44.92548" lon="5.46209">
        <ele>1384.92</ele>
      </trkpt>
      <trkpt lat="44.92547" lon="5.46205">
        <ele>1386.36</ele>
      </trkpt>
      <trkpt lat="44.92545" lon="5.46201">
        <ele>1382.99</ele>
      </trkpt>
      <trkpt lat="44.92545" lon="5.46199">
        <ele>1386.84</ele>
      </trkpt>
      <trkpt lat="44.92543" lon="5.46193">
        <ele>1382.51</ele>
      </trkpt>
      <trkpt lat="44.92542" lon="5.4619">
        <ele>1388.28</ele>
      </trkpt>
      <trkpt lat="44.92542" lon="5.46185">
        <ele>1383.96</ele>
      </trkpt>
      <trkpt lat="44.9254" lon="5.46181">
        <ele>1388.28</ele>
      </trkpt>
      <trkpt lat="44.92539" lon="5.46177">
        <ele>1382.99</ele>
      </trkpt>
      <trkpt lat="44.92524" lon="5.4615">
        <ele>1383.96</ele>
      </trkpt>
      <trkpt lat="44.92519" lon="5.46135">
        <ele>1388.28</ele>
      </trkpt>
      <trkpt lat="44.92517" lon="5.46131">
        <ele>1382.99</ele>
      </trkpt>
      <trkpt lat="44.92516" lon="5.46127">
        <ele>1387.8</ele>
      </trkpt>
      <trkpt lat="44.92512" lon="5.4612">
        <ele>1383.47</ele>
      </trkpt>
      <trkpt lat="44.9251" lon="5.46118">
        <ele>1387.32</ele>
      </trkpt>
      <trkpt lat="44.92503" lon="5.46112">
        <ele>1383.47</ele>
      </trkpt>
      <trkpt lat="44.92501" lon="5.46111">
        <ele>1381.55</ele>
      </trkpt>
      <trkpt lat="44.92493" lon="5.46109">
        <ele>1385.88</ele>
      </trkpt>
      <trkpt lat="44.92469" lon="5.46099">
        <ele>1382.51</ele>
      </trkpt>
      <trkpt lat="44.92461" lon="5.46094">
        <ele>1384.92</ele>
      </trkpt>
      <trkpt lat="44.92455" lon="5.46093">
        <ele>1381.55</ele>
      </trkpt>
      <trkpt lat="44.92436" lon="5.46098">
        <ele>1382.99</ele>
      </trkpt>
      <trkpt lat="44.92433" lon="5.46098">
        <ele>1378.19</ele>
      </trkpt>
      <trkpt lat="44.92429" lon="5.46102">
        <ele>1383.96</ele>
      </trkpt>
      <trkpt lat="44.92427" lon="5.46103">
        <ele>1383.47</ele>
      </trkpt>
      <trkpt lat="44.92421" lon="5.46105">
        <ele>1378.19</ele>
      </trkpt>
      <trkpt lat="44.92413" lon="5.46108">
        <ele>1378.19</ele>
      </trkpt>
      <trkpt lat="44.92411" lon="5.46109">
        <ele>1375.78</ele>
      </trkpt>
      <trkpt lat="44.92406" lon="5.46111">
        <ele>1380.11</ele>
      </trkpt>
      <trkpt lat="44.92403" lon="5.46112">
        <ele>1381.07</ele>
      </trkpt>
      <trkpt lat="44.92393" lon="5.46113">
        <ele>1375.78</ele>
      </trkpt>
      <trkpt lat="44.9239" lon="5.46113">
        <ele>1379.63</ele>
      </trkpt>
      <trkpt lat="44.92387" lon="5.46113">
        <ele>1374.82</ele>
      </trkpt>
      <trkpt lat="44.92378" lon="5.46105">
        <ele>1374.82</ele>
      </trkpt>
      <trkpt lat="44.92376" lon="5.46103">
        <ele>1378.67</ele>
      </trkpt>
      <trkpt lat="44.92373" lon="5.46101">
        <ele>1374.34</ele>
      </trkpt>
      <trkpt lat="44.92371" lon="5.461">
        <ele>1373.38</ele>
      </trkpt>
      <trkpt lat="44.92367" lon="5.46098">
        <ele>1378.67</ele>
      </trkpt>
      <trkpt lat="44.92358" lon="5.461">
        <ele>1375.78</ele>
      </trkpt>
      <trkpt lat="44.92355" lon="5.46102">
        <ele>1375.78</ele>
      </trkpt>
      <trkpt lat="44.92352" lon="5.46103">
        <ele>1371.94</ele>
      </trkpt>
      <trkpt lat="44.92348" lon="5.46105">
        <ele>1375.3</ele>
      </trkpt>
      <trkpt lat="44.92344" lon="5.46106">
        <ele>1377.23</ele>
      </trkpt>
      <trkpt lat="44.9234" lon="5.46107">
        <ele>1375.78</ele>
      </trkpt>
      <trkpt lat="44.92313" lon="5.46088">
        <ele>1375.78</ele>
      </trkpt>
      <trkpt lat="44.92302" lon="5.46078">
        <ele>1371.94</ele>
      </trkpt>
      <trkpt lat="44.92299" lon="5.46077">
        <ele>1371.94</ele>
      </trkpt>
      <trkpt lat="44.92296" lon="5.46076">
        <ele>1374.82</ele>
      </trkpt>
      <trkpt lat="44.92293" lon="5.46075">
        <ele>1374.34</ele>
      </trkpt>
      <trkpt lat="44.92286" lon="5.46072">
        <ele>1370.02</ele>
      </trkpt>
      <trkpt lat="44.92273" lon="5.4607">
        <ele>1370.98</ele>
      </trkpt>
      <trkpt lat="44.92269" lon="5.46072">
        <ele>1371.94</ele>
      </trkpt>
      <trkpt lat="44.92265" lon="5.46074">
        <ele>1374.82</ele>
      </trkpt>
      <trkpt lat="44.9226" lon="5.46077">
        <ele>1373.38</ele>
      </trkpt>
      <trkpt lat="44.92255" lon="5.4608">
        <ele>1372.42</ele>
      </trkpt>
      <trkpt lat="44.92247" lon="5.46085">
        <ele>1374.82</ele>
      </trkpt>
      <trkpt lat="44.92242" lon="5.4609">
        <ele>1373.38</ele>
      </trkpt>
      <trkpt lat="44.92234" lon="5.46098">
        <ele>1373.86</ele>
      </trkpt>
      <trkpt lat="44.9223" lon="5.46101">
        <ele>1370.5</ele>
      </trkpt>
      <trkpt lat="44.92219" lon="5.46112">
        <ele>1375.78</ele>
      </trkpt>
      <trkpt lat="44.92215" lon="5.46114">
        <ele>1376.75</ele>
      </trkpt>
      <trkpt lat="44.92209" lon="5.4612">
        <ele>1371.46</ele>
      </trkpt>
      <trkpt lat="44.92205" lon="5.46122">
        <ele>1376.75</ele>
      </trkpt>
      <trkpt lat="44.922" lon="5.46127">
        <ele>1371.94</ele>
      </trkpt>
      <trkpt lat="44.92187" lon="5.46139">
        <ele>1375.3</ele>
      </trkpt>
      <trkpt lat="44.92184" lon="5.4614">
        <ele>1370.98</ele>
      </trkpt>
      <trkpt lat="44.9218" lon="5.46141">
        <ele>1377.23</ele>
      </trkpt>
      <trkpt lat="44.92177" lon="5.46142">
        <ele>1374.34</ele>
      </trkpt>
      <trkpt lat="44.92171" lon="5.46142">
        <ele>1377.23</ele>
      </trkpt>
      <trkpt lat="44.92168" lon="5.46141">
        <ele>1371.46</ele>
      </trkpt>
      <trkpt lat="44.92165" lon="5.46141">
        <ele>1374.82</ele>
      </trkpt>
      <trkpt lat="44.92164" lon="5.46139">
        <ele>1376.26</ele>
      </trkpt>
      <trkpt lat="44.92161" lon="5.46136">
        <ele>1370.02</ele>
      </trkpt>
      <trkpt lat="44.92159" lon="5.46134">
        <ele>1373.38</ele>
      </trkpt>
      <trkpt lat="44.92158" lon="5.46132">
        <ele>1369.54</ele>
      </trkpt>
      <trkpt lat="44.92156" lon="5.4613">
        <ele>1375.3</ele>
      </trkpt>
      <trkpt lat="44.92155" lon="5.4613">
        <ele>1371.94</ele>
      </trkpt>
      <trkpt lat="44.92154" lon="5.46132">
        <ele>1374.34</ele>
      </trkpt>
      <trkpt lat="44.92153" lon="5.46135">
        <ele>1370.02</ele>
      </trkpt>
      <trkpt lat="44.92152" lon="5.4614">
        <ele>1374.34</ele>
      </trkpt>
      <trkpt lat="44.92151" lon="5.46146">
        <ele>1368.09</ele>
      </trkpt>
      <trkpt lat="44.92149" lon="5.46152">
        <ele>1372.42</ele>
      </trkpt>
      <trkpt lat="44.92147" lon="5.46157">
        <ele>1368.57</ele>
      </trkpt>
      <trkpt lat="44.92118" lon="5.46219">
        <ele>1371.94</ele>
      </trkpt>
      <trkpt lat="44.92115" lon="5.46222">
        <ele>1373.86</ele>
      </trkpt>
      <trkpt lat="44.92102" lon="5.46247">
        <ele>1371.94</ele>
      </trkpt>
      <trkpt lat="44.921" lon="5.46252">
        <ele>1368.09</ele>
      </trkpt>
      <trkpt lat="44.92088" lon="5.46277">
        <ele>1371.94</ele>
      </trkpt>
      <trkpt lat="44.92085" lon="5.46282">
        <ele>1372.42</ele>
      </trkpt>
      <trkpt lat="44.92051" lon="5.4632">
        <ele>1370.5</ele>
      </trkpt>
      <trkpt lat="44.92047" lon="5.46322">
        <ele>1370.02</ele>
      </trkpt>
      <trkpt lat="44.92043" lon="5.46324">
        <ele>1371.46</ele>
      </trkpt>
      <trkpt lat="44.9204" lon="5.46325">
        <ele>1371.46</ele>
      </trkpt>
      <trkpt lat="44.92035" lon="5.46324">
        <ele>1369.54</ele>
      </trkpt>
      <trkpt lat="44.92032" lon="5.46323">
        <ele>1368.09</ele>
      </trkpt>
      <trkpt lat="44.92028" lon="5.4632">
        <ele>1369.05</ele>
      </trkpt>
      <trkpt lat="44.92022" lon="5.46311">
        <ele>1370.5</ele>
      </trkpt>
      <trkpt lat="44.92019" lon="5.46305">
        <ele>1369.05</ele>
      </trkpt>
      <trkpt lat="44.92015" lon="5.463">
        <ele>1370.02</ele>
      </trkpt>
      <trkpt lat="44.9201" lon="5.46295">
        <ele>1371.46</ele>
      </trkpt>
      <trkpt lat="44.92005" lon="5.46294">
        <ele>1370.5</ele>
      </trkpt>
      <trkpt lat="44.92001" lon="5.46294">
        <ele>1371.46</ele>
      </trkpt>
      <trkpt lat="44.91997" lon="5.46296">
        <ele>1370.5</ele>
      </trkpt>
      <trkpt lat="44.91988" lon="5.46302">
        <ele>1370.98</ele>
      </trkpt>
      <trkpt lat="44.91961" lon="5.46319">
        <ele>1374.34</ele>
      </trkpt>
      <trkpt lat="44.91956" lon="5.46322">
        <ele>1371.94</ele>
      </trkpt>
      <trkpt lat="44.91952" lon="5.46325">
        <ele>1370.02</ele>
      </trkpt>
      <trkpt lat="44.91948" lon="5.46328">
        <ele>1372.42</ele>
      </trkpt>
      <trkpt lat="44.91943" lon="5.46329">
        <ele>1370.02</ele>
      </trkpt>
      <trkpt lat="44.91902" lon="5.46347">
        <ele>1373.38</ele>
      </trkpt>
      <trkpt lat="44.91863" lon="5.46376">
        <ele>1370.5</ele>
      </trkpt>
      <trkpt lat="44.91824" lon="5.46402">
        <ele>1371.94</ele>
      </trkpt>
      <trkpt lat="44.91792" lon="5.46473">
        <ele>1373.86</ele>
      </trkpt>
      <trkpt lat="44.91766" lon="5.46495">
        <ele>1376.26</ele>
      </trkpt>
      <trkpt lat="44.91765" lon="5.46496">
        <ele>1376.26</ele>
      </trkpt>
      <trkpt lat="44.91762" lon="5.46498">
        <ele>1372.42</ele>
      </trkpt>
      <trkpt lat="44.91757" lon="5.46501">
        <ele>1374.82</ele>
      </trkpt>
      <trkpt lat="44.91755" lon="5.46501">
        <ele>1371.94</ele>
      </trkpt>
      <trkpt lat="44.91726" lon="5.46504">
        <ele>1372.42</ele>
      </trkpt>
      <trkpt lat="44.91721" lon="5.46497">
        <ele>1377.1289063</ele>
      </trkpt>
      <trkpt lat="44.91719" lon="5.4649">
        <ele>1376.46875</ele>
      </trkpt>
      <trkpt lat="44.9172" lon="5.46482">
        <ele>1375.8554688</ele>
      </trkpt>
      <trkpt lat="44.9172" lon="5.46482">
        <ele>1375.8203125</ele>
      </trkpt>
      <trkpt lat="44.9172" lon="5.46476">
        <ele>1375.265625</ele>
      </trkpt>
      <trkpt lat="44.91722" lon="5.46468">
        <ele>1374.4335938</ele>
      </trkpt>
      <trkpt lat="44.91723" lon="5.46462">
        <ele>1373.6523438</ele>
      </trkpt>
      <trkpt lat="44.91724" lon="5.46462">
        <ele>1373.65625</ele>
      </trkpt>
      <trkpt lat="44.91724" lon="5.46455">
        <ele>1372.875</ele>
      </trkpt>
      <trkpt lat="44.91724" lon="5.46455">
        <ele>1372.828125</ele>
      </trkpt>
      <trkpt lat="44.91725" lon="5.4645">
        <ele>1372.2070313</ele>
      </trkpt>
      <trkpt lat="44.91726" lon="5.46443">
        <ele>1371.3007813</ele>
      </trkpt>
      <trkpt lat="44.91728" lon="5.46436">
        <ele>1370.1367188</ele>
      </trkpt>
      <trkpt lat="44.91727" lon="5.46428">
        <ele>1368.8515625</ele>
      </trkpt>
      <trkpt lat="44.91728" lon="5.46428">
        <ele>1368.8554688</ele>
      </trkpt>
      <trkpt lat="44.91728" lon="5.46422">
        <ele>1367.8359375</ele>
      </trkpt>
      <trkpt lat="44.91728" lon="5.46415">
        <ele>1366.8046875</ele>
      </trkpt>
      <trkpt lat="44.91728" lon="5.46407">
        <ele>1365.953125</ele>
      </trkpt>
      <trkpt lat="44.91729" lon="5.46401">
        <ele>1365.2226563</ele>
      </trkpt>
      <trkpt lat="44.91729" lon="5.46393">
        <ele>1370.02</ele>
      </trkpt>
      <trkpt lat="44.91725" lon="5.46386">
        <ele>1369.05</ele>
      </trkpt>
      <trkpt lat="44.91721" lon="5.4638">
        <ele>1371.46</ele>
      </trkpt>
      <trkpt lat="44.91716" lon="5.46376">
        <ele>1375.78</ele>
      </trkpt>
      <trkpt lat="44.91711" lon="5.46374">
        <ele>1372.9</ele>
      </trkpt>
      <trkpt lat="44.91707" lon="5.46375">
        <ele>1370.5</ele>
      </trkpt>
      <trkpt lat="44.91692" lon="5.46386">
        <ele>1372.9</ele>
      </trkpt>
      <trkpt lat="44.91689" lon="5.46389">
        <ele>1376.26</ele>
      </trkpt>
      <trkpt lat="44.9168" lon="5.464">
        <ele>1372.9</ele>
      </trkpt>
      <trkpt lat="44.91677" lon="5.46404">
        <ele>1376.26</ele>
      </trkpt>
      <trkpt lat="44.91649" lon="5.46447">
        <ele>1370.98</ele>
      </trkpt>
      <trkpt lat="44.91646" lon="5.4645">
        <ele>1374.82</ele>
      </trkpt>
      <trkpt lat="44.91639" lon="5.46457">
        <ele>1370.5</ele>
      </trkpt>
      <trkpt lat="44.91636" lon="5.46461">
        <ele>1370.02</ele>
      </trkpt>
      <trkpt lat="44.91633" lon="5.46465">
        <ele>1369.54</ele>
      </trkpt>
      <trkpt lat="44.91629" lon="5.46469">
        <ele>1370.5</ele>
      </trkpt>
      <trkpt lat="44.91625" lon="5.46473">
        <ele>1367.61</ele>
      </trkpt>
      <trkpt lat="44.9162" lon="5.46477">
        <ele>1373.38</ele>
      </trkpt>
      <trkpt lat="44.91615" lon="5.4648">
        <ele>1368.57</ele>
      </trkpt>
      <trkpt lat="44.91611" lon="5.46482">
        <ele>1373.86</ele>
      </trkpt>
      <trkpt lat="44.91606" lon="5.46485">
        <ele>1369.54</ele>
      </trkpt>
      <trkpt lat="44.91601" lon="5.46487">
        <ele>1373.38</ele>
      </trkpt>
      <trkpt lat="44.91596" lon="5.46488">
        <ele>1369.54</ele>
      </trkpt>
      <trkpt lat="44.91591" lon="5.4649">
        <ele>1373.38</ele>
      </trkpt>
      <trkpt lat="44.91576" lon="5.46496">
        <ele>1369.05</ele>
      </trkpt>
      <trkpt lat="44.91565" lon="5.46499">
        <ele>1369.54</ele>
      </trkpt>
      <trkpt lat="44.91559" lon="5.465">
        <ele>1371.94</ele>
      </trkpt>
      <trkpt lat="44.91554" lon="5.465">
        <ele>1367.61</ele>
      </trkpt>
      <trkpt lat="44.91548" lon="5.46499">
        <ele>1374.34</ele>
      </trkpt>
      <trkpt lat="44.91542" lon="5.46497">
        <ele>1371.94</ele>
      </trkpt>
      <trkpt lat="44.91537" lon="5.46495">
        <ele>1370.98</ele>
      </trkpt>
      <trkpt lat="44.91531" lon="5.46491">
        <ele>1373.86</ele>
      </trkpt>
      <trkpt lat="44.91527" lon="5.46486">
        <ele>1368.09</ele>
      </trkpt>
      <trkpt lat="44.91522" lon="5.4648">
        <ele>1370.5</ele>
      </trkpt>
      <trkpt lat="44.91518" lon="5.46475">
        <ele>1369.54</ele>
      </trkpt>
      <trkpt lat="44.91513" lon="5.46471">
        <ele>1370.02</ele>
      </trkpt>
      <trkpt lat="44.91508" lon="5.46469">
        <ele>1373.38</ele>
      </trkpt>
      <trkpt lat="44.91498" lon="5.46474">
        <ele>1374.34</ele>
      </trkpt>
      <trkpt lat="44.91494" lon="5.46478">
        <ele>1369.54</ele>
      </trkpt>
      <trkpt lat="44.9149" lon="5.46482">
        <ele>1373.86</ele>
      </trkpt>
      <trkpt lat="44.91486" lon="5.46487">
        <ele>1370.98</ele>
      </trkpt>
      <trkpt lat="44.91482" lon="5.46493">
        <ele>1374.34</ele>
      </trkpt>
      <trkpt lat="44.91479" lon="5.46499">
        <ele>1372.42</ele>
      </trkpt>
      <trkpt lat="44.91475" lon="5.46506">
        <ele>1374.34</ele>
      </trkpt>
      <trkpt lat="44.91464" lon="5.46537">
        <ele>1371.46</ele>
      </trkpt>
      <trkpt lat="44.91462" lon="5.46545">
        <ele>1371.46</ele>
      </trkpt>
      <trkpt lat="44.91454" lon="5.46561">
        <ele>1372.9</ele>
      </trkpt>
      <trkpt lat="44.9145" lon="5.46568">
        <ele>1372.9</ele>
      </trkpt>
      <trkpt lat="44.91446" lon="5.46575">
        <ele>1370.98</ele>
      </trkpt>
      <trkpt lat="44.91431" lon="5.46591">
        <ele>1369.05</ele>
      </trkpt>
      <trkpt lat="44.91426" lon="5.46596">
        <ele>1373.38</ele>
      </trkpt>
      <trkpt lat="44.9142" lon="5.466">
        <ele>1371.46</ele>
      </trkpt>
      <trkpt lat="44.91414" lon="5.46602">
        <ele>1370.02</ele>
      </trkpt>
      <trkpt lat="44.91408" lon="5.46604">
        <ele>1373.86</ele>
      </trkpt>
      <trkpt lat="44.91402" lon="5.46603">
        <ele>1372.9</ele>
      </trkpt>
      <trkpt lat="44.91374" lon="5.46593">
        <ele>1376.26</ele>
      </trkpt>
      <trkpt lat="44.91368" lon="5.4659">
        <ele>1374.34</ele>
      </trkpt>
      <trkpt lat="44.91363" lon="5.46586">
        <ele>1374.34</ele>
      </trkpt>
      <trkpt lat="44.91357" lon="5.46583">
        <ele>1370.5</ele>
      </trkpt>
      <trkpt lat="44.91351" lon="5.46581">
        <ele>1375.3</ele>
      </trkpt>
      <trkpt lat="44.91345" lon="5.46581">
        <ele>1373.86</ele>
      </trkpt>
      <trkpt lat="44.91333" lon="5.46586">
        <ele>1376.75</ele>
      </trkpt>
      <trkpt lat="44.91327" lon="5.46589">
        <ele>1374.34</ele>
      </trkpt>
      <trkpt lat="44.9132" lon="5.46591">
        <ele>1378.19</ele>
      </trkpt>
      <trkpt lat="44.91314" lon="5.46592">
        <ele>1376.75</ele>
      </trkpt>
      <trkpt lat="44.91308" lon="5.46592">
        <ele>1378.67</ele>
      </trkpt>
      <trkpt lat="44.91303" lon="5.4659">
        <ele>1376.75</ele>
      </trkpt>
      <trkpt lat="44.91296" lon="5.46588">
        <ele>1377.23</ele>
      </trkpt>
      <trkpt lat="44.9129" lon="5.46584">
        <ele>1376.26</ele>
      </trkpt>
      <trkpt lat="44.91283" lon="5.46581">
        <ele>1374.82</ele>
      </trkpt>
      <trkpt lat="44.91267" lon="5.46567">
        <ele>1375.3</ele>
      </trkpt>
      <trkpt lat="44.91261" lon="5.46561">
        <ele>1375.3</ele>
      </trkpt>
      <trkpt lat="44.91254" lon="5.46556">
        <ele>1379.63</ele>
      </trkpt>
      <trkpt lat="44.91249" lon="5.46554">
        <ele>1377.71</ele>
      </trkpt>
      <trkpt lat="44.91244" lon="5.46553">
        <ele>1376.26</ele>
      </trkpt>
      <trkpt lat="44.91238" lon="5.46554">
        <ele>1376.75</ele>
      </trkpt>
      <trkpt lat="44.91233" lon="5.46555">
        <ele>1376.26</ele>
      </trkpt>
      <trkpt lat="44.91229" lon="5.46558">
        <ele>1376.75</ele>
      </trkpt>
      <trkpt lat="44.91224" lon="5.46562">
        <ele>1375.3</ele>
      </trkpt>
      <trkpt lat="44.9122" lon="5.46567">
        <ele>1377.71</ele>
      </trkpt>
      <trkpt lat="44.91216" lon="5.46575">
        <ele>1375.78</ele>
      </trkpt>
      <trkpt lat="44.91211" lon="5.46592">
        <ele>1379.15</ele>
      </trkpt>
      <trkpt lat="44.91209" lon="5.46601">
        <ele>1377.23</ele>
      </trkpt>
      <trkpt lat="44.91206" lon="5.46609">
        <ele>1381.07</ele>
      </trkpt>
      <trkpt lat="44.91203" lon="5.46616">
        <ele>1379.15</ele>
      </trkpt>
      <trkpt lat="44.91199" lon="5.46622">
        <ele>1379.15</ele>
      </trkpt>
      <trkpt lat="44.91183" lon="5.46636">
        <ele>1379.15</ele>
      </trkpt>
      <trkpt lat="44.91171" lon="5.46645">
        <ele>1380.59</ele>
      </trkpt>
      <trkpt lat="44.91165" lon="5.46648">
        <ele>1382.51</ele>
      </trkpt>
      <trkpt lat="44.91158" lon="5.4665">
        <ele>1381.55</ele>
      </trkpt>
      <trkpt lat="44.91145" lon="5.46649">
        <ele>1380.59</ele>
      </trkpt>
      <trkpt lat="44.91133" lon="5.46648">
        <ele>1382.03</ele>
      </trkpt>
      <trkpt lat="44.91128" lon="5.46648">
        <ele>1385.4</ele>
      </trkpt>
      <trkpt lat="44.91122" lon="5.46647">
        <ele>1381.55</ele>
      </trkpt>
      <trkpt lat="44.91117" lon="5.46644">
        <ele>1384.44</ele>
      </trkpt>
      <trkpt lat="44.91112" lon="5.46639">
        <ele>1382.51</ele>
      </trkpt>
      <trkpt lat="44.91107" lon="5.46634">
        <ele>1381.07</ele>
      </trkpt>
      <trkpt lat="44.91102" lon="5.46628">
        <ele>1382.99</ele>
      </trkpt>
      <trkpt lat="44.91097" lon="5.46624">
        <ele>1380.59</ele>
      </trkpt>
      <trkpt lat="44.91092" lon="5.4662">
        <ele>1382.03</ele>
      </trkpt>
      <trkpt lat="44.91087" lon="5.46617">
        <ele>1382.03</ele>
      </trkpt>
      <trkpt lat="44.91082" lon="5.46614">
        <ele>1383.47</ele>
      </trkpt>
      <trkpt lat="44.91077" lon="5.46611">
        <ele>1382.99</ele>
      </trkpt>
      <trkpt lat="44.91073" lon="5.46607">
        <ele>1383.47</ele>
      </trkpt>
      <trkpt lat="44.91069" lon="5.46601">
        <ele>1380.59</ele>
      </trkpt>
      <trkpt lat="44.91066" lon="5.46594">
        <ele>1385.88</ele>
      </trkpt>
      <trkpt lat="44.91063" lon="5.46586">
        <ele>1387.32</ele>
      </trkpt>
      <trkpt lat="44.91061" lon="5.46578">
        <ele>1385.88</ele>
      </trkpt>
      <trkpt lat="44.91058" lon="5.46569">
        <ele>1384.44</ele>
      </trkpt>
      <trkpt lat="44.91052" lon="5.46563">
        <ele>1384.44</ele>
      </trkpt>
      <trkpt lat="44.91045" lon="5.4656">
        <ele>1384.92</ele>
      </trkpt>
      <trkpt lat="44.91025" lon="5.46566">
        <ele>1389.24</ele>
      </trkpt>
      <trkpt lat="44.91018" lon="5.46568">
        <ele>1387.32</ele>
      </trkpt>
      <trkpt lat="44.91012" lon="5.46569">
        <ele>1388.76</ele>
      </trkpt>
      <trkpt lat="44.91006" lon="5.4657">
        <ele>1389.24</ele>
      </trkpt>
      <trkpt lat="44.90999" lon="5.46573">
        <ele>1387.32</ele>
      </trkpt>
      <trkpt lat="44.90993" lon="5.46578">
        <ele>1386.36</ele>
      </trkpt>
      <trkpt lat="44.90987" lon="5.46584">
        <ele>1390.68</ele>
      </trkpt>
      <trkpt lat="44.90981" lon="5.46591">
        <ele>1388.76</ele>
      </trkpt>
      <trkpt lat="44.90974" lon="5.46597">
        <ele>1386.84</ele>
      </trkpt>
      <trkpt lat="44.90967" lon="5.46599">
        <ele>1389.24</ele>
      </trkpt>
      <trkpt lat="44.90915" lon="5.46595">
        <ele>1389.24</ele>
      </trkpt>
      <trkpt lat="44.90907" lon="5.46596">
        <ele>1393.57</ele>
      </trkpt>
      <trkpt lat="44.90899" lon="5.46598">
        <ele>1392.13</ele>
      </trkpt>
      <trkpt lat="44.90883" lon="5.46609">
        <ele>1394.53</ele>
      </trkpt>
      <trkpt lat="44.90874" lon="5.46615">
        <ele>1394.05</ele>
      </trkpt>
      <trkpt lat="44.90865" lon="5.46617">
        <ele>1394.53</ele>
      </trkpt>
      <trkpt lat="44.90856" lon="5.46619">
        <ele>1398.37</ele>
      </trkpt>
      <trkpt lat="44.90848" lon="5.46622">
        <ele>1395.97</ele>
      </trkpt>
      <trkpt lat="44.90841" lon="5.46628">
        <ele>1394.53</ele>
      </trkpt>
      <trkpt lat="44.90832" lon="5.4663">
        <ele>1418.332</ele>
      </trkpt>
      <trkpt lat="44.90809" lon="5.46646">
        <ele>1420.065</ele>
      </trkpt>
      <trkpt lat="44.90798" lon="5.46649">
        <ele>1420.998</ele>
      </trkpt>
      <trkpt lat="44.90778" lon="5.46657">
        <ele>1422.39</ele>
      </trkpt>
      <trkpt lat="44.90753" lon="5.46655">
        <ele>1423.666</ele>
      </trkpt>
      <trkpt lat="44.90736" lon="5.4665">
        <ele>1424.654</ele>
      </trkpt>
      <trkpt lat="44.9071" lon="5.46627">
        <ele>1426.927</ele>
      </trkpt>
      <trkpt lat="44.90696" lon="5.46607">
        <ele>1428.01</ele>
      </trkpt>
      <trkpt lat="44.9069" lon="5.46602">
        <ele>1428.492</ele>
      </trkpt>
      <trkpt lat="44.90665" lon="5.46605">
        <ele>1430.218</ele>
      </trkpt>
      <trkpt lat="44.90647" lon="5.4662">
        <ele>1431.633</ele>
      </trkpt>
      <trkpt lat="44.90639" lon="5.46621">
        <ele>1432.122</ele>
      </trkpt>
      <trkpt lat="44.90619" lon="5.46615">
        <ele>1407.03</ele>
      </trkpt>
      <trkpt lat="44.90613" lon="5.46607">
        <ele>1411.83</ele>
      </trkpt>
      <trkpt lat="44.90607" lon="5.46599">
        <ele>1412.79</ele>
      </trkpt>
      <trkpt lat="44.90601" lon="5.46589">
        <ele>1409.43</ele>
      </trkpt>
      <trkpt lat="44.90595" lon="5.46579">
        <ele>1411.83</ele>
      </trkpt>
      <trkpt lat="44.90587" lon="5.4657">
        <ele>1414.24</ele>
      </trkpt>
      <trkpt lat="44.90578" lon="5.46565">
        <ele>1411.83</ele>
      </trkpt>
      <trkpt lat="44.90567" lon="5.46562">
        <ele>1415.2</ele>
      </trkpt>
      <trkpt lat="44.90558" lon="5.46561">
        <ele>1413.76</ele>
      </trkpt>
      <trkpt lat="44.90547" lon="5.46562">
        <ele>1416.16</ele>
      </trkpt>
      <trkpt lat="44.90537" lon="5.46564">
        <ele>1415.68</ele>
      </trkpt>
      <trkpt lat="44.90526" lon="5.46567">
        <ele>1418.08</ele>
      </trkpt>
      <trkpt lat="44.90515" lon="5.46568">
        <ele>1415.68</ele>
      </trkpt>
      <trkpt lat="44.90505" lon="5.46566">
        <ele>1417.6</ele>
      </trkpt>
      <trkpt lat="44.90469" lon="5.46555">
        <ele>1420.49</ele>
      </trkpt>
      <trkpt lat="44.90457" lon="5.46552">
        <ele>1420</ele>
      </trkpt>
      <trkpt lat="44.90439" lon="5.46562">
        <ele>1420.97</ele>
      </trkpt>
      <trkpt lat="44.90431" lon="5.46568">
        <ele>1420.49</ele>
      </trkpt>
      <trkpt lat="44.90423" lon="5.46572">
        <ele>1423.37</ele>
      </trkpt>
      <trkpt lat="44.90416" lon="5.46572">
        <ele>1422.89</ele>
      </trkpt>
      <trkpt lat="44.90408" lon="5.46571">
        <ele>1425.29</ele>
      </trkpt>
      <trkpt lat="44.90399" lon="5.46568">
        <ele>1425.29</ele>
      </trkpt>
      <trkpt lat="44.90391" lon="5.46564">
        <ele>1425.29</ele>
      </trkpt>
      <trkpt lat="44.90365" lon="5.46547">
        <ele>1427.7</ele>
      </trkpt>
      <trkpt lat="44.90355" lon="5.46545">
        <ele>1427.21</ele>
      </trkpt>
      <trkpt lat="44.90331" lon="5.46548">
        <ele>1430.1</ele>
      </trkpt>
      <trkpt lat="44.90301" lon="5.46555">
        <ele>1432.02</ele>
      </trkpt>
      <trkpt lat="44.90291" lon="5.46555">
        <ele>1432.5</ele>
      </trkpt>
      <trkpt lat="44.90271" lon="5.4655">
        <ele>1435.39</ele>
      </trkpt>
      <trkpt lat="44.90261" lon="5.46546">
        <ele>1436.35</ele>
      </trkpt>
      <trkpt lat="44.90252" lon="5.46542">
        <ele>1436.83</ele>
      </trkpt>
      <trkpt lat="44.90233" lon="5.46538">
        <ele>1438.75</ele>
      </trkpt>
      <trkpt lat="44.90223" lon="5.46538">
        <ele>1439.23</ele>
      </trkpt>
      <trkpt lat="44.90214" lon="5.46539">
        <ele>1440.67</ele>
      </trkpt>
      <trkpt lat="44.90205" lon="5.46541">
        <ele>1440.67</ele>
      </trkpt>
      <trkpt lat="44.90196" lon="5.46543">
        <ele>1440.19</ele>
      </trkpt>
      <trkpt lat="44.90186" lon="5.46543">
        <ele>1442.11</ele>
      </trkpt>
      <trkpt lat="44.90178" lon="5.46547">
        <ele>1443.08</ele>
      </trkpt>
      <trkpt lat="44.9017" lon="5.46554">
        <ele>1445</ele>
      </trkpt>
      <trkpt lat="44.90162" lon="5.46561">
        <ele>1445.96</ele>
      </trkpt>
      <trkpt lat="44.90153" lon="5.46566">
        <ele>1445.48</ele>
      </trkpt>
      <trkpt lat="44.90144" lon="5.46567">
        <ele>1446.92</ele>
      </trkpt>
      <trkpt lat="44.90135" lon="5.46566">
        <ele>1446.44</ele>
      </trkpt>
      <trkpt lat="44.90126" lon="5.46564">
        <ele>1447.88</ele>
      </trkpt>
      <trkpt lat="44.90109" lon="5.46561">
        <ele>1448.84</ele>
      </trkpt>
      <trkpt lat="44.90101" lon="5.4656">
        <ele>1449.32</ele>
      </trkpt>
      <trkpt lat="44.90093" lon="5.4656">
        <ele>1449.81</ele>
      </trkpt>
      <trkpt lat="44.90087" lon="5.46563">
        <ele>1451.73</ele>
      </trkpt>
      <trkpt lat="44.90083" lon="5.4657">
        <ele>1452.21</ele>
      </trkpt>
      <trkpt lat="44.9008" lon="5.46581">
        <ele>1453.17</ele>
      </trkpt>
      <trkpt lat="44.90077" lon="5.46595">
        <ele>1455.09</ele>
      </trkpt>
      <trkpt lat="44.90073" lon="5.46608">
        <ele>1455.09</ele>
      </trkpt>
      <trkpt lat="44.90067" lon="5.4662">
        <ele>1457.5</ele>
      </trkpt>
      <trkpt lat="44.90061" lon="5.46632">
        <ele>1459.42</ele>
      </trkpt>
      <trkpt lat="44.90057" lon="5.46645">
        <ele>1459.42</ele>
      </trkpt>
      <trkpt lat="44.90051" lon="5.4667">
        <ele>1460.38</ele>
      </trkpt>
      <trkpt lat="44.90036" lon="5.46731">
        <ele>1464.23</ele>
      </trkpt>
      <trkpt lat="44.90007" lon="5.46841">
        <ele>1467.11</ele>
      </trkpt>
      <trkpt lat="44.90004" lon="5.46849">
        <ele>1468.55</ele>
      </trkpt>
      <trkpt lat="44.90002" lon="5.46858">
        <ele>1468.07</ele>
      </trkpt>
      <trkpt lat="44.9" lon="5.46867">
        <ele>1468.07</ele>
      </trkpt>
      <trkpt lat="44.89997" lon="5.46876">
        <ele>1467.59</ele>
      </trkpt>
      <trkpt lat="44.89994" lon="5.46885">
        <ele>1468.07</ele>
      </trkpt>
      <trkpt lat="44.89991" lon="5.46894">
        <ele>1469.03</ele>
      </trkpt>
      <trkpt lat="44.8996" lon="5.47025">
        <ele>1488</ele>
      </trkpt>
      <trkpt lat="44.89896" lon="5.47177">
        <ele>1477.68</ele>
      </trkpt>
      <trkpt lat="44.89894" lon="5.47184">
        <ele>1477.68</ele>
      </trkpt>
      <trkpt lat="44.89889" lon="5.47212">
        <ele>1477.2</ele>
      </trkpt>
      <trkpt lat="44.89886" lon="5.47226">
        <ele>1479.13</ele>
      </trkpt>
      <trkpt lat="44.89878" lon="5.47247">
        <ele>1478.65</ele>
      </trkpt>
      <trkpt lat="44.89876" lon="5.47253">
        <ele>1479.13</ele>
      </trkpt>
      <trkpt lat="44.89874" lon="5.47261">
        <ele>1479.13</ele>
      </trkpt>
      <trkpt lat="44.89878" lon="5.47309">
        <ele>1479.13</ele>
      </trkpt>
      <trkpt lat="44.89879" lon="5.47318">
        <ele>1479.61</ele>
      </trkpt>
      <trkpt lat="44.89879" lon="5.47326">
        <ele>1480.57</ele>
      </trkpt>
      <trkpt lat="44.8988" lon="5.47335">
        <ele>1480.09</ele>
      </trkpt>
      <trkpt lat="44.89878" lon="5.47341">
        <ele>1480.09</ele>
      </trkpt>
      <trkpt lat="44.89876" lon="5.47348">
        <ele>1480.57</ele>
      </trkpt>
      <trkpt lat="44.89872" lon="5.47354">
        <ele>1479.61</ele>
      </trkpt>
      <trkpt lat="44.89867" lon="5.47357">
        <ele>1480.57</ele>
      </trkpt>
      <trkpt lat="44.89862" lon="5.47358">
        <ele>1481.53</ele>
      </trkpt>
      <trkpt lat="44.89858" lon="5.47355">
        <ele>1480.09</ele>
      </trkpt>
      <trkpt lat="44.89854" lon="5.4735">
        <ele>1480.09</ele>
      </trkpt>
      <trkpt lat="44.89851" lon="5.47344">
        <ele>1479.61</ele>
      </trkpt>
      <trkpt lat="44.89849" lon="5.47337">
        <ele>1480.09</ele>
      </trkpt>
      <trkpt lat="44.89846" lon="5.4733">
        <ele>1480.57</ele>
      </trkpt>
      <trkpt lat="44.89842" lon="5.47323">
        <ele>1480.57</ele>
      </trkpt>
      <trkpt lat="44.89838" lon="5.47318">
        <ele>1480.09</ele>
      </trkpt>
      <trkpt lat="44.89833" lon="5.47314">
        <ele>1480.57</ele>
      </trkpt>
      <trkpt lat="44.89827" lon="5.47312">
        <ele>1480.57</ele>
      </trkpt>
      <trkpt lat="44.89822" lon="5.4731">
        <ele>1480.09</ele>
      </trkpt>
      <trkpt lat="44.89816" lon="5.47308">
        <ele>1481.53</ele>
      </trkpt>
      <trkpt lat="44.89811" lon="5.47305">
        <ele>1481.05</ele>
      </trkpt>
      <trkpt lat="44.89806" lon="5.473">
        <ele>1481.53</ele>
      </trkpt>
      <trkpt lat="44.89798" lon="5.47287">
        <ele>1480.57</ele>
      </trkpt>
      <trkpt lat="44.89794" lon="5.4728">
        <ele>1480.57</ele>
      </trkpt>
      <trkpt lat="44.8979" lon="5.47273">
        <ele>1481.05</ele>
      </trkpt>
      <trkpt lat="44.89785" lon="5.47267">
        <ele>1481.53</ele>
      </trkpt>
      <trkpt lat="44.89779" lon="5.47263">
        <ele>1482.01</ele>
      </trkpt>
      <trkpt lat="44.89773" lon="5.47263">
        <ele>1480.57</ele>
      </trkpt>
      <trkpt lat="44.89767" lon="5.47265">
        <ele>1481.53</ele>
      </trkpt>
      <trkpt lat="44.89761" lon="5.47268">
        <ele>1482.01</ele>
      </trkpt>
      <trkpt lat="44.89756" lon="5.47274">
        <ele>1482.01</ele>
      </trkpt>
      <trkpt lat="44.89752" lon="5.47282">
        <ele>1482.01</ele>
      </trkpt>
      <trkpt lat="44.89749" lon="5.47291">
        <ele>1482.49</ele>
      </trkpt>
      <trkpt lat="44.89748" lon="5.47302">
        <ele>1483.45</ele>
      </trkpt>
      <trkpt lat="44.89752" lon="5.47343">
        <ele>1482.97</ele>
      </trkpt>
      <trkpt lat="44.89753" lon="5.47354">
        <ele>1483.45</ele>
      </trkpt>
      <trkpt lat="44.89749" lon="5.47385">
        <ele>1483.45</ele>
      </trkpt>
      <trkpt lat="44.89747" lon="5.47396">
        <ele>1484.41</ele>
      </trkpt>
      <trkpt lat="44.8974" lon="5.47415">
        <ele>1484.89</ele>
      </trkpt>
      <trkpt lat="44.89713" lon="5.47458">
        <ele>1487.3</ele>
      </trkpt>
      <trkpt lat="44.89708" lon="5.47466">
        <ele>1487.78</ele>
      </trkpt>
      <trkpt lat="44.89704" lon="5.47475">
        <ele>1488.74</ele>
      </trkpt>
      <trkpt lat="44.89691" lon="5.47511">
        <ele>1489.7</ele>
      </trkpt>
      <trkpt lat="44.89687" lon="5.47519">
        <ele>1489.7</ele>
      </trkpt>
      <trkpt lat="44.89684" lon="5.47527">
        <ele>1489.7</ele>
      </trkpt>
      <trkpt lat="44.89679" lon="5.47534">
        <ele>1490.66</ele>
      </trkpt>
      <trkpt lat="44.89674" lon="5.47539">
        <ele>1490.66</ele>
      </trkpt>
      <trkpt lat="44.89668" lon="5.47542">
        <ele>1491.14</ele>
      </trkpt>
      <trkpt lat="44.89663" lon="5.47543">
        <ele>1491.62</ele>
      </trkpt>
      <trkpt lat="44.89658" lon="5.47543">
        <ele>1492.1</ele>
      </trkpt>
      <trkpt lat="44.89654" lon="5.47542">
        <ele>1492.1</ele>
      </trkpt>
      <trkpt lat="44.8965" lon="5.4754">
        <ele>1492.58</ele>
      </trkpt>
      <trkpt lat="44.89646" lon="5.47537">
        <ele>1493.06</ele>
      </trkpt>
      <trkpt lat="44.89639" lon="5.47504">
        <ele>1494.51</ele>
      </trkpt>
      <trkpt lat="44.89636" lon="5.47492">
        <ele>1494.99</ele>
      </trkpt>
      <trkpt lat="44.89632" lon="5.4748">
        <ele>1495.95</ele>
      </trkpt>
      <trkpt lat="44.89603" lon="5.47447">
        <ele>1498.35</ele>
      </trkpt>
      <trkpt lat="44.89596" lon="5.47438">
        <ele>1498.35</ele>
      </trkpt>
      <trkpt lat="44.89589" lon="5.47429">
        <ele>1499.31</ele>
      </trkpt>
      <trkpt lat="44.89581" lon="5.47421">
        <ele>1500.27</ele>
      </trkpt>
      <trkpt lat="44.89571" lon="5.47415">
        <ele>1500.76</ele>
      </trkpt>
      <trkpt lat="44.89562" lon="5.47412">
        <ele>1501.72</ele>
      </trkpt>
      <trkpt lat="44.89552" lon="5.47412">
        <ele>1503.16</ele>
      </trkpt>
      <trkpt lat="44.89542" lon="5.47415">
        <ele>1503.16</ele>
      </trkpt>
      <trkpt lat="44.89533" lon="5.47418">
        <ele>1504.12</ele>
      </trkpt>
      <trkpt lat="44.89524" lon="5.47424">
        <ele>1504.6</ele>
      </trkpt>
      <trkpt lat="44.89516" lon="5.4743">
        <ele>1505.56</ele>
      </trkpt>
      <trkpt lat="44.89499" lon="5.4746">
        <ele>1507.48</ele>
      </trkpt>
      <trkpt lat="44.89478" lon="5.47497">
        <ele>1509.89</ele>
      </trkpt>
      <trkpt lat="44.89475" lon="5.47506">
        <ele>1509.89</ele>
      </trkpt>
      <trkpt lat="44.8947" lon="5.47513">
        <ele>1510.85</ele>
      </trkpt>
      <trkpt lat="44.89465" lon="5.47518">
        <ele>1511.81</ele>
      </trkpt>
      <trkpt lat="44.89458" lon="5.4752">
        <ele>1511.81</ele>
      </trkpt>
      <trkpt lat="44.89452" lon="5.4752">
        <ele>1512.77</ele>
      </trkpt>
      <trkpt lat="44.89446" lon="5.47517">
        <ele>1512.77</ele>
      </trkpt>
      <trkpt lat="44.89439" lon="5.47515">
        <ele>1512.77</ele>
      </trkpt>
      <trkpt lat="44.89433" lon="5.47513">
        <ele>1513.25</ele>
      </trkpt>
      <trkpt lat="44.89427" lon="5.47514">
        <ele>1512.77</ele>
      </trkpt>
      <trkpt lat="44.89421" lon="5.47516">
        <ele>1513.73</ele>
      </trkpt>
      <trkpt lat="44.89415" lon="5.47517">
        <ele>1513.73</ele>
      </trkpt>
      <trkpt lat="44.89409" lon="5.47517">
        <ele>1514.21</ele>
      </trkpt>
      <trkpt lat="44.89404" lon="5.47515">
        <ele>1514.21</ele>
      </trkpt>
      <trkpt lat="44.89399" lon="5.47512">
        <ele>1514.69</ele>
      </trkpt>
      <trkpt lat="44.89396" lon="5.47506">
        <ele>1514.69</ele>
      </trkpt>
      <trkpt lat="44.89393" lon="5.47501">
        <ele>1514.69</ele>
      </trkpt>
      <trkpt lat="44.89378" lon="5.47424">
        <ele>1516.14</ele>
      </trkpt>
      <trkpt lat="44.89372" lon="5.47356">
        <ele>1515.66</ele>
      </trkpt>
      <trkpt lat="44.89363" lon="5.47298">
        <ele>1513.25</ele>
      </trkpt>
      <trkpt lat="44.89362" lon="5.47246">
        <ele>1511.33</ele>
      </trkpt>
      <trkpt lat="44.89369" lon="5.47165">
        <ele>1508.93</ele>
      </trkpt>
      <trkpt lat="44.89379" lon="5.47081">
        <ele>1507.48</ele>
      </trkpt>
      <trkpt lat="44.89369" lon="5.47017">
        <ele>1505.56</ele>
      </trkpt>
      <trkpt lat="44.89354" lon="5.46956">
        <ele>1504.6</ele>
      </trkpt>
      <trkpt lat="44.89353" lon="5.46951">
        <ele>1504.12</ele>
      </trkpt>
      <trkpt lat="44.89323" lon="5.46928">
        <ele>1503.64</ele>
      </trkpt>
      <trkpt lat="44.89303" lon="5.46974">
        <ele>1504.12</ele>
      </trkpt>
      <trkpt lat="44.89271" lon="5.47003">
        <ele>1503.64</ele>
      </trkpt>
      <trkpt lat="44.89238" lon="5.47015">
        <ele>1503.16</ele>
      </trkpt>
      <trkpt lat="44.89211" lon="5.46997">
        <ele>1503.64</ele>
      </trkpt>
      <trkpt lat="44.89197" lon="5.46944">
        <ele>1503.64</ele>
      </trkpt>
      <trkpt lat="44.89191" lon="5.46883">
        <ele>1504.12</ele>
      </trkpt>
      <trkpt lat="44.89174" lon="5.46838">
        <ele>1503.16</ele>
      </trkpt>
      <trkpt lat="44.89135" lon="5.46841">
        <ele>1502.68</ele>
      </trkpt>
      <trkpt lat="44.89113" lon="5.468">
        <ele>1502.68</ele>
      </trkpt>
      <trkpt lat="44.89088" lon="5.46769">
        <ele>1503.64</ele>
      </trkpt>
      <trkpt lat="44.89067" lon="5.46714">
        <ele>1502.68</ele>
      </trkpt>
      <trkpt lat="44.89051" lon="5.4666">
        <ele>1503.64</ele>
      </trkpt>
      <trkpt lat="44.89038" lon="5.46614">
        <ele>1503.16</ele>
      </trkpt>
      <trkpt lat="44.89011" lon="5.46579">
        <ele>1503.64</ele>
      </trkpt>
      <trkpt lat="44.89009" lon="5.46577">
        <ele>1503.16</ele>
      </trkpt>
      <trkpt lat="44.89006" lon="5.46575">
        <ele>1503.16</ele>
      </trkpt>
      <trkpt lat="44.89004" lon="5.46572">
        <ele>1503.64</ele>
      </trkpt>
      <trkpt lat="44.89002" lon="5.4657">
        <ele>1503.64</ele>
      </trkpt>
      <trkpt lat="44.89" lon="5.46567">
        <ele>1503.64</ele>
      </trkpt>
      <trkpt lat="44.88998" lon="5.46564">
        <ele>1503.64</ele>
      </trkpt>
      <trkpt lat="44.88988" lon="5.46544">
        <ele>1503.64</ele>
      </trkpt>
      <trkpt lat="44.88985" lon="5.46541">
        <ele>1503.64</ele>
      </trkpt>
      <trkpt lat="44.88983" lon="5.46538">
        <ele>1503.16</ele>
      </trkpt>
      <trkpt lat="44.88981" lon="5.46535">
        <ele>1503.64</ele>
      </trkpt>
      <trkpt lat="44.88979" lon="5.46532">
        <ele>1504.12</ele>
      </trkpt>
      <trkpt lat="44.88977" lon="5.46529">
        <ele>1503.64</ele>
      </trkpt>
      <trkpt lat="44.88975" lon="5.46526">
        <ele>1503.64</ele>
      </trkpt>
      <trkpt lat="44.88973" lon="5.46523">
        <ele>1503.64</ele>
      </trkpt>
      <trkpt lat="44.88971" lon="5.46519">
        <ele>1503.16</ele>
      </trkpt>
      <trkpt lat="44.8897" lon="5.46514">
        <ele>1503.16</ele>
      </trkpt>
      <trkpt lat="44.88968" lon="5.46509">
        <ele>1503.16</ele>
      </trkpt>
      <trkpt lat="44.88966" lon="5.46504">
        <ele>1503.64</ele>
      </trkpt>
      <trkpt lat="44.88957" lon="5.46491">
        <ele>1503.64</ele>
      </trkpt>
      <trkpt lat="44.88939" lon="5.46434">
        <ele>1504.12</ele>
      </trkpt>
      <trkpt lat="44.88937" lon="5.46429">
        <ele>1503.64</ele>
      </trkpt>
      <trkpt lat="44.88936" lon="5.46422">
        <ele>1503.64</ele>
      </trkpt>
      <trkpt lat="44.88932" lon="5.46417">
        <ele>1503.64</ele>
      </trkpt>
      <trkpt lat="44.88928" lon="5.46414">
        <ele>1504.12</ele>
      </trkpt>
      <trkpt lat="44.88917" lon="5.46414">
        <ele>1504.12</ele>
      </trkpt>
      <trkpt lat="44.8891" lon="5.46414">
        <ele>1504.12</ele>
      </trkpt>
      <trkpt lat="44.88904" lon="5.46414">
        <ele>1504.12</ele>
      </trkpt>
      <trkpt lat="44.88897" lon="5.46413">
        <ele>1504.6</ele>
      </trkpt>
      <trkpt lat="44.88892" lon="5.46408">
        <ele>1504.12</ele>
      </trkpt>
      <trkpt lat="44.88877" lon="5.46377">
        <ele>1506.04</ele>
      </trkpt>
      <trkpt lat="44.88872" lon="5.46364">
        <ele>1507</ele>
      </trkpt>
      <trkpt lat="44.88871" lon="5.46351">
        <ele>1507.48</ele>
      </trkpt>
      <trkpt lat="44.88868" lon="5.46303">
        <ele>1509.89</ele>
      </trkpt>
      <trkpt lat="44.8886" lon="5.46275">
        <ele>1510.85</ele>
      </trkpt>
      <trkpt lat="44.88868" lon="5.46217">
        <ele>1513.25</ele>
      </trkpt>
      <trkpt lat="44.88894" lon="5.46185">
        <ele>1512.29</ele>
      </trkpt>
      <trkpt lat="44.88893" lon="5.46136">
        <ele>1510.85</ele>
      </trkpt>
      <trkpt lat="44.88897" lon="5.46089">
        <ele>1509.41</ele>
      </trkpt>
      <trkpt lat="44.88919" lon="5.46051">
        <ele>1508.45</ele>
      </trkpt>
      <trkpt lat="44.88931" lon="5.46036">
        <ele>1507</ele>
      </trkpt>
      <trkpt lat="44.88932" lon="5.46033">
        <ele>1506.52</ele>
      </trkpt>
      <trkpt lat="44.88934" lon="5.46031">
        <ele>1506.52</ele>
      </trkpt>
      <trkpt lat="44.88934" lon="5.46029">
        <ele>1506.52</ele>
      </trkpt>
      <trkpt lat="44.88935" lon="5.46028">
        <ele>1506.04</ele>
      </trkpt>
      <trkpt lat="44.88937" lon="5.46024">
        <ele>1506.04</ele>
      </trkpt>
      <trkpt lat="44.88944" lon="5.45989">
        <ele>1504.6</ele>
      </trkpt>
      <trkpt lat="44.88945" lon="5.45957">
        <ele>1502.2</ele>
      </trkpt>
      <trkpt lat="44.88957" lon="5.45933">
        <ele>1501.72</ele>
      </trkpt>
      <trkpt lat="44.88963" lon="5.45919">
        <ele>1500.76</ele>
      </trkpt>
      <trkpt lat="44.88961" lon="5.45914">
        <ele>1499.79</ele>
      </trkpt>
      <trkpt lat="44.88962" lon="5.45911">
        <ele>1499.79</ele>
      </trkpt>
      <trkpt lat="44.88963" lon="5.45909">
        <ele>1499.31</ele>
      </trkpt>
      <trkpt lat="44.88962" lon="5.45878">
        <ele>1497.39</ele>
      </trkpt>
      <trkpt lat="44.88963" lon="5.45875">
        <ele>1498.35</ele>
      </trkpt>
      <trkpt lat="44.88963" lon="5.45874">
        <ele>1497.87</ele>
      </trkpt>
      <trkpt lat="44.88965" lon="5.45854">
        <ele>1496.91</ele>
      </trkpt>
      <trkpt lat="44.88965" lon="5.45849">
        <ele>1496.91</ele>
      </trkpt>
      <trkpt lat="44.88965" lon="5.45847">
        <ele>1496.43</ele>
      </trkpt>
      <trkpt lat="44.88976" lon="5.45816">
        <ele>1494.03</ele>
      </trkpt>
      <trkpt lat="44.88987" lon="5.45802">
        <ele>1515.193</ele>
      </trkpt>
      <trkpt lat="44.89004" lon="5.45795">
        <ele>1512.928</ele>
      </trkpt>
      <trkpt lat="44.89015" lon="5.45789">
        <ele>1512.171</ele>
      </trkpt>
      <trkpt lat="44.89027" lon="5.45766">
        <ele>1511.599</ele>
      </trkpt>
      <trkpt lat="44.89034" lon="5.4574">
        <ele>1511.736</ele>
      </trkpt>
      <trkpt lat="44.89039" lon="5.45711">
        <ele>1511.352</ele>
      </trkpt>
      <trkpt lat="44.89055" lon="5.45692">
        <ele>1510.962</ele>
      </trkpt>
      <trkpt lat="44.89061" lon="5.45676">
        <ele>1510.177</ele>
      </trkpt>
      <trkpt lat="44.8906" lon="5.4566">
        <ele>1509.135</ele>
      </trkpt>
      <trkpt lat="44.89059" lon="5.45639">
        <ele>1507.668</ele>
      </trkpt>
      <trkpt lat="44.89066" lon="5.45629">
        <ele>1506.908</ele>
      </trkpt>
      <trkpt lat="44.89077" lon="5.45622">
        <ele>1505.536</ele>
      </trkpt>
      <trkpt lat="44.89082" lon="5.45611">
        <ele>1504.529</ele>
      </trkpt>
      <trkpt lat="44.89082" lon="5.45594">
        <ele>1503.016</ele>
      </trkpt>
      <trkpt lat="44.89072" lon="5.4558">
        <ele>1501.219</ele>
      </trkpt>
      <trkpt lat="44.89063" lon="5.4557">
        <ele>1499.768</ele>
      </trkpt>
      <trkpt lat="44.89062" lon="5.45547">
        <ele>1497.993</ele>
      </trkpt>
      <trkpt lat="44.89063" lon="5.45532">
        <ele>1497.15</ele>
      </trkpt>
      <trkpt lat="44.89068" lon="5.45505">
        <ele>1495.488</ele>
      </trkpt>
      <trkpt lat="44.89074" lon="5.45482">
        <ele>1493.935</ele>
      </trkpt>
      <trkpt lat="44.89074" lon="5.45465">
        <ele>1493.123</ele>
      </trkpt>
      <trkpt lat="44.89065" lon="5.45454">
        <ele>1492.194</ele>
      </trkpt>
      <trkpt lat="44.89048" lon="5.45465">
        <ele>1490.98</ele>
      </trkpt>
      <trkpt lat="44.89031" lon="5.45484">
        <ele>1488.956</ele>
      </trkpt>
      <trkpt lat="44.89017" lon="5.45505">
        <ele>1487.325</ele>
      </trkpt>
      <trkpt lat="44.88999" lon="5.45512">
        <ele>1486.251</ele>
      </trkpt>
      <trkpt lat="44.88976" lon="5.45508">
        <ele>1485.721</ele>
      </trkpt>
      <trkpt lat="44.88956" lon="5.45506">
        <ele>1485.72</ele>
      </trkpt>
      <trkpt lat="44.88938" lon="5.45508">
        <ele>1485.476</ele>
      </trkpt>
      <trkpt lat="44.88919" lon="5.4552">
        <ele>1484.601</ele>
      </trkpt>
      <trkpt lat="44.88901" lon="5.45518">
        <ele>1483.397</ele>
      </trkpt>
      <trkpt lat="44.88887" lon="5.45519">
        <ele>1460.38</ele>
      </trkpt>
      <trkpt lat="44.88862" lon="5.45498">
        <ele>1457.5</ele>
      </trkpt>
      <trkpt lat="44.88845" lon="5.45472">
        <ele>1455.57</ele>
      </trkpt>
      <trkpt lat="44.88832" lon="5.45432">
        <ele>1453.65</ele>
      </trkpt>
      <trkpt lat="44.8882" lon="5.45396">
        <ele>1451.73</ele>
      </trkpt>
      <trkpt lat="44.88811" lon="5.45366">
        <ele>1449.32</ele>
      </trkpt>
      <trkpt lat="44.88812" lon="5.45363">
        <ele>1449.32</ele>
      </trkpt>
      <trkpt lat="44.88812" lon="5.45361">
        <ele>1448.84</ele>
      </trkpt>
      <trkpt lat="44.88813" lon="5.45359">
        <ele>1449.81</ele>
      </trkpt>
      <trkpt lat="44.88815" lon="5.45357">
        <ele>1448.36</ele>
      </trkpt>
      <trkpt lat="44.88816" lon="5.45356">
        <ele>1448.36</ele>
      </trkpt>
      <trkpt lat="44.88817" lon="5.45355">
        <ele>1447.88</ele>
      </trkpt>
      <trkpt lat="44.88819" lon="5.45354">
        <ele>1448.36</ele>
      </trkpt>
      <trkpt lat="44.88821" lon="5.45354">
        <ele>1448.36</ele>
      </trkpt>
      <trkpt lat="44.88823" lon="5.45354">
        <ele>1447.88</ele>
      </trkpt>
      <trkpt lat="44.88825" lon="5.45354">
        <ele>1447.88</ele>
      </trkpt>
      <trkpt lat="44.88836" lon="5.45376">
        <ele>1446.92</ele>
      </trkpt>
      <trkpt lat="44.88854" lon="5.45404">
        <ele>1445.48</ele>
      </trkpt>
      <trkpt lat="44.88871" lon="5.45423">
        <ele>1444.04</ele>
      </trkpt>
      <trkpt lat="44.88897" lon="5.45435">
        <ele>1442.11</ele>
      </trkpt>
      <trkpt lat="44.88923" lon="5.45423">
        <ele>1440.19</ele>
      </trkpt>
      <trkpt lat="44.88932" lon="5.45398">
        <ele>1438.27</ele>
      </trkpt>
      <trkpt lat="44.8893" lon="5.45352">
        <ele>1435.87</ele>
      </trkpt>
      <trkpt lat="44.88939" lon="5.4532">
        <ele>1433.46</ele>
      </trkpt>
      <trkpt lat="44.88958" lon="5.45289">
        <ele>1432.02</ele>
      </trkpt>
      <trkpt lat="44.88961" lon="5.45255">
        <ele>1430.1</ele>
      </trkpt>
      <trkpt lat="44.88963" lon="5.45218">
        <ele>1428.66</ele>
      </trkpt>
      <trkpt lat="44.88968" lon="5.45191">
        <ele>1425.29</ele>
      </trkpt>
      <trkpt lat="44.8897" lon="5.45138">
        <ele>1423.37</ele>
      </trkpt>
      <trkpt lat="44.88972" lon="5.45112">
        <ele>1421.45</ele>
      </trkpt>
      <trkpt lat="44.88969" lon="5.45078">
        <ele>1419.52</ele>
      </trkpt>
      <trkpt lat="44.88944" lon="5.45067">
        <ele>1417.6</ele>
      </trkpt>
      <trkpt lat="44.88932" lon="5.4503">
        <ele>1416.64</ele>
      </trkpt>
      <trkpt lat="44.88925" lon="5.44981">
        <ele>1413.76</ele>
      </trkpt>
      <trkpt lat="44.88923" lon="5.44972">
        <ele>1411.83</ele>
      </trkpt>
      <trkpt lat="44.88921" lon="5.44967">
        <ele>1413.28</ele>
      </trkpt>
      <trkpt lat="44.88919" lon="5.44948">
        <ele>1411.83</ele>
      </trkpt>
      <trkpt lat="44.8892" lon="5.44936">
        <ele>1409.91</ele>
      </trkpt>
      <trkpt lat="44.8892" lon="5.44932">
        <ele>1410.87</ele>
      </trkpt>
      <trkpt lat="44.8892" lon="5.44929">
        <ele>1410.87</ele>
      </trkpt>
      <trkpt lat="44.88901" lon="5.4491">
        <ele>1409.43</ele>
      </trkpt>
      <trkpt lat="44.88882" lon="5.44901">
        <ele>1406.07</ele>
      </trkpt>
      <trkpt lat="44.88865" lon="5.44873">
        <ele>1406.07</ele>
      </trkpt>
      <trkpt lat="44.88854" lon="5.44838">
        <ele>1403.66</ele>
      </trkpt>
      <trkpt lat="44.88834" lon="5.44818">
        <ele>1403.66</ele>
      </trkpt>
      <trkpt lat="44.88819" lon="5.44803">
        <ele>1400.3</ele>
      </trkpt>
      <trkpt lat="44.88779" lon="5.44779">
        <ele>1400.78</ele>
      </trkpt>
      <trkpt lat="44.88775" lon="5.44775">
        <ele>1399.82</ele>
      </trkpt>
      <trkpt lat="44.88764" lon="5.44733">
        <ele>1400.3</ele>
      </trkpt>
      <trkpt lat="44.88767" lon="5.44714">
        <ele>1399.82</ele>
      </trkpt>
      <trkpt lat="44.88767" lon="5.44653">
        <ele>1398.37</ele>
      </trkpt>
      <trkpt lat="44.88763" lon="5.44608">
        <ele>1396.93</ele>
      </trkpt>
      <trkpt lat="44.88762" lon="5.44602">
        <ele>1395.49</ele>
      </trkpt>
      <trkpt lat="44.88762" lon="5.44595">
        <ele>1397.89</ele>
      </trkpt>
      <trkpt lat="44.88754" lon="5.44554">
        <ele>1394.53</ele>
      </trkpt>
      <trkpt lat="44.88752" lon="5.44548">
        <ele>1395.97</ele>
      </trkpt>
      <trkpt lat="44.88742" lon="5.44516">
        <ele>1393.57</ele>
      </trkpt>
      <trkpt lat="44.8874" lon="5.44512">
        <ele>1395.01</ele>
      </trkpt>
      <trkpt lat="44.88736" lon="5.44505">
        <ele>1393.57</ele>
      </trkpt>
      <trkpt lat="44.88715" lon="5.44493">
        <ele>1392.13</ele>
      </trkpt>
      <trkpt lat="44.88708" lon="5.44515">
        <ele>1390.68</ele>
      </trkpt>
      <trkpt lat="44.88718" lon="5.44545">
        <ele>1387.32</ele>
      </trkpt>
      <trkpt lat="44.88718" lon="5.44549">
        <ele>1387.8</ele>
      </trkpt>
      <trkpt lat="44.88717" lon="5.44553">
        <ele>1386.84</ele>
      </trkpt>
      <trkpt lat="44.88715" lon="5.44556">
        <ele>1385.88</ele>
      </trkpt>
      <trkpt lat="44.88714" lon="5.44558">
        <ele>1386.36</ele>
      </trkpt>
      <trkpt lat="44.88712" lon="5.44559">
        <ele>1384.92</ele>
      </trkpt>
      <trkpt lat="44.88704" lon="5.44558">
        <ele>1384.44</ele>
      </trkpt>
      <trkpt lat="44.88686" lon="5.44546">
        <ele>1383.47</ele>
      </trkpt>
      <trkpt lat="44.88662" lon="5.44541">
        <ele>1381.55</ele>
      </trkpt>
      <trkpt lat="44.88636" lon="5.44526">
        <ele>1377.71</ele>
      </trkpt>
      <trkpt lat="44.8861" lon="5.44528">
        <ele>1375.78</ele>
      </trkpt>
      <trkpt lat="44.88586" lon="5.44524">
        <ele>1372.42</ele>
      </trkpt>
      <trkpt lat="44.88565" lon="5.44519">
        <ele>1369.54</ele>
      </trkpt>
      <trkpt lat="44.8854" lon="5.44514">
        <ele>1367.13</ele>
      </trkpt>
      <trkpt lat="44.88519" lon="5.44503">
        <ele>1365.21</ele>
      </trkpt>
      <trkpt lat="44.88518" lon="5.44501">
        <ele>1364.25</ele>
      </trkpt>
      <trkpt lat="44.88496" lon="5.44491">
        <ele>1362.33</ele>
      </trkpt>
      <trkpt lat="44.88479" lon="5.44479">
        <ele>1359.44</ele>
      </trkpt>
      <trkpt lat="44.88478" lon="5.44478">
        <ele>1360.4</ele>
      </trkpt>
      <trkpt lat="44.88475" lon="5.44475">
        <ele>1359.44</ele>
      </trkpt>
      <trkpt lat="44.88474" lon="5.44474">
        <ele>1359.44</ele>
      </trkpt>
      <trkpt lat="44.88472" lon="5.44473">
        <ele>1358.96</ele>
      </trkpt>
      <trkpt lat="44.88471" lon="5.44472">
        <ele>1358.96</ele>
      </trkpt>
      <trkpt lat="44.8847" lon="5.44471">
        <ele>1358.96</ele>
      </trkpt>
      <trkpt lat="44.88468" lon="5.4447">
        <ele>1357.04</ele>
      </trkpt>
      <trkpt lat="44.88466" lon="5.44468">
        <ele>1359.44</ele>
      </trkpt>
      <trkpt lat="44.88464" lon="5.44467">
        <ele>1358.48</ele>
      </trkpt>
      <trkpt lat="44.88462" lon="5.44466">
        <ele>1358</ele>
      </trkpt>
      <trkpt lat="44.8846" lon="5.44465">
        <ele>1357.52</ele>
      </trkpt>
      <trkpt lat="44.88458" lon="5.44463">
        <ele>1357.04</ele>
      </trkpt>
      <trkpt lat="44.88443" lon="5.44458">
        <ele>1357.04</ele>
      </trkpt>
      <trkpt lat="44.88439" lon="5.44457">
        <ele>1356.08</ele>
      </trkpt>
      <trkpt lat="44.88433" lon="5.4446">
        <ele>1358.48</ele>
      </trkpt>
      <trkpt lat="44.88428" lon="5.44466">
        <ele>1356.56</ele>
      </trkpt>
      <trkpt lat="44.88422" lon="5.44473">
        <ele>1358.48</ele>
      </trkpt>
      <trkpt lat="44.88416" lon="5.44483">
        <ele>1357.52</ele>
      </trkpt>
      <trkpt lat="44.88408" lon="5.44492">
        <ele>1359.44</ele>
      </trkpt>
      <trkpt lat="44.88397" lon="5.44503">
        <ele>1360.4</ele>
      </trkpt>
      <trkpt lat="44.8835" lon="5.4453">
        <ele>1359.44</ele>
      </trkpt>
      <trkpt lat="44.88341" lon="5.44531">
        <ele>1362.81</ele>
      </trkpt>
      <trkpt lat="44.88334" lon="5.44532">
        <ele>1361.36</ele>
      </trkpt>
      <trkpt lat="44.88328" lon="5.44533">
        <ele>1363.29</ele>
      </trkpt>
      <trkpt lat="44.88322" lon="5.44534">
        <ele>1364.25</ele>
      </trkpt>
      <trkpt lat="44.88316" lon="5.44535">
        <ele>1363.77</ele>
      </trkpt>
      <trkpt lat="44.88439" lon="5.44457">
        <ele>1356.08</ele>
      </trkpt>
      <trkpt lat="44.88439" lon="5.44457">
        <ele>1356.08</ele>
      </trkpt>
      <trkpt lat="44.88433" lon="5.4446">
        <ele>1358.48</ele>
      </trkpt>
      <trkpt lat="44.88428" lon="5.44466">
        <ele>1356.56</ele>
      </trkpt>
      <trkpt lat="44.88422" lon="5.44473">
        <ele>1358.48</ele>
      </trkpt>
      <trkpt lat="44.88416" lon="5.44483">
        <ele>1357.52</ele>
      </trkpt>
      <trkpt lat="44.88408" lon="5.44492">
        <ele>1359.44</ele>
      </trkpt>
      <trkpt lat="44.88397" lon="5.44503">
        <ele>1360.4</ele>
      </trkpt>
      <trkpt lat="44.8835" lon="5.4453">
        <ele>1359.44</ele>
      </trkpt>
      <trkpt lat="44.88341" lon="5.44531">
        <ele>1362.81</ele>
      </trkpt>
      <trkpt lat="44.88334" lon="5.44532">
        <ele>1361.36</ele>
      </trkpt>
      <trkpt lat="44.88328" lon="5.44533">
        <ele>1363.29</ele>
      </trkpt>
      <trkpt lat="44.88322" lon="5.44534">
        <ele>1364.25</ele>
      </trkpt>
      <trkpt lat="44.88316" lon="5.44535">
        <ele>1363.77</ele>
      </trkpt>
      <trkpt lat="44.8831" lon="5.44534">
        <ele>1364.73</ele>
      </trkpt>
      <trkpt lat="44.88298" lon="5.44527">
        <ele>1365.69</ele>
      </trkpt>
      <trkpt lat="44.88277" lon="5.44491">
        <ele>1368.09</ele>
      </trkpt>
      <trkpt lat="44.88253" lon="5.4446">
        <ele>1369.54</ele>
      </trkpt>
      <trkpt lat="44.88249" lon="5.44456">
        <ele>1370.5</ele>
      </trkpt>
      <trkpt lat="44.88244" lon="5.44452">
        <ele>1370.5</ele>
      </trkpt>
      <trkpt lat="44.88211" lon="5.44444">
        <ele>1369.54</ele>
      </trkpt>
      <trkpt lat="44.88195" lon="5.44439">
        <ele>1370.98</ele>
      </trkpt>
      <trkpt lat="44.88191" lon="5.44438">
        <ele>1370.5</ele>
      </trkpt>
      <trkpt lat="44.88187" lon="5.44436">
        <ele>1370.02</ele>
      </trkpt>
      <trkpt lat="44.88182" lon="5.44435">
        <ele>1370.98</ele>
      </trkpt>
      <trkpt lat="44.88178" lon="5.44434">
        <ele>1371.46</ele>
      </trkpt>
      <trkpt lat="44.88173" lon="5.44433">
        <ele>1370.02</ele>
      </trkpt>
      <trkpt lat="44.88169" lon="5.44433">
        <ele>1370.02</ele>
      </trkpt>
      <trkpt lat="44.88165" lon="5.44436">
        <ele>1370.98</ele>
      </trkpt>
      <trkpt lat="44.88162" lon="5.44441">
        <ele>1370.5</ele>
      </trkpt>
      <trkpt lat="44.88159" lon="5.44446">
        <ele>1371.46</ele>
      </trkpt>
      <trkpt lat="44.88158" lon="5.44455">
        <ele>1370.8242188</ele>
      </trkpt>
      <trkpt lat="44.88156" lon="5.4447">
        <ele>1370.875</ele>
      </trkpt>
      <trkpt lat="44.88153" lon="5.44488">
        <ele>1370.578125</ele>
      </trkpt>
      <trkpt lat="44.88151" lon="5.44503">
        <ele>1370.3789063</ele>
      </trkpt>
      <trkpt lat="44.88148" lon="5.44519">
        <ele>1370.5117188</ele>
      </trkpt>
      <trkpt lat="44.88145" lon="5.44536">
        <ele>1370.4101563</ele>
      </trkpt>
      <trkpt lat="44.8814" lon="5.44563">
        <ele>1369.8125</ele>
      </trkpt>
      <trkpt lat="44.8814" lon="5.44563">
        <ele>1369.8320313</ele>
      </trkpt>
      <trkpt lat="44.88136" lon="5.44584">
        <ele>1369.328125</ele>
      </trkpt>
      <trkpt lat="44.88134" lon="5.44601">
        <ele>1369.0234375</ele>
      </trkpt>
      <trkpt lat="44.8813" lon="5.44622">
        <ele>1368.875</ele>
      </trkpt>
      <trkpt lat="44.88125" lon="5.44628">
        <ele>1369.1015625</ele>
      </trkpt>
      <trkpt lat="44.88118" lon="5.44634">
        <ele>1369.6445313</ele>
      </trkpt>
      <trkpt lat="44.8811" lon="5.44642">
        <ele>1370.1796875</ele>
      </trkpt>
      <trkpt lat="44.88104" lon="5.44647">
        <ele>1370.40625</ele>
      </trkpt>
      <trkpt lat="44.88098" lon="5.44653">
        <ele>1370.59375</ele>
      </trkpt>
      <trkpt lat="44.88086" lon="5.44665">
        <ele>1371.0078125</ele>
      </trkpt>
      <trkpt lat="44.88072" lon="5.4468">
        <ele>1371.9648438</ele>
      </trkpt>
      <trkpt lat="44.88065" lon="5.44686">
        <ele>1372.7578125</ele>
      </trkpt>
      <trkpt lat="44.88063" lon="5.44693">
        <ele>1372.8554688</ele>
      </trkpt>
      <trkpt lat="44.88061" lon="5.44701">
        <ele>1373.0234375</ele>
      </trkpt>
      <trkpt lat="44.88057" lon="5.4471">
        <ele>1373.2421875</ele>
      </trkpt>
      <trkpt lat="44.88054" lon="5.44719">
        <ele>1373.3554688</ele>
      </trkpt>
      <trkpt lat="44.88052" lon="5.44732">
        <ele>1373.3828125</ele>
      </trkpt>
      <trkpt lat="44.88049" lon="5.44742">
        <ele>1373.5585938</ele>
      </trkpt>
      <trkpt lat="44.88046" lon="5.4475">
        <ele>1373.7929688</ele>
      </trkpt>
      <trkpt lat="44.8804" lon="5.44761">
        <ele>1373.9296875</ele>
      </trkpt>
      <trkpt lat="44.88036" lon="5.44767">
        <ele>1373.984375</ele>
      </trkpt>
      <trkpt lat="44.88036" lon="5.44767">
        <ele>1373.9726563</ele>
      </trkpt>
      <trkpt lat="44.88032" lon="5.44769">
        <ele>1374.1835938</ele>
      </trkpt>
      <trkpt lat="44.88031" lon="5.44769">
        <ele>1374.21875</ele>
      </trkpt>
      <trkpt lat="44.88027" lon="5.44771">
        <ele>1374.4492188</ele>
      </trkpt>
      <trkpt lat="44.8802" lon="5.44773">
        <ele>1374.8671875</ele>
      </trkpt>
      <trkpt lat="44.88013" lon="5.44774">
        <ele>1375.4414063</ele>
      </trkpt>
      <trkpt lat="44.88005" lon="5.44776">
        <ele>1376.3554688</ele>
      </trkpt>
      <trkpt lat="44.87999" lon="5.44777">
        <ele>1376.8789063</ele>
      </trkpt>
      <trkpt lat="44.87995" lon="5.44779">
        <ele>1377.25</ele>
      </trkpt>
      <trkpt lat="44.87991" lon="5.44782">
        <ele>1377.578125</ele>
      </trkpt>
      <trkpt lat="44.8799" lon="5.44782">
        <ele>1377.6054688</ele>
      </trkpt>
      <trkpt lat="44.87986" lon="5.44785">
        <ele>1378.1367188</ele>
      </trkpt>
      <trkpt lat="44.87983" lon="5.44792">
        <ele>1378.3242188</ele>
      </trkpt>
      <trkpt lat="44.87982" lon="5.44802">
        <ele>1378.0703125</ele>
      </trkpt>
      <trkpt lat="44.87982" lon="5.44813">
        <ele>1377.5976563</ele>
      </trkpt>
      <trkpt lat="44.87984" lon="5.44827">
        <ele>1376.7617188</ele>
      </trkpt>
      <trkpt lat="44.87986" lon="5.44839">
        <ele>1376.2851563</ele>
      </trkpt>
      <trkpt lat="44.87985" lon="5.44848">
        <ele>1376.4414063</ele>
      </trkpt>
      <trkpt lat="44.87982" lon="5.44857">
        <ele>1376.828125</ele>
      </trkpt>
      <trkpt lat="44.87978" lon="5.44861">
        <ele>1377.375</ele>
      </trkpt>
      <trkpt lat="44.87974" lon="5.44861">
        <ele>1377.9570313</ele>
      </trkpt>
      <trkpt lat="44.87973" lon="5.44861">
        <ele>1378.109375</ele>
      </trkpt>
      <trkpt lat="44.87969" lon="5.44861">
        <ele>1378.6914063</ele>
      </trkpt>
      <trkpt lat="44.8796" lon="5.4486">
        <ele>1379.9765625</ele>
      </trkpt>
      <trkpt lat="44.87955" lon="5.4486">
        <ele>1380.859375</ele>
      </trkpt>
      <trkpt lat="44.8795" lon="5.44861">
        <ele>1381.828125</ele>
      </trkpt>
      <trkpt lat="44.87947" lon="5.44866">
        <ele>1382.328125</ele>
      </trkpt>
      <trkpt lat="44.87941" lon="5.44877">
        <ele>1383.0195313</ele>
      </trkpt>
      <trkpt lat="44.87937" lon="5.44888">
        <ele>1383.3789063</ele>
      </trkpt>
      <trkpt lat="44.87937" lon="5.44888">
        <ele>1383.3671875</ele>
      </trkpt>
      <trkpt lat="44.87934" lon="5.44899">
        <ele>1383.703125</ele>
      </trkpt>
      <trkpt lat="44.87932" lon="5.4491">
        <ele>1384.0820313</ele>
      </trkpt>
      <trkpt lat="44.87929" lon="5.44921">
        <ele>1384.7773438</ele>
      </trkpt>
      <trkpt lat="44.87925" lon="5.44934">
        <ele>1385.4765625</ele>
      </trkpt>
      <trkpt lat="44.87922" lon="5.44944">
        <ele>1386.234375</ele>
      </trkpt>
      <trkpt lat="44.87922" lon="5.44944">
        <ele>1386.2929688</ele>
      </trkpt>
      <trkpt lat="44.87921" lon="5.44955">
        <ele>1386.5234375</ele>
      </trkpt>
      <trkpt lat="44.8792" lon="5.44966">
        <ele>1386.640625</ele>
      </trkpt>
      <trkpt lat="44.8792" lon="5.44966">
        <ele>1386.640625</ele>
      </trkpt>
      <trkpt lat="44.8792" lon="5.44978">
        <ele>1386.6992188</ele>
      </trkpt>
      <trkpt lat="44.87918" lon="5.44987">
        <ele>1387.1054688</ele>
      </trkpt>
      <trkpt lat="44.87915" lon="5.44994">
        <ele>1387.6328125</ele>
      </trkpt>
      <trkpt lat="44.87913" lon="5.45002">
        <ele>1388.1484375</ele>
      </trkpt>
      <trkpt lat="44.87913" lon="5.45002">
        <ele>1388.1367188</ele>
      </trkpt>
      <trkpt lat="44.87911" lon="5.45013">
        <ele>1388.203125</ele>
      </trkpt>
      <trkpt lat="44.87911" lon="5.45014">
        <ele>1388.28125</ele>
      </trkpt>
      <trkpt lat="44.8791" lon="5.45025">
        <ele>1388.15625</ele>
      </trkpt>
      <trkpt lat="44.8791" lon="5.45026">
        <ele>1388.1484375</ele>
      </trkpt>
      <trkpt lat="44.87907" lon="5.45036">
        <ele>1388.578125</ele>
      </trkpt>
      <trkpt lat="44.87902" lon="5.45042">
        <ele>1389.484375</ele>
      </trkpt>
      <trkpt lat="44.87898" lon="5.45046">
        <ele>1400.78</ele>
      </trkpt>
      <trkpt lat="44.87883" lon="5.45048">
        <ele>1401.74</ele>
      </trkpt>
      <trkpt lat="44.87877" lon="5.45048">
        <ele>1402.22</ele>
      </trkpt>
      <trkpt lat="44.8787" lon="5.45046">
        <ele>1401.74</ele>
      </trkpt>
      <trkpt lat="44.87864" lon="5.45044">
        <ele>1402.22</ele>
      </trkpt>
      <trkpt lat="44.87859" lon="5.45042">
        <ele>1403.18</ele>
      </trkpt>
      <trkpt lat="44.87853" lon="5.45043">
        <ele>1403.18</ele>
      </trkpt>
      <trkpt lat="44.87848" lon="5.45047">
        <ele>1405.1</ele>
      </trkpt>
      <trkpt lat="44.87844" lon="5.45056">
        <ele>1405.58</ele>
      </trkpt>
      <trkpt lat="44.87839" lon="5.4508">
        <ele>1407.03</ele>
      </trkpt>
      <trkpt lat="44.87836" lon="5.45091">
        <ele>1406.07</ele>
      </trkpt>
      <trkpt lat="44.87833" lon="5.45102">
        <ele>1407.51</ele>
      </trkpt>
      <trkpt lat="44.87822" lon="5.45122">
        <ele>1408.95</ele>
      </trkpt>
      <trkpt lat="44.87802" lon="5.45148">
        <ele>1412.31</ele>
      </trkpt>
      <trkpt lat="44.87789" lon="5.45171">
        <ele>1412.79</ele>
      </trkpt>
      <trkpt lat="44.87787" lon="5.45213">
        <ele>1415.68</ele>
      </trkpt>
      <trkpt lat="44.87789" lon="5.45219">
        <ele>1414.24</ele>
      </trkpt>
      <trkpt lat="44.87793" lon="5.45232">
        <ele>1415.2</ele>
      </trkpt>
      <trkpt lat="44.87798" lon="5.45262">
        <ele>1414.24</ele>
      </trkpt>
      <trkpt lat="44.87805" lon="5.45296">
        <ele>1414.72</ele>
      </trkpt>
      <trkpt lat="44.87806" lon="5.45305">
        <ele>1415.2</ele>
      </trkpt>
      <trkpt lat="44.87806" lon="5.45352">
        <ele>1415.68</ele>
      </trkpt>
      <trkpt lat="44.87806" lon="5.45361">
        <ele>1417.12</ele>
      </trkpt>
      <trkpt lat="44.87802" lon="5.45404">
        <ele>1419.04</ele>
      </trkpt>
      <trkpt lat="44.87801" lon="5.45414">
        <ele>1419.04</ele>
      </trkpt>
      <trkpt lat="44.87801" lon="5.45424">
        <ele>1419.52</ele>
      </trkpt>
      <trkpt lat="44.87801" lon="5.45434">
        <ele>1420</ele>
      </trkpt>
      <trkpt lat="44.87803" lon="5.45444">
        <ele>1421.93</ele>
      </trkpt>
      <trkpt lat="44.87803" lon="5.45454">
        <ele>1422.41</ele>
      </trkpt>
      <trkpt lat="44.87802" lon="5.45463">
        <ele>1422.41</ele>
      </trkpt>
      <trkpt lat="44.87799" lon="5.45472">
        <ele>1423.85</ele>
      </trkpt>
      <trkpt lat="44.87795" lon="5.45481">
        <ele>1424.33</ele>
      </trkpt>
      <trkpt lat="44.87782" lon="5.45504">
        <ele>1426.73</ele>
      </trkpt>
      <trkpt lat="44.87776" lon="5.45517">
        <ele>1427.21</ele>
      </trkpt>
      <trkpt lat="44.87771" lon="5.4553">
        <ele>1427.21</ele>
      </trkpt>
      <trkpt lat="44.87766" lon="5.45543">
        <ele>1429.14</ele>
      </trkpt>
      <trkpt lat="44.87764" lon="5.45547">
        <ele>1428.18</ele>
      </trkpt>
      <trkpt lat="44.87762" lon="5.4555">
        <ele>1428.66</ele>
      </trkpt>
      <trkpt lat="44.87761" lon="5.45552">
        <ele>1429.62</ele>
      </trkpt>
      <trkpt lat="44.8776" lon="5.45554">
        <ele>1429.62</ele>
      </trkpt>
      <trkpt lat="44.8776" lon="5.45554">
        <ele>1429.62</ele>
      </trkpt>
      <trkpt lat="44.87756" lon="5.4557">
        <ele>1431.54</ele>
      </trkpt>
      <trkpt lat="44.87754" lon="5.4559">
        <ele>1434.42</ele>
      </trkpt>
      <trkpt lat="44.8775" lon="5.45601">
        <ele>1434.91</ele>
      </trkpt>
      <trkpt lat="44.87747" lon="5.4561">
        <ele>1436.83</ele>
      </trkpt>
      <trkpt lat="44.87743" lon="5.45619">
        <ele>1436.83</ele>
      </trkpt>
      <trkpt lat="44.87738" lon="5.45628">
        <ele>1437.31</ele>
      </trkpt>
      <trkpt lat="44.87734" lon="5.45637">
        <ele>1437.31</ele>
      </trkpt>
      <trkpt lat="44.87724" lon="5.45655">
        <ele>1438.75</ele>
      </trkpt>
      <trkpt lat="44.87721" lon="5.45664">
        <ele>1438.75</ele>
      </trkpt>
      <trkpt lat="44.87714" lon="5.45684">
        <ele>1441.15</ele>
      </trkpt>
      <trkpt lat="44.87711" lon="5.45694">
        <ele>1442.11</ele>
      </trkpt>
      <trkpt lat="44.87691" lon="5.45785">
        <ele>1445.48</ele>
      </trkpt>
      <trkpt lat="44.87662" lon="5.45827">
        <ele>1447.4</ele>
      </trkpt>
      <trkpt lat="44.87646" lon="5.45856">
        <ele>1447.88</ele>
      </trkpt>
      <trkpt lat="44.87624" lon="5.45894">
        <ele>1450.29</ele>
      </trkpt>
      <trkpt lat="44.87619" lon="5.45904">
        <ele>1451.25</ele>
      </trkpt>
      <trkpt lat="44.87615" lon="5.45915">
        <ele>1451.73</ele>
      </trkpt>
      <trkpt lat="44.87611" lon="5.45925">
        <ele>1452.21</ele>
      </trkpt>
      <trkpt lat="44.87608" lon="5.45935">
        <ele>1453.17</ele>
      </trkpt>
      <trkpt lat="44.87605" lon="5.45945">
        <ele>1453.17</ele>
      </trkpt>
      <trkpt lat="44.87597" lon="5.45963">
        <ele>1455.57</ele>
      </trkpt>
      <trkpt lat="44.87592" lon="5.45971">
        <ele>1455.09</ele>
      </trkpt>
      <trkpt lat="44.87588" lon="5.4598">
        <ele>1455.57</ele>
      </trkpt>
      <trkpt lat="44.87574" lon="5.46003">
        <ele>1457.98</ele>
      </trkpt>
      <trkpt lat="44.87562" lon="5.46024">
        <ele>1458.46</ele>
      </trkpt>
      <trkpt lat="44.87502" lon="5.46126">
        <ele>1461.34</ele>
      </trkpt>
      <trkpt lat="44.87477" lon="5.46185">
        <ele>1462.78</ele>
      </trkpt>
      <trkpt lat="44.87475" lon="5.46191">
        <ele>1463.26</ele>
      </trkpt>
      <trkpt lat="44.87472" lon="5.46197">
        <ele>1464.23</ele>
      </trkpt>
      <trkpt lat="44.8746" lon="5.46213">
        <ele>1463.74</ele>
      </trkpt>
      <trkpt lat="44.87457" lon="5.46219">
        <ele>1463.26</ele>
      </trkpt>
      <trkpt lat="44.87454" lon="5.46226">
        <ele>1463.74</ele>
      </trkpt>
      <trkpt lat="44.87438" lon="5.4627">
        <ele>1465.19</ele>
      </trkpt>
      <trkpt lat="44.87435" lon="5.46275">
        <ele>1465.19</ele>
      </trkpt>
      <trkpt lat="44.87413" lon="5.46304">
        <ele>1466.15</ele>
      </trkpt>
      <trkpt lat="44.8741" lon="5.46309">
        <ele>1465.67</ele>
      </trkpt>
      <trkpt lat="44.87373" lon="5.46387">
        <ele>1468.07</ele>
      </trkpt>
      <trkpt lat="44.87365" lon="5.46402">
        <ele>1469.03</ele>
      </trkpt>
      <trkpt lat="44.87362" lon="5.46407">
        <ele>1469.99</ele>
      </trkpt>
      <trkpt lat="44.8734" lon="5.4648">
        <ele>1470.95</ele>
      </trkpt>
      <trkpt lat="44.87327" lon="5.46537">
        <ele>1470.47</ele>
      </trkpt>
      <trkpt lat="44.87316" lon="5.4661">
        <ele>1469.99</ele>
      </trkpt>
      <trkpt lat="44.87315" lon="5.46615">
        <ele>1469.99</ele>
      </trkpt>
      <trkpt lat="44.87315" lon="5.46621">
        <ele>1469.99</ele>
      </trkpt>
      <trkpt lat="44.87314" lon="5.46627">
        <ele>1470.47</ele>
      </trkpt>
      <trkpt lat="44.87313" lon="5.46633">
        <ele>1470.47</ele>
      </trkpt>
      <trkpt lat="44.87305" lon="5.46669">
        <ele>1470.47</ele>
      </trkpt>
      <trkpt lat="44.87283" lon="5.46745">
        <ele>1472.4</ele>
      </trkpt>
      <trkpt lat="44.87281" lon="5.46751">
        <ele>1471.92</ele>
      </trkpt>
      <trkpt lat="44.87272" lon="5.46789">
        <ele>1472.88</ele>
      </trkpt>
      <trkpt lat="44.8727" lon="5.46795">
        <ele>1472.4</ele>
      </trkpt>
      <trkpt lat="44.87267" lon="5.468">
        <ele>1472.4</ele>
      </trkpt>
      <trkpt lat="44.8724" lon="5.4683">
        <ele>1472.88</ele>
      </trkpt>
      <trkpt lat="44.87203" lon="5.46885">
        <ele>1474.32</ele>
      </trkpt>
      <trkpt lat="44.87175" lon="5.46906">
        <ele>1475.28</ele>
      </trkpt>
      <trkpt lat="44.87174" lon="5.46907">
        <ele>1475.28</ele>
      </trkpt>
      <trkpt lat="44.87172" lon="5.46909">
        <ele>1475.28</ele>
      </trkpt>
      <trkpt lat="44.87171" lon="5.4691">
        <ele>1475.28</ele>
      </trkpt>
      <trkpt lat="44.8717" lon="5.46911">
        <ele>1474.8</ele>
      </trkpt>
      <trkpt lat="44.87166" lon="5.46914">
        <ele>1475.28</ele>
      </trkpt>
      <trkpt lat="44.87164" lon="5.46914">
        <ele>1475.28</ele>
      </trkpt>
      <trkpt lat="44.87152" lon="5.46952">
        <ele>1477.68</ele>
      </trkpt>
      <trkpt lat="44.87148" lon="5.46966">
        <ele>1477.2</ele>
      </trkpt>
      <trkpt lat="44.87146" lon="5.4698">
        <ele>1477.2</ele>
      </trkpt>
      <trkpt lat="44.87145" lon="5.46988">
        <ele>1478.16</ele>
      </trkpt>
      <trkpt lat="44.87121" lon="5.47087">
        <ele>1479.61</ele>
      </trkpt>
      <trkpt lat="44.87119" lon="5.47094">
        <ele>1479.61</ele>
      </trkpt>
      <trkpt lat="44.87116" lon="5.471">
        <ele>1479.61</ele>
      </trkpt>
      <trkpt lat="44.87106" lon="5.47119">
        <ele>1480.09</ele>
      </trkpt>
      <trkpt lat="44.87102" lon="5.47124">
        <ele>1480.09</ele>
      </trkpt>
      <trkpt lat="44.87082" lon="5.47142">
        <ele>1480.57</ele>
      </trkpt>
      <trkpt lat="44.87067" lon="5.47158">
        <ele>1481.53</ele>
      </trkpt>
      <trkpt lat="44.87027" lon="5.472">
        <ele>1484.89</ele>
      </trkpt>
      <trkpt lat="44.87015" lon="5.47216">
        <ele>1486.34</ele>
      </trkpt>
      <trkpt lat="44.87" lon="5.47235">
        <ele>1487.78</ele>
      </trkpt>
      <trkpt lat="44.86996" lon="5.47239">
        <ele>1487.78</ele>
      </trkpt>
      <trkpt lat="44.86992" lon="5.47241">
        <ele>1487.78</ele>
      </trkpt>
      <trkpt lat="44.86984" lon="5.47242">
        <ele>1487.78</ele>
      </trkpt>
      <trkpt lat="44.8698" lon="5.47242">
        <ele>1487.78</ele>
      </trkpt>
      <trkpt lat="44.86975" lon="5.47242">
        <ele>1487.3</ele>
      </trkpt>
      <trkpt lat="44.8697" lon="5.47243">
        <ele>1487.3</ele>
      </trkpt>
      <trkpt lat="44.86965" lon="5.47244">
        <ele>1488.74</ele>
      </trkpt>
      <trkpt lat="44.86961" lon="5.47247">
        <ele>1488.74</ele>
      </trkpt>
      <trkpt lat="44.86957" lon="5.47251">
        <ele>1488.74</ele>
      </trkpt>
      <trkpt lat="44.86954" lon="5.47256">
        <ele>1489.22</ele>
      </trkpt>
      <trkpt lat="44.86949" lon="5.47268">
        <ele>1488.74</ele>
      </trkpt>
      <trkpt lat="44.8692" lon="5.47328">
        <ele>1492.1</ele>
      </trkpt>
      <trkpt lat="44.86911" lon="5.47342">
        <ele>1492.1</ele>
      </trkpt>
      <trkpt lat="44.86908" lon="5.47346">
        <ele>1492.58</ele>
      </trkpt>
      <trkpt lat="44.869" lon="5.47354">
        <ele>1493.55</ele>
      </trkpt>
      <trkpt lat="44.86897" lon="5.47358">
        <ele>1493.06</ele>
      </trkpt>
      <trkpt lat="44.86884" lon="5.47379">
        <ele>1493.55</ele>
      </trkpt>
      <trkpt lat="44.86871" lon="5.47394">
        <ele>1494.51</ele>
      </trkpt>
      <trkpt lat="44.86866" lon="5.47403">
        <ele>1494.51</ele>
      </trkpt>
      <trkpt lat="44.86863" lon="5.47407">
        <ele>1494.51</ele>
      </trkpt>
      <trkpt lat="44.8686" lon="5.47412">
        <ele>1494.51</ele>
      </trkpt>
      <trkpt lat="44.86858" lon="5.47416">
        <ele>1494.51</ele>
      </trkpt>
      <trkpt lat="44.86855" lon="5.47421">
        <ele>1494.51</ele>
      </trkpt>
      <trkpt lat="44.86852" lon="5.47426">
        <ele>1494.51</ele>
      </trkpt>
      <trkpt lat="44.86849" lon="5.4743">
        <ele>1494.51</ele>
      </trkpt>
      <trkpt lat="44.86806" lon="5.47473">
        <ele>1496.91</ele>
      </trkpt>
      <trkpt lat="44.86766" lon="5.47525">
        <ele>1499.31</ele>
      </trkpt>
      <trkpt lat="44.86764" lon="5.47527">
        <ele>1499.79</ele>
      </trkpt>
      <trkpt lat="44.86762" lon="5.4753">
        <ele>1499.79</ele>
      </trkpt>
      <trkpt lat="44.8676" lon="5.47532">
        <ele>1499.79</ele>
      </trkpt>
      <trkpt lat="44.86758" lon="5.47533">
        <ele>1499.79</ele>
      </trkpt>
      <trkpt lat="44.86757" lon="5.47535">
        <ele>1499.79</ele>
      </trkpt>
      <trkpt lat="44.86755" lon="5.47538">
        <ele>1500.27</ele>
      </trkpt>
      <trkpt lat="44.86752" lon="5.4754">
        <ele>1499.79</ele>
      </trkpt>
      <trkpt lat="44.86747" lon="5.47547">
        <ele>1499.79</ele>
      </trkpt>
      <trkpt lat="44.86747" lon="5.47547">
        <ele>1499.31</ele>
      </trkpt>
      <trkpt lat="44.86747" lon="5.47548">
        <ele>1499.79</ele>
      </trkpt>
      <trkpt lat="44.86736" lon="5.47557">
        <ele>1499.79</ele>
      </trkpt>
      <trkpt lat="44.86699" lon="5.47549">
        <ele>1499.79</ele>
      </trkpt>
      <trkpt lat="44.86669" lon="5.47528">
        <ele>1498.35</ele>
      </trkpt>
      <trkpt lat="44.86636" lon="5.47511">
        <ele>1498.35</ele>
      </trkpt>
      <trkpt lat="44.86607" lon="5.47512">
        <ele>1496.91</ele>
      </trkpt>
      <trkpt lat="44.86568" lon="5.47537">
        <ele>1497.87</ele>
      </trkpt>
      <trkpt lat="44.86545" lon="5.47566">
        <ele>1499.31</ele>
      </trkpt>
      <trkpt lat="44.86501" lon="5.47591">
        <ele>1501.24</ele>
      </trkpt>
      <trkpt lat="44.86481" lon="5.47586">
        <ele>1501.24</ele>
      </trkpt>
      <trkpt lat="44.86449" lon="5.47577">
        <ele>1500.27</ele>
      </trkpt>
      <trkpt lat="44.86435" lon="5.47579">
        <ele>1501.24</ele>
      </trkpt>
      <trkpt lat="44.86431" lon="5.47579">
        <ele>1501.24</ele>
      </trkpt>
      <trkpt lat="44.86427" lon="5.4758">
        <ele>1501.72</ele>
      </trkpt>
      <trkpt lat="44.86422" lon="5.47581">
        <ele>1501.72</ele>
      </trkpt>
      <trkpt lat="44.86419" lon="5.47581">
        <ele>1501.72</ele>
      </trkpt>
      <trkpt lat="44.86415" lon="5.4758">
        <ele>1501.72</ele>
      </trkpt>
      <trkpt lat="44.86412" lon="5.47579">
        <ele>1501.72</ele>
      </trkpt>
      <trkpt lat="44.86408" lon="5.47578">
        <ele>1501.72</ele>
      </trkpt>
      <trkpt lat="44.86404" lon="5.47575">
        <ele>1501.24</ele>
      </trkpt>
      <trkpt lat="44.86401" lon="5.47573">
        <ele>1501.24</ele>
      </trkpt>
      <trkpt lat="44.86397" lon="5.4757">
        <ele>1500.76</ele>
      </trkpt>
      <trkpt lat="44.8639" lon="5.4756">
        <ele>1501.24</ele>
      </trkpt>
      <trkpt lat="44.86386" lon="5.47555">
        <ele>1501.24</ele>
      </trkpt>
      <trkpt lat="44.86382" lon="5.4755">
        <ele>1501.72</ele>
      </trkpt>
      <trkpt lat="44.86377" lon="5.47545">
        <ele>1502.2</ele>
      </trkpt>
      <trkpt lat="44.86374" lon="5.47539">
        <ele>1502.2</ele>
      </trkpt>
      <trkpt lat="44.86369" lon="5.47535">
        <ele>1503.16</ele>
      </trkpt>
      <trkpt lat="44.86365" lon="5.47532">
        <ele>1503.64</ele>
      </trkpt>
      <trkpt lat="44.86356" lon="5.47528">
        <ele>1503.16</ele>
      </trkpt>
      <trkpt lat="44.86351" lon="5.47527">
        <ele>1503.64</ele>
      </trkpt>
      <trkpt lat="44.86348" lon="5.47523">
        <ele>1504.12</ele>
      </trkpt>
      <trkpt lat="44.8634" lon="5.47518">
        <ele>1503.64</ele>
      </trkpt>
      <trkpt lat="44.86325" lon="5.47513">
        <ele>1502.68</ele>
      </trkpt>
      <trkpt lat="44.86319" lon="5.47511">
        <ele>1503.16</ele>
      </trkpt>
      <trkpt lat="44.86305" lon="5.4751">
        <ele>1504.12</ele>
      </trkpt>
      <trkpt lat="44.863" lon="5.47508">
        <ele>1504.12</ele>
      </trkpt>
      <trkpt lat="44.86295" lon="5.47505">
        <ele>1504.12</ele>
      </trkpt>
      <trkpt lat="44.8629" lon="5.47503">
        <ele>1504.12</ele>
      </trkpt>
      <trkpt lat="44.86285" lon="5.47503">
        <ele>1504.6</ele>
      </trkpt>
      <trkpt lat="44.8628" lon="5.47505">
        <ele>1505.08</ele>
      </trkpt>
      <trkpt lat="44.86275" lon="5.47508">
        <ele>1504.6</ele>
      </trkpt>
      <trkpt lat="44.86262" lon="5.4752">
        <ele>1505.08</ele>
      </trkpt>
      <trkpt lat="44.86258" lon="5.47525">
        <ele>1505.56</ele>
      </trkpt>
      <trkpt lat="44.86248" lon="5.47541">
        <ele>1505.56</ele>
      </trkpt>
      <trkpt lat="44.86245" lon="5.47547">
        <ele>1505.56</ele>
      </trkpt>
      <trkpt lat="44.86242" lon="5.47552">
        <ele>1506.52</ele>
      </trkpt>
      <trkpt lat="44.86238" lon="5.47559">
        <ele>1507</ele>
      </trkpt>
      <trkpt lat="44.86225" lon="5.47578">
        <ele>1507</ele>
      </trkpt>
      <trkpt lat="44.86219" lon="5.47584">
        <ele>1507</ele>
      </trkpt>
      <trkpt lat="44.86214" lon="5.4759">
        <ele>1507.97</ele>
      </trkpt>
      <trkpt lat="44.86208" lon="5.47595">
        <ele>1508.45</ele>
      </trkpt>
      <trkpt lat="44.86202" lon="5.47599">
        <ele>1508.93</ele>
      </trkpt>
      <trkpt lat="44.86195" lon="5.47603">
        <ele>1508.93</ele>
      </trkpt>
      <trkpt lat="44.86189" lon="5.47606">
        <ele>1508.93</ele>
      </trkpt>
      <trkpt lat="44.86182" lon="5.47608">
        <ele>1509.89</ele>
      </trkpt>
      <trkpt lat="44.86175" lon="5.47608">
        <ele>1509.41</ele>
      </trkpt>
      <trkpt lat="44.86168" lon="5.47608">
        <ele>1508.93</ele>
      </trkpt>
      <trkpt lat="44.86161" lon="5.47607">
        <ele>1509.89</ele>
      </trkpt>
      <trkpt lat="44.86154" lon="5.47604">
        <ele>1510.85</ele>
      </trkpt>
      <trkpt lat="44.86148" lon="5.47602">
        <ele>1511.81</ele>
      </trkpt>
      <trkpt lat="44.86141" lon="5.47602">
        <ele>1511.33</ele>
      </trkpt>
      <trkpt lat="44.86135" lon="5.47602">
        <ele>1512.29</ele>
      </trkpt>
      <trkpt lat="44.86128" lon="5.47604">
        <ele>1511.81</ele>
      </trkpt>
      <trkpt lat="44.86122" lon="5.47608">
        <ele>1512.29</ele>
      </trkpt>
      <trkpt lat="44.86116" lon="5.47615">
        <ele>1512.77</ele>
      </trkpt>
      <trkpt lat="44.8611" lon="5.47623">
        <ele>1512.77</ele>
      </trkpt>
      <trkpt lat="44.86105" lon="5.47631">
        <ele>1514.21</ele>
      </trkpt>
      <trkpt lat="44.86085" lon="5.4765">
        <ele>1516.14</ele>
      </trkpt>
      <trkpt lat="44.86073" lon="5.47657">
        <ele>1518.54</ele>
      </trkpt>
      <trkpt lat="44.86067" lon="5.47659">
        <ele>1518.54</ele>
      </trkpt>
      <trkpt lat="44.86055" lon="5.47659">
        <ele>1518.54</ele>
      </trkpt>
      <trkpt lat="44.86049" lon="5.4766">
        <ele>1519.02</ele>
      </trkpt>
      <trkpt lat="44.86043" lon="5.47661">
        <ele>1519.5</ele>
      </trkpt>
      <trkpt lat="44.86024" lon="5.4767">
        <ele>1519.98</ele>
      </trkpt>
      <trkpt lat="44.86012" lon="5.47677">
        <ele>1520.46</ele>
      </trkpt>
      <trkpt lat="44.86006" lon="5.4768">
        <ele>1520.46</ele>
      </trkpt>
      <trkpt lat="44.86" lon="5.47683">
        <ele>1519.98</ele>
      </trkpt>
      <trkpt lat="44.85994" lon="5.47683">
        <ele>1520.94</ele>
      </trkpt>
      <trkpt lat="44.85987" lon="5.47681">
        <ele>1520.94</ele>
      </trkpt>
      <trkpt lat="44.8598" lon="5.47679">
        <ele>1520.46</ele>
      </trkpt>
      <trkpt lat="44.85957" lon="5.47682">
        <ele>1522.87</ele>
      </trkpt>
      <trkpt lat="44.85937" lon="5.47685">
        <ele>1524.31</ele>
      </trkpt>
      <trkpt lat="44.85931" lon="5.47686">
        <ele>1524.79</ele>
      </trkpt>
      <trkpt lat="44.85926" lon="5.47687">
        <ele>1525.27</ele>
      </trkpt>
      <trkpt lat="44.85915" lon="5.4769">
        <ele>1525.27</ele>
      </trkpt>
      <trkpt lat="44.85895" lon="5.47701">
        <ele>1526.23</ele>
      </trkpt>
      <trkpt lat="44.8589" lon="5.47703">
        <ele>1525.75</ele>
      </trkpt>
      <trkpt lat="44.85842" lon="5.47706">
        <ele>1526.71</ele>
      </trkpt>
      <trkpt lat="44.85837" lon="5.47705">
        <ele>1526.71</ele>
      </trkpt>
      <trkpt lat="44.85817" lon="5.47699">
        <ele>1527.67</ele>
      </trkpt>
      <trkpt lat="44.85813" lon="5.47697">
        <ele>1527.67</ele>
      </trkpt>
      <trkpt lat="44.85809" lon="5.47695">
        <ele>1527.67</ele>
      </trkpt>
      <trkpt lat="44.85781" lon="5.47691">
        <ele>1527.67</ele>
      </trkpt>
      <trkpt lat="44.85719" lon="5.47681">
        <ele>1530.08</ele>
      </trkpt>
      <trkpt lat="44.85688" lon="5.47686">
        <ele>1529.11</ele>
      </trkpt>
      <trkpt lat="44.85684" lon="5.47687">
        <ele>1530.08</ele>
      </trkpt>
      <trkpt lat="44.8568" lon="5.47689">
        <ele>1530.08</ele>
      </trkpt>
      <trkpt lat="44.85669" lon="5.47698">
        <ele>1530.56</ele>
      </trkpt>
      <trkpt lat="44.85665" lon="5.47701">
        <ele>1530.56</ele>
      </trkpt>
      <trkpt lat="44.85645" lon="5.47712">
        <ele>1530.56</ele>
      </trkpt>
      <trkpt lat="44.85634" lon="5.47719">
        <ele>1531.04</ele>
      </trkpt>
      <trkpt lat="44.85629" lon="5.47724">
        <ele>1531.52</ele>
      </trkpt>
      <trkpt lat="44.8562" lon="5.47735">
        <ele>1532</ele>
      </trkpt>
      <trkpt lat="44.85616" lon="5.47741">
        <ele>1532.48</ele>
      </trkpt>
      <trkpt lat="44.85605" lon="5.47751">
        <ele>1532.96</ele>
      </trkpt>
      <trkpt lat="44.856" lon="5.47756">
        <ele>1532.48</ele>
      </trkpt>
      <trkpt lat="44.85594" lon="5.47761">
        <ele>1533.92</ele>
      </trkpt>
      <trkpt lat="44.85583" lon="5.47772">
        <ele>1534.88</ele>
      </trkpt>
      <trkpt lat="44.85578" lon="5.47778">
        <ele>1534.88</ele>
      </trkpt>
      <trkpt lat="44.85572" lon="5.47784">
        <ele>1535.36</ele>
      </trkpt>
      <trkpt lat="44.85566" lon="5.47788">
        <ele>1535.84</ele>
      </trkpt>
      <trkpt lat="44.8556" lon="5.47791">
        <ele>1536.8</ele>
      </trkpt>
      <trkpt lat="44.85553" lon="5.4779">
        <ele>1536.8</ele>
      </trkpt>
      <trkpt lat="44.85547" lon="5.47789">
        <ele>1537.77</ele>
      </trkpt>
      <trkpt lat="44.85514" lon="5.47788">
        <ele>1538.73</ele>
      </trkpt>
      <trkpt lat="44.85471" lon="5.47792">
        <ele>1542.57</ele>
      </trkpt>
      <trkpt lat="44.85465" lon="5.47792">
        <ele>1542.09</ele>
      </trkpt>
      <trkpt lat="44.85458" lon="5.47793">
        <ele>1542.57</ele>
      </trkpt>
      <trkpt lat="44.85451" lon="5.47794">
        <ele>1543.53</ele>
      </trkpt>
      <trkpt lat="44.85444" lon="5.47795">
        <ele>1544.5</ele>
      </trkpt>
      <trkpt lat="44.85437" lon="5.47798">
        <ele>1544.5</ele>
      </trkpt>
      <trkpt lat="44.85431" lon="5.47801">
        <ele>1545.46</ele>
      </trkpt>
      <trkpt lat="44.85426" lon="5.47806">
        <ele>1545.46</ele>
      </trkpt>
      <trkpt lat="44.85421" lon="5.47813">
        <ele>1546.9</ele>
      </trkpt>
      <trkpt lat="44.85417" lon="5.4782">
        <ele>1547.38</ele>
      </trkpt>
      <trkpt lat="44.85412" lon="5.47826">
        <ele>1547.86</ele>
      </trkpt>
      <trkpt lat="44.85407" lon="5.47831">
        <ele>1547.86</ele>
      </trkpt>
      <trkpt lat="44.85402" lon="5.47835">
        <ele>1547.86</ele>
      </trkpt>
      <trkpt lat="44.85369" lon="5.47842">
        <ele>1550.26</ele>
      </trkpt>
      <trkpt lat="44.8536" lon="5.47842">
        <ele>1550.74</ele>
      </trkpt>
      <trkpt lat="44.85341" lon="5.47844">
        <ele>1552.19</ele>
      </trkpt>
      <trkpt lat="44.85336" lon="5.47845">
        <ele>1552.19</ele>
      </trkpt>
      <trkpt lat="44.85331" lon="5.47846">
        <ele>1553.15</ele>
      </trkpt>
      <trkpt lat="44.85327" lon="5.47846">
        <ele>1552.67</ele>
      </trkpt>
      <trkpt lat="44.85322" lon="5.47846">
        <ele>1553.15</ele>
      </trkpt>
      <trkpt lat="44.85317" lon="5.47845">
        <ele>1554.11</ele>
      </trkpt>
      <trkpt lat="44.85302" lon="5.47839">
        <ele>1554.59</ele>
      </trkpt>
      <trkpt lat="44.85298" lon="5.47838">
        <ele>1555.07</ele>
      </trkpt>
      <trkpt lat="44.85272" lon="5.47831">
        <ele>1556.03</ele>
      </trkpt>
      <trkpt lat="44.85232" lon="5.47832">
        <ele>1558.43</ele>
      </trkpt>
      <trkpt lat="44.8523" lon="5.47833">
        <ele>1558.43</ele>
      </trkpt>
      <trkpt lat="44.85228" lon="5.47834">
        <ele>1557.47</ele>
      </trkpt>
      <trkpt lat="44.85226" lon="5.47834">
        <ele>1558.43</ele>
      </trkpt>
      <trkpt lat="44.85225" lon="5.47834">
        <ele>1557.95</ele>
      </trkpt>
      <trkpt lat="44.8521" lon="5.47838">
        <ele>1556.99</ele>
      </trkpt>
      <trkpt lat="44.85209" lon="5.47839">
        <ele>1556.51</ele>
      </trkpt>
      <trkpt lat="44.85207" lon="5.4784">
        <ele>1556.99</ele>
      </trkpt>
      <trkpt lat="44.85205" lon="5.47841">
        <ele>1556.51</ele>
      </trkpt>
      <trkpt lat="44.85203" lon="5.47842">
        <ele>1556.03</ele>
      </trkpt>
      <trkpt lat="44.85202" lon="5.47843">
        <ele>1556.03</ele>
      </trkpt>
      <trkpt lat="44.85201" lon="5.47843">
        <ele>1555.55</ele>
      </trkpt>
      <trkpt lat="44.852" lon="5.47844">
        <ele>1556.03</ele>
      </trkpt>
      <trkpt lat="44.852" lon="5.47844">
        <ele>1552.67</ele>
      </trkpt>
      <trkpt lat="44.852" lon="5.47844">
        <ele>1556.03</ele>
      </trkpt>
      <trkpt lat="44.852" lon="5.47844">
        <ele>1549.3</ele>
      </trkpt>
      <trkpt lat="44.852" lon="5.47844">
        <ele>1559.88</ele>
      </trkpt>
      <trkpt lat="44.852" lon="5.47844">
        <ele>1555.07</ele>
      </trkpt>
      <trkpt lat="44.852" lon="5.47843">
        <ele>1554.59</ele>
      </trkpt>
      <trkpt lat="44.85199" lon="5.47844">
        <ele>1555.55</ele>
      </trkpt>
      <trkpt lat="44.85199" lon="5.47843">
        <ele>1555.07</ele>
      </trkpt>
      <trkpt lat="44.85198" lon="5.47842">
        <ele>1555.07</ele>
      </trkpt>
      <trkpt lat="44.85198" lon="5.47844">
        <ele>1555.55</ele>
      </trkpt>
      <trkpt lat="44.85197" lon="5.47844">
        <ele>1554.59</ele>
      </trkpt>
      <trkpt lat="44.85197" lon="5.47845">
        <ele>1554.59</ele>
      </trkpt>
      <trkpt lat="44.85197" lon="5.47845">
        <ele>1554.59</ele>
      </trkpt>
      <trkpt lat="44.85197" lon="5.47845">
        <ele>1554.59</ele>
      </trkpt>
      <trkpt lat="44.85198" lon="5.47844">
        <ele>1554.11</ele>
      </trkpt>
      <trkpt lat="44.85198" lon="5.47844">
        <ele>1554.59</ele>
      </trkpt>
      <trkpt lat="44.85199" lon="5.47843">
        <ele>1554.11</ele>
      </trkpt>
      <trkpt lat="44.85199" lon="5.47842">
        <ele>1554.11</ele>
      </trkpt>
      <trkpt lat="44.85199" lon="5.47842">
        <ele>1555.07</ele>
      </trkpt>
      <trkpt lat="44.85193" lon="5.47847">
        <ele>1554.11</ele>
      </trkpt>
      <trkpt lat="44.8518" lon="5.47855">
        <ele>1552.67</ele>
      </trkpt>
      <trkpt lat="44.85155" lon="5.47867">
        <ele>1551.22</ele>
      </trkpt>
      <trkpt lat="44.8512" lon="5.47857">
        <ele>1552.67</ele>
      </trkpt>
      <trkpt lat="44.85117" lon="5.47855">
        <ele>1548.82</ele>
      </trkpt>
      <trkpt lat="44.85111" lon="5.47852">
        <ele>1553.15</ele>
      </trkpt>
      <trkpt lat="44.85108" lon="5.47851">
        <ele>1549.78</ele>
      </trkpt>
      <trkpt lat="44.85078" lon="5.47838">
        <ele>1554.11</ele>
      </trkpt>
      <trkpt lat="44.85031" lon="5.47803">
        <ele>1555.55</ele>
      </trkpt>
      <trkpt lat="44.85029" lon="5.47801">
        <ele>1555.55</ele>
      </trkpt>
      <trkpt lat="44.85026" lon="5.47799">
        <ele>1555.07</ele>
      </trkpt>
      <trkpt lat="44.85024" lon="5.47798">
        <ele>1555.55</ele>
      </trkpt>
      <trkpt lat="44.85013" lon="5.47837">
        <ele>1554.11</ele>
      </trkpt>
      <trkpt lat="44.84993" lon="5.47893">
        <ele>1553.15</ele>
      </trkpt>
      <trkpt lat="44.84986" lon="5.47896">
        <ele>1554.59</ele>
      </trkpt>
      <trkpt lat="44.8494" lon="5.47908">
        <ele>1555.55</ele>
      </trkpt>
      <trkpt lat="44.8491" lon="5.47912">
        <ele>1556.99</ele>
      </trkpt>
      <trkpt lat="44.84865" lon="5.47916">
        <ele>1557.95</ele>
      </trkpt>
      <trkpt lat="44.8485" lon="5.47922">
        <ele>1558.92</ele>
      </trkpt>
      <trkpt lat="44.84827" lon="5.47943">
        <ele>1558.43</ele>
      </trkpt>
      <trkpt lat="44.84806" lon="5.47976">
        <ele>1556.99</ele>
      </trkpt>
      <trkpt lat="44.84776" lon="5.47986">
        <ele>1554.59</ele>
      </trkpt>
      <trkpt lat="44.8477" lon="5.47985">
        <ele>1557.95</ele>
      </trkpt>
      <trkpt lat="44.84767" lon="5.47983">
        <ele>1553.63</ele>
      </trkpt>
      <trkpt lat="44.84741" lon="5.47971">
        <ele>1556.99</ele>
      </trkpt>
      <trkpt lat="44.84724" lon="5.47966">
        <ele>1560.36</ele>
      </trkpt>
      <trkpt lat="44.84722" lon="5.47966">
        <ele>1550.26</ele>
      </trkpt>
      <trkpt lat="44.84699" lon="5.47971">
        <ele>1560.84</ele>
      </trkpt>
      <trkpt lat="44.84697" lon="5.47972">
        <ele>1570.45</ele>
      </trkpt>
      <trkpt lat="44.84695" lon="5.47973">
        <ele>1559.88</ele>
      </trkpt>
      <trkpt lat="44.84692" lon="5.47973">
        <ele>1561.32</ele>
      </trkpt>
      <trkpt lat="44.8469" lon="5.47973">
        <ele>1563.72</ele>
      </trkpt>
      <trkpt lat="44.84667" lon="5.47962">
        <ele>1559.4</ele>
      </trkpt>
      <trkpt lat="44.84664" lon="5.47962">
        <ele>1559.4</ele>
      </trkpt>
      <trkpt lat="44.84647" lon="5.47973">
        <ele>1557.95</ele>
      </trkpt>
      <trkpt lat="44.84623" lon="5.48004">
        <ele>1558.43</ele>
      </trkpt>
      <trkpt lat="44.8462" lon="5.48007">
        <ele>1558.43</ele>
      </trkpt>
      <trkpt lat="44.84609" lon="5.48012">
        <ele>1558.92</ele>
      </trkpt>
      <trkpt lat="44.84568" lon="5.4802">
        <ele>1560.84</ele>
      </trkpt>
      <trkpt lat="44.84556" lon="5.48032">
        <ele>1560.36</ele>
      </trkpt>
      <trkpt lat="44.84528" lon="5.48048">
        <ele>1559.4</ele>
      </trkpt>
      <trkpt lat="44.84523" lon="5.4805">
        <ele>1559.4</ele>
      </trkpt>
      <trkpt lat="44.84485" lon="5.48069">
        <ele>1561.32</ele>
      </trkpt>
      <trkpt lat="44.84477" lon="5.48075">
        <ele>1561.8</ele>
      </trkpt>
      <trkpt lat="44.84467" lon="5.48081">
        <ele>1562.28</ele>
      </trkpt>
      <trkpt lat="44.84443" lon="5.48092">
        <ele>1562.28</ele>
      </trkpt>
      <trkpt lat="44.84438" lon="5.48095">
        <ele>1562.28</ele>
      </trkpt>
      <trkpt lat="44.84431" lon="5.48098">
        <ele>1563.24</ele>
      </trkpt>
      <trkpt lat="44.84425" lon="5.48103">
        <ele>1563.24</ele>
      </trkpt>
      <trkpt lat="44.8442" lon="5.4811">
        <ele>1563.72</ele>
      </trkpt>
      <trkpt lat="44.84411" lon="5.48137">
        <ele>1567.09</ele>
      </trkpt>
      <trkpt lat="44.84407" lon="5.48154">
        <ele>1569.01</ele>
      </trkpt>
      <trkpt lat="44.84397" lon="5.48187">
        <ele>1569.97</ele>
      </trkpt>
      <trkpt lat="44.84395" lon="5.48196">
        <ele>1570.93</ele>
      </trkpt>
      <trkpt lat="44.8439" lon="5.4822">
        <ele>1572.37</ele>
      </trkpt>
      <trkpt lat="44.84386" lon="5.48236">
        <ele>1573.33</ele>
      </trkpt>
      <trkpt lat="44.84384" lon="5.48244">
        <ele>1573.33</ele>
      </trkpt>
      <trkpt lat="44.84382" lon="5.48261">
        <ele>1573.33</ele>
      </trkpt>
      <trkpt lat="44.84369" lon="5.48327">
        <ele>1577.18</ele>
      </trkpt>
      <trkpt lat="44.84367" lon="5.48334">
        <ele>1577.18</ele>
      </trkpt>
      <trkpt lat="44.84365" lon="5.4834">
        <ele>1578.14</ele>
      </trkpt>
      <trkpt lat="44.84364" lon="5.48346">
        <ele>1579.1</ele>
      </trkpt>
      <trkpt lat="44.84363" lon="5.48352">
        <ele>1578.62</ele>
      </trkpt>
      <trkpt lat="44.84362" lon="5.48356">
        <ele>1578.62</ele>
      </trkpt>
      <trkpt lat="44.84362" lon="5.48361">
        <ele>1579.1</ele>
      </trkpt>
      <trkpt lat="44.84362" lon="5.48365">
        <ele>1579.1</ele>
      </trkpt>
      <trkpt lat="44.84362" lon="5.48368">
        <ele>1578.62</ele>
      </trkpt>
      <trkpt lat="44.84362" lon="5.4837">
        <ele>1579.58</ele>
      </trkpt>
      <trkpt lat="44.84362" lon="5.48371">
        <ele>1579.58</ele>
      </trkpt>
      <trkpt lat="44.84362" lon="5.48374">
        <ele>1579.58</ele>
      </trkpt>
      <trkpt lat="44.84362" lon="5.48376">
        <ele>1579.58</ele>
      </trkpt>
      <trkpt lat="44.84362" lon="5.4838">
        <ele>1579.58</ele>
      </trkpt>
      <trkpt lat="44.84362" lon="5.48384">
        <ele>1579.58</ele>
      </trkpt>
      <trkpt lat="44.84362" lon="5.48388">
        <ele>1580.54</ele>
      </trkpt>
      <trkpt lat="44.84361" lon="5.48394">
        <ele>1580.54</ele>
      </trkpt>
      <trkpt lat="44.8436" lon="5.484">
        <ele>1581.03</ele>
      </trkpt>
      <trkpt lat="44.84351" lon="5.48416">
        <ele>1582.47</ele>
      </trkpt>
      <trkpt lat="44.84338" lon="5.48418">
        <ele>1583.91</ele>
      </trkpt>
      <trkpt lat="44.84318" lon="5.48418">
        <ele>1585.35</ele>
      </trkpt>
      <trkpt lat="44.84311" lon="5.48418">
        <ele>1585.35</ele>
      </trkpt>
      <trkpt lat="44.84305" lon="5.48416">
        <ele>1586.31</ele>
      </trkpt>
      <trkpt lat="44.84299" lon="5.48414">
        <ele>1586.31</ele>
      </trkpt>
      <trkpt lat="44.84287" lon="5.48408">
        <ele>1587.27</ele>
      </trkpt>
      <trkpt lat="44.8428" lon="5.48404">
        <ele>1588.24</ele>
      </trkpt>
      <trkpt lat="44.84245" lon="5.48377">
        <ele>1590.64</ele>
      </trkpt>
      <trkpt lat="44.84238" lon="5.48371">
        <ele>1591.12</ele>
      </trkpt>
      <trkpt lat="44.84231" lon="5.48368">
        <ele>1591.6</ele>
      </trkpt>
      <trkpt lat="44.84201" lon="5.48361">
        <ele>1594</ele>
      </trkpt>
      <trkpt lat="44.84194" lon="5.4836">
        <ele>1594.96</ele>
      </trkpt>
      <trkpt lat="44.84173" lon="5.48363">
        <ele>1597.85</ele>
      </trkpt>
      <trkpt lat="44.84166" lon="5.48363">
        <ele>1598.33</ele>
      </trkpt>
      <trkpt lat="44.8416" lon="5.48362">
        <ele>1599.77</ele>
      </trkpt>
      <trkpt lat="44.84123" lon="5.48358">
        <ele>1603.62</ele>
      </trkpt>
      <trkpt lat="44.84116" lon="5.48357">
        <ele>1603.62</ele>
      </trkpt>
      <trkpt lat="44.84109" lon="5.48356">
        <ele>1604.58</ele>
      </trkpt>
      <trkpt lat="44.84101" lon="5.48354">
        <ele>1606.02</ele>
      </trkpt>
      <trkpt lat="44.84094" lon="5.48353">
        <ele>1606.5</ele>
      </trkpt>
      <trkpt lat="44.84087" lon="5.48352">
        <ele>1606.5</ele>
      </trkpt>
      <trkpt lat="44.8408" lon="5.48354">
        <ele>1607.46</ele>
      </trkpt>
      <trkpt lat="44.84073" lon="5.48355">
        <ele>1608.42</ele>
      </trkpt>
      <trkpt lat="44.84066" lon="5.48355">
        <ele>1608.42</ele>
      </trkpt>
      <trkpt lat="44.8406" lon="5.48354">
        <ele>1609.86</ele>
      </trkpt>
      <trkpt lat="44.84054" lon="5.4835">
        <ele>1610.83</ele>
      </trkpt>
      <trkpt lat="44.84049" lon="5.48345">
        <ele>1612.27</ele>
      </trkpt>
      <trkpt lat="44.84043" lon="5.48341">
        <ele>1611.79</ele>
      </trkpt>
      <trkpt lat="44.84037" lon="5.48337">
        <ele>1612.75</ele>
      </trkpt>
      <trkpt lat="44.84031" lon="5.48334">
        <ele>1613.23</ele>
      </trkpt>
      <trkpt lat="44.84026" lon="5.48333">
        <ele>1613.23</ele>
      </trkpt>
      <trkpt lat="44.83981" lon="5.48303">
        <ele>1615.15</ele>
      </trkpt>
      <trkpt lat="44.83961" lon="5.4829">
        <ele>1616.59</ele>
      </trkpt>
      <trkpt lat="44.83957" lon="5.48287">
        <ele>1617.07</ele>
      </trkpt>
      <trkpt lat="44.83944" lon="5.4828">
        <ele>1617.07</ele>
      </trkpt>
      <trkpt lat="44.83922" lon="5.48263">
        <ele>1618.52</ele>
      </trkpt>
      <trkpt lat="44.83907" lon="5.48254">
        <ele>1619.48</ele>
      </trkpt>
      <trkpt lat="44.83864" lon="5.48221">
        <ele>1620.44</ele>
      </trkpt>
      <trkpt lat="44.8386" lon="5.48218">
        <ele>1619.96</ele>
      </trkpt>
      <trkpt lat="44.8382" lon="5.48205">
        <ele>1622.36</ele>
      </trkpt>
      <trkpt lat="44.83759" lon="5.48192">
        <ele>1624.28</ele>
      </trkpt>
      <trkpt lat="44.83746" lon="5.4819">
        <ele>1624.77</ele>
      </trkpt>
      <trkpt lat="44.83717" lon="5.48193">
        <ele>1623.32</ele>
      </trkpt>
      <trkpt lat="44.83685" lon="5.48186">
        <ele>1622.84</ele>
      </trkpt>
      <trkpt lat="44.8368" lon="5.48184">
        <ele>1626.69</ele>
      </trkpt>
      <trkpt lat="44.83672" lon="5.4818">
        <ele>1623.32</ele>
      </trkpt>
      <trkpt lat="44.83661" lon="5.48174">
        <ele>1623.8</ele>
      </trkpt>
      <trkpt lat="44.83658" lon="5.48172">
        <ele>1627.65</ele>
      </trkpt>
      <trkpt lat="44.83628" lon="5.48159">
        <ele>1624.28</ele>
      </trkpt>
      <trkpt lat="44.8358" lon="5.48145">
        <ele>1626.21</ele>
      </trkpt>
      <trkpt lat="44.83549" lon="5.48141">
        <ele>1626.21</ele>
      </trkpt>
      <trkpt lat="44.83541" lon="5.48144">
        <ele>1626.21</ele>
      </trkpt>
      <trkpt lat="44.83537" lon="5.48144">
        <ele>1625.73</ele>
      </trkpt>
      <trkpt lat="44.83508" lon="5.48149">
        <ele>1627.17</ele>
      </trkpt>
      <trkpt lat="44.83475" lon="5.4816">
        <ele>1628.61</ele>
      </trkpt>
      <trkpt lat="44.83445" lon="5.48169">
        <ele>1629.09</ele>
      </trkpt>
      <trkpt lat="44.83443" lon="5.4817">
        <ele>1628.61</ele>
      </trkpt>
      <trkpt lat="44.83416" lon="5.48173">
        <ele>1627.65</ele>
      </trkpt>
      <trkpt lat="44.83388" lon="5.4817">
        <ele>1626.21</ele>
      </trkpt>
      <trkpt lat="44.83386" lon="5.48172">
        <ele>1627.453125</ele>
      </trkpt>
      <trkpt lat="44.83382" lon="5.48175">
        <ele>1627.3984375</ele>
      </trkpt>
      <trkpt lat="44.83377" lon="5.48178">
        <ele>1627.3515625</ele>
      </trkpt>
      <trkpt lat="44.83374" lon="5.48182">
        <ele>1627.3671875</ele>
      </trkpt>
      <trkpt lat="44.83371" lon="5.48188">
        <ele>1627.4921875</ele>
      </trkpt>
      <trkpt lat="44.83366" lon="5.48196">
        <ele>1627.6289063</ele>
      </trkpt>
      <trkpt lat="44.8336" lon="5.48205">
        <ele>1628.109375</ele>
      </trkpt>
      <trkpt lat="44.8336" lon="5.48206">
        <ele>1628.1367188</ele>
      </trkpt>
      <trkpt lat="44.83354" lon="5.48214">
        <ele>1628.5625</ele>
      </trkpt>
      <trkpt lat="44.83349" lon="5.48223">
        <ele>1628.9453125</ele>
      </trkpt>
      <trkpt lat="44.83348" lon="5.48223">
        <ele>1628.9375</ele>
      </trkpt>
      <trkpt lat="44.83343" lon="5.48232">
        <ele>1629.1679688</ele>
      </trkpt>
      <trkpt lat="44.83342" lon="5.48236">
        <ele>1629.3476563</ele>
      </trkpt>
      <trkpt lat="44.83339" lon="5.48241">
        <ele>1629.5585938</ele>
      </trkpt>
      <trkpt lat="44.83339" lon="5.48241">
        <ele>1629.578125</ele>
      </trkpt>
      <trkpt lat="44.83334" lon="5.48243">
        <ele>1629.6132813</ele>
      </trkpt>
      <trkpt lat="44.83334" lon="5.48243">
        <ele>1629.609375</ele>
      </trkpt>
      <trkpt lat="44.83329" lon="5.48241">
        <ele>1629.4492188</ele>
      </trkpt>
      <trkpt lat="44.83325" lon="5.48236">
        <ele>1629.0390625</ele>
      </trkpt>
      <trkpt lat="44.83324" lon="5.48231">
        <ele>1628.671875</ele>
      </trkpt>
      <trkpt lat="44.83323" lon="5.48224">
        <ele>1628.1484375</ele>
      </trkpt>
      <trkpt lat="44.83322" lon="5.48213">
        <ele>1627.3945313</ele>
      </trkpt>
      <trkpt lat="44.83321" lon="5.48208">
        <ele>1626.9882813</ele>
      </trkpt>
      <trkpt lat="44.83319" lon="5.48198">
        <ele>1626.2890625</ele>
      </trkpt>
      <trkpt lat="44.83316" lon="5.4819">
        <ele>1625.7851563</ele>
      </trkpt>
      <trkpt lat="44.83315" lon="5.48184">
        <ele>1625.3945313</ele>
      </trkpt>
      <trkpt lat="44.83312" lon="5.48179">
        <ele>1624.9804688</ele>
      </trkpt>
      <trkpt lat="44.83308" lon="5.48175">
        <ele>1624.5429688</ele>
      </trkpt>
      <trkpt lat="44.83303" lon="5.48172">
        <ele>1624.0507813</ele>
      </trkpt>
      <trkpt lat="44.83301" lon="5.4817">
        <ele>1623.6640625</ele>
      </trkpt>
      <trkpt lat="44.83297" lon="5.48169">
        <ele>1623.34375</ele>
      </trkpt>
      <trkpt lat="44.83297" lon="5.48169">
        <ele>1623.3242188</ele>
      </trkpt>
      <trkpt lat="44.83293" lon="5.48168">
        <ele>1623.1835938</ele>
      </trkpt>
      <trkpt lat="44.83288" lon="5.48169">
        <ele>1623.28125</ele>
      </trkpt>
      <trkpt lat="44.83282" lon="5.4817">
        <ele>1623.3632813</ele>
      </trkpt>
      <trkpt lat="44.83282" lon="5.4817">
        <ele>1623.359375</ele>
      </trkpt>
      <trkpt lat="44.83278" lon="5.4817">
        <ele>1623.3398438</ele>
      </trkpt>
      <trkpt lat="44.83272" lon="5.4817">
        <ele>1623.3398438</ele>
      </trkpt>
      <trkpt lat="44.83271" lon="5.48169">
        <ele>1623.25</ele>
      </trkpt>
      <trkpt lat="44.83268" lon="5.48168">
        <ele>1623.1289063</ele>
      </trkpt>
      <trkpt lat="44.83267" lon="5.48168">
        <ele>1623.15625</ele>
      </trkpt>
      <trkpt lat="44.83262" lon="5.48166">
        <ele>1623.0195313</ele>
      </trkpt>
      <trkpt lat="44.83262" lon="5.48166">
        <ele>1622.9960938</ele>
      </trkpt>
      <trkpt lat="44.83258" lon="5.48163">
        <ele>1622.9023438</ele>
      </trkpt>
      <trkpt lat="44.83252" lon="5.48159">
        <ele>1622.7539063</ele>
      </trkpt>
      <trkpt lat="44.83236" lon="5.48157">
        <ele>1620.92</ele>
      </trkpt>
      <trkpt lat="44.8321" lon="5.48145">
        <ele>1619.96</ele>
      </trkpt>
      <trkpt lat="44.83187" lon="5.48121">
        <ele>1618.52</ele>
      </trkpt>
      <trkpt lat="44.83184" lon="5.48119">
        <ele>1618.52</ele>
      </trkpt>
      <trkpt lat="44.8318" lon="5.48119">
        <ele>1619.48</ele>
      </trkpt>
      <trkpt lat="44.83176" lon="5.48118">
        <ele>1618.52</ele>
      </trkpt>
      <trkpt lat="44.83171" lon="5.48118">
        <ele>1618.52</ele>
      </trkpt>
      <trkpt lat="44.83157" lon="5.48123">
        <ele>1619.48</ele>
      </trkpt>
      <trkpt lat="44.83129" lon="5.48149">
        <ele>1619.96</ele>
      </trkpt>
      <trkpt lat="44.83114" lon="5.48192">
        <ele>1621.88</ele>
      </trkpt>
      <trkpt lat="44.83105" lon="5.48229">
        <ele>1622.36</ele>
      </trkpt>
      <trkpt lat="44.83096" lon="5.48266">
        <ele>1621.4</ele>
      </trkpt>
      <trkpt lat="44.83086" lon="5.48292">
        <ele>1619.48</ele>
      </trkpt>
      <trkpt lat="44.8308" lon="5.48318">
        <ele>1616.11</ele>
      </trkpt>
      <trkpt lat="44.83072" lon="5.48347">
        <ele>1614.19</ele>
      </trkpt>
      <trkpt lat="44.83059" lon="5.48394">
        <ele>1612.27</ele>
      </trkpt>
      <trkpt lat="44.83057" lon="5.484">
        <ele>1612.27</ele>
      </trkpt>
      <trkpt lat="44.83056" lon="5.48407">
        <ele>1612.27</ele>
      </trkpt>
      <trkpt lat="44.83055" lon="5.48415">
        <ele>1612.75</ele>
      </trkpt>
      <trkpt lat="44.83055" lon="5.48424">
        <ele>1612.27</ele>
      </trkpt>
      <trkpt lat="44.83053" lon="5.48433">
        <ele>1612.75</ele>
      </trkpt>
      <trkpt lat="44.83051" lon="5.48443">
        <ele>1613.71</ele>
      </trkpt>
      <trkpt lat="44.83049" lon="5.48452">
        <ele>1613.23</ele>
      </trkpt>
      <trkpt lat="44.83046" lon="5.48462">
        <ele>1613.23</ele>
      </trkpt>
      <trkpt lat="44.83046" lon="5.48473">
        <ele>1614.67</ele>
      </trkpt>
      <trkpt lat="44.83044" lon="5.48483">
        <ele>1615.15</ele>
      </trkpt>
      <trkpt lat="44.83042" lon="5.48492">
        <ele>1615.63</ele>
      </trkpt>
      <trkpt lat="44.83039" lon="5.48499">
        <ele>1616.11</ele>
      </trkpt>
      <trkpt lat="44.83036" lon="5.48504">
        <ele>1616.59</ele>
      </trkpt>
      <trkpt lat="44.83015" lon="5.48521">
        <ele>1619.96</ele>
      </trkpt>
      <trkpt lat="44.82991" lon="5.48549">
        <ele>1619.96</ele>
      </trkpt>
      <trkpt lat="44.82979" lon="5.48597">
        <ele>1620.44</ele>
      </trkpt>
      <trkpt lat="44.82951" lon="5.48616">
        <ele>1621.4</ele>
      </trkpt>
      <trkpt lat="44.82949" lon="5.48617">
        <ele>1621.4</ele>
      </trkpt>
      <trkpt lat="44.82947" lon="5.4862">
        <ele>1621.4</ele>
      </trkpt>
      <trkpt lat="44.8294" lon="5.48624">
        <ele>1620.92</ele>
      </trkpt>
      <trkpt lat="44.82939" lon="5.48625">
        <ele>1619.96</ele>
      </trkpt>
      <trkpt lat="44.82938" lon="5.48626">
        <ele>1619.96</ele>
      </trkpt>
      <trkpt lat="44.82937" lon="5.48627">
        <ele>1619.96</ele>
      </trkpt>
      <trkpt lat="44.82937" lon="5.48628">
        <ele>1619.96</ele>
      </trkpt>
      <trkpt lat="44.82929" lon="5.48634">
        <ele>1618.04</ele>
      </trkpt>
      <trkpt lat="44.82928" lon="5.48634">
        <ele>1618.04</ele>
      </trkpt>
      <trkpt lat="44.82916" lon="5.48635">
        <ele>1615.15</ele>
      </trkpt>
      <trkpt lat="44.82915" lon="5.48635">
        <ele>1615.15</ele>
      </trkpt>
      <trkpt lat="44.82913" lon="5.48635">
        <ele>1615.63</ele>
      </trkpt>
      <trkpt lat="44.82911" lon="5.48636">
        <ele>1614.67</ele>
      </trkpt>
      <trkpt lat="44.8291" lon="5.48636">
        <ele>1614.67</ele>
      </trkpt>
      <trkpt lat="44.82905" lon="5.48637">
        <ele>1613.71</ele>
      </trkpt>
      <trkpt lat="44.82902" lon="5.48637">
        <ele>1613.23</ele>
      </trkpt>
      <trkpt lat="44.82898" lon="5.48636">
        <ele>1612.75</ele>
      </trkpt>
      <trkpt lat="44.82896" lon="5.48635">
        <ele>1612.27</ele>
      </trkpt>
      <trkpt lat="44.82895" lon="5.48635">
        <ele>1612.75</ele>
      </trkpt>
      <trkpt lat="44.82881" lon="5.48638">
        <ele>1609.86</ele>
      </trkpt>
      <trkpt lat="44.82861" lon="5.48643">
        <ele>1606.98</ele>
      </trkpt>
      <trkpt lat="44.82818" lon="5.48656">
        <ele>1609.38</ele>
      </trkpt>
      <trkpt lat="44.82776" lon="5.48644">
        <ele>1609.86</ele>
      </trkpt>
      <trkpt lat="44.82752" lon="5.48606">
        <ele>1609.38</ele>
      </trkpt>
      <trkpt lat="44.82751" lon="5.48603">
        <ele>1609.38</ele>
      </trkpt>
      <trkpt lat="44.8275" lon="5.486">
        <ele>1609.38</ele>
      </trkpt>
      <trkpt lat="44.82748" lon="5.48598">
        <ele>1609.38</ele>
      </trkpt>
      <trkpt lat="44.82747" lon="5.48596">
        <ele>1609.38</ele>
      </trkpt>
      <trkpt lat="44.82744" lon="5.4858">
        <ele>1608.42</ele>
      </trkpt>
      <trkpt lat="44.82738" lon="5.48535">
        <ele>1606.98</ele>
      </trkpt>
      <trkpt lat="44.82731" lon="5.48501">
        <ele>1605.54</ele>
      </trkpt>
      <trkpt lat="44.82725" lon="5.48457">
        <ele>1604.58</ele>
      </trkpt>
      <trkpt lat="44.82718" lon="5.4841">
        <ele>1603.14</ele>
      </trkpt>
      <trkpt lat="44.8271" lon="5.48369">
        <ele>1601.69</ele>
      </trkpt>
      <trkpt lat="44.8271" lon="5.48366">
        <ele>1623.896</ele>
      </trkpt>
      <trkpt lat="44.82707" lon="5.48356">
        <ele>1625.675</ele>
      </trkpt>
      <trkpt lat="44.82706" lon="5.48351">
        <ele>1625.628</ele>
      </trkpt>
      <trkpt lat="44.82701" lon="5.48333">
        <ele>1624.47</ele>
      </trkpt>
      <trkpt lat="44.82694" lon="5.48253">
        <ele>1623.992</ele>
      </trkpt>
      <trkpt lat="44.82702" lon="5.48243">
        <ele>1624.46</ele>
      </trkpt>
      <trkpt lat="44.82713" lon="5.48228">
        <ele>1625.266</ele>
      </trkpt>
      <trkpt lat="44.82715" lon="5.48225">
        <ele>1625.14</ele>
      </trkpt>
      <trkpt lat="44.8272" lon="5.48216">
        <ele>1625.807</ele>
      </trkpt>
      <trkpt lat="44.82722" lon="5.48213">
        <ele>1627.138</ele>
      </trkpt>
      <trkpt lat="44.82723" lon="5.48211">
        <ele>1626.958</ele>
      </trkpt>
      <trkpt lat="44.82731" lon="5.48196">
        <ele>1626.349</ele>
      </trkpt>
      <trkpt lat="44.82733" lon="5.48192">
        <ele>1626.526</ele>
      </trkpt>
      <trkpt lat="44.82735" lon="5.48188">
        <ele>1626.924</ele>
      </trkpt>
      <trkpt lat="44.8274" lon="5.48178">
        <ele>1627.695</ele>
      </trkpt>
      <trkpt lat="44.82749" lon="5.48161">
        <ele>1629.112</ele>
      </trkpt>
      <trkpt lat="44.82752" lon="5.48157">
        <ele>1629.349</ele>
      </trkpt>
      <trkpt lat="44.82752" lon="5.4816">
        <ele>1604.1</ele>
      </trkpt>
      <trkpt lat="44.82758" lon="5.48144">
        <ele>1605.54</ele>
      </trkpt>
      <trkpt lat="44.82762" lon="5.48141">
        <ele>1606.02</ele>
      </trkpt>
      <trkpt lat="44.82774" lon="5.48121">
        <ele>1608.9</ele>
      </trkpt>
      <trkpt lat="44.82776" lon="5.48118">
        <ele>1608.9</ele>
      </trkpt>
      <trkpt lat="44.8279" lon="5.4811">
        <ele>1612.75</ele>
      </trkpt>
      <trkpt lat="44.82805" lon="5.48113">
        <ele>1614.67</ele>
      </trkpt>
      <trkpt lat="44.82841" lon="5.48084">
        <ele>1613.71</ele>
      </trkpt>
      <trkpt lat="44.8287" lon="5.48068">
        <ele>1613.23</ele>
      </trkpt>
      <trkpt lat="44.82874" lon="5.48066">
        <ele>1612.27</ele>
      </trkpt>
      <trkpt lat="44.82879" lon="5.48064">
        <ele>1611.79</ele>
      </trkpt>
      <trkpt lat="44.82883" lon="5.48062">
        <ele>1611.79</ele>
      </trkpt>
      <trkpt lat="44.82887" lon="5.48059">
        <ele>1611.79</ele>
      </trkpt>
      <trkpt lat="44.82913" lon="5.48023">
        <ele>1612.75</ele>
      </trkpt>
      <trkpt lat="44.82927" lon="5.47994">
        <ele>1613.23</ele>
      </trkpt>
      <trkpt lat="44.82926" lon="5.47955">
        <ele>1616.59</ele>
      </trkpt>
      <trkpt lat="44.82925" lon="5.47953">
        <ele>1617.07</ele>
      </trkpt>
      <trkpt lat="44.82925" lon="5.47953">
        <ele>1616.11</ele>
      </trkpt>
      <trkpt lat="44.82925" lon="5.47953">
        <ele>1610.83</ele>
      </trkpt>
      <trkpt lat="44.82925" lon="5.47953">
        <ele>1618.52</ele>
      </trkpt>
      <trkpt lat="44.82925" lon="5.47953">
        <ele>1606.5</ele>
      </trkpt>
      <trkpt lat="44.82925" lon="5.47953">
        <ele>1616.59</ele>
      </trkpt>
      <trkpt lat="44.82924" lon="5.47952">
        <ele>1617.07</ele>
      </trkpt>
      <trkpt lat="44.82923" lon="5.4795">
        <ele>1616.59</ele>
      </trkpt>
      <trkpt lat="44.82922" lon="5.47948">
        <ele>1617.07</ele>
      </trkpt>
      <trkpt lat="44.82918" lon="5.47915">
        <ele>1617.56</ele>
      </trkpt>
      <trkpt lat="44.82918" lon="5.47912">
        <ele>1618.04</ele>
      </trkpt>
      <trkpt lat="44.82916" lon="5.47904">
        <ele>1618.52</ele>
      </trkpt>
      <trkpt lat="44.82916" lon="5.47903">
        <ele>1618.52</ele>
      </trkpt>
      <trkpt lat="44.82915" lon="5.47899">
        <ele>1618.52</ele>
      </trkpt>
      <trkpt lat="44.82916" lon="5.47898">
        <ele>1619</ele>
      </trkpt>
      <trkpt lat="44.82915" lon="5.47892">
        <ele>1619</ele>
      </trkpt>
      <trkpt lat="44.82916" lon="5.47889">
        <ele>1619</ele>
      </trkpt>
      <trkpt lat="44.82922" lon="5.4786">
        <ele>1618.52</ele>
      </trkpt>
      <trkpt lat="44.82922" lon="5.47831">
        <ele>1617.07</ele>
      </trkpt>
      <trkpt lat="44.82921" lon="5.47828">
        <ele>1617.07</ele>
      </trkpt>
      <trkpt lat="44.82921" lon="5.47824">
        <ele>1617.07</ele>
      </trkpt>
      <trkpt lat="44.8292" lon="5.47821">
        <ele>1617.07</ele>
      </trkpt>
      <trkpt lat="44.8292" lon="5.47818">
        <ele>1616.59</ele>
      </trkpt>
      <trkpt lat="44.8292" lon="5.47814">
        <ele>1617.07</ele>
      </trkpt>
      <trkpt lat="44.8292" lon="5.4781">
        <ele>1617.56</ele>
      </trkpt>
      <trkpt lat="44.82921" lon="5.47806">
        <ele>1617.56</ele>
      </trkpt>
      <trkpt lat="44.82921" lon="5.47801">
        <ele>1618.04</ele>
      </trkpt>
      <trkpt lat="44.82921" lon="5.47796">
        <ele>1618.04</ele>
      </trkpt>
      <trkpt lat="44.82922" lon="5.47792">
        <ele>1619</ele>
      </trkpt>
      <trkpt lat="44.82922" lon="5.47786">
        <ele>1618.04</ele>
      </trkpt>
      <trkpt lat="44.82923" lon="5.47781">
        <ele>1618.52</ele>
      </trkpt>
      <trkpt lat="44.82923" lon="5.47774">
        <ele>1619.48</ele>
      </trkpt>
      <trkpt lat="44.82924" lon="5.47732">
        <ele>1619.48</ele>
      </trkpt>
      <trkpt lat="44.82929" lon="5.4772">
        <ele>1620.44</ele>
      </trkpt>
      <trkpt lat="44.8293" lon="5.47713">
        <ele>1620.92</ele>
      </trkpt>
      <trkpt lat="44.82937" lon="5.47698">
        <ele>1622.36</ele>
      </trkpt>
      <trkpt lat="44.82938" lon="5.47693">
        <ele>1621.88</ele>
      </trkpt>
      <trkpt lat="44.82939" lon="5.47687">
        <ele>1622.36</ele>
      </trkpt>
      <trkpt lat="44.82945" lon="5.4765">
        <ele>1623.8</ele>
      </trkpt>
      <trkpt lat="44.82948" lon="5.47633">
        <ele>1624.28</ele>
      </trkpt>
      <trkpt lat="44.82949" lon="5.47625">
        <ele>1624.77</ele>
      </trkpt>
      <trkpt lat="44.8295" lon="5.47616">
        <ele>1626.21</ele>
      </trkpt>
      <trkpt lat="44.82954" lon="5.47597">
        <ele>1628.61</ele>
      </trkpt>
      <trkpt lat="44.8296" lon="5.47577">
        <ele>1632.46</ele>
      </trkpt>
      <trkpt lat="44.82967" lon="5.47549">
        <ele>1637.74</ele>
      </trkpt>
      <trkpt lat="44.82972" lon="5.47531">
        <ele>1640.15</ele>
      </trkpt>
      <trkpt lat="44.82973" lon="5.47523">
        <ele>1640.63</ele>
      </trkpt>
      <trkpt lat="44.82974" lon="5.47515">
        <ele>1641.11</ele>
      </trkpt>
      <trkpt lat="44.82973" lon="5.47507">
        <ele>1642.07</ele>
      </trkpt>
      <trkpt lat="44.82972" lon="5.47499">
        <ele>1642.55</ele>
      </trkpt>
      <trkpt lat="44.8297" lon="5.47492">
        <ele>1643.03</ele>
      </trkpt>
      <trkpt lat="44.82971" lon="5.47486">
        <ele>1643.03</ele>
      </trkpt>
      <trkpt lat="44.82974" lon="5.47478">
        <ele>1644.47</ele>
      </trkpt>
      <trkpt lat="44.82975" lon="5.4747">
        <ele>1645.91</ele>
      </trkpt>
      <trkpt lat="44.82975" lon="5.4746">
        <ele>1647.36</ele>
      </trkpt>
      <trkpt lat="44.8297" lon="5.47428">
        <ele>1649.76</ele>
      </trkpt>
      <trkpt lat="44.82969" lon="5.47419">
        <ele>1649.76</ele>
      </trkpt>
      <trkpt lat="44.82968" lon="5.47411">
        <ele>1650.72</ele>
      </trkpt>
      <trkpt lat="44.82968" lon="5.47395">
        <ele>1651.68</ele>
      </trkpt>
      <trkpt lat="44.82968" lon="5.47388">
        <ele>1652.16</ele>
      </trkpt>
      <trkpt lat="44.82964" lon="5.47365">
        <ele>1652.64</ele>
      </trkpt>
      <trkpt lat="44.82959" lon="5.47342">
        <ele>1654.57</ele>
      </trkpt>
      <trkpt lat="44.82958" lon="5.47334">
        <ele>1654.57</ele>
      </trkpt>
      <trkpt lat="44.82957" lon="5.47311">
        <ele>1655.53</ele>
      </trkpt>
      <trkpt lat="44.82958" lon="5.47303">
        <ele>1656.01</ele>
      </trkpt>
      <trkpt lat="44.82959" lon="5.47297">
        <ele>1656.49</ele>
      </trkpt>
      <trkpt lat="44.82967" lon="5.47272">
        <ele>1657.93</ele>
      </trkpt>
      <trkpt lat="44.8297" lon="5.47267">
        <ele>1657.93</ele>
      </trkpt>
      <trkpt lat="44.82973" lon="5.47262">
        <ele>1658.41</ele>
      </trkpt>
      <trkpt lat="44.82978" lon="5.4725">
        <ele>1658.89</ele>
      </trkpt>
      <trkpt lat="44.82998" lon="5.47205">
        <ele>1661.78</ele>
      </trkpt>
      <trkpt lat="44.83014" lon="5.47156">
        <ele>1662.26</ele>
      </trkpt>
      <trkpt lat="44.83015" lon="5.47145">
        <ele>1662.74</ele>
      </trkpt>
      <trkpt lat="44.83015" lon="5.47144">
        <ele>1661.78</ele>
      </trkpt>
      <trkpt lat="44.83015" lon="5.47144">
        <ele>1663.22</ele>
      </trkpt>
      <trkpt lat="44.83016" lon="5.47144">
        <ele>1663.22</ele>
      </trkpt>
      <trkpt lat="44.83016" lon="5.47144">
        <ele>1659.85</ele>
      </trkpt>
      <trkpt lat="44.83016" lon="5.47144">
        <ele>1662.74</ele>
      </trkpt>
      <trkpt lat="44.83016" lon="5.47144">
        <ele>1662.74</ele>
      </trkpt>
      <trkpt lat="44.83016" lon="5.47144">
        <ele>1663.22</ele>
      </trkpt>
      <trkpt lat="44.83008" lon="5.47182">
        <ele>1662.26</ele>
      </trkpt>
      <trkpt lat="44.83007" lon="5.4718">
        <ele>1662.74</ele>
      </trkpt>
      <trkpt lat="44.83007" lon="5.4718">
        <ele>1662.26</ele>
      </trkpt>
      <trkpt lat="44.83007" lon="5.4718">
        <ele>1661.78</ele>
      </trkpt>
      <trkpt lat="44.83007" lon="5.4718">
        <ele>1661.78</ele>
      </trkpt>
      <trkpt lat="44.83007" lon="5.47179">
        <ele>1661.3</ele>
      </trkpt>
      <trkpt lat="44.83014" lon="5.47154">
        <ele>1661.78</ele>
      </trkpt>
      <trkpt lat="44.83012" lon="5.47115">
        <ele>1660.33</ele>
      </trkpt>
      <trkpt lat="44.83007" lon="5.47074">
        <ele>1663.7</ele>
      </trkpt>
      <trkpt lat="44.83012" lon="5.47048">
        <ele>1664.18</ele>
      </trkpt>
      <trkpt lat="44.83022" lon="5.47016">
        <ele>1662.74</ele>
      </trkpt>
      <trkpt lat="44.83035" lon="5.4699">
        <ele>1660.81</ele>
      </trkpt>
      <trkpt lat="44.83035" lon="5.46953">
        <ele>1660.81</ele>
      </trkpt>
      <trkpt lat="44.83045" lon="5.46925">
        <ele>1659.85</ele>
      </trkpt>
      <trkpt lat="44.83059" lon="5.46899">
        <ele>1658.41</ele>
      </trkpt>
      <trkpt lat="44.8307" lon="5.46872">
        <ele>1657.45</ele>
      </trkpt>
      <trkpt lat="44.83071" lon="5.46868">
        <ele>1657.45</ele>
      </trkpt>
      <trkpt lat="44.83077" lon="5.4685">
        <ele>1655.53</ele>
      </trkpt>
      <trkpt lat="44.83078" lon="5.46849">
        <ele>1655.53</ele>
      </trkpt>
      <trkpt lat="44.83082" lon="5.46834">
        <ele>1654.09</ele>
      </trkpt>
      <trkpt lat="44.83082" lon="5.46833">
        <ele>1654.09</ele>
      </trkpt>
      <trkpt lat="44.83083" lon="5.46832">
        <ele>1653.6</ele>
      </trkpt>
      <trkpt lat="44.83083" lon="5.46831">
        <ele>1654.09</ele>
      </trkpt>
      <trkpt lat="44.83084" lon="5.46829">
        <ele>1654.09</ele>
      </trkpt>
      <trkpt lat="44.83084" lon="5.46828">
        <ele>1653.6</ele>
      </trkpt>
      <trkpt lat="44.83088" lon="5.46813">
        <ele>1652.64</ele>
      </trkpt>
      <trkpt lat="44.83088" lon="5.46811">
        <ele>1652.64</ele>
      </trkpt>
      <trkpt lat="44.83088" lon="5.4681">
        <ele>1652.64</ele>
      </trkpt>
      <trkpt lat="44.83091" lon="5.468">
        <ele>1651.2</ele>
      </trkpt>
      <trkpt lat="44.83092" lon="5.46799">
        <ele>1650.24</ele>
      </trkpt>
      <trkpt lat="44.83093" lon="5.46797">
        <ele>1650.72</ele>
      </trkpt>
      <trkpt lat="44.83093" lon="5.46795">
        <ele>1650.24</ele>
      </trkpt>
      <trkpt lat="44.83093" lon="5.46794">
        <ele>1650.24</ele>
      </trkpt>
      <trkpt lat="44.83094" lon="5.46786">
        <ele>1649.28</ele>
      </trkpt>
      <trkpt lat="44.83101" lon="5.46762">
        <ele>1646.4</ele>
      </trkpt>
      <trkpt lat="44.83101" lon="5.4676">
        <ele>1646.4</ele>
      </trkpt>
      <trkpt lat="44.83102" lon="5.46759">
        <ele>1645.91</ele>
      </trkpt>
      <trkpt lat="44.83102" lon="5.46756">
        <ele>1645.91</ele>
      </trkpt>
      <trkpt lat="44.83102" lon="5.46755">
        <ele>1645.91</ele>
      </trkpt>
      <trkpt lat="44.83103" lon="5.46753">
        <ele>1645.43</ele>
      </trkpt>
      <trkpt lat="44.83104" lon="5.46751">
        <ele>1645.91</ele>
      </trkpt>
      <trkpt lat="44.83104" lon="5.46749">
        <ele>1645.43</ele>
      </trkpt>
      <trkpt lat="44.83104" lon="5.46747">
        <ele>1645.43</ele>
      </trkpt>
      <trkpt lat="44.83105" lon="5.46745">
        <ele>1644.95</ele>
      </trkpt>
      <trkpt lat="44.83106" lon="5.46743">
        <ele>1645.43</ele>
      </trkpt>
      <trkpt lat="44.83106" lon="5.46741">
        <ele>1644.95</ele>
      </trkpt>
      <trkpt lat="44.83107" lon="5.4673">
        <ele>1643.03</ele>
      </trkpt>
      <trkpt lat="44.83112" lon="5.46713">
        <ele>1641.59</ele>
      </trkpt>
      <trkpt lat="44.83115" lon="5.46702">
        <ele>1639.19</ele>
      </trkpt>
      <trkpt lat="44.83116" lon="5.46696">
        <ele>1638.7</ele>
      </trkpt>
      <trkpt lat="44.83117" lon="5.46667">
        <ele>1635.82</ele>
      </trkpt>
      <trkpt lat="44.83117" lon="5.46628">
        <ele>1635.34</ele>
      </trkpt>
      <trkpt lat="44.8312" lon="5.46594">
        <ele>1632.94</ele>
      </trkpt>
      <trkpt lat="44.83121" lon="5.46592">
        <ele>1633.42</ele>
      </trkpt>
      <trkpt lat="44.83122" lon="5.4659">
        <ele>1632.46</ele>
      </trkpt>
      <trkpt lat="44.83125" lon="5.46576">
        <ele>1632.94</ele>
      </trkpt>
      <trkpt lat="44.8313" lon="5.46559">
        <ele>1630.05</ele>
      </trkpt>
      <trkpt lat="44.83131" lon="5.46554">
        <ele>1629.57</ele>
      </trkpt>
      <trkpt lat="44.83135" lon="5.46534">
        <ele>1627.17</ele>
      </trkpt>
      <trkpt lat="44.83136" lon="5.46513">
        <ele>1624.77</ele>
      </trkpt>
      <trkpt lat="44.83135" lon="5.46497">
        <ele>1623.32</ele>
      </trkpt>
      <trkpt lat="44.83135" lon="5.46491">
        <ele>1621.88</ele>
      </trkpt>
      <trkpt lat="44.83135" lon="5.46481">
        <ele>1618.52</ele>
      </trkpt>
      <trkpt lat="44.83136" lon="5.46464">
        <ele>1617.07</ele>
      </trkpt>
      <trkpt lat="44.83139" lon="5.46448">
        <ele>1614.67</ele>
      </trkpt>
      <trkpt lat="44.83144" lon="5.46434">
        <ele>1613.71</ele>
      </trkpt>
      <trkpt lat="44.83145" lon="5.46433">
        <ele>1613.71</ele>
      </trkpt>
      <trkpt lat="44.83146" lon="5.46431">
        <ele>1613.71</ele>
      </trkpt>
      <trkpt lat="44.83146" lon="5.4643">
        <ele>1613.23</ele>
      </trkpt>
      <trkpt lat="44.83146" lon="5.46428">
        <ele>1613.23</ele>
      </trkpt>
      <trkpt lat="44.83146" lon="5.46427">
        <ele>1613.23</ele>
      </trkpt>
      <trkpt lat="44.83151" lon="5.46404">
        <ele>1611.31</ele>
      </trkpt>
      <trkpt lat="44.83152" lon="5.46402">
        <ele>1611.31</ele>
      </trkpt>
      <trkpt lat="44.83153" lon="5.46401">
        <ele>1611.31</ele>
      </trkpt>
      <trkpt lat="44.83153" lon="5.46399">
        <ele>1610.35</ele>
      </trkpt>
      <trkpt lat="44.83153" lon="5.46398">
        <ele>1610.83</ele>
      </trkpt>
      <trkpt lat="44.83154" lon="5.46396">
        <ele>1610.35</ele>
      </trkpt>
      <trkpt lat="44.83154" lon="5.46394">
        <ele>1611.31</ele>
      </trkpt>
      <trkpt lat="44.83155" lon="5.46393">
        <ele>1610.83</ele>
      </trkpt>
      <trkpt lat="44.83155" lon="5.46387">
        <ele>1610.35</ele>
      </trkpt>
      <trkpt lat="44.83155" lon="5.46386">
        <ele>1610.35</ele>
      </trkpt>
      <trkpt lat="44.83156" lon="5.46384">
        <ele>1610.35</ele>
      </trkpt>
      <trkpt lat="44.83156" lon="5.46383">
        <ele>1609.86</ele>
      </trkpt>
      <trkpt lat="44.83157" lon="5.46381">
        <ele>1609.38</ele>
      </trkpt>
      <trkpt lat="44.83158" lon="5.4638">
        <ele>1608.9</ele>
      </trkpt>
      <trkpt lat="44.83159" lon="5.46378">
        <ele>1609.86</ele>
      </trkpt>
      <trkpt lat="44.83159" lon="5.46376">
        <ele>1608.9</ele>
      </trkpt>
      <trkpt lat="44.83164" lon="5.46364">
        <ele>1608.42</ele>
      </trkpt>
      <trkpt lat="44.83164" lon="5.46362">
        <ele>1608.9</ele>
      </trkpt>
      <trkpt lat="44.83164" lon="5.4636">
        <ele>1607.94</ele>
      </trkpt>
      <trkpt lat="44.83165" lon="5.46358">
        <ele>1608.42</ele>
      </trkpt>
      <trkpt lat="44.83165" lon="5.46357">
        <ele>1607.94</ele>
      </trkpt>
      <trkpt lat="44.83165" lon="5.46355">
        <ele>1608.9</ele>
      </trkpt>
      <trkpt lat="44.83166" lon="5.46354">
        <ele>1607.94</ele>
      </trkpt>
      <trkpt lat="44.83173" lon="5.46346">
        <ele>1606.5</ele>
      </trkpt>
      <trkpt lat="44.83174" lon="5.46338">
        <ele>1606.02</ele>
      </trkpt>
      <trkpt lat="44.83177" lon="5.46317">
        <ele>1605.06</ele>
      </trkpt>
      <trkpt lat="44.83183" lon="5.46289">
        <ele>1603.14</ele>
      </trkpt>
      <trkpt lat="44.83185" lon="5.46286">
        <ele>1603.14</ele>
      </trkpt>
      <trkpt lat="44.83188" lon="5.46282">
        <ele>1602.17</ele>
      </trkpt>
      <trkpt lat="44.83189" lon="5.4628">
        <ele>1601.21</ele>
      </trkpt>
      <trkpt lat="44.83189" lon="5.46278">
        <ele>1601.21</ele>
      </trkpt>
      <trkpt lat="44.83189" lon="5.46277">
        <ele>1601.21</ele>
      </trkpt>
      <trkpt lat="44.83189" lon="5.46274">
        <ele>1601.21</ele>
      </trkpt>
      <trkpt lat="44.83191" lon="5.4627">
        <ele>1599.77</ele>
      </trkpt>
      <trkpt lat="44.83191" lon="5.46269">
        <ele>1600.25</ele>
      </trkpt>
      <trkpt lat="44.83191" lon="5.46267">
        <ele>1600.25</ele>
      </trkpt>
      <trkpt lat="44.83192" lon="5.46265">
        <ele>1599.77</ele>
      </trkpt>
      <trkpt lat="44.83199" lon="5.46246">
        <ele>1596.89</ele>
      </trkpt>
      <trkpt lat="44.832" lon="5.46245">
        <ele>1597.37</ele>
      </trkpt>
      <trkpt lat="44.83201" lon="5.46244">
        <ele>1596.89</ele>
      </trkpt>
      <trkpt lat="44.83202" lon="5.46243">
        <ele>1596.89</ele>
      </trkpt>
      <trkpt lat="44.83202" lon="5.46241">
        <ele>1596.41</ele>
      </trkpt>
      <trkpt lat="44.83203" lon="5.4624">
        <ele>1596.41</ele>
      </trkpt>
      <trkpt lat="44.83208" lon="5.46231">
        <ele>1594.96</ele>
      </trkpt>
      <trkpt lat="44.83214" lon="5.46211">
        <ele>1592.56</ele>
      </trkpt>
      <trkpt lat="44.83225" lon="5.46174">
        <ele>1589.68</ele>
      </trkpt>
      <trkpt lat="44.83234" lon="5.46136">
        <ele>1588.24</ele>
      </trkpt>
      <trkpt lat="44.8324" lon="5.46096">
        <ele>1585.83</ele>
      </trkpt>
      <trkpt lat="44.83248" lon="5.46063">
        <ele>1583.91</ele>
      </trkpt>
      <trkpt lat="44.83256" lon="5.46021">
        <ele>1581.99</ele>
      </trkpt>
      <trkpt lat="44.83261" lon="5.45982">
        <ele>1580.54</ele>
      </trkpt>
      <trkpt lat="44.83263" lon="5.45954">
        <ele>1578.62</ele>
      </trkpt>
      <trkpt lat="44.83262" lon="5.45953">
        <ele>1578.14</ele>
      </trkpt>
      <trkpt lat="44.83262" lon="5.4595">
        <ele>1578.14</ele>
      </trkpt>
      <trkpt lat="44.83262" lon="5.45948">
        <ele>1578.14</ele>
      </trkpt>
      <trkpt lat="44.83261" lon="5.45946">
        <ele>1577.66</ele>
      </trkpt>
      <trkpt lat="44.83262" lon="5.45935">
        <ele>1576.7</ele>
      </trkpt>
      <trkpt lat="44.83267" lon="5.4591">
        <ele>1574.78</ele>
      </trkpt>
      <trkpt lat="44.83272" lon="5.45878">
        <ele>1572.37</ele>
      </trkpt>
      <trkpt lat="44.83277" lon="5.45848">
        <ele>1571.41</ele>
      </trkpt>
      <trkpt lat="44.8328" lon="5.45817">
        <ele>1568.53</ele>
      </trkpt>
      <trkpt lat="44.83281" lon="5.45815">
        <ele>1568.05</ele>
      </trkpt>
      <trkpt lat="44.83281" lon="5.45813">
        <ele>1568.05</ele>
      </trkpt>
      <trkpt lat="44.83281" lon="5.4581">
        <ele>1568.05</ele>
      </trkpt>
      <trkpt lat="44.83281" lon="5.45808">
        <ele>1569.49</ele>
      </trkpt>
      <trkpt lat="44.83281" lon="5.45806">
        <ele>1568.05</ele>
      </trkpt>
      <trkpt lat="44.83281" lon="5.4579">
        <ele>1566.61</ele>
      </trkpt>
      <trkpt lat="44.83276" lon="5.45755">
        <ele>1565.16</ele>
      </trkpt>
      <trkpt lat="44.83269" lon="5.45724">
        <ele>1562.28</ele>
      </trkpt>
      <trkpt lat="44.83262" lon="5.45691">
        <ele>1562.28</ele>
      </trkpt>
      <trkpt lat="44.83255" lon="5.45672">
        <ele>1560.84</ele>
      </trkpt>
      <trkpt lat="44.83242" lon="5.45638">
        <ele>1561.32</ele>
      </trkpt>
      <trkpt lat="44.83237" lon="5.45612">
        <ele>1560.36</ele>
      </trkpt>
      <trkpt lat="44.83226" lon="5.4559">
        <ele>1558.92</ele>
      </trkpt>
      <trkpt lat="44.83206" lon="5.4555">
        <ele>1558.43</ele>
      </trkpt>
      <trkpt lat="44.83186" lon="5.45533">
        <ele>1558.43</ele>
      </trkpt>
      <trkpt lat="44.8316" lon="5.45517">
        <ele>1557.95</ele>
      </trkpt>
      <trkpt lat="44.83142" lon="5.45511">
        <ele>1556.51</ele>
      </trkpt>
      <trkpt lat="44.8314" lon="5.45511">
        <ele>1556.51</ele>
      </trkpt>
      <trkpt lat="44.8313" lon="5.45507">
        <ele>1556.03</ele>
      </trkpt>
      <trkpt lat="44.83108" lon="5.45495">
        <ele>1554.59</ele>
      </trkpt>
      <trkpt lat="44.83089" lon="5.45486">
        <ele>1552.67</ele>
      </trkpt>
      <trkpt lat="44.83073" lon="5.45477">
        <ele>1550.26</ele>
      </trkpt>
      <trkpt lat="44.83005" lon="5.4534">
        <ele>1543</ele>
      </trkpt>
      <trkpt lat="44.82731" lon="5.45576">
        <ele>1481.3</ele>
      </trkpt>
      <trkpt lat="44.82641" lon="5.45621">
        <ele>1454.9</ele>
      </trkpt>
      <trkpt lat="44.8261" lon="5.4566">
        <ele>1453.2</ele>
      </trkpt>
      <trkpt lat="44.82537" lon="5.45698">
        <ele>1441.7</ele>
      </trkpt>
      <trkpt lat="44.82511" lon="5.45764">
        <ele>1451</ele>
      </trkpt>
      <trkpt lat="44.82498" lon="5.45872">
        <ele>1457</ele>
      </trkpt>
      <trkpt lat="44.82441" lon="5.45907">
        <ele>1453.2</ele>
      </trkpt>
      <trkpt lat="44.82403" lon="5.45967">
        <ele>1462</ele>
      </trkpt>
      <trkpt lat="44.82357" lon="5.45989">
        <ele>1456.6</ele>
      </trkpt>
      <trkpt lat="44.82334" lon="5.46038">
        <ele>1471.8</ele>
      </trkpt>
      <trkpt lat="44.82328" lon="5.46115">
        <ele>1444</ele>
      </trkpt>
      <trkpt lat="44.82371" lon="5.46213">
        <ele>1488.7</ele>
      </trkpt>
      <trkpt lat="44.82322" lon="5.46359">
        <ele>1459</ele>
      </trkpt>
      <trkpt lat="44.82302" lon="5.46413">
        <ele>1457.5</ele>
      </trkpt>
      <trkpt lat="44.82303" lon="5.46483">
        <ele>1472.6</ele>
      </trkpt>
      <trkpt lat="44.82294" lon="5.46527">
        <ele>1485.3</ele>
      </trkpt>
      <trkpt lat="44.82207" lon="5.46647">
        <ele>1462.7</ele>
      </trkpt>
      <trkpt lat="44.82182" lon="5.46754">
        <ele>1481.9</ele>
      </trkpt>
      <trkpt lat="44.82149" lon="5.46825">
        <ele>1470.1</ele>
      </trkpt>
      <trkpt lat="44.8208" lon="5.46854">
        <ele>1449.3</ele>
      </trkpt>
      <trkpt lat="44.82082" lon="5.47147">
        <ele>1427.5</ele>
      </trkpt>
      <trkpt lat="44.82092" lon="5.4718">
        <ele>1450.4</ele>
      </trkpt>
      <trkpt lat="44.82071" lon="5.47243">
        <ele>1426.9</ele>
      </trkpt>
      <trkpt lat="44.82074" lon="5.47302">
        <ele>1421.1</ele>
      </trkpt>
      <trkpt lat="44.82097" lon="5.47378">
        <ele>1438.7</ele>
      </trkpt>
      <trkpt lat="44.82081" lon="5.47471">
        <ele>1407.3</ele>
      </trkpt>
      <trkpt lat="44.82066" lon="5.47674">
        <ele>1391.3</ele>
      </trkpt>
      <trkpt lat="44.8205" lon="5.47679">
        <ele>1390.4</ele>
      </trkpt>
      <trkpt lat="44.82017" lon="5.47646">
        <ele>1382.4</ele>
      </trkpt>
      <trkpt lat="44.81896" lon="5.47446">
        <ele>1346.3</ele>
      </trkpt>
      <trkpt lat="44.81859" lon="5.4733">
        <ele>1315.4</ele>
      </trkpt>
      <trkpt lat="44.81802" lon="5.47206">
        <ele>1283.4</ele>
      </trkpt>
      <trkpt lat="44.818" lon="5.47165">
        <ele>1270</ele>
      </trkpt>
      <trkpt lat="44.81781" lon="5.47106">
        <ele>1261.5</ele>
      </trkpt>
      <trkpt lat="44.81707" lon="5.47052">
        <ele>1239.9</ele>
      </trkpt>
      <trkpt lat="44.81654" lon="5.46973">
        <ele>1219.3</ele>
      </trkpt>
      <trkpt lat="44.81574" lon="5.4678">
        <ele>1173.7</ele>
      </trkpt>
      <trkpt lat="44.81349" lon="5.46478">
        <ele>1102.5</ele>
      </trkpt>
      <trkpt lat="44.81214" lon="5.46418">
        <ele>1102.7</ele>
      </trkpt>
      <trkpt lat="44.81119" lon="5.46261">
        <ele>1073.3</ele>
      </trkpt>
      <trkpt lat="44.81106" lon="5.46076">
        <ele>1034.7</ele>
      </trkpt>
      <trkpt lat="44.81093" lon="5.45952">
        <ele>1017.5</ele>
      </trkpt>
      <trkpt lat="44.81051" lon="5.459">
        <ele>1014.7</ele>
      </trkpt>
      <trkpt lat="44.81008" lon="5.45943">
        <ele>1034.7</ele>
      </trkpt>
      <trkpt lat="44.80961" lon="5.45797">
        <ele>1054</ele>
      </trkpt>
      <trkpt lat="44.80985" lon="5.45752">
        <ele>1042.7</ele>
      </trkpt>
      <trkpt lat="44.81014" lon="5.45651">
        <ele>1028.4</ele>
      </trkpt>
      <trkpt lat="44.80961" lon="5.4554">
        <ele>1045.7</ele>
      </trkpt>
      <trkpt lat="44.80882" lon="5.45527">
        <ele>1057.8</ele>
      </trkpt>
      <trkpt lat="44.80771" lon="5.45531">
        <ele>1088.2</ele>
      </trkpt>
      <trkpt lat="44.80788" lon="5.45481">
        <ele>1077.2</ele>
      </trkpt>
      <trkpt lat="44.80818" lon="5.4545">
        <ele>1071.7</ele>
      </trkpt>
      <trkpt lat="44.80819" lon="5.45392">
        <ele>1080.3</ele>
      </trkpt>
      <trkpt lat="44.80829" lon="5.45335">
        <ele>1078.6</ele>
      </trkpt>
      <trkpt lat="44.80854" lon="5.45278">
        <ele>1062</ele>
      </trkpt>
      <trkpt lat="44.80879" lon="5.45094">
        <ele>1060.6</ele>
      </trkpt>
      <trkpt lat="44.80848" lon="5.4504">
        <ele>1045.1</ele>
      </trkpt>
      <trkpt lat="44.80786" lon="5.45034">
        <ele>1074.9</ele>
      </trkpt>
      <trkpt lat="44.80818" lon="5.45102">
        <ele>1097.9</ele>
      </trkpt>
      <trkpt lat="44.80812" lon="5.45246">
        <ele>1106.6</ele>
      </trkpt>
      <trkpt lat="44.80739" lon="5.45407">
        <ele>1124</ele>
      </trkpt>
      <trkpt lat="44.80736" lon="5.45312">
        <ele>1148.6</ele>
      </trkpt>
      <trkpt lat="44.80768" lon="5.45207">
        <ele>1122.1</ele>
      </trkpt>
      <trkpt lat="44.80685" lon="5.45094">
        <ele>1142.3</ele>
      </trkpt>
      <trkpt lat="44.8057" lon="5.45085">
        <ele>1194.5</ele>
      </trkpt>
      <trkpt lat="44.8051" lon="5.449">
        <ele>1169</ele>
      </trkpt>
      <trkpt lat="44.80437" lon="5.4483">
        <ele>1192.5</ele>
      </trkpt>
      <trkpt lat="44.80387" lon="5.4474">
        <ele>1205</ele>
      </trkpt>
      <trkpt lat="44.80369" lon="5.44643">
        <ele>1187.1</ele>
      </trkpt>
      <trkpt lat="44.80294" lon="5.4454">
        <ele>1203.5</ele>
      </trkpt>
      <trkpt lat="44.80113" lon="5.44383">
        <ele>1239.1</ele>
      </trkpt>
      <trkpt lat="44.8002" lon="5.44199">
        <ele>1235.2</ele>
      </trkpt>
      <trkpt lat="44.79888" lon="5.44149">
        <ele>1268.8</ele>
      </trkpt>
      <trkpt lat="44.79773" lon="5.44007">
        <ele>1275.9</ele>
      </trkpt>
      <trkpt lat="44.79701" lon="5.43956">
        <ele>1281.1</ele>
      </trkpt>
      <trkpt lat="44.79751" lon="5.44034">
        <ele>1280.5</ele>
      </trkpt>
      <trkpt lat="44.79718" lon="5.44026">
        <ele>1292</ele>
      </trkpt>
      <trkpt lat="44.79774" lon="5.44092">
        <ele>1296.4</ele>
      </trkpt>
      <trkpt lat="44.79733" lon="5.44081">
        <ele>1298.5</ele>
      </trkpt>
      <trkpt lat="44.7975" lon="5.44166">
        <ele>1298.7</ele>
      </trkpt>
      <trkpt lat="44.79785" lon="5.44207">
        <ele>1298.6</ele>
      </trkpt>
      <trkpt lat="44.79805" lon="5.44264">
        <ele>1307.7</ele>
      </trkpt>
      <trkpt lat="44.79799" lon="5.44349">
        <ele>1321.5</ele>
      </trkpt>
      <trkpt lat="44.79716" lon="5.44606">
        <ele>1368.1</ele>
      </trkpt>
      <trkpt lat="44.79556" lon="5.44642">
        <ele>1259</ele>
      </trkpt>
      <trkpt lat="44.79559" lon="5.44701">
        <ele>1279</ele>
      </trkpt>
      <trkpt lat="44.79683" lon="5.44869">
        <ele>1329.9</ele>
      </trkpt>
      <trkpt lat="44.79687" lon="5.44948">
        <ele>1324</ele>
      </trkpt>
      <trkpt lat="44.79661" lon="5.45003">
        <ele>1295.9</ele>
      </trkpt>
      <trkpt lat="44.79686" lon="5.45099">
        <ele>1320.9</ele>
      </trkpt>
      <trkpt lat="44.79628" lon="5.45154">
        <ele>1284.1</ele>
      </trkpt>
      <trkpt lat="44.79628" lon="5.45265">
        <ele>1311.4</ele>
      </trkpt>
      <trkpt lat="44.7961" lon="5.45296">
        <ele>1309</ele>
      </trkpt>
      <trkpt lat="44.79575" lon="5.45448">
        <ele>1308.9</ele>
      </trkpt>
      <trkpt lat="44.79419" lon="5.45576">
        <ele>1293.4</ele>
      </trkpt>
      <trkpt lat="44.79371" lon="5.45672">
        <ele>1304.4</ele>
      </trkpt>
      <trkpt lat="44.79236" lon="5.45791">
        <ele>1287.2</ele>
      </trkpt>
      <trkpt lat="44.79137" lon="5.45864">
        <ele>1301.3</ele>
      </trkpt>
      <trkpt lat="44.79059" lon="5.45817">
        <ele>1292</ele>
      </trkpt>
      <trkpt lat="44.79001" lon="5.45684">
        <ele>1266.7</ele>
      </trkpt>
      <trkpt lat="44.78916" lon="5.45611">
        <ele>1288.6</ele>
      </trkpt>
      <trkpt lat="44.78883" lon="5.45536">
        <ele>1269.7</ele>
      </trkpt>
      <trkpt lat="44.78781" lon="5.45426">
        <ele>1271.1</ele>
      </trkpt>
      <trkpt lat="44.78648" lon="5.45388">
        <ele>1279.1</ele>
      </trkpt>
      <trkpt lat="44.78596" lon="5.45276">
        <ele>1263.9</ele>
      </trkpt>
      <trkpt lat="44.78564" lon="5.45081">
        <ele>1234.3</ele>
      </trkpt>
      <trkpt lat="44.78503" lon="5.45046">
        <ele>1240.1</ele>
      </trkpt>
      <trkpt lat="44.78438" lon="5.45186">
        <ele>1276</ele>
      </trkpt>
      <trkpt lat="44.78325" lon="5.45212">
        <ele>1221.7</ele>
      </trkpt>
      <trkpt lat="44.78237" lon="5.45334">
        <ele>1254.1</ele>
      </trkpt>
      <trkpt lat="44.78115" lon="5.45267">
        <ele>1233.4</ele>
      </trkpt>
      <trkpt lat="44.78075" lon="5.45171">
        <ele>1213.3</ele>
      </trkpt>
      <trkpt lat="44.77989" lon="5.45111">
        <ele>1220.4</ele>
      </trkpt>
      <trkpt lat="44.77938" lon="5.4499">
        <ele>1179.2</ele>
      </trkpt>
      <trkpt lat="44.7785" lon="5.45025">
        <ele>1197.3</ele>
      </trkpt>
      <trkpt lat="44.77554" lon="5.45049">
        <ele>1155.4</ele>
      </trkpt>
      <trkpt lat="44.77506" lon="5.45085">
        <ele>1168</ele>
      </trkpt>
      <trkpt lat="44.77445" lon="5.45051">
        <ele>1150.2</ele>
      </trkpt>
      <trkpt lat="44.7737" lon="5.45046">
        <ele>1170.9</ele>
      </trkpt>
      <trkpt lat="44.77367" lon="5.44976">
        <ele>1137.6</ele>
      </trkpt>
      <trkpt lat="44.77305" lon="5.44862">
        <ele>1148.9</ele>
      </trkpt>
      <trkpt lat="44.77261" lon="5.4466">
        <ele>1109.5</ele>
      </trkpt>
      <trkpt lat="44.77161" lon="5.44508">
        <ele>1104.5</ele>
      </trkpt>
      <trkpt lat="44.77101" lon="5.44501">
        <ele>1116.1</ele>
      </trkpt>
      <trkpt lat="44.7704" lon="5.44643">
        <ele>1137</ele>
      </trkpt>
      <trkpt lat="44.76965" lon="5.44677">
        <ele>1147.2</ele>
      </trkpt>
      <trkpt lat="44.76823" lon="5.44506">
        <ele>1097.9</ele>
      </trkpt>
      <trkpt lat="44.76956" lon="5.44574">
        <ele>1096.2</ele>
      </trkpt>
      <trkpt lat="44.76867" lon="5.44465">
        <ele>1069.2</ele>
      </trkpt>
      <trkpt lat="44.76787" lon="5.44452">
        <ele>1068.1</ele>
      </trkpt>
      <trkpt lat="44.76746" lon="5.4448">
        <ele>1076.7</ele>
      </trkpt>
      <trkpt lat="44.76685" lon="5.44424">
        <ele>1064.8</ele>
      </trkpt>
      <trkpt lat="44.76567" lon="5.44368">
        <ele>1041.9</ele>
      </trkpt>
      <trkpt lat="44.76508" lon="5.44392">
        <ele>1041.6</ele>
      </trkpt>
      <trkpt lat="44.76471" lon="5.44495">
        <ele>1040.2</ele>
      </trkpt>
      <trkpt lat="44.76459" lon="5.44626">
        <ele>1069</ele>
      </trkpt>
      <trkpt lat="44.76417" lon="5.44632">
        <ele>1068.2</ele>
      </trkpt>
      <trkpt lat="44.76328" lon="5.44579">
        <ele>1071</ele>
      </trkpt>
      <trkpt lat="44.76284" lon="5.44527">
        <ele>1056.5</ele>
      </trkpt>
      <trkpt lat="44.76177" lon="5.44609">
        <ele>1074.9</ele>
      </trkpt>
      <trkpt lat="44.76144" lon="5.44727">
        <ele>1091.1</ele>
      </trkpt>
      <trkpt lat="44.75982" lon="5.44645">
        <ele>1092.8</ele>
      </trkpt>
      <trkpt lat="44.75906" lon="5.44641">
        <ele>1123.3</ele>
      </trkpt>
      <trkpt lat="44.75798" lon="5.44559">
        <ele>1122</ele>
      </trkpt>
      <trkpt lat="44.75675" lon="5.44628">
        <ele>1114.2</ele>
      </trkpt>
      <trkpt lat="44.75469" lon="5.44628">
        <ele>1076.5</ele>
      </trkpt>
      <trkpt lat="44.75303" lon="5.44624">
        <ele>1071.4</ele>
      </trkpt>
      <trkpt lat="44.75182" lon="5.44441">
        <ele>1019.4</ele>
      </trkpt>
      <trkpt lat="44.7507" lon="5.44437">
        <ele>1006.1</ele>
      </trkpt>
      <trkpt lat="44.7496" lon="5.44506">
        <ele>992.1</ele>
      </trkpt>
      <trkpt lat="44.74917" lon="5.44596">
        <ele>1009.1</ele>
      </trkpt>
      <trkpt lat="44.74765" lon="5.44561">
        <ele>974.1</ele>
      </trkpt>
      <trkpt lat="44.74548" lon="5.44407">
        <ele>968.1</ele>
      </trkpt>
      <trkpt lat="44.74515" lon="5.4421">
        <ele>907.3</ele>
      </trkpt>
      <trkpt lat="44.74603" lon="5.443">
        <ele>898.3</ele>
      </trkpt>
      <trkpt lat="44.74591" lon="5.4422">
        <ele>871.6</ele>
      </trkpt>
      <trkpt lat="44.74539" lon="5.44132">
        <ele>854.7</ele>
      </trkpt>
      <trkpt lat="44.74643" lon="5.44179">
        <ele>847.7</ele>
      </trkpt>
      <trkpt lat="44.74657" lon="5.44274">
        <ele>876.4</ele>
      </trkpt>
      <trkpt lat="44.74814" lon="5.44263">
        <ele>853.9</ele>
      </trkpt>
      <trkpt lat="44.74705" lon="5.44162">
        <ele>810.1</ele>
      </trkpt>
      <trkpt lat="44.74606" lon="5.44061">
        <ele>797.7</ele>
      </trkpt>
      <trkpt lat="44.74564" lon="5.44001">
        <ele>796.2</ele>
      </trkpt>
      <trkpt lat="44.74492" lon="5.4398">
        <ele>795.9</ele>
      </trkpt>
      <trkpt lat="44.74576" lon="5.4395">
        <ele>769.4</ele>
      </trkpt>
      <trkpt lat="44.74619" lon="5.43991">
        <ele>767.5</ele>
      </trkpt>
      <trkpt lat="44.74707" lon="5.43993">
        <ele>768.2</ele>
      </trkpt>
      <trkpt lat="44.74622" lon="5.43577">
        <ele>695.2</ele>
      </trkpt>
      <trkpt lat="44.74571" lon="5.4357">
        <ele>697.3</ele>
      </trkpt>
      <trkpt lat="44.74535" lon="5.43381">
        <ele>680.2</ele>
      </trkpt>
      <trkpt lat="44.74547" lon="5.43246">
        <ele>663.3</ele>
      </trkpt>
      <trkpt lat="44.74623" lon="5.43285">
        <ele>667</ele>
      </trkpt>
      <trkpt lat="44.74646" lon="5.43177">
        <ele>662.9</ele>
      </trkpt>
      <trkpt lat="44.7466" lon="5.42978">
        <ele>648.7</ele>
      </trkpt>
      <trkpt lat="44.74737" lon="5.42935">
        <ele>654.7</ele>
      </trkpt>
      <trkpt lat="44.74818" lon="5.42952">
        <ele>662.5</ele>
      </trkpt>
      <trkpt lat="44.74807" lon="5.42894">
        <ele>655.5</ele>
      </trkpt>
      <trkpt lat="44.74903" lon="5.42836">
        <ele>669.2</ele>
      </trkpt>
      <trkpt lat="44.74942" lon="5.42695">
        <ele>674.6</ele>
      </trkpt>
      <trkpt lat="44.75053" lon="5.42624">
        <ele>704.1</ele>
      </trkpt>
      <trkpt lat="44.75025" lon="5.42544">
        <ele>708.7</ele>
      </trkpt>
      <trkpt lat="44.75071" lon="5.4239">
        <ele>722</ele>
      </trkpt>
      <trkpt lat="44.75096" lon="5.42195">
        <ele>727.7</ele>
      </trkpt>
      <trkpt lat="44.75036" lon="5.4213">
        <ele>734.5</ele>
      </trkpt>
      <trkpt lat="44.74926" lon="5.42092">
        <ele>746</ele>
      </trkpt>
      <trkpt lat="44.749" lon="5.42008">
        <ele>755.3</ele>
      </trkpt>
      <trkpt lat="44.74934" lon="5.41881">
        <ele>760.9</ele>
      </trkpt>
      <trkpt lat="44.75094" lon="5.41774">
        <ele>762</ele>
      </trkpt>
      <trkpt lat="44.75146" lon="5.41669">
        <ele>773</ele>
      </trkpt>
      <trkpt lat="44.75184" lon="5.41416">
        <ele>812.7</ele>
      </trkpt>
      <trkpt lat="44.75117" lon="5.41454">
        <ele>822.3</ele>
      </trkpt>
      <trkpt lat="44.75053" lon="5.41519">
        <ele>827.6</ele>
      </trkpt>
      <trkpt lat="44.74958" lon="5.4157">
        <ele>843.5</ele>
      </trkpt>
      <trkpt lat="44.74812" lon="5.4157">
        <ele>855.8</ele>
      </trkpt>
      <trkpt lat="44.74963" lon="5.41392">
        <ele>893.2</ele>
      </trkpt>
      <trkpt lat="44.7512" lon="5.41049">
        <ele>942.5</ele>
      </trkpt>
      <trkpt lat="44.74879" lon="5.41229">
        <ele>972.3</ele>
      </trkpt>
      <trkpt lat="44.74777" lon="5.41251">
        <ele>965.7</ele>
      </trkpt>
      <trkpt lat="44.74708" lon="5.41227">
        <ele>969.9</ele>
      </trkpt>
      <trkpt lat="44.74766" lon="5.41083">
        <ele>972.3</ele>
      </trkpt>
      <trkpt lat="44.74856" lon="5.40967">
        <ele>966.2</ele>
      </trkpt>
      <trkpt lat="44.74711" lon="5.41057">
        <ele>936.9</ele>
      </trkpt>
      <trkpt lat="44.74824" lon="5.40881">
        <ele>905</ele>
      </trkpt>
      <trkpt lat="44.74678" lon="5.40933">
        <ele>887</ele>
      </trkpt>
      <trkpt lat="44.74736" lon="5.4083">
        <ele>854.3</ele>
      </trkpt>
      <trkpt lat="44.74657" lon="5.40892">
        <ele>847.5</ele>
      </trkpt>
      <trkpt lat="44.74608" lon="5.40974">
        <ele>859</ele>
      </trkpt>
      <trkpt lat="44.74492" lon="5.41034">
        <ele>802.6</ele>
      </trkpt>
      <trkpt lat="44.74428" lon="5.41242">
        <ele>801.1</ele>
      </trkpt>
      <trkpt lat="44.74391" lon="5.41487">
        <ele>777.5</ele>
      </trkpt>
      <trkpt lat="44.74367" lon="5.41105">
        <ele>743.7</ele>
      </trkpt>
      <trkpt lat="44.74349" lon="5.40967">
        <ele>731.1</ele>
      </trkpt>
      <trkpt lat="44.74381" lon="5.40871">
        <ele>719.8</ele>
      </trkpt>
      <trkpt lat="44.74417" lon="5.40832">
        <ele>723.6</ele>
      </trkpt>
      <trkpt lat="44.74445" lon="5.40628">
        <ele>698.8</ele>
      </trkpt>
      <trkpt lat="44.74309" lon="5.4077">
        <ele>654.5</ele>
      </trkpt>
      <trkpt lat="44.74362" lon="5.40671">
        <ele>661</ele>
      </trkpt>
      <trkpt lat="44.74315" lon="5.4069">
        <ele>628.7</ele>
      </trkpt>
      <trkpt lat="44.74337" lon="5.4063">
        <ele>642.4</ele>
      </trkpt>
      <trkpt lat="44.74332" lon="5.40555">
        <ele>598.2</ele>
      </trkpt>
      <trkpt lat="44.74431" lon="5.40439">
        <ele>639</ele>
      </trkpt>
      <trkpt lat="44.74443" lon="5.40251">
        <ele>600.8</ele>
      </trkpt>
      <trkpt lat="44.74393" lon="5.40139">
        <ele>572.3</ele>
      </trkpt>
      <trkpt lat="44.74399" lon="5.3998">
        <ele>550.1</ele>
      </trkpt>
      <trkpt lat="44.74355" lon="5.39922">
        <ele>544.1</ele>
      </trkpt>
      <trkpt lat="44.7427" lon="5.39886">
        <ele>528.4</ele>
      </trkpt>
      <trkpt lat="44.74346" lon="5.39869">
        <ele>521</ele>
      </trkpt>
      <trkpt lat="44.74288" lon="5.39815">
        <ele>505.6</ele>
      </trkpt>
      <trkpt lat="44.74225" lon="5.39841">
        <ele>518.5</ele>
      </trkpt>
      <trkpt lat="44.74219" lon="5.39622">
        <ele>472.1</ele>
      </trkpt>
      <trkpt lat="44.74239" lon="5.39534">
        <ele>463</ele>
      </trkpt>
      <trkpt lat="44.74151" lon="5.39191">
        <ele>438.8</ele>
      </trkpt>
      <trkpt lat="44.74343" lon="5.39019">
        <ele>437.8</ele>
      </trkpt>
      <trkpt lat="44.74394" lon="5.38914">
        <ele>424.8</ele>
      </trkpt>
      <trkpt lat="44.74468" lon="5.38827">
        <ele>424.4</ele>
      </trkpt>
      <trkpt lat="44.74514" lon="5.38742">
        <ele>421.1</ele>
      </trkpt>
      <trkpt lat="44.74609" lon="5.38621">
        <ele>417.1</ele>
      </trkpt>
      <trkpt lat="44.74617" lon="5.38525">
        <ele>412</ele>
      </trkpt>
      <trkpt lat="44.74664" lon="5.38426">
        <ele>406.8</ele>
      </trkpt>
      <trkpt lat="44.74763" lon="5.38408">
        <ele>411.3</ele>
      </trkpt>
      <trkpt lat="44.74771" lon="5.38363">
        <ele>410.9</ele>
      </trkpt>
      <trkpt lat="44.74843" lon="5.38271">
        <ele>410.3</ele>
      </trkpt>
      <trkpt lat="44.74842" lon="5.38208">
        <ele>408.3</ele>
      </trkpt>
      <trkpt lat="44.74839" lon="5.3806">
        <ele>406.3</ele>
      </trkpt>
      <trkpt lat="44.74965" lon="5.37828">
        <ele>408.8</ele>
      </trkpt>
      <trkpt lat="44.75115" lon="5.37606">
        <ele>415.4</ele>
      </trkpt>
      <trkpt lat="44.75344" lon="5.37296">
        <ele>424.4</ele>
      </trkpt>
    </trkseg>
  </trk>
</gpx>